<?xml version="1.0" encoding="UTF-8" standalone="no" ?>
<gpx xmlns="http://www.topografix.com/GPX/1/1" xmlns:xsi="http://www.w3.org/2001/XMLSchema-instance" xsi:schemaLocation="http://www.topografix.com/GPX/1/1 http://www.topografix.com/GPX/1/1/gpx.xsd" version="1.1" creator="VisuGPX - https://www.visugpx.com">
  <metadata>
    <name>[01/05/2017] Forêt de Bord</name>
    <desc><![CDATA[Rando du 1er mai en forêt de Bord au départ de Val-de-Reuil]]></desc>
  </metadata>
  <trk>
    <name><![CDATA[[01/05/2017] Forêt de Bord_1]]></name>
    <trkseg>
      <trkpt lat="49.27183" lon="1.1985">
        <ele>26.028873</ele>
        <time>2017-05-01T06:05:17Z</time>
      </trkpt>
      <trkpt lat="49.27183" lon="1.1985">
        <ele>26.028873</ele>
        <time>2017-05-01T06:05:18Z</time>
      </trkpt>
      <trkpt lat="49.27193" lon="1.19852">
        <ele>25.3</ele>
        <time>2017-05-01T06:06:22Z</time>
      </trkpt>
      <trkpt lat="49.27204" lon="1.19844">
        <ele>25.6</ele>
        <time>2017-05-01T06:06:26Z</time>
      </trkpt>
      <trkpt lat="49.27208" lon="1.19831">
        <ele>25.7</ele>
        <time>2017-05-01T06:06:29Z</time>
      </trkpt>
      <trkpt lat="49.2721" lon="1.19814">
        <ele>25.8</ele>
        <time>2017-05-01T06:06:32Z</time>
      </trkpt>
      <trkpt lat="49.27213" lon="1.19797">
        <ele>25.9</ele>
        <time>2017-05-01T06:06:35Z</time>
      </trkpt>
      <trkpt lat="49.27215" lon="1.19781">
        <ele>25.9</ele>
        <time>2017-05-01T06:06:38Z</time>
      </trkpt>
      <trkpt lat="49.27217" lon="1.19765">
        <ele>25.9</ele>
        <time>2017-05-01T06:06:41Z</time>
      </trkpt>
      <trkpt lat="49.27219" lon="1.1975">
        <ele>25.9</ele>
        <time>2017-05-01T06:06:44Z</time>
      </trkpt>
      <trkpt lat="49.27226" lon="1.19741">
        <ele>26</ele>
        <time>2017-05-01T06:06:48Z</time>
      </trkpt>
      <trkpt lat="49.27234" lon="1.19733">
        <ele>26</ele>
        <time>2017-05-01T06:06:53Z</time>
      </trkpt>
      <trkpt lat="49.27246" lon="1.19734">
        <ele>26.3</ele>
        <time>2017-05-01T06:06:57Z</time>
      </trkpt>
      <trkpt lat="49.27254" lon="1.19727">
        <ele>26.6</ele>
        <time>2017-05-01T06:07:00Z</time>
      </trkpt>
      <trkpt lat="49.27263" lon="1.19717">
        <ele>26.8</ele>
        <time>2017-05-01T06:07:04Z</time>
      </trkpt>
      <trkpt lat="49.27272" lon="1.1971">
        <ele>27</ele>
        <time>2017-05-01T06:07:07Z</time>
      </trkpt>
      <trkpt lat="49.27276" lon="1.19694">
        <ele>27.2</ele>
        <time>2017-05-01T06:07:11Z</time>
      </trkpt>
      <trkpt lat="49.27285" lon="1.19686">
        <ele>27.3</ele>
        <time>2017-05-01T06:07:15Z</time>
      </trkpt>
      <trkpt lat="49.27293" lon="1.19679">
        <ele>27.4</ele>
        <time>2017-05-01T06:07:18Z</time>
      </trkpt>
      <trkpt lat="49.27302" lon="1.19671">
        <ele>27.5</ele>
        <time>2017-05-01T06:07:21Z</time>
      </trkpt>
      <trkpt lat="49.27307" lon="1.1966">
        <ele>27.5</ele>
        <time>2017-05-01T06:07:25Z</time>
      </trkpt>
      <trkpt lat="49.27298" lon="1.19665">
        <ele>27.8</ele>
        <time>2017-05-01T06:07:31Z</time>
      </trkpt>
      <trkpt lat="49.27292" lon="1.19677">
        <ele>27.8</ele>
        <time>2017-05-01T06:07:35Z</time>
      </trkpt>
      <trkpt lat="49.27282" lon="1.19687">
        <ele>27.6</ele>
        <time>2017-05-01T06:07:39Z</time>
      </trkpt>
      <trkpt lat="49.27273" lon="1.19693">
        <ele>27.6</ele>
        <time>2017-05-01T06:07:42Z</time>
      </trkpt>
      <trkpt lat="49.27266" lon="1.19679">
        <ele>27.5</ele>
        <time>2017-05-01T06:07:46Z</time>
      </trkpt>
      <trkpt lat="49.27262" lon="1.19665">
        <ele>27.5</ele>
        <time>2017-05-01T06:07:49Z</time>
      </trkpt>
      <trkpt lat="49.2726" lon="1.1965">
        <ele>27.4</ele>
        <time>2017-05-01T06:07:52Z</time>
      </trkpt>
      <trkpt lat="49.27254" lon="1.19635">
        <ele>27.4</ele>
        <time>2017-05-01T06:07:55Z</time>
      </trkpt>
      <trkpt lat="49.27249" lon="1.19623">
        <ele>27.5</ele>
        <time>2017-05-01T06:07:58Z</time>
      </trkpt>
      <trkpt lat="49.27244" lon="1.19609">
        <ele>27.6</ele>
        <time>2017-05-01T06:08:01Z</time>
      </trkpt>
      <trkpt lat="49.27238" lon="1.196">
        <ele>27.7</ele>
        <time>2017-05-01T06:08:04Z</time>
      </trkpt>
      <trkpt lat="49.27235" lon="1.19586">
        <ele>27.9</ele>
        <time>2017-05-01T06:08:07Z</time>
      </trkpt>
      <trkpt lat="49.27234" lon="1.1957">
        <ele>28.2</ele>
        <time>2017-05-01T06:08:10Z</time>
      </trkpt>
      <trkpt lat="49.27224" lon="1.19563">
        <ele>28.4</ele>
        <time>2017-05-01T06:08:13Z</time>
      </trkpt>
      <trkpt lat="49.27214" lon="1.19557">
        <ele>28.6</ele>
        <time>2017-05-01T06:08:16Z</time>
      </trkpt>
      <trkpt lat="49.27207" lon="1.19543">
        <ele>28.8</ele>
        <time>2017-05-01T06:08:19Z</time>
      </trkpt>
      <trkpt lat="49.272" lon="1.19527">
        <ele>29</ele>
        <time>2017-05-01T06:08:22Z</time>
      </trkpt>
      <trkpt lat="49.27194" lon="1.19512">
        <ele>29.2</ele>
        <time>2017-05-01T06:08:25Z</time>
      </trkpt>
      <trkpt lat="49.27191" lon="1.19495">
        <ele>29.4</ele>
        <time>2017-05-01T06:08:28Z</time>
      </trkpt>
      <trkpt lat="49.27193" lon="1.19477">
        <ele>29.7</ele>
        <time>2017-05-01T06:08:31Z</time>
      </trkpt>
      <trkpt lat="49.27194" lon="1.19461">
        <ele>30</ele>
        <time>2017-05-01T06:08:34Z</time>
      </trkpt>
      <trkpt lat="49.27196" lon="1.19444">
        <ele>30.3</ele>
        <time>2017-05-01T06:08:37Z</time>
      </trkpt>
      <trkpt lat="49.27198" lon="1.19427">
        <ele>30.5</ele>
        <time>2017-05-01T06:08:40Z</time>
      </trkpt>
      <trkpt lat="49.27199" lon="1.1941">
        <ele>30.8</ele>
        <time>2017-05-01T06:08:43Z</time>
      </trkpt>
      <trkpt lat="49.27201" lon="1.19393">
        <ele>31</ele>
        <time>2017-05-01T06:08:46Z</time>
      </trkpt>
      <trkpt lat="49.27203" lon="1.19376">
        <ele>31.2</ele>
        <time>2017-05-01T06:08:49Z</time>
      </trkpt>
      <trkpt lat="49.27205" lon="1.19358">
        <ele>31.5</ele>
        <time>2017-05-01T06:08:52Z</time>
      </trkpt>
      <trkpt lat="49.27207" lon="1.1934">
        <ele>31.7</ele>
        <time>2017-05-01T06:08:55Z</time>
      </trkpt>
      <trkpt lat="49.27209" lon="1.19321">
        <ele>32</ele>
        <time>2017-05-01T06:08:58Z</time>
      </trkpt>
      <trkpt lat="49.27212" lon="1.19303">
        <ele>32.3</ele>
        <time>2017-05-01T06:09:01Z</time>
      </trkpt>
      <trkpt lat="49.27214" lon="1.19285">
        <ele>32.6</ele>
        <time>2017-05-01T06:09:04Z</time>
      </trkpt>
      <trkpt lat="49.27209" lon="1.19272">
        <ele>33</ele>
        <time>2017-05-01T06:09:07Z</time>
      </trkpt>
      <trkpt lat="49.27197" lon="1.19267">
        <ele>33.4</ele>
        <time>2017-05-01T06:09:10Z</time>
      </trkpt>
      <trkpt lat="49.27185" lon="1.19262">
        <ele>33.7</ele>
        <time>2017-05-01T06:09:13Z</time>
      </trkpt>
      <trkpt lat="49.27176" lon="1.19257">
        <ele>33.9</ele>
        <time>2017-05-01T06:09:15Z</time>
      </trkpt>
      <trkpt lat="49.27167" lon="1.19253">
        <ele>34</ele>
        <time>2017-05-01T06:09:17Z</time>
      </trkpt>
      <trkpt lat="49.27157" lon="1.19249">
        <ele>34.2</ele>
        <time>2017-05-01T06:09:19Z</time>
      </trkpt>
      <trkpt lat="49.27148" lon="1.19245">
        <ele>34.3</ele>
        <time>2017-05-01T06:09:21Z</time>
      </trkpt>
      <trkpt lat="49.27138" lon="1.19241">
        <ele>34.4</ele>
        <time>2017-05-01T06:09:23Z</time>
      </trkpt>
      <trkpt lat="49.27129" lon="1.19237">
        <ele>34.5</ele>
        <time>2017-05-01T06:09:25Z</time>
      </trkpt>
      <trkpt lat="49.2712" lon="1.19233">
        <ele>34.6</ele>
        <time>2017-05-01T06:09:27Z</time>
      </trkpt>
      <trkpt lat="49.2711" lon="1.1923">
        <ele>34.6</ele>
        <time>2017-05-01T06:09:29Z</time>
      </trkpt>
      <trkpt lat="49.27101" lon="1.19227">
        <ele>34.6</ele>
        <time>2017-05-01T06:09:31Z</time>
      </trkpt>
      <trkpt lat="49.27091" lon="1.19223">
        <ele>34.6</ele>
        <time>2017-05-01T06:09:33Z</time>
      </trkpt>
      <trkpt lat="49.27081" lon="1.1922">
        <ele>34.6</ele>
        <time>2017-05-01T06:09:35Z</time>
      </trkpt>
      <trkpt lat="49.27072" lon="1.19216">
        <ele>34.6</ele>
        <time>2017-05-01T06:09:37Z</time>
      </trkpt>
      <trkpt lat="49.27062" lon="1.19212">
        <ele>34.5</ele>
        <time>2017-05-01T06:09:39Z</time>
      </trkpt>
      <trkpt lat="49.27053" lon="1.19208">
        <ele>34.5</ele>
        <time>2017-05-01T06:09:41Z</time>
      </trkpt>
      <trkpt lat="49.27043" lon="1.19205">
        <ele>34.5</ele>
        <time>2017-05-01T06:09:43Z</time>
      </trkpt>
      <trkpt lat="49.27033" lon="1.19201">
        <ele>34.4</ele>
        <time>2017-05-01T06:09:45Z</time>
      </trkpt>
      <trkpt lat="49.27023" lon="1.19198">
        <ele>34.4</ele>
        <time>2017-05-01T06:09:47Z</time>
      </trkpt>
      <trkpt lat="49.27013" lon="1.19194">
        <ele>34.4</ele>
        <time>2017-05-01T06:09:49Z</time>
      </trkpt>
      <trkpt lat="49.27003" lon="1.19191">
        <ele>34.3</ele>
        <time>2017-05-01T06:09:51Z</time>
      </trkpt>
      <trkpt lat="49.26994" lon="1.19188">
        <ele>34.2</ele>
        <time>2017-05-01T06:09:53Z</time>
      </trkpt>
      <trkpt lat="49.26984" lon="1.19185">
        <ele>34.2</ele>
        <time>2017-05-01T06:09:55Z</time>
      </trkpt>
      <trkpt lat="49.26974" lon="1.19182">
        <ele>34.1</ele>
        <time>2017-05-01T06:09:57Z</time>
      </trkpt>
      <trkpt lat="49.26963" lon="1.19179">
        <ele>34</ele>
        <time>2017-05-01T06:09:59Z</time>
      </trkpt>
      <trkpt lat="49.26953" lon="1.19176">
        <ele>34</ele>
        <time>2017-05-01T06:10:01Z</time>
      </trkpt>
      <trkpt lat="49.26943" lon="1.19174">
        <ele>34</ele>
        <time>2017-05-01T06:10:03Z</time>
      </trkpt>
      <trkpt lat="49.26932" lon="1.19171">
        <ele>33.9</ele>
        <time>2017-05-01T06:10:05Z</time>
      </trkpt>
      <trkpt lat="49.26922" lon="1.19169">
        <ele>33.9</ele>
        <time>2017-05-01T06:10:07Z</time>
      </trkpt>
      <trkpt lat="49.26912" lon="1.19166">
        <ele>33.8</ele>
        <time>2017-05-01T06:10:09Z</time>
      </trkpt>
      <trkpt lat="49.26901" lon="1.19163">
        <ele>33.8</ele>
        <time>2017-05-01T06:10:11Z</time>
      </trkpt>
      <trkpt lat="49.26891" lon="1.19159">
        <ele>33.7</ele>
        <time>2017-05-01T06:10:13Z</time>
      </trkpt>
      <trkpt lat="49.26881" lon="1.19156">
        <ele>33.7</ele>
        <time>2017-05-01T06:10:15Z</time>
      </trkpt>
      <trkpt lat="49.26871" lon="1.19153">
        <ele>33.7</ele>
        <time>2017-05-01T06:10:17Z</time>
      </trkpt>
      <trkpt lat="49.26861" lon="1.19149">
        <ele>33.7</ele>
        <time>2017-05-01T06:10:19Z</time>
      </trkpt>
      <trkpt lat="49.26852" lon="1.19145">
        <ele>33.7</ele>
        <time>2017-05-01T06:10:21Z</time>
      </trkpt>
      <trkpt lat="49.26842" lon="1.19141">
        <ele>33.6</ele>
        <time>2017-05-01T06:10:23Z</time>
      </trkpt>
      <trkpt lat="49.26833" lon="1.19137">
        <ele>33.6</ele>
        <time>2017-05-01T06:10:25Z</time>
      </trkpt>
      <trkpt lat="49.26824" lon="1.19133">
        <ele>33.6</ele>
        <time>2017-05-01T06:10:27Z</time>
      </trkpt>
      <trkpt lat="49.26814" lon="1.19129">
        <ele>33.6</ele>
        <time>2017-05-01T06:10:29Z</time>
      </trkpt>
      <trkpt lat="49.26805" lon="1.19125">
        <ele>33.6</ele>
        <time>2017-05-01T06:10:31Z</time>
      </trkpt>
      <trkpt lat="49.26796" lon="1.19121">
        <ele>33.6</ele>
        <time>2017-05-01T06:10:33Z</time>
      </trkpt>
      <trkpt lat="49.26787" lon="1.19116">
        <ele>33.6</ele>
        <time>2017-05-01T06:10:35Z</time>
      </trkpt>
      <trkpt lat="49.26778" lon="1.19111">
        <ele>33.6</ele>
        <time>2017-05-01T06:10:37Z</time>
      </trkpt>
      <trkpt lat="49.26768" lon="1.19106">
        <ele>33.6</ele>
        <time>2017-05-01T06:10:39Z</time>
      </trkpt>
      <trkpt lat="49.2676" lon="1.19101">
        <ele>33.6</ele>
        <time>2017-05-01T06:10:41Z</time>
      </trkpt>
      <trkpt lat="49.26751" lon="1.19096">
        <ele>33.5</ele>
        <time>2017-05-01T06:10:43Z</time>
      </trkpt>
      <trkpt lat="49.26742" lon="1.19091">
        <ele>33.5</ele>
        <time>2017-05-01T06:10:45Z</time>
      </trkpt>
      <trkpt lat="49.26733" lon="1.19086">
        <ele>33.5</ele>
        <time>2017-05-01T06:10:47Z</time>
      </trkpt>
      <trkpt lat="49.26723" lon="1.19081">
        <ele>33.5</ele>
        <time>2017-05-01T06:10:49Z</time>
      </trkpt>
      <trkpt lat="49.26713" lon="1.19077">
        <ele>33.5</ele>
        <time>2017-05-01T06:10:51Z</time>
      </trkpt>
      <trkpt lat="49.26704" lon="1.19073">
        <ele>33.5</ele>
        <time>2017-05-01T06:10:53Z</time>
      </trkpt>
      <trkpt lat="49.26694" lon="1.19069">
        <ele>33.5</ele>
        <time>2017-05-01T06:10:55Z</time>
      </trkpt>
      <trkpt lat="49.26685" lon="1.19066">
        <ele>33.5</ele>
        <time>2017-05-01T06:10:57Z</time>
      </trkpt>
      <trkpt lat="49.26675" lon="1.19064">
        <ele>33.4</ele>
        <time>2017-05-01T06:10:59Z</time>
      </trkpt>
      <trkpt lat="49.26664" lon="1.19061">
        <ele>33.4</ele>
        <time>2017-05-01T06:11:01Z</time>
      </trkpt>
      <trkpt lat="49.26654" lon="1.19059">
        <ele>33.4</ele>
        <time>2017-05-01T06:11:03Z</time>
      </trkpt>
      <trkpt lat="49.26643" lon="1.19056">
        <ele>33.4</ele>
        <time>2017-05-01T06:11:05Z</time>
      </trkpt>
      <trkpt lat="49.26633" lon="1.19053">
        <ele>33.3</ele>
        <time>2017-05-01T06:11:07Z</time>
      </trkpt>
      <trkpt lat="49.26623" lon="1.19051">
        <ele>33.3</ele>
        <time>2017-05-01T06:11:09Z</time>
      </trkpt>
      <trkpt lat="49.26613" lon="1.19046">
        <ele>33.3</ele>
        <time>2017-05-01T06:11:11Z</time>
      </trkpt>
      <trkpt lat="49.26604" lon="1.19033">
        <ele>33.2</ele>
        <time>2017-05-01T06:11:14Z</time>
      </trkpt>
      <trkpt lat="49.266" lon="1.1902">
        <ele>33.2</ele>
        <time>2017-05-01T06:11:16Z</time>
      </trkpt>
      <trkpt lat="49.26601" lon="1.19005">
        <ele>33.1</ele>
        <time>2017-05-01T06:11:18Z</time>
      </trkpt>
      <trkpt lat="49.26603" lon="1.18991">
        <ele>33</ele>
        <time>2017-05-01T06:11:20Z</time>
      </trkpt>
      <trkpt lat="49.26604" lon="1.18976">
        <ele>32.9</ele>
        <time>2017-05-01T06:11:22Z</time>
      </trkpt>
      <trkpt lat="49.26603" lon="1.18961">
        <ele>32.8</ele>
        <time>2017-05-01T06:11:24Z</time>
      </trkpt>
      <trkpt lat="49.26601" lon="1.18947">
        <ele>32.7</ele>
        <time>2017-05-01T06:11:26Z</time>
      </trkpt>
      <trkpt lat="49.26599" lon="1.18933">
        <ele>32.6</ele>
        <time>2017-05-01T06:11:28Z</time>
      </trkpt>
      <trkpt lat="49.26598" lon="1.18918">
        <ele>32.5</ele>
        <time>2017-05-01T06:11:30Z</time>
      </trkpt>
      <trkpt lat="49.26602" lon="1.18904">
        <ele>32.4</ele>
        <time>2017-05-01T06:11:32Z</time>
      </trkpt>
      <trkpt lat="49.26606" lon="1.18891">
        <ele>32.3</ele>
        <time>2017-05-01T06:11:34Z</time>
      </trkpt>
      <trkpt lat="49.2661" lon="1.18878">
        <ele>32.3</ele>
        <time>2017-05-01T06:11:36Z</time>
      </trkpt>
      <trkpt lat="49.26609" lon="1.18864">
        <ele>32.2</ele>
        <time>2017-05-01T06:11:38Z</time>
      </trkpt>
      <trkpt lat="49.26606" lon="1.1885">
        <ele>32.2</ele>
        <time>2017-05-01T06:11:40Z</time>
      </trkpt>
      <trkpt lat="49.26602" lon="1.18837">
        <ele>32.2</ele>
        <time>2017-05-01T06:11:42Z</time>
      </trkpt>
      <trkpt lat="49.26601" lon="1.18822">
        <ele>32.2</ele>
        <time>2017-05-01T06:11:44Z</time>
      </trkpt>
      <trkpt lat="49.26602" lon="1.18807">
        <ele>32.2</ele>
        <time>2017-05-01T06:11:46Z</time>
      </trkpt>
      <trkpt lat="49.26605" lon="1.18794">
        <ele>32.2</ele>
        <time>2017-05-01T06:11:48Z</time>
      </trkpt>
      <trkpt lat="49.26608" lon="1.18779">
        <ele>32.2</ele>
        <time>2017-05-01T06:11:50Z</time>
      </trkpt>
      <trkpt lat="49.2661" lon="1.18765">
        <ele>32.1</ele>
        <time>2017-05-01T06:11:52Z</time>
      </trkpt>
      <trkpt lat="49.26611" lon="1.1875">
        <ele>32.1</ele>
        <time>2017-05-01T06:11:54Z</time>
      </trkpt>
      <trkpt lat="49.26611" lon="1.18735">
        <ele>32.1</ele>
        <time>2017-05-01T06:11:56Z</time>
      </trkpt>
      <trkpt lat="49.26612" lon="1.1872">
        <ele>32.1</ele>
        <time>2017-05-01T06:11:58Z</time>
      </trkpt>
      <trkpt lat="49.26615" lon="1.18707">
        <ele>32.1</ele>
        <time>2017-05-01T06:12:00Z</time>
      </trkpt>
      <trkpt lat="49.26619" lon="1.18694">
        <ele>32.2</ele>
        <time>2017-05-01T06:12:02Z</time>
      </trkpt>
      <trkpt lat="49.26623" lon="1.18681">
        <ele>32.2</ele>
        <time>2017-05-01T06:12:04Z</time>
      </trkpt>
      <trkpt lat="49.26625" lon="1.18667">
        <ele>32.3</ele>
        <time>2017-05-01T06:12:06Z</time>
      </trkpt>
      <trkpt lat="49.26628" lon="1.18653">
        <ele>32.4</ele>
        <time>2017-05-01T06:12:08Z</time>
      </trkpt>
      <trkpt lat="49.26631" lon="1.18639">
        <ele>32.5</ele>
        <time>2017-05-01T06:12:10Z</time>
      </trkpt>
      <trkpt lat="49.26634" lon="1.18624">
        <ele>32.6</ele>
        <time>2017-05-01T06:12:12Z</time>
      </trkpt>
      <trkpt lat="49.26638" lon="1.1861">
        <ele>32.7</ele>
        <time>2017-05-01T06:12:14Z</time>
      </trkpt>
      <trkpt lat="49.26642" lon="1.18592">
        <ele>32.8</ele>
        <time>2017-05-01T06:12:17Z</time>
      </trkpt>
      <trkpt lat="49.26647" lon="1.18573">
        <ele>33</ele>
        <time>2017-05-01T06:12:20Z</time>
      </trkpt>
      <trkpt lat="49.26651" lon="1.18554">
        <ele>33.2</ele>
        <time>2017-05-01T06:12:23Z</time>
      </trkpt>
      <trkpt lat="49.26654" lon="1.18538">
        <ele>33.4</ele>
        <time>2017-05-01T06:12:26Z</time>
      </trkpt>
      <trkpt lat="49.26657" lon="1.18521">
        <ele>33.9</ele>
        <time>2017-05-01T06:12:29Z</time>
      </trkpt>
      <trkpt lat="49.26661" lon="1.18507">
        <ele>34.2</ele>
        <time>2017-05-01T06:12:32Z</time>
      </trkpt>
      <trkpt lat="49.26665" lon="1.18493">
        <ele>34.6</ele>
        <time>2017-05-01T06:12:35Z</time>
      </trkpt>
      <trkpt lat="49.26668" lon="1.18475">
        <ele>35</ele>
        <time>2017-05-01T06:12:38Z</time>
      </trkpt>
      <trkpt lat="49.2667" lon="1.18458">
        <ele>35.4</ele>
        <time>2017-05-01T06:12:41Z</time>
      </trkpt>
      <trkpt lat="49.2667" lon="1.18442">
        <ele>35.9</ele>
        <time>2017-05-01T06:12:44Z</time>
      </trkpt>
      <trkpt lat="49.26669" lon="1.18427">
        <ele>36.2</ele>
        <time>2017-05-01T06:12:47Z</time>
      </trkpt>
      <trkpt lat="49.26666" lon="1.18412">
        <ele>36.6</ele>
        <time>2017-05-01T06:12:50Z</time>
      </trkpt>
      <trkpt lat="49.26663" lon="1.18398">
        <ele>36.9</ele>
        <time>2017-05-01T06:12:53Z</time>
      </trkpt>
      <trkpt lat="49.26661" lon="1.18384">
        <ele>37.3</ele>
        <time>2017-05-01T06:12:56Z</time>
      </trkpt>
      <trkpt lat="49.26659" lon="1.1837">
        <ele>37.7</ele>
        <time>2017-05-01T06:12:59Z</time>
      </trkpt>
      <trkpt lat="49.26658" lon="1.18355">
        <ele>38.1</ele>
        <time>2017-05-01T06:13:02Z</time>
      </trkpt>
      <trkpt lat="49.26656" lon="1.18341">
        <ele>38.4</ele>
        <time>2017-05-01T06:13:05Z</time>
      </trkpt>
      <trkpt lat="49.26653" lon="1.18327">
        <ele>38.8</ele>
        <time>2017-05-01T06:13:08Z</time>
      </trkpt>
      <trkpt lat="49.26651" lon="1.18313">
        <ele>39.1</ele>
        <time>2017-05-01T06:13:11Z</time>
      </trkpt>
      <trkpt lat="49.26649" lon="1.18296">
        <ele>39.6</ele>
        <time>2017-05-01T06:13:15Z</time>
      </trkpt>
      <trkpt lat="49.26649" lon="1.18277">
        <ele>40.2</ele>
        <time>2017-05-01T06:13:19Z</time>
      </trkpt>
      <trkpt lat="49.2665" lon="1.1826">
        <ele>40.8</ele>
        <time>2017-05-01T06:13:23Z</time>
      </trkpt>
      <trkpt lat="49.26652" lon="1.18242">
        <ele>41.4</ele>
        <time>2017-05-01T06:13:27Z</time>
      </trkpt>
      <trkpt lat="49.26655" lon="1.18226">
        <ele>42.1</ele>
        <time>2017-05-01T06:13:31Z</time>
      </trkpt>
      <trkpt lat="49.26655" lon="1.1821">
        <ele>43</ele>
        <time>2017-05-01T06:13:35Z</time>
      </trkpt>
      <trkpt lat="49.26651" lon="1.18194">
        <ele>43.7</ele>
        <time>2017-05-01T06:13:39Z</time>
      </trkpt>
      <trkpt lat="49.26645" lon="1.18183">
        <ele>44.3</ele>
        <time>2017-05-01T06:13:42Z</time>
      </trkpt>
      <trkpt lat="49.26639" lon="1.18173">
        <ele>44.7</ele>
        <time>2017-05-01T06:13:45Z</time>
      </trkpt>
      <trkpt lat="49.26633" lon="1.18162">
        <ele>45.2</ele>
        <time>2017-05-01T06:13:48Z</time>
      </trkpt>
      <trkpt lat="49.26625" lon="1.18149">
        <ele>45.8</ele>
        <time>2017-05-01T06:13:52Z</time>
      </trkpt>
      <trkpt lat="49.26618" lon="1.18139">
        <ele>46.3</ele>
        <time>2017-05-01T06:13:55Z</time>
      </trkpt>
      <trkpt lat="49.26612" lon="1.18129">
        <ele>46.7</ele>
        <time>2017-05-01T06:13:58Z</time>
      </trkpt>
      <trkpt lat="49.26604" lon="1.1812">
        <ele>47.2</ele>
        <time>2017-05-01T06:14:01Z</time>
      </trkpt>
      <trkpt lat="49.26597" lon="1.18112">
        <ele>47.6</ele>
        <time>2017-05-01T06:14:04Z</time>
      </trkpt>
      <trkpt lat="49.26589" lon="1.18103">
        <ele>47.9</ele>
        <time>2017-05-01T06:14:07Z</time>
      </trkpt>
      <trkpt lat="49.2658" lon="1.18095">
        <ele>48.4</ele>
        <time>2017-05-01T06:14:10Z</time>
      </trkpt>
      <trkpt lat="49.26571" lon="1.18087">
        <ele>48.8</ele>
        <time>2017-05-01T06:14:13Z</time>
      </trkpt>
      <trkpt lat="49.26561" lon="1.18079">
        <ele>49.3</ele>
        <time>2017-05-01T06:14:16Z</time>
      </trkpt>
      <trkpt lat="49.2655" lon="1.1807">
        <ele>49.8</ele>
        <time>2017-05-01T06:14:19Z</time>
      </trkpt>
      <trkpt lat="49.26539" lon="1.18062">
        <ele>50.2</ele>
        <time>2017-05-01T06:14:22Z</time>
      </trkpt>
      <trkpt lat="49.26528" lon="1.18054">
        <ele>50.5</ele>
        <time>2017-05-01T06:14:25Z</time>
      </trkpt>
      <trkpt lat="49.2652" lon="1.18043">
        <ele>50.7</ele>
        <time>2017-05-01T06:14:28Z</time>
      </trkpt>
      <trkpt lat="49.26522" lon="1.18028">
        <ele>50.8</ele>
        <time>2017-05-01T06:14:31Z</time>
      </trkpt>
      <trkpt lat="49.26525" lon="1.18012">
        <ele>50.9</ele>
        <time>2017-05-01T06:14:35Z</time>
      </trkpt>
      <trkpt lat="49.26526" lon="1.17998">
        <ele>51.2</ele>
        <time>2017-05-01T06:14:39Z</time>
      </trkpt>
      <trkpt lat="49.26527" lon="1.17981">
        <ele>51.8</ele>
        <time>2017-05-01T06:14:44Z</time>
      </trkpt>
      <trkpt lat="49.26534" lon="1.1797">
        <ele>54.4</ele>
        <time>2017-05-01T06:15:07Z</time>
      </trkpt>
      <trkpt lat="49.26543" lon="1.17966">
        <ele>55.5</ele>
        <time>2017-05-01T06:15:40Z</time>
      </trkpt>
      <trkpt lat="49.26548" lon="1.17978">
        <ele>55.7</ele>
        <time>2017-05-01T06:15:43Z</time>
      </trkpt>
      <trkpt lat="49.26552" lon="1.17992">
        <ele>55.9</ele>
        <time>2017-05-01T06:15:46Z</time>
      </trkpt>
      <trkpt lat="49.26553" lon="1.18006">
        <ele>56</ele>
        <time>2017-05-01T06:15:49Z</time>
      </trkpt>
      <trkpt lat="49.26557" lon="1.18024">
        <ele>56.1</ele>
        <time>2017-05-01T06:15:52Z</time>
      </trkpt>
      <trkpt lat="49.26561" lon="1.18037">
        <ele>56.1</ele>
        <time>2017-05-01T06:15:54Z</time>
      </trkpt>
      <trkpt lat="49.2657" lon="1.18046">
        <ele>56.1</ele>
        <time>2017-05-01T06:15:56Z</time>
      </trkpt>
      <trkpt lat="49.26581" lon="1.18054">
        <ele>56</ele>
        <time>2017-05-01T06:15:59Z</time>
      </trkpt>
      <trkpt lat="49.26591" lon="1.18064">
        <ele>55.9</ele>
        <time>2017-05-01T06:16:02Z</time>
      </trkpt>
      <trkpt lat="49.26599" lon="1.18073">
        <ele>55.8</ele>
        <time>2017-05-01T06:16:04Z</time>
      </trkpt>
      <trkpt lat="49.26607" lon="1.18084">
        <ele>55.6</ele>
        <time>2017-05-01T06:16:06Z</time>
      </trkpt>
      <trkpt lat="49.26616" lon="1.18098">
        <ele>55.4</ele>
        <time>2017-05-01T06:16:08Z</time>
      </trkpt>
      <trkpt lat="49.26626" lon="1.18113">
        <ele>55.1</ele>
        <time>2017-05-01T06:16:10Z</time>
      </trkpt>
      <trkpt lat="49.26635" lon="1.18126">
        <ele>54.8</ele>
        <time>2017-05-01T06:16:12Z</time>
      </trkpt>
      <trkpt lat="49.26646" lon="1.18138">
        <ele>54.5</ele>
        <time>2017-05-01T06:16:14Z</time>
      </trkpt>
      <trkpt lat="49.26657" lon="1.1815">
        <ele>54.3</ele>
        <time>2017-05-01T06:16:16Z</time>
      </trkpt>
      <trkpt lat="49.26665" lon="1.1816">
        <ele>54</ele>
        <time>2017-05-01T06:16:18Z</time>
      </trkpt>
      <trkpt lat="49.26675" lon="1.18172">
        <ele>53.7</ele>
        <time>2017-05-01T06:16:20Z</time>
      </trkpt>
      <trkpt lat="49.26683" lon="1.18184">
        <ele>53.5</ele>
        <time>2017-05-01T06:16:22Z</time>
      </trkpt>
      <trkpt lat="49.26693" lon="1.18194">
        <ele>53.2</ele>
        <time>2017-05-01T06:16:25Z</time>
      </trkpt>
      <trkpt lat="49.26704" lon="1.18204">
        <ele>53</ele>
        <time>2017-05-01T06:16:27Z</time>
      </trkpt>
      <trkpt lat="49.26714" lon="1.18211">
        <ele>52.8</ele>
        <time>2017-05-01T06:16:29Z</time>
      </trkpt>
      <trkpt lat="49.26724" lon="1.1821">
        <ele>52.6</ele>
        <time>2017-05-01T06:16:32Z</time>
      </trkpt>
      <trkpt lat="49.26736" lon="1.18216">
        <ele>52.5</ele>
        <time>2017-05-01T06:16:35Z</time>
      </trkpt>
      <trkpt lat="49.26746" lon="1.18225">
        <ele>52.4</ele>
        <time>2017-05-01T06:16:39Z</time>
      </trkpt>
      <trkpt lat="49.26756" lon="1.18231">
        <ele>52.5</ele>
        <time>2017-05-01T06:16:42Z</time>
      </trkpt>
      <trkpt lat="49.26766" lon="1.18235">
        <ele>52.6</ele>
        <time>2017-05-01T06:16:45Z</time>
      </trkpt>
      <trkpt lat="49.26775" lon="1.18239">
        <ele>53</ele>
        <time>2017-05-01T06:16:48Z</time>
      </trkpt>
      <trkpt lat="49.26785" lon="1.18244">
        <ele>53.5</ele>
        <time>2017-05-01T06:16:52Z</time>
      </trkpt>
      <trkpt lat="49.26794" lon="1.18252">
        <ele>54</ele>
        <time>2017-05-01T06:16:55Z</time>
      </trkpt>
      <trkpt lat="49.26804" lon="1.1826">
        <ele>54.3</ele>
        <time>2017-05-01T06:16:58Z</time>
      </trkpt>
      <trkpt lat="49.26812" lon="1.18267">
        <ele>54.7</ele>
        <time>2017-05-01T06:17:01Z</time>
      </trkpt>
      <trkpt lat="49.26822" lon="1.18271">
        <ele>55</ele>
        <time>2017-05-01T06:17:03Z</time>
      </trkpt>
      <trkpt lat="49.26832" lon="1.18274">
        <ele>55.4</ele>
        <time>2017-05-01T06:17:06Z</time>
      </trkpt>
      <trkpt lat="49.26844" lon="1.18281">
        <ele>55.7</ele>
        <time>2017-05-01T06:17:09Z</time>
      </trkpt>
      <trkpt lat="49.26856" lon="1.18283">
        <ele>55.9</ele>
        <time>2017-05-01T06:17:12Z</time>
      </trkpt>
      <trkpt lat="49.26866" lon="1.18285">
        <ele>56</ele>
        <time>2017-05-01T06:17:15Z</time>
      </trkpt>
      <trkpt lat="49.26877" lon="1.18287">
        <ele>55.8</ele>
        <time>2017-05-01T06:17:18Z</time>
      </trkpt>
      <trkpt lat="49.26885" lon="1.18291">
        <ele>55.6</ele>
        <time>2017-05-01T06:17:20Z</time>
      </trkpt>
      <trkpt lat="49.26897" lon="1.18299">
        <ele>55.5</ele>
        <time>2017-05-01T06:17:23Z</time>
      </trkpt>
      <trkpt lat="49.26907" lon="1.18306">
        <ele>55.4</ele>
        <time>2017-05-01T06:17:25Z</time>
      </trkpt>
      <trkpt lat="49.26915" lon="1.18315">
        <ele>55.3</ele>
        <time>2017-05-01T06:17:27Z</time>
      </trkpt>
      <trkpt lat="49.26924" lon="1.18327">
        <ele>55.3</ele>
        <time>2017-05-01T06:17:29Z</time>
      </trkpt>
      <trkpt lat="49.26936" lon="1.18333">
        <ele>55.1</ele>
        <time>2017-05-01T06:17:32Z</time>
      </trkpt>
      <trkpt lat="49.26946" lon="1.18342">
        <ele>55</ele>
        <time>2017-05-01T06:17:35Z</time>
      </trkpt>
      <trkpt lat="49.26953" lon="1.18351">
        <ele>54.9</ele>
        <time>2017-05-01T06:17:38Z</time>
      </trkpt>
      <trkpt lat="49.26964" lon="1.18359">
        <ele>54.9</ele>
        <time>2017-05-01T06:17:42Z</time>
      </trkpt>
      <trkpt lat="49.26974" lon="1.18367">
        <ele>55</ele>
        <time>2017-05-01T06:17:45Z</time>
      </trkpt>
      <trkpt lat="49.26985" lon="1.18375">
        <ele>55</ele>
        <time>2017-05-01T06:17:48Z</time>
      </trkpt>
      <trkpt lat="49.26997" lon="1.18381">
        <ele>55.2</ele>
        <time>2017-05-01T06:17:51Z</time>
      </trkpt>
      <trkpt lat="49.27006" lon="1.18386">
        <ele>55.6</ele>
        <time>2017-05-01T06:17:54Z</time>
      </trkpt>
      <trkpt lat="49.27018" lon="1.18391">
        <ele>55.9</ele>
        <time>2017-05-01T06:17:57Z</time>
      </trkpt>
      <trkpt lat="49.27028" lon="1.18396">
        <ele>56.3</ele>
        <time>2017-05-01T06:18:00Z</time>
      </trkpt>
      <trkpt lat="49.2704" lon="1.184">
        <ele>56.6</ele>
        <time>2017-05-01T06:18:03Z</time>
      </trkpt>
      <trkpt lat="49.2705" lon="1.18397">
        <ele>56.7</ele>
        <time>2017-05-01T06:18:05Z</time>
      </trkpt>
      <trkpt lat="49.27059" lon="1.18391">
        <ele>56.9</ele>
        <time>2017-05-01T06:18:07Z</time>
      </trkpt>
      <trkpt lat="49.27068" lon="1.18384">
        <ele>57.1</ele>
        <time>2017-05-01T06:18:10Z</time>
      </trkpt>
      <trkpt lat="49.27079" lon="1.18386">
        <ele>57.2</ele>
        <time>2017-05-01T06:18:13Z</time>
      </trkpt>
      <trkpt lat="49.27087" lon="1.18393">
        <ele>57.4</ele>
        <time>2017-05-01T06:18:16Z</time>
      </trkpt>
      <trkpt lat="49.27098" lon="1.18404">
        <ele>57.8</ele>
        <time>2017-05-01T06:18:20Z</time>
      </trkpt>
      <trkpt lat="49.27107" lon="1.18412">
        <ele>58.5</ele>
        <time>2017-05-01T06:18:25Z</time>
      </trkpt>
      <trkpt lat="49.27116" lon="1.18416">
        <ele>59.1</ele>
        <time>2017-05-01T06:18:28Z</time>
      </trkpt>
      <trkpt lat="49.27125" lon="1.1842">
        <ele>59.7</ele>
        <time>2017-05-01T06:18:31Z</time>
      </trkpt>
      <trkpt lat="49.27133" lon="1.18426">
        <ele>60.5</ele>
        <time>2017-05-01T06:18:34Z</time>
      </trkpt>
      <trkpt lat="49.27143" lon="1.18435">
        <ele>61.3</ele>
        <time>2017-05-01T06:18:37Z</time>
      </trkpt>
      <trkpt lat="49.27151" lon="1.18444">
        <ele>62.1</ele>
        <time>2017-05-01T06:18:40Z</time>
      </trkpt>
      <trkpt lat="49.2716" lon="1.18452">
        <ele>62.9</ele>
        <time>2017-05-01T06:18:43Z</time>
      </trkpt>
      <trkpt lat="49.27169" lon="1.18465">
        <ele>63.8</ele>
        <time>2017-05-01T06:18:47Z</time>
      </trkpt>
      <trkpt lat="49.27175" lon="1.1848">
        <ele>64.5</ele>
        <time>2017-05-01T06:18:50Z</time>
      </trkpt>
      <trkpt lat="49.27182" lon="1.18495">
        <ele>65.2</ele>
        <time>2017-05-01T06:18:54Z</time>
      </trkpt>
      <trkpt lat="49.27189" lon="1.18506">
        <ele>65.7</ele>
        <time>2017-05-01T06:18:57Z</time>
      </trkpt>
      <trkpt lat="49.27198" lon="1.18512">
        <ele>66.3</ele>
        <time>2017-05-01T06:19:00Z</time>
      </trkpt>
      <trkpt lat="49.27206" lon="1.18518">
        <ele>67</ele>
        <time>2017-05-01T06:19:03Z</time>
      </trkpt>
      <trkpt lat="49.27213" lon="1.18527">
        <ele>67.7</ele>
        <time>2017-05-01T06:19:06Z</time>
      </trkpt>
      <trkpt lat="49.27222" lon="1.18538">
        <ele>68.7</ele>
        <time>2017-05-01T06:19:10Z</time>
      </trkpt>
      <trkpt lat="49.27232" lon="1.18544">
        <ele>69.6</ele>
        <time>2017-05-01T06:19:14Z</time>
      </trkpt>
      <trkpt lat="49.27242" lon="1.18551">
        <ele>70.8</ele>
        <time>2017-05-01T06:19:18Z</time>
      </trkpt>
      <trkpt lat="49.27253" lon="1.18557">
        <ele>71.8</ele>
        <time>2017-05-01T06:19:22Z</time>
      </trkpt>
      <trkpt lat="49.27262" lon="1.18563">
        <ele>72.9</ele>
        <time>2017-05-01T06:19:26Z</time>
      </trkpt>
      <trkpt lat="49.27271" lon="1.18569">
        <ele>73.6</ele>
        <time>2017-05-01T06:19:29Z</time>
      </trkpt>
      <trkpt lat="49.27281" lon="1.18579">
        <ele>74.2</ele>
        <time>2017-05-01T06:19:32Z</time>
      </trkpt>
      <trkpt lat="49.27288" lon="1.1859">
        <ele>75</ele>
        <time>2017-05-01T06:19:38Z</time>
      </trkpt>
      <trkpt lat="49.27298" lon="1.18598">
        <ele>75.8</ele>
        <time>2017-05-01T06:19:46Z</time>
      </trkpt>
      <trkpt lat="49.27308" lon="1.18602">
        <ele>76.2</ele>
        <time>2017-05-01T06:19:51Z</time>
      </trkpt>
      <trkpt lat="49.27318" lon="1.18604">
        <ele>76.7</ele>
        <time>2017-05-01T06:19:56Z</time>
      </trkpt>
      <trkpt lat="49.27329" lon="1.18606">
        <ele>76.9</ele>
        <time>2017-05-01T06:19:59Z</time>
      </trkpt>
      <trkpt lat="49.27338" lon="1.18607">
        <ele>77.2</ele>
        <time>2017-05-01T06:20:03Z</time>
      </trkpt>
      <trkpt lat="49.27348" lon="1.18608">
        <ele>77.4</ele>
        <time>2017-05-01T06:20:06Z</time>
      </trkpt>
      <trkpt lat="49.2736" lon="1.18609">
        <ele>77.6</ele>
        <time>2017-05-01T06:20:09Z</time>
      </trkpt>
      <trkpt lat="49.27371" lon="1.18605">
        <ele>77.7</ele>
        <time>2017-05-01T06:20:12Z</time>
      </trkpt>
      <trkpt lat="49.2738" lon="1.186">
        <ele>77.8</ele>
        <time>2017-05-01T06:20:15Z</time>
      </trkpt>
      <trkpt lat="49.27385" lon="1.18587">
        <ele>78</ele>
        <time>2017-05-01T06:20:20Z</time>
      </trkpt>
      <trkpt lat="49.27381" lon="1.18574">
        <ele>78.5</ele>
        <time>2017-05-01T06:20:25Z</time>
      </trkpt>
      <trkpt lat="49.27375" lon="1.18563">
        <ele>79.4</ele>
        <time>2017-05-01T06:20:31Z</time>
      </trkpt>
      <trkpt lat="49.27371" lon="1.18549">
        <ele>80.7</ele>
        <time>2017-05-01T06:20:37Z</time>
      </trkpt>
      <trkpt lat="49.27364" lon="1.18535">
        <ele>81.6</ele>
        <time>2017-05-01T06:20:41Z</time>
      </trkpt>
      <trkpt lat="49.27356" lon="1.18526">
        <ele>82.6</ele>
        <time>2017-05-01T06:20:45Z</time>
      </trkpt>
      <trkpt lat="49.27348" lon="1.18514">
        <ele>83.8</ele>
        <time>2017-05-01T06:20:50Z</time>
      </trkpt>
      <trkpt lat="49.27341" lon="1.18505">
        <ele>84.6</ele>
        <time>2017-05-01T06:20:54Z</time>
      </trkpt>
      <trkpt lat="49.27337" lon="1.18491">
        <ele>85.7</ele>
        <time>2017-05-01T06:21:00Z</time>
      </trkpt>
      <trkpt lat="49.27329" lon="1.18479">
        <ele>86.5</ele>
        <time>2017-05-01T06:21:04Z</time>
      </trkpt>
      <trkpt lat="49.2732" lon="1.18469">
        <ele>87.3</ele>
        <time>2017-05-01T06:21:08Z</time>
      </trkpt>
      <trkpt lat="49.27312" lon="1.18459">
        <ele>87.8</ele>
        <time>2017-05-01T06:21:11Z</time>
      </trkpt>
      <trkpt lat="49.27304" lon="1.18447">
        <ele>88.6</ele>
        <time>2017-05-01T06:21:15Z</time>
      </trkpt>
      <trkpt lat="49.27299" lon="1.18432">
        <ele>89.4</ele>
        <time>2017-05-01T06:21:19Z</time>
      </trkpt>
      <trkpt lat="49.27297" lon="1.18416">
        <ele>90.2</ele>
        <time>2017-05-01T06:21:23Z</time>
      </trkpt>
      <trkpt lat="49.27299" lon="1.18401">
        <ele>91</ele>
        <time>2017-05-01T06:21:27Z</time>
      </trkpt>
      <trkpt lat="49.27302" lon="1.18387">
        <ele>91.9</ele>
        <time>2017-05-01T06:21:31Z</time>
      </trkpt>
      <trkpt lat="49.273" lon="1.18372">
        <ele>92.7</ele>
        <time>2017-05-01T06:21:35Z</time>
      </trkpt>
      <trkpt lat="49.27296" lon="1.18355">
        <ele>93.6</ele>
        <time>2017-05-01T06:21:39Z</time>
      </trkpt>
      <trkpt lat="49.27295" lon="1.18339">
        <ele>94.4</ele>
        <time>2017-05-01T06:21:43Z</time>
      </trkpt>
      <trkpt lat="49.27288" lon="1.18331">
        <ele>94.8</ele>
        <time>2017-05-01T06:21:45Z</time>
      </trkpt>
      <trkpt lat="49.27281" lon="1.18316">
        <ele>95.5</ele>
        <time>2017-05-01T06:21:49Z</time>
      </trkpt>
      <trkpt lat="49.27274" lon="1.18303">
        <ele>96</ele>
        <time>2017-05-01T06:21:52Z</time>
      </trkpt>
      <trkpt lat="49.2727" lon="1.1829">
        <ele>96.7</ele>
        <time>2017-05-01T06:21:56Z</time>
      </trkpt>
      <trkpt lat="49.27264" lon="1.18274">
        <ele>97.2</ele>
        <time>2017-05-01T06:22:00Z</time>
      </trkpt>
      <trkpt lat="49.27253" lon="1.1826">
        <ele>97.7</ele>
        <time>2017-05-01T06:22:03Z</time>
      </trkpt>
      <trkpt lat="49.27245" lon="1.18247">
        <ele>98.1</ele>
        <time>2017-05-01T06:22:06Z</time>
      </trkpt>
      <trkpt lat="49.27239" lon="1.18237">
        <ele>98.5</ele>
        <time>2017-05-01T06:22:09Z</time>
      </trkpt>
      <trkpt lat="49.27235" lon="1.18223">
        <ele>99.1</ele>
        <time>2017-05-01T06:22:13Z</time>
      </trkpt>
      <trkpt lat="49.27236" lon="1.18209">
        <ele>99.7</ele>
        <time>2017-05-01T06:22:17Z</time>
      </trkpt>
      <trkpt lat="49.27233" lon="1.18193">
        <ele>100.3</ele>
        <time>2017-05-01T06:22:21Z</time>
      </trkpt>
      <trkpt lat="49.27229" lon="1.18179">
        <ele>100.9</ele>
        <time>2017-05-01T06:22:25Z</time>
      </trkpt>
      <trkpt lat="49.27227" lon="1.18163">
        <ele>101.6</ele>
        <time>2017-05-01T06:22:29Z</time>
      </trkpt>
      <trkpt lat="49.27225" lon="1.18148">
        <ele>102.4</ele>
        <time>2017-05-01T06:22:33Z</time>
      </trkpt>
      <trkpt lat="49.27222" lon="1.18135">
        <ele>103.1</ele>
        <time>2017-05-01T06:22:37Z</time>
      </trkpt>
      <trkpt lat="49.2722" lon="1.1812">
        <ele>103.8</ele>
        <time>2017-05-01T06:22:41Z</time>
      </trkpt>
      <trkpt lat="49.27217" lon="1.18104">
        <ele>104.5</ele>
        <time>2017-05-01T06:22:45Z</time>
      </trkpt>
      <trkpt lat="49.27219" lon="1.1809">
        <ele>105.2</ele>
        <time>2017-05-01T06:22:49Z</time>
      </trkpt>
      <trkpt lat="49.27217" lon="1.18076">
        <ele>105.8</ele>
        <time>2017-05-01T06:22:53Z</time>
      </trkpt>
      <trkpt lat="49.27215" lon="1.18059">
        <ele>106.7</ele>
        <time>2017-05-01T06:22:57Z</time>
      </trkpt>
      <trkpt lat="49.27216" lon="1.18045">
        <ele>107.5</ele>
        <time>2017-05-01T06:23:01Z</time>
      </trkpt>
      <trkpt lat="49.27213" lon="1.18028">
        <ele>108.5</ele>
        <time>2017-05-01T06:23:06Z</time>
      </trkpt>
      <trkpt lat="49.27208" lon="1.18016">
        <ele>109.3</ele>
        <time>2017-05-01T06:23:09Z</time>
      </trkpt>
      <trkpt lat="49.27203" lon="1.18001">
        <ele>110.3</ele>
        <time>2017-05-01T06:23:13Z</time>
      </trkpt>
      <trkpt lat="49.27197" lon="1.17986">
        <ele>111.4</ele>
        <time>2017-05-01T06:23:17Z</time>
      </trkpt>
      <trkpt lat="49.27193" lon="1.17973">
        <ele>112.6</ele>
        <time>2017-05-01T06:23:22Z</time>
      </trkpt>
      <trkpt lat="49.2719" lon="1.17958">
        <ele>113.4</ele>
        <time>2017-05-01T06:23:26Z</time>
      </trkpt>
      <trkpt lat="49.27189" lon="1.17941">
        <ele>114.3</ele>
        <time>2017-05-01T06:23:31Z</time>
      </trkpt>
      <trkpt lat="49.27187" lon="1.17925">
        <ele>115.1</ele>
        <time>2017-05-01T06:23:36Z</time>
      </trkpt>
      <trkpt lat="49.27183" lon="1.1791">
        <ele>115.7</ele>
        <time>2017-05-01T06:23:40Z</time>
      </trkpt>
      <trkpt lat="49.27182" lon="1.17896">
        <ele>116.5</ele>
        <time>2017-05-01T06:23:45Z</time>
      </trkpt>
      <trkpt lat="49.27192" lon="1.17898">
        <ele>117.7</ele>
        <time>2017-05-01T06:23:54Z</time>
      </trkpt>
      <trkpt lat="49.27203" lon="1.17901">
        <ele>118.2</ele>
        <time>2017-05-01T06:24:00Z</time>
      </trkpt>
      <trkpt lat="49.27213" lon="1.17903">
        <ele>118.4</ele>
        <time>2017-05-01T06:24:05Z</time>
      </trkpt>
      <trkpt lat="49.27225" lon="1.17905">
        <ele>118.6</ele>
        <time>2017-05-01T06:24:10Z</time>
      </trkpt>
      <trkpt lat="49.27234" lon="1.17906">
        <ele>118.7</ele>
        <time>2017-05-01T06:24:13Z</time>
      </trkpt>
      <trkpt lat="49.27243" lon="1.17909">
        <ele>118.8</ele>
        <time>2017-05-01T06:24:16Z</time>
      </trkpt>
      <trkpt lat="49.27253" lon="1.1791">
        <ele>118.9</ele>
        <time>2017-05-01T06:24:19Z</time>
      </trkpt>
      <trkpt lat="49.27266" lon="1.17913">
        <ele>118.9</ele>
        <time>2017-05-01T06:24:22Z</time>
      </trkpt>
      <trkpt lat="49.27278" lon="1.17915">
        <ele>118.7</ele>
        <time>2017-05-01T06:24:25Z</time>
      </trkpt>
      <trkpt lat="49.27292" lon="1.17915">
        <ele>118.4</ele>
        <time>2017-05-01T06:24:28Z</time>
      </trkpt>
      <trkpt lat="49.27305" lon="1.17916">
        <ele>117.8</ele>
        <time>2017-05-01T06:24:31Z</time>
      </trkpt>
      <trkpt lat="49.27315" lon="1.17909">
        <ele>116.8</ele>
        <time>2017-05-01T06:24:35Z</time>
      </trkpt>
      <trkpt lat="49.27316" lon="1.17892">
        <ele>115.9</ele>
        <time>2017-05-01T06:24:39Z</time>
      </trkpt>
      <trkpt lat="49.27317" lon="1.17874">
        <ele>115.2</ele>
        <time>2017-05-01T06:24:43Z</time>
      </trkpt>
      <trkpt lat="49.27321" lon="1.17858">
        <ele>115</ele>
        <time>2017-05-01T06:24:47Z</time>
      </trkpt>
      <trkpt lat="49.27322" lon="1.17844">
        <ele>115</ele>
        <time>2017-05-01T06:24:50Z</time>
      </trkpt>
      <trkpt lat="49.27324" lon="1.1783">
        <ele>115</ele>
        <time>2017-05-01T06:24:53Z</time>
      </trkpt>
      <trkpt lat="49.27325" lon="1.17815">
        <ele>115</ele>
        <time>2017-05-01T06:24:56Z</time>
      </trkpt>
      <trkpt lat="49.27328" lon="1.17798">
        <ele>115.2</ele>
        <time>2017-05-01T06:25:00Z</time>
      </trkpt>
      <trkpt lat="49.27334" lon="1.17786">
        <ele>115.4</ele>
        <time>2017-05-01T06:25:03Z</time>
      </trkpt>
      <trkpt lat="49.27339" lon="1.17773">
        <ele>115.6</ele>
        <time>2017-05-01T06:25:06Z</time>
      </trkpt>
      <trkpt lat="49.27344" lon="1.17761">
        <ele>115.7</ele>
        <time>2017-05-01T06:25:09Z</time>
      </trkpt>
      <trkpt lat="49.27347" lon="1.17747">
        <ele>115.8</ele>
        <time>2017-05-01T06:25:12Z</time>
      </trkpt>
      <trkpt lat="49.27353" lon="1.17736">
        <ele>115.9</ele>
        <time>2017-05-01T06:25:14Z</time>
      </trkpt>
      <trkpt lat="49.27358" lon="1.17719">
        <ele>116.1</ele>
        <time>2017-05-01T06:25:17Z</time>
      </trkpt>
      <trkpt lat="49.27363" lon="1.17706">
        <ele>116.3</ele>
        <time>2017-05-01T06:25:20Z</time>
      </trkpt>
      <trkpt lat="49.27369" lon="1.17695">
        <ele>116.5</ele>
        <time>2017-05-01T06:25:23Z</time>
      </trkpt>
      <trkpt lat="49.27373" lon="1.17679">
        <ele>116.6</ele>
        <time>2017-05-01T06:25:26Z</time>
      </trkpt>
      <trkpt lat="49.27379" lon="1.17663">
        <ele>116.8</ele>
        <time>2017-05-01T06:25:29Z</time>
      </trkpt>
      <trkpt lat="49.27382" lon="1.17645">
        <ele>116.9</ele>
        <time>2017-05-01T06:25:32Z</time>
      </trkpt>
      <trkpt lat="49.27383" lon="1.17628">
        <ele>117</ele>
        <time>2017-05-01T06:25:35Z</time>
      </trkpt>
      <trkpt lat="49.27382" lon="1.17614">
        <ele>117.2</ele>
        <time>2017-05-01T06:25:41Z</time>
      </trkpt>
      <trkpt lat="49.27371" lon="1.1761">
        <ele>117.3</ele>
        <time>2017-05-01T06:25:45Z</time>
      </trkpt>
      <trkpt lat="49.27362" lon="1.17607">
        <ele>117.6</ele>
        <time>2017-05-01T06:25:48Z</time>
      </trkpt>
      <trkpt lat="49.27351" lon="1.17602">
        <ele>118.2</ele>
        <time>2017-05-01T06:25:52Z</time>
      </trkpt>
      <trkpt lat="49.2734" lon="1.17597">
        <ele>118.8</ele>
        <time>2017-05-01T06:25:56Z</time>
      </trkpt>
      <trkpt lat="49.27329" lon="1.17593">
        <ele>119.4</ele>
        <time>2017-05-01T06:26:00Z</time>
      </trkpt>
      <trkpt lat="49.27319" lon="1.17589">
        <ele>119.9</ele>
        <time>2017-05-01T06:26:04Z</time>
      </trkpt>
      <trkpt lat="49.27309" lon="1.17587">
        <ele>120.3</ele>
        <time>2017-05-01T06:26:07Z</time>
      </trkpt>
      <trkpt lat="49.27297" lon="1.17585">
        <ele>120.7</ele>
        <time>2017-05-01T06:26:10Z</time>
      </trkpt>
      <trkpt lat="49.27287" lon="1.17581">
        <ele>121.1</ele>
        <time>2017-05-01T06:26:13Z</time>
      </trkpt>
      <trkpt lat="49.27277" lon="1.17579">
        <ele>121.4</ele>
        <time>2017-05-01T06:26:16Z</time>
      </trkpt>
      <trkpt lat="49.27266" lon="1.17576">
        <ele>121.7</ele>
        <time>2017-05-01T06:26:19Z</time>
      </trkpt>
      <trkpt lat="49.27255" lon="1.17572">
        <ele>122</ele>
        <time>2017-05-01T06:26:22Z</time>
      </trkpt>
      <trkpt lat="49.27243" lon="1.17569">
        <ele>122.3</ele>
        <time>2017-05-01T06:26:25Z</time>
      </trkpt>
      <trkpt lat="49.27232" lon="1.17564">
        <ele>122.5</ele>
        <time>2017-05-01T06:26:28Z</time>
      </trkpt>
      <trkpt lat="49.2722" lon="1.17562">
        <ele>122.8</ele>
        <time>2017-05-01T06:26:31Z</time>
      </trkpt>
      <trkpt lat="49.27208" lon="1.1756">
        <ele>123</ele>
        <time>2017-05-01T06:26:34Z</time>
      </trkpt>
      <trkpt lat="49.27196" lon="1.17558">
        <ele>123.1</ele>
        <time>2017-05-01T06:26:37Z</time>
      </trkpt>
      <trkpt lat="49.27186" lon="1.17555">
        <ele>123.2</ele>
        <time>2017-05-01T06:26:39Z</time>
      </trkpt>
      <trkpt lat="49.27174" lon="1.17551">
        <ele>123.3</ele>
        <time>2017-05-01T06:26:42Z</time>
      </trkpt>
      <trkpt lat="49.27161" lon="1.17548">
        <ele>123.4</ele>
        <time>2017-05-01T06:26:45Z</time>
      </trkpt>
      <trkpt lat="49.2715" lon="1.17545">
        <ele>123.5</ele>
        <time>2017-05-01T06:26:48Z</time>
      </trkpt>
      <trkpt lat="49.27137" lon="1.17543">
        <ele>123.6</ele>
        <time>2017-05-01T06:26:51Z</time>
      </trkpt>
      <trkpt lat="49.27128" lon="1.17542">
        <ele>123.6</ele>
        <time>2017-05-01T06:26:53Z</time>
      </trkpt>
      <trkpt lat="49.27118" lon="1.1754">
        <ele>123.5</ele>
        <time>2017-05-01T06:26:55Z</time>
      </trkpt>
      <trkpt lat="49.27108" lon="1.17537">
        <ele>123.4</ele>
        <time>2017-05-01T06:26:57Z</time>
      </trkpt>
      <trkpt lat="49.27099" lon="1.17534">
        <ele>123.3</ele>
        <time>2017-05-01T06:26:59Z</time>
      </trkpt>
      <trkpt lat="49.27088" lon="1.17532">
        <ele>123.2</ele>
        <time>2017-05-01T06:27:01Z</time>
      </trkpt>
      <trkpt lat="49.27079" lon="1.17528">
        <ele>123.2</ele>
        <time>2017-05-01T06:27:03Z</time>
      </trkpt>
      <trkpt lat="49.27072" lon="1.17515">
        <ele>123.1</ele>
        <time>2017-05-01T06:27:06Z</time>
      </trkpt>
      <trkpt lat="49.27073" lon="1.17499">
        <ele>123</ele>
        <time>2017-05-01T06:27:09Z</time>
      </trkpt>
      <trkpt lat="49.27073" lon="1.17483">
        <ele>122.9</ele>
        <time>2017-05-01T06:27:12Z</time>
      </trkpt>
      <trkpt lat="49.27074" lon="1.17465">
        <ele>122.9</ele>
        <time>2017-05-01T06:27:15Z</time>
      </trkpt>
      <trkpt lat="49.27075" lon="1.17445">
        <ele>122.8</ele>
        <time>2017-05-01T06:27:18Z</time>
      </trkpt>
      <trkpt lat="49.27076" lon="1.17425">
        <ele>122.8</ele>
        <time>2017-05-01T06:27:21Z</time>
      </trkpt>
      <trkpt lat="49.27078" lon="1.17405">
        <ele>122.8</ele>
        <time>2017-05-01T06:27:24Z</time>
      </trkpt>
      <trkpt lat="49.27079" lon="1.1739">
        <ele>122.8</ele>
        <time>2017-05-01T06:27:26Z</time>
      </trkpt>
      <trkpt lat="49.2708" lon="1.17376">
        <ele>122.8</ele>
        <time>2017-05-01T06:27:28Z</time>
      </trkpt>
      <trkpt lat="49.2708" lon="1.17362">
        <ele>122.9</ele>
        <time>2017-05-01T06:27:30Z</time>
      </trkpt>
      <trkpt lat="49.27081" lon="1.17348">
        <ele>122.9</ele>
        <time>2017-05-01T06:27:32Z</time>
      </trkpt>
      <trkpt lat="49.27083" lon="1.17333">
        <ele>123</ele>
        <time>2017-05-01T06:27:34Z</time>
      </trkpt>
      <trkpt lat="49.27083" lon="1.17319">
        <ele>123</ele>
        <time>2017-05-01T06:27:36Z</time>
      </trkpt>
      <trkpt lat="49.27085" lon="1.17305">
        <ele>123</ele>
        <time>2017-05-01T06:27:38Z</time>
      </trkpt>
      <trkpt lat="49.27087" lon="1.17291">
        <ele>123.1</ele>
        <time>2017-05-01T06:27:40Z</time>
      </trkpt>
      <trkpt lat="49.27089" lon="1.17277">
        <ele>123.1</ele>
        <time>2017-05-01T06:27:42Z</time>
      </trkpt>
      <trkpt lat="49.27091" lon="1.17258">
        <ele>123.2</ele>
        <time>2017-05-01T06:27:45Z</time>
      </trkpt>
      <trkpt lat="49.27082" lon="1.17249">
        <ele>123.2</ele>
        <time>2017-05-01T06:27:50Z</time>
      </trkpt>
      <trkpt lat="49.27072" lon="1.17261">
        <ele>123.3</ele>
        <time>2017-05-01T06:27:53Z</time>
      </trkpt>
      <trkpt lat="49.27065" lon="1.1727">
        <ele>123.3</ele>
        <time>2017-05-01T06:27:55Z</time>
      </trkpt>
      <trkpt lat="49.27057" lon="1.1728">
        <ele>123.3</ele>
        <time>2017-05-01T06:27:57Z</time>
      </trkpt>
      <trkpt lat="49.27049" lon="1.17289">
        <ele>123.3</ele>
        <time>2017-05-01T06:27:59Z</time>
      </trkpt>
      <trkpt lat="49.27038" lon="1.17302">
        <ele>123.3</ele>
        <time>2017-05-01T06:28:02Z</time>
      </trkpt>
      <trkpt lat="49.2703" lon="1.17313">
        <ele>123.3</ele>
        <time>2017-05-01T06:28:04Z</time>
      </trkpt>
      <trkpt lat="49.27021" lon="1.17323">
        <ele>123.3</ele>
        <time>2017-05-01T06:28:06Z</time>
      </trkpt>
      <trkpt lat="49.27011" lon="1.17334">
        <ele>123.3</ele>
        <time>2017-05-01T06:28:08Z</time>
      </trkpt>
      <trkpt lat="49.27003" lon="1.17345">
        <ele>123.4</ele>
        <time>2017-05-01T06:28:10Z</time>
      </trkpt>
      <trkpt lat="49.26994" lon="1.17355">
        <ele>123.4</ele>
        <time>2017-05-01T06:28:12Z</time>
      </trkpt>
      <trkpt lat="49.26986" lon="1.17367">
        <ele>123.2</ele>
        <time>2017-05-01T06:28:14Z</time>
      </trkpt>
      <trkpt lat="49.26977" lon="1.17378">
        <ele>123.1</ele>
        <time>2017-05-01T06:28:16Z</time>
      </trkpt>
      <trkpt lat="49.26968" lon="1.17391">
        <ele>123</ele>
        <time>2017-05-01T06:28:18Z</time>
      </trkpt>
      <trkpt lat="49.26958" lon="1.17403">
        <ele>122.8</ele>
        <time>2017-05-01T06:28:20Z</time>
      </trkpt>
      <trkpt lat="49.26949" lon="1.17416">
        <ele>122.6</ele>
        <time>2017-05-01T06:28:22Z</time>
      </trkpt>
      <trkpt lat="49.26939" lon="1.17429">
        <ele>122.3</ele>
        <time>2017-05-01T06:28:24Z</time>
      </trkpt>
      <trkpt lat="49.26926" lon="1.1744">
        <ele>122</ele>
        <time>2017-05-01T06:28:26Z</time>
      </trkpt>
      <trkpt lat="49.26913" lon="1.17452">
        <ele>121.4</ele>
        <time>2017-05-01T06:28:28Z</time>
      </trkpt>
      <trkpt lat="49.269" lon="1.17463">
        <ele>120.7</ele>
        <time>2017-05-01T06:28:30Z</time>
      </trkpt>
      <trkpt lat="49.26885" lon="1.17474">
        <ele>119.9</ele>
        <time>2017-05-01T06:28:32Z</time>
      </trkpt>
      <trkpt lat="49.26868" lon="1.17485">
        <ele>119</ele>
        <time>2017-05-01T06:28:34Z</time>
      </trkpt>
      <trkpt lat="49.2686" lon="1.1749">
        <ele>118.5</ele>
        <time>2017-05-01T06:28:35Z</time>
      </trkpt>
      <trkpt lat="49.26851" lon="1.17497">
        <ele>117.9</ele>
        <time>2017-05-01T06:28:36Z</time>
      </trkpt>
      <trkpt lat="49.26835" lon="1.1751">
        <ele>116.5</ele>
        <time>2017-05-01T06:28:38Z</time>
      </trkpt>
      <trkpt lat="49.26825" lon="1.17516">
        <ele>115.8</ele>
        <time>2017-05-01T06:28:39Z</time>
      </trkpt>
      <trkpt lat="49.26816" lon="1.17522">
        <ele>115.1</ele>
        <time>2017-05-01T06:28:40Z</time>
      </trkpt>
      <trkpt lat="49.26808" lon="1.17527">
        <ele>114.2</ele>
        <time>2017-05-01T06:28:41Z</time>
      </trkpt>
      <trkpt lat="49.26798" lon="1.1753">
        <ele>113.4</ele>
        <time>2017-05-01T06:28:42Z</time>
      </trkpt>
      <trkpt lat="49.26785" lon="1.17534">
        <ele>112.5</ele>
        <time>2017-05-01T06:28:43Z</time>
      </trkpt>
      <trkpt lat="49.26775" lon="1.17538">
        <ele>111.5</ele>
        <time>2017-05-01T06:28:44Z</time>
      </trkpt>
      <trkpt lat="49.26764" lon="1.17543">
        <ele>110.5</ele>
        <time>2017-05-01T06:28:45Z</time>
      </trkpt>
      <trkpt lat="49.26754" lon="1.17548">
        <ele>109.5</ele>
        <time>2017-05-01T06:28:46Z</time>
      </trkpt>
      <trkpt lat="49.26744" lon="1.17554">
        <ele>108.5</ele>
        <time>2017-05-01T06:28:47Z</time>
      </trkpt>
      <trkpt lat="49.26731" lon="1.17558">
        <ele>107.4</ele>
        <time>2017-05-01T06:28:48Z</time>
      </trkpt>
      <trkpt lat="49.26719" lon="1.17565">
        <ele>106.3</ele>
        <time>2017-05-01T06:28:49Z</time>
      </trkpt>
      <trkpt lat="49.26708" lon="1.17574">
        <ele>105</ele>
        <time>2017-05-01T06:28:50Z</time>
      </trkpt>
      <trkpt lat="49.267" lon="1.17582">
        <ele>103.9</ele>
        <time>2017-05-01T06:28:51Z</time>
      </trkpt>
      <trkpt lat="49.26691" lon="1.1759">
        <ele>102.8</ele>
        <time>2017-05-01T06:28:52Z</time>
      </trkpt>
      <trkpt lat="49.26677" lon="1.17607">
        <ele>100.6</ele>
        <time>2017-05-01T06:28:54Z</time>
      </trkpt>
      <trkpt lat="49.26665" lon="1.17627">
        <ele>98.5</ele>
        <time>2017-05-01T06:28:56Z</time>
      </trkpt>
      <trkpt lat="49.26656" lon="1.17642">
        <ele>96.3</ele>
        <time>2017-05-01T06:28:58Z</time>
      </trkpt>
      <trkpt lat="49.26649" lon="1.17657">
        <ele>94.3</ele>
        <time>2017-05-01T06:29:00Z</time>
      </trkpt>
      <trkpt lat="49.26641" lon="1.17667">
        <ele>92.4</ele>
        <time>2017-05-01T06:29:02Z</time>
      </trkpt>
      <trkpt lat="49.26632" lon="1.17669">
        <ele>89.9</ele>
        <time>2017-05-01T06:29:05Z</time>
      </trkpt>
      <trkpt lat="49.26623" lon="1.17665">
        <ele>87.9</ele>
        <time>2017-05-01T06:29:08Z</time>
      </trkpt>
      <trkpt lat="49.26613" lon="1.17662">
        <ele>85.9</ele>
        <time>2017-05-01T06:29:12Z</time>
      </trkpt>
      <trkpt lat="49.26602" lon="1.17658">
        <ele>84.1</ele>
        <time>2017-05-01T06:29:17Z</time>
      </trkpt>
      <trkpt lat="49.26592" lon="1.17653">
        <ele>83.4</ele>
        <time>2017-05-01T06:29:20Z</time>
      </trkpt>
      <trkpt lat="49.26576" lon="1.17649">
        <ele>82.7</ele>
        <time>2017-05-01T06:29:23Z</time>
      </trkpt>
      <trkpt lat="49.26565" lon="1.17646">
        <ele>82.3</ele>
        <time>2017-05-01T06:29:25Z</time>
      </trkpt>
      <trkpt lat="49.26554" lon="1.17642">
        <ele>82</ele>
        <time>2017-05-01T06:29:27Z</time>
      </trkpt>
      <trkpt lat="49.26539" lon="1.17639">
        <ele>81.5</ele>
        <time>2017-05-01T06:29:30Z</time>
      </trkpt>
      <trkpt lat="49.26529" lon="1.17628">
        <ele>81</ele>
        <time>2017-05-01T06:29:33Z</time>
      </trkpt>
      <trkpt lat="49.26521" lon="1.17637">
        <ele>80.2</ele>
        <time>2017-05-01T06:29:39Z</time>
      </trkpt>
      <trkpt lat="49.26514" lon="1.17648">
        <ele>79.6</ele>
        <time>2017-05-01T06:29:44Z</time>
      </trkpt>
      <trkpt lat="49.26512" lon="1.17664">
        <ele>78.8</ele>
        <time>2017-05-01T06:29:51Z</time>
      </trkpt>
      <trkpt lat="49.26509" lon="1.17679">
        <ele>78.2</ele>
        <time>2017-05-01T06:29:55Z</time>
      </trkpt>
      <trkpt lat="49.26509" lon="1.17693">
        <ele>77.8</ele>
        <time>2017-05-01T06:29:58Z</time>
      </trkpt>
      <trkpt lat="49.26507" lon="1.17709">
        <ele>76.6</ele>
        <time>2017-05-01T06:30:04Z</time>
      </trkpt>
      <trkpt lat="49.26503" lon="1.17722">
        <ele>75.4</ele>
        <time>2017-05-01T06:30:10Z</time>
      </trkpt>
      <trkpt lat="49.26502" lon="1.17737">
        <ele>74.4</ele>
        <time>2017-05-01T06:30:16Z</time>
      </trkpt>
      <trkpt lat="49.26498" lon="1.17753">
        <ele>73.6</ele>
        <time>2017-05-01T06:30:20Z</time>
      </trkpt>
      <trkpt lat="49.26496" lon="1.17769">
        <ele>72.7</ele>
        <time>2017-05-01T06:30:24Z</time>
      </trkpt>
      <trkpt lat="49.26493" lon="1.17788">
        <ele>71.7</ele>
        <time>2017-05-01T06:30:28Z</time>
      </trkpt>
      <trkpt lat="49.26491" lon="1.17805">
        <ele>70.9</ele>
        <time>2017-05-01T06:30:31Z</time>
      </trkpt>
      <trkpt lat="49.26491" lon="1.1782">
        <ele>69.8</ele>
        <time>2017-05-01T06:30:34Z</time>
      </trkpt>
      <trkpt lat="49.26487" lon="1.17833">
        <ele>67.4</ele>
        <time>2017-05-01T06:30:41Z</time>
      </trkpt>
      <trkpt lat="49.26478" lon="1.17837">
        <ele>65.8</ele>
        <time>2017-05-01T06:30:47Z</time>
      </trkpt>
      <trkpt lat="49.26467" lon="1.17838">
        <ele>65.1</ele>
        <time>2017-05-01T06:30:51Z</time>
      </trkpt>
      <trkpt lat="49.26457" lon="1.17836">
        <ele>64.6</ele>
        <time>2017-05-01T06:30:54Z</time>
      </trkpt>
      <trkpt lat="49.26444" lon="1.17836">
        <ele>64.1</ele>
        <time>2017-05-01T06:30:58Z</time>
      </trkpt>
      <trkpt lat="49.26431" lon="1.17835">
        <ele>63.8</ele>
        <time>2017-05-01T06:31:01Z</time>
      </trkpt>
      <trkpt lat="49.26422" lon="1.17833">
        <ele>63.7</ele>
        <time>2017-05-01T06:31:03Z</time>
      </trkpt>
      <trkpt lat="49.26411" lon="1.17829">
        <ele>63.4</ele>
        <time>2017-05-01T06:31:06Z</time>
      </trkpt>
      <trkpt lat="49.26399" lon="1.17829">
        <ele>63.2</ele>
        <time>2017-05-01T06:31:09Z</time>
      </trkpt>
      <trkpt lat="49.26389" lon="1.17827">
        <ele>62.9</ele>
        <time>2017-05-01T06:31:12Z</time>
      </trkpt>
      <trkpt lat="49.2638" lon="1.17825">
        <ele>62.8</ele>
        <time>2017-05-01T06:31:14Z</time>
      </trkpt>
      <trkpt lat="49.26371" lon="1.17822">
        <ele>62.6</ele>
        <time>2017-05-01T06:31:16Z</time>
      </trkpt>
      <trkpt lat="49.26361" lon="1.17819">
        <ele>62.2</ele>
        <time>2017-05-01T06:31:18Z</time>
      </trkpt>
      <trkpt lat="49.2635" lon="1.17811">
        <ele>61.7</ele>
        <time>2017-05-01T06:31:22Z</time>
      </trkpt>
      <trkpt lat="49.2634" lon="1.17802">
        <ele>61.4</ele>
        <time>2017-05-01T06:31:25Z</time>
      </trkpt>
      <trkpt lat="49.2633" lon="1.17799">
        <ele>61.2</ele>
        <time>2017-05-01T06:31:27Z</time>
      </trkpt>
      <trkpt lat="49.26319" lon="1.17795">
        <ele>60.8</ele>
        <time>2017-05-01T06:31:30Z</time>
      </trkpt>
      <trkpt lat="49.26308" lon="1.17792">
        <ele>60.6</ele>
        <time>2017-05-01T06:31:32Z</time>
      </trkpt>
      <trkpt lat="49.26299" lon="1.17789">
        <ele>60.3</ele>
        <time>2017-05-01T06:31:34Z</time>
      </trkpt>
      <trkpt lat="49.26289" lon="1.17788">
        <ele>60.2</ele>
        <time>2017-05-01T06:31:36Z</time>
      </trkpt>
      <trkpt lat="49.26279" lon="1.17786">
        <ele>60.1</ele>
        <time>2017-05-01T06:31:38Z</time>
      </trkpt>
      <trkpt lat="49.2627" lon="1.17784">
        <ele>60.2</ele>
        <time>2017-05-01T06:31:40Z</time>
      </trkpt>
      <trkpt lat="49.26257" lon="1.17781">
        <ele>60.4</ele>
        <time>2017-05-01T06:31:43Z</time>
      </trkpt>
      <trkpt lat="49.26247" lon="1.17778">
        <ele>60.6</ele>
        <time>2017-05-01T06:31:45Z</time>
      </trkpt>
      <trkpt lat="49.26237" lon="1.17776">
        <ele>60.7</ele>
        <time>2017-05-01T06:31:47Z</time>
      </trkpt>
      <trkpt lat="49.26226" lon="1.1777">
        <ele>61</ele>
        <time>2017-05-01T06:31:50Z</time>
      </trkpt>
      <trkpt lat="49.26215" lon="1.17767">
        <ele>61.1</ele>
        <time>2017-05-01T06:31:52Z</time>
      </trkpt>
      <trkpt lat="49.26207" lon="1.17761">
        <ele>61.2</ele>
        <time>2017-05-01T06:31:54Z</time>
      </trkpt>
      <trkpt lat="49.26194" lon="1.17756">
        <ele>61.5</ele>
        <time>2017-05-01T06:31:58Z</time>
      </trkpt>
      <trkpt lat="49.26184" lon="1.17753">
        <ele>61.6</ele>
        <time>2017-05-01T06:32:00Z</time>
      </trkpt>
      <trkpt lat="49.26173" lon="1.1775">
        <ele>61.7</ele>
        <time>2017-05-01T06:32:02Z</time>
      </trkpt>
      <trkpt lat="49.26165" lon="1.17746">
        <ele>61.8</ele>
        <time>2017-05-01T06:32:04Z</time>
      </trkpt>
      <trkpt lat="49.26153" lon="1.17745">
        <ele>61.7</ele>
        <time>2017-05-01T06:32:07Z</time>
      </trkpt>
      <trkpt lat="49.26143" lon="1.17742">
        <ele>61.4</ele>
        <time>2017-05-01T06:32:10Z</time>
      </trkpt>
      <trkpt lat="49.26134" lon="1.17727">
        <ele>60.9</ele>
        <time>2017-05-01T06:32:14Z</time>
      </trkpt>
      <trkpt lat="49.2613" lon="1.17711">
        <ele>60.5</ele>
        <time>2017-05-01T06:32:17Z</time>
      </trkpt>
      <trkpt lat="49.26126" lon="1.17697">
        <ele>60.2</ele>
        <time>2017-05-01T06:32:19Z</time>
      </trkpt>
      <trkpt lat="49.26123" lon="1.1768">
        <ele>59.7</ele>
        <time>2017-05-01T06:32:22Z</time>
      </trkpt>
      <trkpt lat="49.26121" lon="1.17664">
        <ele>59.3</ele>
        <time>2017-05-01T06:32:25Z</time>
      </trkpt>
      <trkpt lat="49.26114" lon="1.17654">
        <ele>58.5</ele>
        <time>2017-05-01T06:32:30Z</time>
      </trkpt>
      <trkpt lat="49.26104" lon="1.1765">
        <ele>57.4</ele>
        <time>2017-05-01T06:32:33Z</time>
      </trkpt>
      <trkpt lat="49.26095" lon="1.17642">
        <ele>55.9</ele>
        <time>2017-05-01T06:32:36Z</time>
      </trkpt>
      <trkpt lat="49.26089" lon="1.17628">
        <ele>54.3</ele>
        <time>2017-05-01T06:32:40Z</time>
      </trkpt>
      <trkpt lat="49.2608" lon="1.17618">
        <ele>53.7</ele>
        <time>2017-05-01T06:32:42Z</time>
      </trkpt>
      <trkpt lat="49.26072" lon="1.17608">
        <ele>53.3</ele>
        <time>2017-05-01T06:32:44Z</time>
      </trkpt>
      <trkpt lat="49.26064" lon="1.17599">
        <ele>53</ele>
        <time>2017-05-01T06:32:47Z</time>
      </trkpt>
      <trkpt lat="49.26053" lon="1.17588">
        <ele>53</ele>
        <time>2017-05-01T06:32:50Z</time>
      </trkpt>
      <trkpt lat="49.26044" lon="1.17575">
        <ele>53.3</ele>
        <time>2017-05-01T06:32:54Z</time>
      </trkpt>
      <trkpt lat="49.26036" lon="1.17563">
        <ele>53.7</ele>
        <time>2017-05-01T06:32:57Z</time>
      </trkpt>
      <trkpt lat="49.26027" lon="1.1755">
        <ele>54.2</ele>
        <time>2017-05-01T06:33:01Z</time>
      </trkpt>
      <trkpt lat="49.26022" lon="1.17537">
        <ele>54.6</ele>
        <time>2017-05-01T06:33:04Z</time>
      </trkpt>
      <trkpt lat="49.26014" lon="1.17525">
        <ele>55.2</ele>
        <time>2017-05-01T06:33:08Z</time>
      </trkpt>
      <trkpt lat="49.26007" lon="1.17512">
        <ele>56</ele>
        <time>2017-05-01T06:33:12Z</time>
      </trkpt>
      <trkpt lat="49.26" lon="1.175">
        <ele>56.8</ele>
        <time>2017-05-01T06:33:16Z</time>
      </trkpt>
      <trkpt lat="49.25994" lon="1.17487">
        <ele>57.7</ele>
        <time>2017-05-01T06:33:20Z</time>
      </trkpt>
      <trkpt lat="49.25984" lon="1.17477">
        <ele>58.5</ele>
        <time>2017-05-01T06:33:24Z</time>
      </trkpt>
      <trkpt lat="49.25979" lon="1.17466">
        <ele>59.4</ele>
        <time>2017-05-01T06:33:28Z</time>
      </trkpt>
      <trkpt lat="49.25975" lon="1.17451">
        <ele>60.7</ele>
        <time>2017-05-01T06:33:34Z</time>
      </trkpt>
      <trkpt lat="49.25972" lon="1.17435">
        <ele>61.4</ele>
        <time>2017-05-01T06:33:38Z</time>
      </trkpt>
      <trkpt lat="49.25968" lon="1.17423">
        <ele>62</ele>
        <time>2017-05-01T06:33:41Z</time>
      </trkpt>
      <trkpt lat="49.25961" lon="1.17412">
        <ele>62.6</ele>
        <time>2017-05-01T06:33:45Z</time>
      </trkpt>
      <trkpt lat="49.25951" lon="1.17407">
        <ele>63.4</ele>
        <time>2017-05-01T06:33:49Z</time>
      </trkpt>
      <trkpt lat="49.2594" lon="1.17403">
        <ele>64.1</ele>
        <time>2017-05-01T06:33:53Z</time>
      </trkpt>
      <trkpt lat="49.25932" lon="1.17398">
        <ele>64.6</ele>
        <time>2017-05-01T06:33:56Z</time>
      </trkpt>
      <trkpt lat="49.25928" lon="1.17382">
        <ele>65.3</ele>
        <time>2017-05-01T06:34:00Z</time>
      </trkpt>
      <trkpt lat="49.25926" lon="1.17365">
        <ele>66</ele>
        <time>2017-05-01T06:34:04Z</time>
      </trkpt>
      <trkpt lat="49.25924" lon="1.17349">
        <ele>66.7</ele>
        <time>2017-05-01T06:34:08Z</time>
      </trkpt>
      <trkpt lat="49.25924" lon="1.17332">
        <ele>67.3</ele>
        <time>2017-05-01T06:34:12Z</time>
      </trkpt>
      <trkpt lat="49.25922" lon="1.17317">
        <ele>67.9</ele>
        <time>2017-05-01T06:34:16Z</time>
      </trkpt>
      <trkpt lat="49.25919" lon="1.17302">
        <ele>68.5</ele>
        <time>2017-05-01T06:34:20Z</time>
      </trkpt>
      <trkpt lat="49.25916" lon="1.17286">
        <ele>69.2</ele>
        <time>2017-05-01T06:34:24Z</time>
      </trkpt>
      <trkpt lat="49.25915" lon="1.17268">
        <ele>69.8</ele>
        <time>2017-05-01T06:34:28Z</time>
      </trkpt>
      <trkpt lat="49.25915" lon="1.17251">
        <ele>70.5</ele>
        <time>2017-05-01T06:34:32Z</time>
      </trkpt>
      <trkpt lat="49.25915" lon="1.17234">
        <ele>71.1</ele>
        <time>2017-05-01T06:34:36Z</time>
      </trkpt>
      <trkpt lat="49.25914" lon="1.17219">
        <ele>71.7</ele>
        <time>2017-05-01T06:34:40Z</time>
      </trkpt>
      <trkpt lat="49.25914" lon="1.17204">
        <ele>72.4</ele>
        <time>2017-05-01T06:34:44Z</time>
      </trkpt>
      <trkpt lat="49.25914" lon="1.17188">
        <ele>72.9</ele>
        <time>2017-05-01T06:34:48Z</time>
      </trkpt>
      <trkpt lat="49.25912" lon="1.17173">
        <ele>73.6</ele>
        <time>2017-05-01T06:34:52Z</time>
      </trkpt>
      <trkpt lat="49.25912" lon="1.17155">
        <ele>74.1</ele>
        <time>2017-05-01T06:34:56Z</time>
      </trkpt>
      <trkpt lat="49.25912" lon="1.17136">
        <ele>74.6</ele>
        <time>2017-05-01T06:35:00Z</time>
      </trkpt>
      <trkpt lat="49.25914" lon="1.17123">
        <ele>75</ele>
        <time>2017-05-01T06:35:03Z</time>
      </trkpt>
      <trkpt lat="49.25924" lon="1.17116">
        <ele>75.6</ele>
        <time>2017-05-01T06:35:07Z</time>
      </trkpt>
      <trkpt lat="49.25934" lon="1.17118">
        <ele>76.1</ele>
        <time>2017-05-01T06:35:11Z</time>
      </trkpt>
      <trkpt lat="49.25943" lon="1.17121">
        <ele>76.4</ele>
        <time>2017-05-01T06:35:14Z</time>
      </trkpt>
      <trkpt lat="49.25953" lon="1.17122">
        <ele>76.6</ele>
        <time>2017-05-01T06:35:16Z</time>
      </trkpt>
      <trkpt lat="49.25962" lon="1.17123">
        <ele>76.7</ele>
        <time>2017-05-01T06:35:18Z</time>
      </trkpt>
      <trkpt lat="49.25976" lon="1.17124">
        <ele>76.9</ele>
        <time>2017-05-01T06:35:21Z</time>
      </trkpt>
      <trkpt lat="49.25988" lon="1.17124">
        <ele>77</ele>
        <time>2017-05-01T06:35:23Z</time>
      </trkpt>
      <trkpt lat="49.25997" lon="1.17125">
        <ele>77</ele>
        <time>2017-05-01T06:35:25Z</time>
      </trkpt>
      <trkpt lat="49.26008" lon="1.17126">
        <ele>76.8</ele>
        <time>2017-05-01T06:35:27Z</time>
      </trkpt>
      <trkpt lat="49.26017" lon="1.17128">
        <ele>76.7</ele>
        <time>2017-05-01T06:35:29Z</time>
      </trkpt>
      <trkpt lat="49.26032" lon="1.17128">
        <ele>76.5</ele>
        <time>2017-05-01T06:35:32Z</time>
      </trkpt>
      <trkpt lat="49.26043" lon="1.17129">
        <ele>76.4</ele>
        <time>2017-05-01T06:35:34Z</time>
      </trkpt>
      <trkpt lat="49.26055" lon="1.1713">
        <ele>76.2</ele>
        <time>2017-05-01T06:35:36Z</time>
      </trkpt>
      <trkpt lat="49.26064" lon="1.17131">
        <ele>75.9</ele>
        <time>2017-05-01T06:35:38Z</time>
      </trkpt>
      <trkpt lat="49.26076" lon="1.17132">
        <ele>75.5</ele>
        <time>2017-05-01T06:35:40Z</time>
      </trkpt>
      <trkpt lat="49.26091" lon="1.17131">
        <ele>75</ele>
        <time>2017-05-01T06:35:42Z</time>
      </trkpt>
      <trkpt lat="49.26107" lon="1.17132">
        <ele>74.3</ele>
        <time>2017-05-01T06:35:44Z</time>
      </trkpt>
      <trkpt lat="49.26116" lon="1.17132">
        <ele>73.8</ele>
        <time>2017-05-01T06:35:45Z</time>
      </trkpt>
      <trkpt lat="49.26127" lon="1.17134">
        <ele>72.8</ele>
        <time>2017-05-01T06:35:47Z</time>
      </trkpt>
      <trkpt lat="49.26141" lon="1.17138">
        <ele>71.4</ele>
        <time>2017-05-01T06:35:50Z</time>
      </trkpt>
      <trkpt lat="49.26151" lon="1.17139">
        <ele>70.4</ele>
        <time>2017-05-01T06:35:52Z</time>
      </trkpt>
      <trkpt lat="49.26162" lon="1.17141">
        <ele>69.3</ele>
        <time>2017-05-01T06:35:55Z</time>
      </trkpt>
      <trkpt lat="49.26171" lon="1.17141">
        <ele>66.9</ele>
        <time>2017-05-01T06:36:04Z</time>
      </trkpt>
      <trkpt lat="49.2618" lon="1.17138">
        <ele>66.1</ele>
        <time>2017-05-01T06:36:10Z</time>
      </trkpt>
      <trkpt lat="49.26171" lon="1.17131">
        <ele>65.4</ele>
        <time>2017-05-01T06:36:20Z</time>
      </trkpt>
      <trkpt lat="49.26162" lon="1.17128">
        <ele>65</ele>
        <time>2017-05-01T06:36:25Z</time>
      </trkpt>
      <trkpt lat="49.26151" lon="1.17127">
        <ele>64.7</ele>
        <time>2017-05-01T06:36:30Z</time>
      </trkpt>
      <trkpt lat="49.26141" lon="1.17126">
        <ele>64.5</ele>
        <time>2017-05-01T06:36:36Z</time>
      </trkpt>
      <trkpt lat="49.26154" lon="1.17126">
        <ele>65.2</ele>
        <time>2017-05-01T06:36:50Z</time>
      </trkpt>
      <trkpt lat="49.26165" lon="1.17129">
        <ele>65</ele>
        <time>2017-05-01T06:36:52Z</time>
      </trkpt>
      <trkpt lat="49.26176" lon="1.17133">
        <ele>64.7</ele>
        <time>2017-05-01T06:36:55Z</time>
      </trkpt>
      <trkpt lat="49.26186" lon="1.17139">
        <ele>64.6</ele>
        <time>2017-05-01T06:36:59Z</time>
      </trkpt>
      <trkpt lat="49.26195" lon="1.17139">
        <ele>65.1</ele>
        <time>2017-05-01T06:37:03Z</time>
      </trkpt>
      <trkpt lat="49.26204" lon="1.1714">
        <ele>65.8</ele>
        <time>2017-05-01T06:37:08Z</time>
      </trkpt>
      <trkpt lat="49.2621" lon="1.17127">
        <ele>66.8</ele>
        <time>2017-05-01T06:37:13Z</time>
      </trkpt>
      <trkpt lat="49.2621" lon="1.17113">
        <ele>67.3</ele>
        <time>2017-05-01T06:37:16Z</time>
      </trkpt>
      <trkpt lat="49.26212" lon="1.17097">
        <ele>67.6</ele>
        <time>2017-05-01T06:37:19Z</time>
      </trkpt>
      <trkpt lat="49.26215" lon="1.17081">
        <ele>68</ele>
        <time>2017-05-01T06:37:22Z</time>
      </trkpt>
      <trkpt lat="49.26217" lon="1.17061">
        <ele>68.2</ele>
        <time>2017-05-01T06:37:25Z</time>
      </trkpt>
      <trkpt lat="49.26218" lon="1.17046">
        <ele>68.4</ele>
        <time>2017-05-01T06:37:27Z</time>
      </trkpt>
      <trkpt lat="49.2622" lon="1.17029">
        <ele>68.6</ele>
        <time>2017-05-01T06:37:29Z</time>
      </trkpt>
      <trkpt lat="49.26221" lon="1.17013">
        <ele>68.4</ele>
        <time>2017-05-01T06:37:31Z</time>
      </trkpt>
      <trkpt lat="49.26228" lon="1.16996">
        <ele>68.2</ele>
        <time>2017-05-01T06:37:33Z</time>
      </trkpt>
      <trkpt lat="49.26235" lon="1.1698">
        <ele>67.7</ele>
        <time>2017-05-01T06:37:35Z</time>
      </trkpt>
      <trkpt lat="49.26244" lon="1.16967">
        <ele>67.2</ele>
        <time>2017-05-01T06:37:37Z</time>
      </trkpt>
      <trkpt lat="49.26252" lon="1.16959">
        <ele>66.7</ele>
        <time>2017-05-01T06:37:39Z</time>
      </trkpt>
      <trkpt lat="49.26263" lon="1.16949">
        <ele>66</ele>
        <time>2017-05-01T06:37:42Z</time>
      </trkpt>
      <trkpt lat="49.26272" lon="1.16938">
        <ele>65.5</ele>
        <time>2017-05-01T06:37:45Z</time>
      </trkpt>
      <trkpt lat="49.26281" lon="1.16927">
        <ele>65.1</ele>
        <time>2017-05-01T06:37:49Z</time>
      </trkpt>
      <trkpt lat="49.2629" lon="1.16921">
        <ele>65</ele>
        <time>2017-05-01T06:37:51Z</time>
      </trkpt>
      <trkpt lat="49.26298" lon="1.16912">
        <ele>64.8</ele>
        <time>2017-05-01T06:37:54Z</time>
      </trkpt>
      <trkpt lat="49.26307" lon="1.16903">
        <ele>64.8</ele>
        <time>2017-05-01T06:37:57Z</time>
      </trkpt>
      <trkpt lat="49.26316" lon="1.16896">
        <ele>64.8</ele>
        <time>2017-05-01T06:38:00Z</time>
      </trkpt>
      <trkpt lat="49.26325" lon="1.16889">
        <ele>64.9</ele>
        <time>2017-05-01T06:38:03Z</time>
      </trkpt>
      <trkpt lat="49.26333" lon="1.16883">
        <ele>65</ele>
        <time>2017-05-01T06:38:05Z</time>
      </trkpt>
      <trkpt lat="49.26345" lon="1.16875">
        <ele>65.3</ele>
        <time>2017-05-01T06:38:08Z</time>
      </trkpt>
      <trkpt lat="49.26353" lon="1.16868">
        <ele>65.6</ele>
        <time>2017-05-01T06:38:11Z</time>
      </trkpt>
      <trkpt lat="49.26364" lon="1.16859">
        <ele>65.9</ele>
        <time>2017-05-01T06:38:14Z</time>
      </trkpt>
      <trkpt lat="49.26373" lon="1.16854">
        <ele>66.3</ele>
        <time>2017-05-01T06:38:17Z</time>
      </trkpt>
      <trkpt lat="49.26381" lon="1.1684">
        <ele>66.6</ele>
        <time>2017-05-01T06:38:20Z</time>
      </trkpt>
      <trkpt lat="49.26387" lon="1.16823">
        <ele>67.1</ele>
        <time>2017-05-01T06:38:23Z</time>
      </trkpt>
      <trkpt lat="49.26389" lon="1.16805">
        <ele>67.5</ele>
        <time>2017-05-01T06:38:26Z</time>
      </trkpt>
      <trkpt lat="49.26392" lon="1.16791">
        <ele>67.9</ele>
        <time>2017-05-01T06:38:29Z</time>
      </trkpt>
      <trkpt lat="49.26392" lon="1.16776">
        <ele>68.3</ele>
        <time>2017-05-01T06:38:32Z</time>
      </trkpt>
      <trkpt lat="49.26394" lon="1.16758">
        <ele>68.9</ele>
        <time>2017-05-01T06:38:36Z</time>
      </trkpt>
      <trkpt lat="49.26398" lon="1.16745">
        <ele>69.7</ele>
        <time>2017-05-01T06:38:40Z</time>
      </trkpt>
      <trkpt lat="49.26399" lon="1.1673">
        <ele>70.3</ele>
        <time>2017-05-01T06:38:43Z</time>
      </trkpt>
      <trkpt lat="49.264" lon="1.16712">
        <ele>71</ele>
        <time>2017-05-01T06:38:47Z</time>
      </trkpt>
      <trkpt lat="49.26398" lon="1.16695">
        <ele>71.8</ele>
        <time>2017-05-01T06:38:51Z</time>
      </trkpt>
      <trkpt lat="49.26398" lon="1.1668">
        <ele>72.4</ele>
        <time>2017-05-01T06:38:54Z</time>
      </trkpt>
      <trkpt lat="49.26396" lon="1.16666">
        <ele>73.1</ele>
        <time>2017-05-01T06:38:57Z</time>
      </trkpt>
      <trkpt lat="49.26398" lon="1.16652">
        <ele>73.8</ele>
        <time>2017-05-01T06:39:00Z</time>
      </trkpt>
      <trkpt lat="49.26399" lon="1.16636">
        <ele>74.7</ele>
        <time>2017-05-01T06:39:04Z</time>
      </trkpt>
      <trkpt lat="49.26403" lon="1.16619">
        <ele>76</ele>
        <time>2017-05-01T06:39:09Z</time>
      </trkpt>
      <trkpt lat="49.26405" lon="1.16604">
        <ele>77</ele>
        <time>2017-05-01T06:39:13Z</time>
      </trkpt>
      <trkpt lat="49.26408" lon="1.1659">
        <ele>78.8</ele>
        <time>2017-05-01T06:39:20Z</time>
      </trkpt>
      <trkpt lat="49.26417" lon="1.16597">
        <ele>80.3</ele>
        <time>2017-05-01T06:39:26Z</time>
      </trkpt>
      <trkpt lat="49.26427" lon="1.16599">
        <ele>81.6</ele>
        <time>2017-05-01T06:39:31Z</time>
      </trkpt>
      <trkpt lat="49.26436" lon="1.166">
        <ele>82.6</ele>
        <time>2017-05-01T06:39:36Z</time>
      </trkpt>
      <trkpt lat="49.26446" lon="1.16594">
        <ele>83</ele>
        <time>2017-05-01T06:39:39Z</time>
      </trkpt>
      <trkpt lat="49.26453" lon="1.16586">
        <ele>83.5</ele>
        <time>2017-05-01T06:39:43Z</time>
      </trkpt>
      <trkpt lat="49.26464" lon="1.1658">
        <ele>84.2</ele>
        <time>2017-05-01T06:39:50Z</time>
      </trkpt>
      <trkpt lat="49.26473" lon="1.16576">
        <ele>84.4</ele>
        <time>2017-05-01T06:39:54Z</time>
      </trkpt>
      <trkpt lat="49.26485" lon="1.16576">
        <ele>84.7</ele>
        <time>2017-05-01T06:39:59Z</time>
      </trkpt>
      <trkpt lat="49.26495" lon="1.16575">
        <ele>85.4</ele>
        <time>2017-05-01T06:40:04Z</time>
      </trkpt>
      <trkpt lat="49.26506" lon="1.16575">
        <ele>85.9</ele>
        <time>2017-05-01T06:40:08Z</time>
      </trkpt>
      <trkpt lat="49.26519" lon="1.16577">
        <ele>86.3</ele>
        <time>2017-05-01T06:40:12Z</time>
      </trkpt>
      <trkpt lat="49.2653" lon="1.16575">
        <ele>86.6</ele>
        <time>2017-05-01T06:40:15Z</time>
      </trkpt>
      <trkpt lat="49.26542" lon="1.16579">
        <ele>86.7</ele>
        <time>2017-05-01T06:40:18Z</time>
      </trkpt>
      <trkpt lat="49.26556" lon="1.16583">
        <ele>86.4</ele>
        <time>2017-05-01T06:40:21Z</time>
      </trkpt>
      <trkpt lat="49.26568" lon="1.16586">
        <ele>86.1</ele>
        <time>2017-05-01T06:40:23Z</time>
      </trkpt>
      <trkpt lat="49.26578" lon="1.16588">
        <ele>85.6</ele>
        <time>2017-05-01T06:40:25Z</time>
      </trkpt>
      <trkpt lat="49.26587" lon="1.16578">
        <ele>84.7</ele>
        <time>2017-05-01T06:40:29Z</time>
      </trkpt>
      <trkpt lat="49.26593" lon="1.16564">
        <ele>84.1</ele>
        <time>2017-05-01T06:40:33Z</time>
      </trkpt>
      <trkpt lat="49.266" lon="1.16553">
        <ele>83.7</ele>
        <time>2017-05-01T06:40:36Z</time>
      </trkpt>
      <trkpt lat="49.26608" lon="1.16541">
        <ele>83.3</ele>
        <time>2017-05-01T06:40:40Z</time>
      </trkpt>
      <trkpt lat="49.26615" lon="1.1653">
        <ele>83.1</ele>
        <time>2017-05-01T06:40:44Z</time>
      </trkpt>
      <trkpt lat="49.26624" lon="1.16518">
        <ele>83.1</ele>
        <time>2017-05-01T06:40:48Z</time>
      </trkpt>
      <trkpt lat="49.26633" lon="1.16505">
        <ele>83.4</ele>
        <time>2017-05-01T06:40:52Z</time>
      </trkpt>
      <trkpt lat="49.26642" lon="1.16496">
        <ele>83.6</ele>
        <time>2017-05-01T06:40:55Z</time>
      </trkpt>
      <trkpt lat="49.26648" lon="1.16487">
        <ele>83.8</ele>
        <time>2017-05-01T06:40:58Z</time>
      </trkpt>
      <trkpt lat="49.26655" lon="1.16473">
        <ele>84.2</ele>
        <time>2017-05-01T06:41:03Z</time>
      </trkpt>
      <trkpt lat="49.26662" lon="1.16462">
        <ele>84.7</ele>
        <time>2017-05-01T06:41:07Z</time>
      </trkpt>
      <trkpt lat="49.26669" lon="1.16454">
        <ele>85.1</ele>
        <time>2017-05-01T06:41:10Z</time>
      </trkpt>
      <trkpt lat="49.26679" lon="1.16447">
        <ele>85.5</ele>
        <time>2017-05-01T06:41:13Z</time>
      </trkpt>
      <trkpt lat="49.26688" lon="1.16438">
        <ele>86.1</ele>
        <time>2017-05-01T06:41:17Z</time>
      </trkpt>
      <trkpt lat="49.26697" lon="1.1643">
        <ele>86.7</ele>
        <time>2017-05-01T06:41:21Z</time>
      </trkpt>
      <trkpt lat="49.26704" lon="1.16421">
        <ele>87.1</ele>
        <time>2017-05-01T06:41:24Z</time>
      </trkpt>
      <trkpt lat="49.26712" lon="1.16413">
        <ele>87.6</ele>
        <time>2017-05-01T06:41:27Z</time>
      </trkpt>
      <trkpt lat="49.2672" lon="1.16405">
        <ele>87.9</ele>
        <time>2017-05-01T06:41:30Z</time>
      </trkpt>
      <trkpt lat="49.26728" lon="1.16396">
        <ele>88.4</ele>
        <time>2017-05-01T06:41:34Z</time>
      </trkpt>
      <trkpt lat="49.26735" lon="1.16388">
        <ele>88.8</ele>
        <time>2017-05-01T06:41:37Z</time>
      </trkpt>
      <trkpt lat="49.26743" lon="1.16379">
        <ele>89.2</ele>
        <time>2017-05-01T06:41:40Z</time>
      </trkpt>
      <trkpt lat="49.26752" lon="1.1637">
        <ele>89.6</ele>
        <time>2017-05-01T06:41:43Z</time>
      </trkpt>
      <trkpt lat="49.2676" lon="1.16358">
        <ele>90.1</ele>
        <time>2017-05-01T06:41:46Z</time>
      </trkpt>
      <trkpt lat="49.26767" lon="1.16348">
        <ele>90.5</ele>
        <time>2017-05-01T06:41:49Z</time>
      </trkpt>
      <trkpt lat="49.26774" lon="1.16336">
        <ele>90.9</ele>
        <time>2017-05-01T06:41:52Z</time>
      </trkpt>
      <trkpt lat="49.26782" lon="1.16326">
        <ele>91.4</ele>
        <time>2017-05-01T06:41:55Z</time>
      </trkpt>
      <trkpt lat="49.26788" lon="1.16314">
        <ele>92.1</ele>
        <time>2017-05-01T06:41:59Z</time>
      </trkpt>
      <trkpt lat="49.26796" lon="1.16304">
        <ele>92.6</ele>
        <time>2017-05-01T06:42:02Z</time>
      </trkpt>
      <trkpt lat="49.26805" lon="1.16295">
        <ele>93.1</ele>
        <time>2017-05-01T06:42:05Z</time>
      </trkpt>
      <trkpt lat="49.26814" lon="1.16288">
        <ele>93.6</ele>
        <time>2017-05-01T06:42:08Z</time>
      </trkpt>
      <trkpt lat="49.26822" lon="1.16279">
        <ele>94.1</ele>
        <time>2017-05-01T06:42:11Z</time>
      </trkpt>
      <trkpt lat="49.2683" lon="1.16273">
        <ele>94.5</ele>
        <time>2017-05-01T06:42:14Z</time>
      </trkpt>
      <trkpt lat="49.26839" lon="1.16265">
        <ele>95.2</ele>
        <time>2017-05-01T06:42:18Z</time>
      </trkpt>
      <trkpt lat="49.26849" lon="1.16258">
        <ele>95.8</ele>
        <time>2017-05-01T06:42:22Z</time>
      </trkpt>
      <trkpt lat="49.26858" lon="1.16248">
        <ele>96.4</ele>
        <time>2017-05-01T06:42:26Z</time>
      </trkpt>
      <trkpt lat="49.26867" lon="1.16237">
        <ele>97</ele>
        <time>2017-05-01T06:42:29Z</time>
      </trkpt>
      <trkpt lat="49.26874" lon="1.16225">
        <ele>97.5</ele>
        <time>2017-05-01T06:42:32Z</time>
      </trkpt>
      <trkpt lat="49.26881" lon="1.16213">
        <ele>98</ele>
        <time>2017-05-01T06:42:35Z</time>
      </trkpt>
      <trkpt lat="49.26888" lon="1.16199">
        <ele>98.7</ele>
        <time>2017-05-01T06:42:39Z</time>
      </trkpt>
      <trkpt lat="49.26898" lon="1.16189">
        <ele>99.5</ele>
        <time>2017-05-01T06:42:43Z</time>
      </trkpt>
      <trkpt lat="49.26908" lon="1.16185">
        <ele>100.4</ele>
        <time>2017-05-01T06:42:47Z</time>
      </trkpt>
      <trkpt lat="49.26918" lon="1.1618">
        <ele>101</ele>
        <time>2017-05-01T06:42:50Z</time>
      </trkpt>
      <trkpt lat="49.26929" lon="1.16173">
        <ele>101.6</ele>
        <time>2017-05-01T06:42:53Z</time>
      </trkpt>
      <trkpt lat="49.26939" lon="1.16165">
        <ele>102.1</ele>
        <time>2017-05-01T06:42:56Z</time>
      </trkpt>
      <trkpt lat="49.26947" lon="1.16156">
        <ele>102.6</ele>
        <time>2017-05-01T06:42:59Z</time>
      </trkpt>
      <trkpt lat="49.26955" lon="1.16147">
        <ele>103.1</ele>
        <time>2017-05-01T06:43:02Z</time>
      </trkpt>
      <trkpt lat="49.26964" lon="1.16139">
        <ele>103.7</ele>
        <time>2017-05-01T06:43:05Z</time>
      </trkpt>
      <trkpt lat="49.26973" lon="1.16129">
        <ele>104.3</ele>
        <time>2017-05-01T06:43:09Z</time>
      </trkpt>
      <trkpt lat="49.26986" lon="1.1612">
        <ele>105.3</ele>
        <time>2017-05-01T06:43:13Z</time>
      </trkpt>
      <trkpt lat="49.26995" lon="1.16111">
        <ele>106.2</ele>
        <time>2017-05-01T06:43:17Z</time>
      </trkpt>
      <trkpt lat="49.27004" lon="1.16104">
        <ele>106.8</ele>
        <time>2017-05-01T06:43:20Z</time>
      </trkpt>
      <trkpt lat="49.27012" lon="1.16096">
        <ele>107.4</ele>
        <time>2017-05-01T06:43:23Z</time>
      </trkpt>
      <trkpt lat="49.2702" lon="1.16087">
        <ele>108</ele>
        <time>2017-05-01T06:43:26Z</time>
      </trkpt>
      <trkpt lat="49.27028" lon="1.16079">
        <ele>108.6</ele>
        <time>2017-05-01T06:43:29Z</time>
      </trkpt>
      <trkpt lat="49.27036" lon="1.16069">
        <ele>109.4</ele>
        <time>2017-05-01T06:43:33Z</time>
      </trkpt>
      <trkpt lat="49.27046" lon="1.1606">
        <ele>110.2</ele>
        <time>2017-05-01T06:43:37Z</time>
      </trkpt>
      <trkpt lat="49.27056" lon="1.16057">
        <ele>110.9</ele>
        <time>2017-05-01T06:43:41Z</time>
      </trkpt>
      <trkpt lat="49.27067" lon="1.16056">
        <ele>111.7</ele>
        <time>2017-05-01T06:43:45Z</time>
      </trkpt>
      <trkpt lat="49.27077" lon="1.16062">
        <ele>112.8</ele>
        <time>2017-05-01T06:43:50Z</time>
      </trkpt>
      <trkpt lat="49.27084" lon="1.16074">
        <ele>113.9</ele>
        <time>2017-05-01T06:43:54Z</time>
      </trkpt>
      <trkpt lat="49.27092" lon="1.16088">
        <ele>114.9</ele>
        <time>2017-05-01T06:43:58Z</time>
      </trkpt>
      <trkpt lat="49.271" lon="1.16101">
        <ele>115.9</ele>
        <time>2017-05-01T06:44:02Z</time>
      </trkpt>
      <trkpt lat="49.27108" lon="1.16113">
        <ele>116.7</ele>
        <time>2017-05-01T06:44:06Z</time>
      </trkpt>
      <trkpt lat="49.27114" lon="1.16126">
        <ele>117.6</ele>
        <time>2017-05-01T06:44:10Z</time>
      </trkpt>
      <trkpt lat="49.27118" lon="1.16143">
        <ele>118.4</ele>
        <time>2017-05-01T06:44:14Z</time>
      </trkpt>
      <trkpt lat="49.27123" lon="1.16155">
        <ele>118.9</ele>
        <time>2017-05-01T06:44:17Z</time>
      </trkpt>
      <trkpt lat="49.27128" lon="1.16167">
        <ele>119.4</ele>
        <time>2017-05-01T06:44:20Z</time>
      </trkpt>
      <trkpt lat="49.27137" lon="1.16175">
        <ele>120</ele>
        <time>2017-05-01T06:44:24Z</time>
      </trkpt>
      <trkpt lat="49.27147" lon="1.16177">
        <ele>120.4</ele>
        <time>2017-05-01T06:44:28Z</time>
      </trkpt>
      <trkpt lat="49.27156" lon="1.16181">
        <ele>121</ele>
        <time>2017-05-01T06:44:32Z</time>
      </trkpt>
      <trkpt lat="49.27165" lon="1.16189">
        <ele>121.6</ele>
        <time>2017-05-01T06:44:36Z</time>
      </trkpt>
      <trkpt lat="49.27174" lon="1.16194">
        <ele>122</ele>
        <time>2017-05-01T06:44:40Z</time>
      </trkpt>
      <trkpt lat="49.27185" lon="1.16199">
        <ele>122.4</ele>
        <time>2017-05-01T06:44:44Z</time>
      </trkpt>
      <trkpt lat="49.27193" lon="1.16205">
        <ele>122.8</ele>
        <time>2017-05-01T06:44:49Z</time>
      </trkpt>
      <trkpt lat="49.27203" lon="1.16209">
        <ele>124.4</ele>
        <time>2017-05-01T06:46:06Z</time>
      </trkpt>
      <trkpt lat="49.27201" lon="1.16224">
        <ele>122.6</ele>
        <time>2017-05-01T06:48:09Z</time>
      </trkpt>
      <trkpt lat="49.272" lon="1.16239">
        <ele>122.6</ele>
        <time>2017-05-01T06:48:13Z</time>
      </trkpt>
      <trkpt lat="49.27198" lon="1.16252">
        <ele>122.6</ele>
        <time>2017-05-01T06:48:16Z</time>
      </trkpt>
      <trkpt lat="49.27196" lon="1.16269">
        <ele>122.6</ele>
        <time>2017-05-01T06:48:19Z</time>
      </trkpt>
      <trkpt lat="49.27194" lon="1.16287">
        <ele>122.6</ele>
        <time>2017-05-01T06:48:22Z</time>
      </trkpt>
      <trkpt lat="49.27191" lon="1.16305">
        <ele>122.6</ele>
        <time>2017-05-01T06:48:25Z</time>
      </trkpt>
      <trkpt lat="49.27189" lon="1.16324">
        <ele>122.6</ele>
        <time>2017-05-01T06:48:28Z</time>
      </trkpt>
      <trkpt lat="49.27187" lon="1.16343">
        <ele>122.6</ele>
        <time>2017-05-01T06:48:31Z</time>
      </trkpt>
      <trkpt lat="49.27186" lon="1.16357">
        <ele>122.6</ele>
        <time>2017-05-01T06:48:33Z</time>
      </trkpt>
      <trkpt lat="49.27184" lon="1.1637">
        <ele>122.6</ele>
        <time>2017-05-01T06:48:35Z</time>
      </trkpt>
      <trkpt lat="49.27183" lon="1.16384">
        <ele>122.7</ele>
        <time>2017-05-01T06:48:37Z</time>
      </trkpt>
      <trkpt lat="49.27181" lon="1.16398">
        <ele>122.7</ele>
        <time>2017-05-01T06:48:39Z</time>
      </trkpt>
      <trkpt lat="49.2718" lon="1.16413">
        <ele>122.8</ele>
        <time>2017-05-01T06:48:41Z</time>
      </trkpt>
      <trkpt lat="49.27178" lon="1.16428">
        <ele>122.8</ele>
        <time>2017-05-01T06:48:43Z</time>
      </trkpt>
      <trkpt lat="49.27177" lon="1.16442">
        <ele>122.8</ele>
        <time>2017-05-01T06:48:45Z</time>
      </trkpt>
      <trkpt lat="49.27175" lon="1.16457">
        <ele>122.9</ele>
        <time>2017-05-01T06:48:47Z</time>
      </trkpt>
      <trkpt lat="49.27174" lon="1.16472">
        <ele>122.9</ele>
        <time>2017-05-01T06:48:49Z</time>
      </trkpt>
      <trkpt lat="49.27172" lon="1.16488">
        <ele>122.9</ele>
        <time>2017-05-01T06:48:51Z</time>
      </trkpt>
      <trkpt lat="49.27171" lon="1.16503">
        <ele>123</ele>
        <time>2017-05-01T06:48:53Z</time>
      </trkpt>
      <trkpt lat="49.27169" lon="1.16519">
        <ele>123</ele>
        <time>2017-05-01T06:48:55Z</time>
      </trkpt>
      <trkpt lat="49.27168" lon="1.16534">
        <ele>123.1</ele>
        <time>2017-05-01T06:48:57Z</time>
      </trkpt>
      <trkpt lat="49.27166" lon="1.16549">
        <ele>123.2</ele>
        <time>2017-05-01T06:48:59Z</time>
      </trkpt>
      <trkpt lat="49.27164" lon="1.16565">
        <ele>123.2</ele>
        <time>2017-05-01T06:49:01Z</time>
      </trkpt>
      <trkpt lat="49.27163" lon="1.1658">
        <ele>123.3</ele>
        <time>2017-05-01T06:49:03Z</time>
      </trkpt>
      <trkpt lat="49.27162" lon="1.16596">
        <ele>123.3</ele>
        <time>2017-05-01T06:49:05Z</time>
      </trkpt>
      <trkpt lat="49.27166" lon="1.16609">
        <ele>123.4</ele>
        <time>2017-05-01T06:49:07Z</time>
      </trkpt>
      <trkpt lat="49.27177" lon="1.16614">
        <ele>123.4</ele>
        <time>2017-05-01T06:49:10Z</time>
      </trkpt>
      <trkpt lat="49.2719" lon="1.16616">
        <ele>123.5</ele>
        <time>2017-05-01T06:49:13Z</time>
      </trkpt>
      <trkpt lat="49.272" lon="1.16621">
        <ele>123.6</ele>
        <time>2017-05-01T06:49:16Z</time>
      </trkpt>
      <trkpt lat="49.27213" lon="1.16623">
        <ele>123.7</ele>
        <time>2017-05-01T06:49:19Z</time>
      </trkpt>
      <trkpt lat="49.27223" lon="1.16624">
        <ele>123.8</ele>
        <time>2017-05-01T06:49:21Z</time>
      </trkpt>
      <trkpt lat="49.27233" lon="1.16624">
        <ele>123.8</ele>
        <time>2017-05-01T06:49:23Z</time>
      </trkpt>
      <trkpt lat="49.27246" lon="1.16627">
        <ele>123.9</ele>
        <time>2017-05-01T06:49:26Z</time>
      </trkpt>
      <trkpt lat="49.27255" lon="1.16628">
        <ele>124</ele>
        <time>2017-05-01T06:49:28Z</time>
      </trkpt>
      <trkpt lat="49.27264" lon="1.16629">
        <ele>124</ele>
        <time>2017-05-01T06:49:30Z</time>
      </trkpt>
      <trkpt lat="49.27274" lon="1.1663">
        <ele>124</ele>
        <time>2017-05-01T06:49:32Z</time>
      </trkpt>
      <trkpt lat="49.27284" lon="1.16631">
        <ele>124.1</ele>
        <time>2017-05-01T06:49:34Z</time>
      </trkpt>
      <trkpt lat="49.27295" lon="1.16632">
        <ele>124.1</ele>
        <time>2017-05-01T06:49:36Z</time>
      </trkpt>
      <trkpt lat="49.27306" lon="1.16632">
        <ele>124.1</ele>
        <time>2017-05-01T06:49:38Z</time>
      </trkpt>
      <trkpt lat="49.27316" lon="1.16633">
        <ele>124.2</ele>
        <time>2017-05-01T06:49:40Z</time>
      </trkpt>
      <trkpt lat="49.2733" lon="1.16635">
        <ele>124.2</ele>
        <time>2017-05-01T06:49:43Z</time>
      </trkpt>
      <trkpt lat="49.2734" lon="1.16636">
        <ele>124.2</ele>
        <time>2017-05-01T06:49:45Z</time>
      </trkpt>
      <trkpt lat="49.27349" lon="1.16639">
        <ele>124.2</ele>
        <time>2017-05-01T06:49:47Z</time>
      </trkpt>
      <trkpt lat="49.27365" lon="1.16638">
        <ele>124.2</ele>
        <time>2017-05-01T06:49:49Z</time>
      </trkpt>
      <trkpt lat="49.27376" lon="1.16639">
        <ele>124.3</ele>
        <time>2017-05-01T06:49:51Z</time>
      </trkpt>
      <trkpt lat="49.27388" lon="1.1664">
        <ele>124.3</ele>
        <time>2017-05-01T06:49:53Z</time>
      </trkpt>
      <trkpt lat="49.27398" lon="1.16641">
        <ele>124.3</ele>
        <time>2017-05-01T06:49:55Z</time>
      </trkpt>
      <trkpt lat="49.27411" lon="1.16641">
        <ele>124.3</ele>
        <time>2017-05-01T06:49:57Z</time>
      </trkpt>
      <trkpt lat="49.27422" lon="1.16642">
        <ele>124.3</ele>
        <time>2017-05-01T06:49:59Z</time>
      </trkpt>
      <trkpt lat="49.27433" lon="1.16643">
        <ele>124.2</ele>
        <time>2017-05-01T06:50:01Z</time>
      </trkpt>
      <trkpt lat="49.27444" lon="1.16644">
        <ele>124.1</ele>
        <time>2017-05-01T06:50:03Z</time>
      </trkpt>
      <trkpt lat="49.27454" lon="1.16646">
        <ele>123.9</ele>
        <time>2017-05-01T06:50:05Z</time>
      </trkpt>
      <trkpt lat="49.27465" lon="1.16647">
        <ele>123.8</ele>
        <time>2017-05-01T06:50:07Z</time>
      </trkpt>
      <trkpt lat="49.27477" lon="1.16648">
        <ele>123.7</ele>
        <time>2017-05-01T06:50:09Z</time>
      </trkpt>
      <trkpt lat="49.27487" lon="1.1665">
        <ele>123.6</ele>
        <time>2017-05-01T06:50:11Z</time>
      </trkpt>
      <trkpt lat="49.27499" lon="1.16651">
        <ele>123.6</ele>
        <time>2017-05-01T06:50:13Z</time>
      </trkpt>
      <trkpt lat="49.27511" lon="1.16651">
        <ele>123.5</ele>
        <time>2017-05-01T06:50:15Z</time>
      </trkpt>
      <trkpt lat="49.27523" lon="1.16652">
        <ele>123.4</ele>
        <time>2017-05-01T06:50:17Z</time>
      </trkpt>
      <trkpt lat="49.27534" lon="1.16652">
        <ele>123.4</ele>
        <time>2017-05-01T06:50:19Z</time>
      </trkpt>
      <trkpt lat="49.27546" lon="1.16653">
        <ele>123.4</ele>
        <time>2017-05-01T06:50:21Z</time>
      </trkpt>
      <trkpt lat="49.27557" lon="1.16654">
        <ele>123.2</ele>
        <time>2017-05-01T06:50:23Z</time>
      </trkpt>
      <trkpt lat="49.27568" lon="1.16655">
        <ele>123</ele>
        <time>2017-05-01T06:50:25Z</time>
      </trkpt>
      <trkpt lat="49.27577" lon="1.16669">
        <ele>122.8</ele>
        <time>2017-05-01T06:50:28Z</time>
      </trkpt>
      <trkpt lat="49.27577" lon="1.16689">
        <ele>122.6</ele>
        <time>2017-05-01T06:50:31Z</time>
      </trkpt>
      <trkpt lat="49.27576" lon="1.16703">
        <ele>122.5</ele>
        <time>2017-05-01T06:50:33Z</time>
      </trkpt>
      <trkpt lat="49.27575" lon="1.16719">
        <ele>122.4</ele>
        <time>2017-05-01T06:50:35Z</time>
      </trkpt>
      <trkpt lat="49.27575" lon="1.16734">
        <ele>122.3</ele>
        <time>2017-05-01T06:50:37Z</time>
      </trkpt>
      <trkpt lat="49.27575" lon="1.1675">
        <ele>122.2</ele>
        <time>2017-05-01T06:50:39Z</time>
      </trkpt>
      <trkpt lat="49.27574" lon="1.16766">
        <ele>122.1</ele>
        <time>2017-05-01T06:50:41Z</time>
      </trkpt>
      <trkpt lat="49.27574" lon="1.16782">
        <ele>122</ele>
        <time>2017-05-01T06:50:43Z</time>
      </trkpt>
      <trkpt lat="49.27573" lon="1.16798">
        <ele>122</ele>
        <time>2017-05-01T06:50:45Z</time>
      </trkpt>
      <trkpt lat="49.27572" lon="1.16813">
        <ele>121.9</ele>
        <time>2017-05-01T06:50:47Z</time>
      </trkpt>
      <trkpt lat="49.27571" lon="1.16829">
        <ele>121.9</ele>
        <time>2017-05-01T06:50:49Z</time>
      </trkpt>
      <trkpt lat="49.2757" lon="1.16844">
        <ele>121.9</ele>
        <time>2017-05-01T06:50:51Z</time>
      </trkpt>
      <trkpt lat="49.2757" lon="1.16859">
        <ele>121.9</ele>
        <time>2017-05-01T06:50:53Z</time>
      </trkpt>
      <trkpt lat="49.27569" lon="1.16875">
        <ele>121.9</ele>
        <time>2017-05-01T06:50:55Z</time>
      </trkpt>
      <trkpt lat="49.27568" lon="1.1689">
        <ele>121.9</ele>
        <time>2017-05-01T06:50:57Z</time>
      </trkpt>
      <trkpt lat="49.27567" lon="1.16907">
        <ele>121.9</ele>
        <time>2017-05-01T06:50:59Z</time>
      </trkpt>
      <trkpt lat="49.27567" lon="1.16924">
        <ele>121.9</ele>
        <time>2017-05-01T06:51:01Z</time>
      </trkpt>
      <trkpt lat="49.27565" lon="1.16942">
        <ele>121.9</ele>
        <time>2017-05-01T06:51:03Z</time>
      </trkpt>
      <trkpt lat="49.27565" lon="1.1696">
        <ele>121.9</ele>
        <time>2017-05-01T06:51:05Z</time>
      </trkpt>
      <trkpt lat="49.27563" lon="1.16978">
        <ele>121.7</ele>
        <time>2017-05-01T06:51:07Z</time>
      </trkpt>
      <trkpt lat="49.27563" lon="1.16996">
        <ele>121.6</ele>
        <time>2017-05-01T06:51:09Z</time>
      </trkpt>
      <trkpt lat="49.27562" lon="1.17015">
        <ele>121.5</ele>
        <time>2017-05-01T06:51:11Z</time>
      </trkpt>
      <trkpt lat="49.27561" lon="1.17033">
        <ele>121.4</ele>
        <time>2017-05-01T06:51:13Z</time>
      </trkpt>
      <trkpt lat="49.2756" lon="1.17052">
        <ele>121.3</ele>
        <time>2017-05-01T06:51:15Z</time>
      </trkpt>
      <trkpt lat="49.2756" lon="1.1707">
        <ele>121</ele>
        <time>2017-05-01T06:51:17Z</time>
      </trkpt>
      <trkpt lat="49.27559" lon="1.17088">
        <ele>120.8</ele>
        <time>2017-05-01T06:51:19Z</time>
      </trkpt>
      <trkpt lat="49.27558" lon="1.17106">
        <ele>120.6</ele>
        <time>2017-05-01T06:51:21Z</time>
      </trkpt>
      <trkpt lat="49.27558" lon="1.17125">
        <ele>120.5</ele>
        <time>2017-05-01T06:51:23Z</time>
      </trkpt>
      <trkpt lat="49.27557" lon="1.17145">
        <ele>120.3</ele>
        <time>2017-05-01T06:51:25Z</time>
      </trkpt>
      <trkpt lat="49.27556" lon="1.17165">
        <ele>120.1</ele>
        <time>2017-05-01T06:51:27Z</time>
      </trkpt>
      <trkpt lat="49.27555" lon="1.17184">
        <ele>119.9</ele>
        <time>2017-05-01T06:51:29Z</time>
      </trkpt>
      <trkpt lat="49.27555" lon="1.17204">
        <ele>119.6</ele>
        <time>2017-05-01T06:51:31Z</time>
      </trkpt>
      <trkpt lat="49.27553" lon="1.17225">
        <ele>119.1</ele>
        <time>2017-05-01T06:51:33Z</time>
      </trkpt>
      <trkpt lat="49.27553" lon="1.17245">
        <ele>118.5</ele>
        <time>2017-05-01T06:51:35Z</time>
      </trkpt>
      <trkpt lat="49.27552" lon="1.17259">
        <ele>117.8</ele>
        <time>2017-05-01T06:51:37Z</time>
      </trkpt>
      <trkpt lat="49.27558" lon="1.17271">
        <ele>116.5</ele>
        <time>2017-05-01T06:51:41Z</time>
      </trkpt>
      <trkpt lat="49.2757" lon="1.17275">
        <ele>115.6</ele>
        <time>2017-05-01T06:51:44Z</time>
      </trkpt>
      <trkpt lat="49.2758" lon="1.17278">
        <ele>115</ele>
        <time>2017-05-01T06:51:46Z</time>
      </trkpt>
      <trkpt lat="49.27591" lon="1.1728">
        <ele>114.4</ele>
        <time>2017-05-01T06:51:48Z</time>
      </trkpt>
      <trkpt lat="49.27602" lon="1.17283">
        <ele>113.9</ele>
        <time>2017-05-01T06:51:50Z</time>
      </trkpt>
      <trkpt lat="49.27613" lon="1.17284">
        <ele>113.4</ele>
        <time>2017-05-01T06:51:52Z</time>
      </trkpt>
      <trkpt lat="49.27623" lon="1.17284">
        <ele>112.9</ele>
        <time>2017-05-01T06:51:54Z</time>
      </trkpt>
      <trkpt lat="49.27635" lon="1.17288">
        <ele>112.6</ele>
        <time>2017-05-01T06:51:56Z</time>
      </trkpt>
      <trkpt lat="49.27644" lon="1.17292">
        <ele>112.2</ele>
        <time>2017-05-01T06:51:58Z</time>
      </trkpt>
      <trkpt lat="49.27655" lon="1.17293">
        <ele>111.9</ele>
        <time>2017-05-01T06:52:00Z</time>
      </trkpt>
      <trkpt lat="49.27667" lon="1.17293">
        <ele>111.7</ele>
        <time>2017-05-01T06:52:02Z</time>
      </trkpt>
      <trkpt lat="49.2768" lon="1.17294">
        <ele>111.4</ele>
        <time>2017-05-01T06:52:05Z</time>
      </trkpt>
      <trkpt lat="49.2769" lon="1.17296">
        <ele>111.3</ele>
        <time>2017-05-01T06:52:07Z</time>
      </trkpt>
      <trkpt lat="49.27702" lon="1.17298">
        <ele>111.2</ele>
        <time>2017-05-01T06:52:09Z</time>
      </trkpt>
      <trkpt lat="49.27712" lon="1.173">
        <ele>111.2</ele>
        <time>2017-05-01T06:52:11Z</time>
      </trkpt>
      <trkpt lat="49.27722" lon="1.17302">
        <ele>111.3</ele>
        <time>2017-05-01T06:52:13Z</time>
      </trkpt>
      <trkpt lat="49.27732" lon="1.17302">
        <ele>111.4</ele>
        <time>2017-05-01T06:52:15Z</time>
      </trkpt>
      <trkpt lat="49.27743" lon="1.17302">
        <ele>111.6</ele>
        <time>2017-05-01T06:52:17Z</time>
      </trkpt>
      <trkpt lat="49.27754" lon="1.17303">
        <ele>111.9</ele>
        <time>2017-05-01T06:52:20Z</time>
      </trkpt>
      <trkpt lat="49.27764" lon="1.17302">
        <ele>112.4</ele>
        <time>2017-05-01T06:52:23Z</time>
      </trkpt>
      <trkpt lat="49.27775" lon="1.17304">
        <ele>113</ele>
        <time>2017-05-01T06:52:26Z</time>
      </trkpt>
      <trkpt lat="49.2778" lon="1.1729">
        <ele>113.8</ele>
        <time>2017-05-01T06:52:30Z</time>
      </trkpt>
      <trkpt lat="49.27777" lon="1.17276">
        <ele>114.4</ele>
        <time>2017-05-01T06:52:33Z</time>
      </trkpt>
      <trkpt lat="49.27775" lon="1.17255">
        <ele>114.9</ele>
        <time>2017-05-01T06:52:36Z</time>
      </trkpt>
      <trkpt lat="49.27775" lon="1.17241">
        <ele>115.2</ele>
        <time>2017-05-01T06:52:38Z</time>
      </trkpt>
      <trkpt lat="49.27776" lon="1.17222">
        <ele>115.6</ele>
        <time>2017-05-01T06:52:41Z</time>
      </trkpt>
      <trkpt lat="49.27772" lon="1.1721">
        <ele>115.8</ele>
        <time>2017-05-01T06:52:43Z</time>
      </trkpt>
      <trkpt lat="49.27769" lon="1.17191">
        <ele>116.1</ele>
        <time>2017-05-01T06:52:46Z</time>
      </trkpt>
      <trkpt lat="49.27772" lon="1.17174">
        <ele>116.3</ele>
        <time>2017-05-01T06:52:49Z</time>
      </trkpt>
      <trkpt lat="49.27776" lon="1.17158">
        <ele>116.5</ele>
        <time>2017-05-01T06:52:52Z</time>
      </trkpt>
      <trkpt lat="49.2778" lon="1.1714">
        <ele>116.7</ele>
        <time>2017-05-01T06:52:55Z</time>
      </trkpt>
      <trkpt lat="49.27778" lon="1.17122">
        <ele>116.9</ele>
        <time>2017-05-01T06:52:57Z</time>
      </trkpt>
      <trkpt lat="49.2778" lon="1.17102">
        <ele>117.1</ele>
        <time>2017-05-01T06:53:00Z</time>
      </trkpt>
      <trkpt lat="49.27782" lon="1.17086">
        <ele>117.3</ele>
        <time>2017-05-01T06:53:02Z</time>
      </trkpt>
      <trkpt lat="49.27784" lon="1.17065">
        <ele>117.6</ele>
        <time>2017-05-01T06:53:05Z</time>
      </trkpt>
      <trkpt lat="49.27786" lon="1.1705">
        <ele>117.8</ele>
        <time>2017-05-01T06:53:07Z</time>
      </trkpt>
      <trkpt lat="49.27785" lon="1.17034">
        <ele>117.9</ele>
        <time>2017-05-01T06:53:09Z</time>
      </trkpt>
      <trkpt lat="49.27786" lon="1.17019">
        <ele>118.1</ele>
        <time>2017-05-01T06:53:11Z</time>
      </trkpt>
      <trkpt lat="49.27788" lon="1.17">
        <ele>118.3</ele>
        <time>2017-05-01T06:53:14Z</time>
      </trkpt>
      <trkpt lat="49.27792" lon="1.16981">
        <ele>118.4</ele>
        <time>2017-05-01T06:53:17Z</time>
      </trkpt>
      <trkpt lat="49.27793" lon="1.16964">
        <ele>118.5</ele>
        <time>2017-05-01T06:53:19Z</time>
      </trkpt>
      <trkpt lat="49.27792" lon="1.16948">
        <ele>118.6</ele>
        <time>2017-05-01T06:53:21Z</time>
      </trkpt>
      <trkpt lat="49.27793" lon="1.16932">
        <ele>118.7</ele>
        <time>2017-05-01T06:53:23Z</time>
      </trkpt>
      <trkpt lat="49.27794" lon="1.16915">
        <ele>118.8</ele>
        <time>2017-05-01T06:53:25Z</time>
      </trkpt>
      <trkpt lat="49.27795" lon="1.16898">
        <ele>118.8</ele>
        <time>2017-05-01T06:53:27Z</time>
      </trkpt>
      <trkpt lat="49.27796" lon="1.16881">
        <ele>118.9</ele>
        <time>2017-05-01T06:53:29Z</time>
      </trkpt>
      <trkpt lat="49.27796" lon="1.16864">
        <ele>119</ele>
        <time>2017-05-01T06:53:31Z</time>
      </trkpt>
      <trkpt lat="49.27797" lon="1.16847">
        <ele>119.1</ele>
        <time>2017-05-01T06:53:33Z</time>
      </trkpt>
      <trkpt lat="49.27798" lon="1.16831">
        <ele>119.1</ele>
        <time>2017-05-01T06:53:35Z</time>
      </trkpt>
      <trkpt lat="49.27799" lon="1.16816">
        <ele>119.2</ele>
        <time>2017-05-01T06:53:37Z</time>
      </trkpt>
      <trkpt lat="49.278" lon="1.16802">
        <ele>119.3</ele>
        <time>2017-05-01T06:53:39Z</time>
      </trkpt>
      <trkpt lat="49.27801" lon="1.1678">
        <ele>119.3</ele>
        <time>2017-05-01T06:53:42Z</time>
      </trkpt>
      <trkpt lat="49.27802" lon="1.16765">
        <ele>119.4</ele>
        <time>2017-05-01T06:53:44Z</time>
      </trkpt>
      <trkpt lat="49.27802" lon="1.16745">
        <ele>119.4</ele>
        <time>2017-05-01T06:53:47Z</time>
      </trkpt>
      <trkpt lat="49.27804" lon="1.16731">
        <ele>119.4</ele>
        <time>2017-05-01T06:53:49Z</time>
      </trkpt>
      <trkpt lat="49.27806" lon="1.16717">
        <ele>119.3</ele>
        <time>2017-05-01T06:53:52Z</time>
      </trkpt>
      <trkpt lat="49.27806" lon="1.16703">
        <ele>119.3</ele>
        <time>2017-05-01T06:53:55Z</time>
      </trkpt>
      <trkpt lat="49.27816" lon="1.16695">
        <ele>119.2</ele>
        <time>2017-05-01T06:54:00Z</time>
      </trkpt>
      <trkpt lat="49.27827" lon="1.16695">
        <ele>119.1</ele>
        <time>2017-05-01T06:54:03Z</time>
      </trkpt>
      <trkpt lat="49.2784" lon="1.16695">
        <ele>119.1</ele>
        <time>2017-05-01T06:54:06Z</time>
      </trkpt>
      <trkpt lat="49.27849" lon="1.16694">
        <ele>119</ele>
        <time>2017-05-01T06:54:08Z</time>
      </trkpt>
      <trkpt lat="49.27862" lon="1.16695">
        <ele>118.9</ele>
        <time>2017-05-01T06:54:11Z</time>
      </trkpt>
      <trkpt lat="49.27872" lon="1.16697">
        <ele>118.8</ele>
        <time>2017-05-01T06:54:13Z</time>
      </trkpt>
      <trkpt lat="49.27883" lon="1.16697">
        <ele>118.6</ele>
        <time>2017-05-01T06:54:15Z</time>
      </trkpt>
      <trkpt lat="49.27895" lon="1.16697">
        <ele>118.4</ele>
        <time>2017-05-01T06:54:17Z</time>
      </trkpt>
      <trkpt lat="49.27907" lon="1.16698">
        <ele>118.1</ele>
        <time>2017-05-01T06:54:19Z</time>
      </trkpt>
      <trkpt lat="49.2792" lon="1.16699">
        <ele>117.9</ele>
        <time>2017-05-01T06:54:21Z</time>
      </trkpt>
      <trkpt lat="49.27934" lon="1.16699">
        <ele>117.5</ele>
        <time>2017-05-01T06:54:23Z</time>
      </trkpt>
      <trkpt lat="49.27948" lon="1.16701">
        <ele>117.2</ele>
        <time>2017-05-01T06:54:25Z</time>
      </trkpt>
      <trkpt lat="49.27963" lon="1.16702">
        <ele>116.7</ele>
        <time>2017-05-01T06:54:27Z</time>
      </trkpt>
      <trkpt lat="49.27979" lon="1.16703">
        <ele>116.2</ele>
        <time>2017-05-01T06:54:29Z</time>
      </trkpt>
      <trkpt lat="49.27996" lon="1.16704">
        <ele>115.7</ele>
        <time>2017-05-01T06:54:31Z</time>
      </trkpt>
      <trkpt lat="49.2801" lon="1.16706">
        <ele>114.9</ele>
        <time>2017-05-01T06:54:33Z</time>
      </trkpt>
      <trkpt lat="49.28021" lon="1.16708">
        <ele>114.2</ele>
        <time>2017-05-01T06:54:35Z</time>
      </trkpt>
      <trkpt lat="49.28027" lon="1.1672">
        <ele>113.2</ele>
        <time>2017-05-01T06:54:38Z</time>
      </trkpt>
      <trkpt lat="49.28026" lon="1.16736">
        <ele>112.2</ele>
        <time>2017-05-01T06:54:41Z</time>
      </trkpt>
      <trkpt lat="49.28024" lon="1.16754">
        <ele>111.3</ele>
        <time>2017-05-01T06:54:44Z</time>
      </trkpt>
      <trkpt lat="49.28022" lon="1.16773">
        <ele>110.6</ele>
        <time>2017-05-01T06:54:47Z</time>
      </trkpt>
      <trkpt lat="49.28021" lon="1.16792">
        <ele>110</ele>
        <time>2017-05-01T06:54:50Z</time>
      </trkpt>
      <trkpt lat="49.28019" lon="1.16812">
        <ele>109.7</ele>
        <time>2017-05-01T06:54:53Z</time>
      </trkpt>
      <trkpt lat="49.28017" lon="1.16832">
        <ele>109.3</ele>
        <time>2017-05-01T06:54:56Z</time>
      </trkpt>
      <trkpt lat="49.28016" lon="1.16846">
        <ele>109.4</ele>
        <time>2017-05-01T06:54:58Z</time>
      </trkpt>
      <trkpt lat="49.28015" lon="1.1686">
        <ele>109.4</ele>
        <time>2017-05-01T06:55:00Z</time>
      </trkpt>
      <trkpt lat="49.28013" lon="1.1688">
        <ele>109.4</ele>
        <time>2017-05-01T06:55:03Z</time>
      </trkpt>
      <trkpt lat="49.28011" lon="1.169">
        <ele>109.4</ele>
        <time>2017-05-01T06:55:06Z</time>
      </trkpt>
      <trkpt lat="49.28009" lon="1.1692">
        <ele>109.5</ele>
        <time>2017-05-01T06:55:09Z</time>
      </trkpt>
      <trkpt lat="49.28008" lon="1.16934">
        <ele>109.5</ele>
        <time>2017-05-01T06:55:11Z</time>
      </trkpt>
      <trkpt lat="49.28007" lon="1.16948">
        <ele>109.6</ele>
        <time>2017-05-01T06:55:13Z</time>
      </trkpt>
      <trkpt lat="49.28006" lon="1.16963">
        <ele>109.7</ele>
        <time>2017-05-01T06:55:15Z</time>
      </trkpt>
      <trkpt lat="49.28004" lon="1.16978">
        <ele>109.7</ele>
        <time>2017-05-01T06:55:17Z</time>
      </trkpt>
      <trkpt lat="49.28003" lon="1.16992">
        <ele>109.8</ele>
        <time>2017-05-01T06:55:19Z</time>
      </trkpt>
      <trkpt lat="49.28002" lon="1.17006">
        <ele>109.8</ele>
        <time>2017-05-01T06:55:21Z</time>
      </trkpt>
      <trkpt lat="49.28001" lon="1.1702">
        <ele>110</ele>
        <time>2017-05-01T06:55:23Z</time>
      </trkpt>
      <trkpt lat="49.27999" lon="1.17035">
        <ele>110.1</ele>
        <time>2017-05-01T06:55:25Z</time>
      </trkpt>
      <trkpt lat="49.27998" lon="1.17049">
        <ele>110.2</ele>
        <time>2017-05-01T06:55:27Z</time>
      </trkpt>
      <trkpt lat="49.27997" lon="1.17063">
        <ele>110.3</ele>
        <time>2017-05-01T06:55:29Z</time>
      </trkpt>
      <trkpt lat="49.27996" lon="1.17077">
        <ele>110.4</ele>
        <time>2017-05-01T06:55:31Z</time>
      </trkpt>
      <trkpt lat="49.27995" lon="1.17092">
        <ele>110.5</ele>
        <time>2017-05-01T06:55:33Z</time>
      </trkpt>
      <trkpt lat="49.27994" lon="1.17106">
        <ele>110.6</ele>
        <time>2017-05-01T06:55:35Z</time>
      </trkpt>
      <trkpt lat="49.27993" lon="1.17121">
        <ele>110.8</ele>
        <time>2017-05-01T06:55:37Z</time>
      </trkpt>
      <trkpt lat="49.27991" lon="1.17136">
        <ele>110.9</ele>
        <time>2017-05-01T06:55:39Z</time>
      </trkpt>
      <trkpt lat="49.2799" lon="1.17151">
        <ele>111.1</ele>
        <time>2017-05-01T06:55:41Z</time>
      </trkpt>
      <trkpt lat="49.27988" lon="1.17165">
        <ele>111.2</ele>
        <time>2017-05-01T06:55:43Z</time>
      </trkpt>
      <trkpt lat="49.27986" lon="1.17178">
        <ele>111.5</ele>
        <time>2017-05-01T06:55:45Z</time>
      </trkpt>
      <trkpt lat="49.27983" lon="1.17198">
        <ele>111.7</ele>
        <time>2017-05-01T06:55:48Z</time>
      </trkpt>
      <trkpt lat="49.27982" lon="1.17218">
        <ele>112</ele>
        <time>2017-05-01T06:55:51Z</time>
      </trkpt>
      <trkpt lat="49.2798" lon="1.17238">
        <ele>112.3</ele>
        <time>2017-05-01T06:55:54Z</time>
      </trkpt>
      <trkpt lat="49.27979" lon="1.17252">
        <ele>112.5</ele>
        <time>2017-05-01T06:55:56Z</time>
      </trkpt>
      <trkpt lat="49.27978" lon="1.17266">
        <ele>112.7</ele>
        <time>2017-05-01T06:55:58Z</time>
      </trkpt>
      <trkpt lat="49.27976" lon="1.17286">
        <ele>112.9</ele>
        <time>2017-05-01T06:56:01Z</time>
      </trkpt>
      <trkpt lat="49.27975" lon="1.173">
        <ele>113.1</ele>
        <time>2017-05-01T06:56:03Z</time>
      </trkpt>
      <trkpt lat="49.27982" lon="1.17315">
        <ele>113.4</ele>
        <time>2017-05-01T06:56:06Z</time>
      </trkpt>
      <trkpt lat="49.27994" lon="1.1732">
        <ele>113.7</ele>
        <time>2017-05-01T06:56:09Z</time>
      </trkpt>
      <trkpt lat="49.28008" lon="1.17322">
        <ele>114</ele>
        <time>2017-05-01T06:56:12Z</time>
      </trkpt>
      <trkpt lat="49.2802" lon="1.17324">
        <ele>114</ele>
        <time>2017-05-01T06:56:14Z</time>
      </trkpt>
      <trkpt lat="49.28033" lon="1.17325">
        <ele>114</ele>
        <time>2017-05-01T06:56:16Z</time>
      </trkpt>
      <trkpt lat="49.28046" lon="1.17328">
        <ele>113.8</ele>
        <time>2017-05-01T06:56:18Z</time>
      </trkpt>
      <trkpt lat="49.28062" lon="1.1733">
        <ele>113.5</ele>
        <time>2017-05-01T06:56:20Z</time>
      </trkpt>
      <trkpt lat="49.2808" lon="1.17332">
        <ele>113</ele>
        <time>2017-05-01T06:56:22Z</time>
      </trkpt>
      <trkpt lat="49.28089" lon="1.17333">
        <ele>112.7</ele>
        <time>2017-05-01T06:56:23Z</time>
      </trkpt>
      <trkpt lat="49.28099" lon="1.17333">
        <ele>112.4</ele>
        <time>2017-05-01T06:56:24Z</time>
      </trkpt>
      <trkpt lat="49.28109" lon="1.17334">
        <ele>112.1</ele>
        <time>2017-05-01T06:56:25Z</time>
      </trkpt>
      <trkpt lat="49.28118" lon="1.17335">
        <ele>111.8</ele>
        <time>2017-05-01T06:56:26Z</time>
      </trkpt>
      <trkpt lat="49.28127" lon="1.17336">
        <ele>111.4</ele>
        <time>2017-05-01T06:56:27Z</time>
      </trkpt>
      <trkpt lat="49.28138" lon="1.17337">
        <ele>110.8</ele>
        <time>2017-05-01T06:56:28Z</time>
      </trkpt>
      <trkpt lat="49.28149" lon="1.17338">
        <ele>110.3</ele>
        <time>2017-05-01T06:56:29Z</time>
      </trkpt>
      <trkpt lat="49.2816" lon="1.1734">
        <ele>109.7</ele>
        <time>2017-05-01T06:56:30Z</time>
      </trkpt>
      <trkpt lat="49.28171" lon="1.17341">
        <ele>109.2</ele>
        <time>2017-05-01T06:56:31Z</time>
      </trkpt>
      <trkpt lat="49.28183" lon="1.17343">
        <ele>108.6</ele>
        <time>2017-05-01T06:56:32Z</time>
      </trkpt>
      <trkpt lat="49.28194" lon="1.17344">
        <ele>108</ele>
        <time>2017-05-01T06:56:33Z</time>
      </trkpt>
      <trkpt lat="49.28207" lon="1.17346">
        <ele>107.4</ele>
        <time>2017-05-01T06:56:34Z</time>
      </trkpt>
      <trkpt lat="49.28218" lon="1.17348">
        <ele>106.7</ele>
        <time>2017-05-01T06:56:35Z</time>
      </trkpt>
      <trkpt lat="49.28229" lon="1.17349">
        <ele>106.1</ele>
        <time>2017-05-01T06:56:36Z</time>
      </trkpt>
      <trkpt lat="49.28241" lon="1.17351">
        <ele>105.5</ele>
        <time>2017-05-01T06:56:37Z</time>
      </trkpt>
      <trkpt lat="49.28252" lon="1.17352">
        <ele>104.9</ele>
        <time>2017-05-01T06:56:38Z</time>
      </trkpt>
      <trkpt lat="49.28262" lon="1.17354">
        <ele>104.2</ele>
        <time>2017-05-01T06:56:39Z</time>
      </trkpt>
      <trkpt lat="49.28278" lon="1.17355">
        <ele>102.9</ele>
        <time>2017-05-01T06:56:41Z</time>
      </trkpt>
      <trkpt lat="49.28287" lon="1.17355">
        <ele>102.2</ele>
        <time>2017-05-01T06:56:42Z</time>
      </trkpt>
      <trkpt lat="49.28297" lon="1.17354">
        <ele>101.6</ele>
        <time>2017-05-01T06:56:43Z</time>
      </trkpt>
      <trkpt lat="49.28305" lon="1.17344">
        <ele>99.7</ele>
        <time>2017-05-01T06:56:46Z</time>
      </trkpt>
      <trkpt lat="49.28308" lon="1.17331">
        <ele>98</ele>
        <time>2017-05-01T06:56:49Z</time>
      </trkpt>
      <trkpt lat="49.2831" lon="1.17309">
        <ele>96.6</ele>
        <time>2017-05-01T06:56:52Z</time>
      </trkpt>
      <trkpt lat="49.28315" lon="1.17293">
        <ele>95.8</ele>
        <time>2017-05-01T06:56:54Z</time>
      </trkpt>
      <trkpt lat="49.28315" lon="1.17277">
        <ele>95.1</ele>
        <time>2017-05-01T06:56:56Z</time>
      </trkpt>
      <trkpt lat="49.28318" lon="1.1726">
        <ele>94.5</ele>
        <time>2017-05-01T06:56:58Z</time>
      </trkpt>
      <trkpt lat="49.28319" lon="1.17243">
        <ele>93.9</ele>
        <time>2017-05-01T06:57:00Z</time>
      </trkpt>
      <trkpt lat="49.28322" lon="1.17227">
        <ele>93.4</ele>
        <time>2017-05-01T06:57:02Z</time>
      </trkpt>
      <trkpt lat="49.28324" lon="1.17212">
        <ele>92.8</ele>
        <time>2017-05-01T06:57:04Z</time>
      </trkpt>
      <trkpt lat="49.28324" lon="1.17195">
        <ele>92.2</ele>
        <time>2017-05-01T06:57:06Z</time>
      </trkpt>
      <trkpt lat="49.28323" lon="1.17176">
        <ele>91.7</ele>
        <time>2017-05-01T06:57:08Z</time>
      </trkpt>
      <trkpt lat="49.28321" lon="1.17159">
        <ele>91.3</ele>
        <time>2017-05-01T06:57:10Z</time>
      </trkpt>
      <trkpt lat="49.28318" lon="1.17139">
        <ele>90.8</ele>
        <time>2017-05-01T06:57:12Z</time>
      </trkpt>
      <trkpt lat="49.28319" lon="1.17117">
        <ele>90.5</ele>
        <time>2017-05-01T06:57:14Z</time>
      </trkpt>
      <trkpt lat="49.28319" lon="1.17099">
        <ele>90.1</ele>
        <time>2017-05-01T06:57:16Z</time>
      </trkpt>
      <trkpt lat="49.2832" lon="1.17082">
        <ele>89.7</ele>
        <time>2017-05-01T06:57:18Z</time>
      </trkpt>
      <trkpt lat="49.28321" lon="1.17065">
        <ele>89.4</ele>
        <time>2017-05-01T06:57:20Z</time>
      </trkpt>
      <trkpt lat="49.28321" lon="1.17046">
        <ele>89.1</ele>
        <time>2017-05-01T06:57:22Z</time>
      </trkpt>
      <trkpt lat="49.28322" lon="1.17029">
        <ele>88.8</ele>
        <time>2017-05-01T06:57:24Z</time>
      </trkpt>
      <trkpt lat="49.28322" lon="1.17013">
        <ele>88.5</ele>
        <time>2017-05-01T06:57:26Z</time>
      </trkpt>
      <trkpt lat="49.28323" lon="1.16997">
        <ele>88.3</ele>
        <time>2017-05-01T06:57:28Z</time>
      </trkpt>
      <trkpt lat="49.28327" lon="1.16977">
        <ele>87.9</ele>
        <time>2017-05-01T06:57:31Z</time>
      </trkpt>
      <trkpt lat="49.28326" lon="1.16963">
        <ele>87.6</ele>
        <time>2017-05-01T06:57:33Z</time>
      </trkpt>
      <trkpt lat="49.28326" lon="1.16948">
        <ele>87.4</ele>
        <time>2017-05-01T06:57:35Z</time>
      </trkpt>
      <trkpt lat="49.28326" lon="1.16933">
        <ele>87.2</ele>
        <time>2017-05-01T06:57:37Z</time>
      </trkpt>
      <trkpt lat="49.28326" lon="1.16916">
        <ele>87</ele>
        <time>2017-05-01T06:57:39Z</time>
      </trkpt>
      <trkpt lat="49.28327" lon="1.169">
        <ele>86.8</ele>
        <time>2017-05-01T06:57:41Z</time>
      </trkpt>
      <trkpt lat="49.28327" lon="1.16885">
        <ele>86.7</ele>
        <time>2017-05-01T06:57:43Z</time>
      </trkpt>
      <trkpt lat="49.28328" lon="1.16868">
        <ele>86.5</ele>
        <time>2017-05-01T06:57:45Z</time>
      </trkpt>
      <trkpt lat="49.28329" lon="1.16851">
        <ele>86.4</ele>
        <time>2017-05-01T06:57:47Z</time>
      </trkpt>
      <trkpt lat="49.28329" lon="1.16833">
        <ele>86.2</ele>
        <time>2017-05-01T06:57:49Z</time>
      </trkpt>
      <trkpt lat="49.28329" lon="1.16816">
        <ele>86.1</ele>
        <time>2017-05-01T06:57:51Z</time>
      </trkpt>
      <trkpt lat="49.2833" lon="1.168">
        <ele>86</ele>
        <time>2017-05-01T06:57:53Z</time>
      </trkpt>
      <trkpt lat="49.2833" lon="1.16783">
        <ele>85.7</ele>
        <time>2017-05-01T06:57:55Z</time>
      </trkpt>
      <trkpt lat="49.28331" lon="1.16765">
        <ele>85.5</ele>
        <time>2017-05-01T06:57:57Z</time>
      </trkpt>
      <trkpt lat="49.28332" lon="1.16747">
        <ele>85.3</ele>
        <time>2017-05-01T06:57:59Z</time>
      </trkpt>
      <trkpt lat="49.28332" lon="1.16727">
        <ele>85</ele>
        <time>2017-05-01T06:58:01Z</time>
      </trkpt>
      <trkpt lat="49.28332" lon="1.16707">
        <ele>84.8</ele>
        <time>2017-05-01T06:58:03Z</time>
      </trkpt>
      <trkpt lat="49.28332" lon="1.16685">
        <ele>84.5</ele>
        <time>2017-05-01T06:58:05Z</time>
      </trkpt>
      <trkpt lat="49.28333" lon="1.16664">
        <ele>84.1</ele>
        <time>2017-05-01T06:58:07Z</time>
      </trkpt>
      <trkpt lat="49.28334" lon="1.16646">
        <ele>83.7</ele>
        <time>2017-05-01T06:58:09Z</time>
      </trkpt>
      <trkpt lat="49.28336" lon="1.16629">
        <ele>83.4</ele>
        <time>2017-05-01T06:58:11Z</time>
      </trkpt>
      <trkpt lat="49.28336" lon="1.16613">
        <ele>83</ele>
        <time>2017-05-01T06:58:13Z</time>
      </trkpt>
      <trkpt lat="49.28336" lon="1.16598">
        <ele>82.7</ele>
        <time>2017-05-01T06:58:15Z</time>
      </trkpt>
      <trkpt lat="49.28337" lon="1.16582">
        <ele>82.5</ele>
        <time>2017-05-01T06:58:17Z</time>
      </trkpt>
      <trkpt lat="49.28338" lon="1.16567">
        <ele>82.3</ele>
        <time>2017-05-01T06:58:19Z</time>
      </trkpt>
      <trkpt lat="49.28338" lon="1.16552">
        <ele>82.1</ele>
        <time>2017-05-01T06:58:21Z</time>
      </trkpt>
      <trkpt lat="49.28338" lon="1.16537">
        <ele>82</ele>
        <time>2017-05-01T06:58:23Z</time>
      </trkpt>
      <trkpt lat="49.28339" lon="1.1652">
        <ele>81.9</ele>
        <time>2017-05-01T06:58:25Z</time>
      </trkpt>
      <trkpt lat="49.28341" lon="1.16504">
        <ele>81.8</ele>
        <time>2017-05-01T06:58:27Z</time>
      </trkpt>
      <trkpt lat="49.28341" lon="1.16488">
        <ele>81.8</ele>
        <time>2017-05-01T06:58:29Z</time>
      </trkpt>
      <trkpt lat="49.28343" lon="1.16475">
        <ele>81.8</ele>
        <time>2017-05-01T06:58:31Z</time>
      </trkpt>
      <trkpt lat="49.28349" lon="1.1646">
        <ele>81.8</ele>
        <time>2017-05-01T06:58:34Z</time>
      </trkpt>
      <trkpt lat="49.2836" lon="1.16456">
        <ele>81.6</ele>
        <time>2017-05-01T06:58:37Z</time>
      </trkpt>
      <trkpt lat="49.2837" lon="1.16457">
        <ele>81.5</ele>
        <time>2017-05-01T06:58:39Z</time>
      </trkpt>
      <trkpt lat="49.2838" lon="1.16459">
        <ele>81.1</ele>
        <time>2017-05-01T06:58:41Z</time>
      </trkpt>
      <trkpt lat="49.28391" lon="1.1646">
        <ele>80.8</ele>
        <time>2017-05-01T06:58:43Z</time>
      </trkpt>
      <trkpt lat="49.28404" lon="1.16461">
        <ele>80.5</ele>
        <time>2017-05-01T06:58:45Z</time>
      </trkpt>
      <trkpt lat="49.28416" lon="1.16463">
        <ele>80.1</ele>
        <time>2017-05-01T06:58:47Z</time>
      </trkpt>
      <trkpt lat="49.2843" lon="1.16465">
        <ele>79.7</ele>
        <time>2017-05-01T06:58:49Z</time>
      </trkpt>
      <trkpt lat="49.28443" lon="1.16466">
        <ele>79.2</ele>
        <time>2017-05-01T06:58:51Z</time>
      </trkpt>
      <trkpt lat="49.28457" lon="1.16467">
        <ele>78.7</ele>
        <time>2017-05-01T06:58:53Z</time>
      </trkpt>
      <trkpt lat="49.28471" lon="1.16468">
        <ele>78.1</ele>
        <time>2017-05-01T06:58:55Z</time>
      </trkpt>
      <trkpt lat="49.28484" lon="1.16469">
        <ele>77.5</ele>
        <time>2017-05-01T06:58:57Z</time>
      </trkpt>
      <trkpt lat="49.28498" lon="1.1647">
        <ele>76.9</ele>
        <time>2017-05-01T06:58:59Z</time>
      </trkpt>
      <trkpt lat="49.28512" lon="1.16471">
        <ele>76.4</ele>
        <time>2017-05-01T06:59:01Z</time>
      </trkpt>
      <trkpt lat="49.28526" lon="1.16472">
        <ele>75.9</ele>
        <time>2017-05-01T06:59:03Z</time>
      </trkpt>
      <trkpt lat="49.2854" lon="1.16474">
        <ele>75.3</ele>
        <time>2017-05-01T06:59:05Z</time>
      </trkpt>
      <trkpt lat="49.28553" lon="1.16476">
        <ele>74.8</ele>
        <time>2017-05-01T06:59:07Z</time>
      </trkpt>
      <trkpt lat="49.28567" lon="1.16476">
        <ele>74.3</ele>
        <time>2017-05-01T06:59:09Z</time>
      </trkpt>
      <trkpt lat="49.2858" lon="1.16479">
        <ele>73.8</ele>
        <time>2017-05-01T06:59:11Z</time>
      </trkpt>
      <trkpt lat="49.28594" lon="1.16481">
        <ele>73.3</ele>
        <time>2017-05-01T06:59:13Z</time>
      </trkpt>
      <trkpt lat="49.28608" lon="1.16484">
        <ele>72.9</ele>
        <time>2017-05-01T06:59:15Z</time>
      </trkpt>
      <trkpt lat="49.28622" lon="1.16485">
        <ele>72.4</ele>
        <time>2017-05-01T06:59:17Z</time>
      </trkpt>
      <trkpt lat="49.28634" lon="1.16486">
        <ele>71.9</ele>
        <time>2017-05-01T06:59:19Z</time>
      </trkpt>
      <trkpt lat="49.28647" lon="1.16487">
        <ele>71.4</ele>
        <time>2017-05-01T06:59:21Z</time>
      </trkpt>
      <trkpt lat="49.28661" lon="1.16488">
        <ele>70.9</ele>
        <time>2017-05-01T06:59:23Z</time>
      </trkpt>
      <trkpt lat="49.28674" lon="1.16489">
        <ele>70.4</ele>
        <time>2017-05-01T06:59:25Z</time>
      </trkpt>
      <trkpt lat="49.28688" lon="1.16491">
        <ele>69.8</ele>
        <time>2017-05-01T06:59:27Z</time>
      </trkpt>
      <trkpt lat="49.28701" lon="1.16493">
        <ele>69.3</ele>
        <time>2017-05-01T06:59:29Z</time>
      </trkpt>
      <trkpt lat="49.28714" lon="1.16495">
        <ele>68.8</ele>
        <time>2017-05-01T06:59:31Z</time>
      </trkpt>
      <trkpt lat="49.28729" lon="1.16496">
        <ele>68.2</ele>
        <time>2017-05-01T06:59:33Z</time>
      </trkpt>
      <trkpt lat="49.28745" lon="1.16498">
        <ele>67.7</ele>
        <time>2017-05-01T06:59:35Z</time>
      </trkpt>
      <trkpt lat="49.28758" lon="1.16501">
        <ele>67.2</ele>
        <time>2017-05-01T06:59:37Z</time>
      </trkpt>
      <trkpt lat="49.28773" lon="1.16502">
        <ele>66.7</ele>
        <time>2017-05-01T06:59:39Z</time>
      </trkpt>
      <trkpt lat="49.28788" lon="1.16503">
        <ele>66.2</ele>
        <time>2017-05-01T06:59:41Z</time>
      </trkpt>
      <trkpt lat="49.28802" lon="1.16503">
        <ele>65.6</ele>
        <time>2017-05-01T06:59:43Z</time>
      </trkpt>
      <trkpt lat="49.28815" lon="1.16503">
        <ele>65</ele>
        <time>2017-05-01T06:59:45Z</time>
      </trkpt>
      <trkpt lat="49.28827" lon="1.16504">
        <ele>64.5</ele>
        <time>2017-05-01T06:59:47Z</time>
      </trkpt>
      <trkpt lat="49.28837" lon="1.1651">
        <ele>64</ele>
        <time>2017-05-01T06:59:49Z</time>
      </trkpt>
      <trkpt lat="49.28843" lon="1.16523">
        <ele>63.5</ele>
        <time>2017-05-01T06:59:51Z</time>
      </trkpt>
      <trkpt lat="49.28844" lon="1.16537">
        <ele>63</ele>
        <time>2017-05-01T06:59:53Z</time>
      </trkpt>
      <trkpt lat="49.28841" lon="1.16557">
        <ele>62.4</ele>
        <time>2017-05-01T06:59:56Z</time>
      </trkpt>
      <trkpt lat="49.28839" lon="1.16572">
        <ele>62.1</ele>
        <time>2017-05-01T06:59:58Z</time>
      </trkpt>
      <trkpt lat="49.28836" lon="1.16589">
        <ele>61.7</ele>
        <time>2017-05-01T07:00:00Z</time>
      </trkpt>
      <trkpt lat="49.28834" lon="1.16606">
        <ele>61.4</ele>
        <time>2017-05-01T07:00:02Z</time>
      </trkpt>
      <trkpt lat="49.28833" lon="1.16623">
        <ele>61.1</ele>
        <time>2017-05-01T07:00:04Z</time>
      </trkpt>
      <trkpt lat="49.28831" lon="1.1664">
        <ele>60.9</ele>
        <time>2017-05-01T07:00:06Z</time>
      </trkpt>
      <trkpt lat="49.28829" lon="1.16655">
        <ele>60.7</ele>
        <time>2017-05-01T07:00:08Z</time>
      </trkpt>
      <trkpt lat="49.28827" lon="1.1667">
        <ele>60.5</ele>
        <time>2017-05-01T07:00:10Z</time>
      </trkpt>
      <trkpt lat="49.28825" lon="1.16684">
        <ele>60.4</ele>
        <time>2017-05-01T07:00:12Z</time>
      </trkpt>
      <trkpt lat="49.28823" lon="1.16704">
        <ele>60.3</ele>
        <time>2017-05-01T07:00:15Z</time>
      </trkpt>
      <trkpt lat="49.28821" lon="1.16724">
        <ele>60.4</ele>
        <time>2017-05-01T07:00:18Z</time>
      </trkpt>
      <trkpt lat="49.28819" lon="1.16738">
        <ele>60.5</ele>
        <time>2017-05-01T07:00:20Z</time>
      </trkpt>
      <trkpt lat="49.28817" lon="1.16752">
        <ele>60.5</ele>
        <time>2017-05-01T07:00:22Z</time>
      </trkpt>
      <trkpt lat="49.28816" lon="1.16767">
        <ele>60.6</ele>
        <time>2017-05-01T07:00:24Z</time>
      </trkpt>
      <trkpt lat="49.28814" lon="1.16782">
        <ele>60.6</ele>
        <time>2017-05-01T07:00:26Z</time>
      </trkpt>
      <trkpt lat="49.28812" lon="1.16797">
        <ele>60.7</ele>
        <time>2017-05-01T07:00:28Z</time>
      </trkpt>
      <trkpt lat="49.28811" lon="1.16812">
        <ele>60.8</ele>
        <time>2017-05-01T07:00:30Z</time>
      </trkpt>
      <trkpt lat="49.28809" lon="1.16827">
        <ele>61</ele>
        <time>2017-05-01T07:00:32Z</time>
      </trkpt>
      <trkpt lat="49.28807" lon="1.16842">
        <ele>61.1</ele>
        <time>2017-05-01T07:00:34Z</time>
      </trkpt>
      <trkpt lat="49.28805" lon="1.16858">
        <ele>61.2</ele>
        <time>2017-05-01T07:00:36Z</time>
      </trkpt>
      <trkpt lat="49.28803" lon="1.16874">
        <ele>61.3</ele>
        <time>2017-05-01T07:00:38Z</time>
      </trkpt>
      <trkpt lat="49.28801" lon="1.1689">
        <ele>61.3</ele>
        <time>2017-05-01T07:00:40Z</time>
      </trkpt>
      <trkpt lat="49.28799" lon="1.16907">
        <ele>61.4</ele>
        <time>2017-05-01T07:00:42Z</time>
      </trkpt>
      <trkpt lat="49.28797" lon="1.16923">
        <ele>61.5</ele>
        <time>2017-05-01T07:00:44Z</time>
      </trkpt>
      <trkpt lat="49.28795" lon="1.16941">
        <ele>61.7</ele>
        <time>2017-05-01T07:00:46Z</time>
      </trkpt>
      <trkpt lat="49.28793" lon="1.16958">
        <ele>61.8</ele>
        <time>2017-05-01T07:00:48Z</time>
      </trkpt>
      <trkpt lat="49.28792" lon="1.16975">
        <ele>61.9</ele>
        <time>2017-05-01T07:00:50Z</time>
      </trkpt>
      <trkpt lat="49.2879" lon="1.16993">
        <ele>62</ele>
        <time>2017-05-01T07:00:52Z</time>
      </trkpt>
      <trkpt lat="49.28788" lon="1.17009">
        <ele>62.1</ele>
        <time>2017-05-01T07:00:54Z</time>
      </trkpt>
      <trkpt lat="49.28786" lon="1.17025">
        <ele>62.2</ele>
        <time>2017-05-01T07:00:56Z</time>
      </trkpt>
      <trkpt lat="49.28784" lon="1.1704">
        <ele>62.4</ele>
        <time>2017-05-01T07:00:58Z</time>
      </trkpt>
      <trkpt lat="49.28782" lon="1.17054">
        <ele>62.5</ele>
        <time>2017-05-01T07:01:00Z</time>
      </trkpt>
      <trkpt lat="49.2878" lon="1.17073">
        <ele>62.8</ele>
        <time>2017-05-01T07:01:03Z</time>
      </trkpt>
      <trkpt lat="49.28788" lon="1.1708">
        <ele>63.1</ele>
        <time>2017-05-01T07:01:06Z</time>
      </trkpt>
      <trkpt lat="49.28798" lon="1.17076">
        <ele>63.3</ele>
        <time>2017-05-01T07:01:09Z</time>
      </trkpt>
      <trkpt lat="49.2881" lon="1.17073">
        <ele>63.5</ele>
        <time>2017-05-01T07:01:12Z</time>
      </trkpt>
      <trkpt lat="49.28818" lon="1.17067">
        <ele>63.6</ele>
        <time>2017-05-01T07:01:14Z</time>
      </trkpt>
      <trkpt lat="49.28825" lon="1.17056">
        <ele>63.7</ele>
        <time>2017-05-01T07:01:16Z</time>
      </trkpt>
      <trkpt lat="49.28831" lon="1.17043">
        <ele>63.8</ele>
        <time>2017-05-01T07:01:18Z</time>
      </trkpt>
      <trkpt lat="49.28839" lon="1.17031">
        <ele>63.8</ele>
        <time>2017-05-01T07:01:20Z</time>
      </trkpt>
      <trkpt lat="49.28849" lon="1.1702">
        <ele>63.7</ele>
        <time>2017-05-01T07:01:22Z</time>
      </trkpt>
      <trkpt lat="49.2886" lon="1.17012">
        <ele>63.6</ele>
        <time>2017-05-01T07:01:24Z</time>
      </trkpt>
      <trkpt lat="49.2887" lon="1.17012">
        <ele>63.5</ele>
        <time>2017-05-01T07:01:26Z</time>
      </trkpt>
      <trkpt lat="49.28881" lon="1.17013">
        <ele>63.4</ele>
        <time>2017-05-01T07:01:28Z</time>
      </trkpt>
      <trkpt lat="49.28896" lon="1.17011">
        <ele>63.2</ele>
        <time>2017-05-01T07:01:30Z</time>
      </trkpt>
      <trkpt lat="49.28909" lon="1.17014">
        <ele>63</ele>
        <time>2017-05-01T07:01:32Z</time>
      </trkpt>
      <trkpt lat="49.28915" lon="1.17027">
        <ele>62.6</ele>
        <time>2017-05-01T07:01:34Z</time>
      </trkpt>
      <trkpt lat="49.28916" lon="1.17042">
        <ele>62.3</ele>
        <time>2017-05-01T07:01:36Z</time>
      </trkpt>
      <trkpt lat="49.28918" lon="1.17061">
        <ele>61.9</ele>
        <time>2017-05-01T07:01:39Z</time>
      </trkpt>
      <trkpt lat="49.28915" lon="1.17077">
        <ele>61.6</ele>
        <time>2017-05-01T07:01:42Z</time>
      </trkpt>
      <trkpt lat="49.28907" lon="1.1709">
        <ele>61.4</ele>
        <time>2017-05-01T07:01:45Z</time>
      </trkpt>
      <trkpt lat="49.28904" lon="1.17106">
        <ele>61.2</ele>
        <time>2017-05-01T07:01:48Z</time>
      </trkpt>
      <trkpt lat="49.28896" lon="1.17119">
        <ele>61.1</ele>
        <time>2017-05-01T07:01:50Z</time>
      </trkpt>
      <trkpt lat="49.28894" lon="1.17134">
        <ele>61.1</ele>
        <time>2017-05-01T07:01:53Z</time>
      </trkpt>
      <trkpt lat="49.28893" lon="1.17152">
        <ele>61.2</ele>
        <time>2017-05-01T07:01:56Z</time>
      </trkpt>
      <trkpt lat="49.28892" lon="1.17166">
        <ele>61.3</ele>
        <time>2017-05-01T07:01:58Z</time>
      </trkpt>
      <trkpt lat="49.2889" lon="1.17182">
        <ele>61.5</ele>
        <time>2017-05-01T07:02:00Z</time>
      </trkpt>
      <trkpt lat="49.28889" lon="1.17199">
        <ele>61.8</ele>
        <time>2017-05-01T07:02:03Z</time>
      </trkpt>
      <trkpt lat="49.2889" lon="1.1722">
        <ele>62.2</ele>
        <time>2017-05-01T07:02:06Z</time>
      </trkpt>
      <trkpt lat="49.28892" lon="1.17234">
        <ele>62.5</ele>
        <time>2017-05-01T07:02:08Z</time>
      </trkpt>
      <trkpt lat="49.28905" lon="1.17244">
        <ele>62.9</ele>
        <time>2017-05-01T07:02:12Z</time>
      </trkpt>
      <trkpt lat="49.28915" lon="1.1724">
        <ele>63.2</ele>
        <time>2017-05-01T07:02:15Z</time>
      </trkpt>
      <trkpt lat="49.28925" lon="1.17229">
        <ele>63.4</ele>
        <time>2017-05-01T07:02:18Z</time>
      </trkpt>
      <trkpt lat="49.28931" lon="1.17211">
        <ele>63.6</ele>
        <time>2017-05-01T07:02:21Z</time>
      </trkpt>
      <trkpt lat="49.28936" lon="1.17197">
        <ele>63.7</ele>
        <time>2017-05-01T07:02:23Z</time>
      </trkpt>
      <trkpt lat="49.2894" lon="1.17181">
        <ele>63.8</ele>
        <time>2017-05-01T07:02:25Z</time>
      </trkpt>
      <trkpt lat="49.28942" lon="1.17167">
        <ele>63.8</ele>
        <time>2017-05-01T07:02:27Z</time>
      </trkpt>
      <trkpt lat="49.28947" lon="1.17153">
        <ele>63.7</ele>
        <time>2017-05-01T07:02:29Z</time>
      </trkpt>
      <trkpt lat="49.28952" lon="1.17138">
        <ele>63.6</ele>
        <time>2017-05-01T07:02:31Z</time>
      </trkpt>
      <trkpt lat="49.28957" lon="1.17121">
        <ele>63.4</ele>
        <time>2017-05-01T07:02:33Z</time>
      </trkpt>
      <trkpt lat="49.28965" lon="1.17105">
        <ele>63.1</ele>
        <time>2017-05-01T07:02:35Z</time>
      </trkpt>
      <trkpt lat="49.28976" lon="1.17097">
        <ele>62.9</ele>
        <time>2017-05-01T07:02:37Z</time>
      </trkpt>
      <trkpt lat="49.28985" lon="1.17093">
        <ele>62.6</ele>
        <time>2017-05-01T07:02:39Z</time>
      </trkpt>
      <trkpt lat="49.28994" lon="1.17098">
        <ele>62.3</ele>
        <time>2017-05-01T07:02:41Z</time>
      </trkpt>
      <trkpt lat="49.29003" lon="1.17107">
        <ele>62</ele>
        <time>2017-05-01T07:02:43Z</time>
      </trkpt>
      <trkpt lat="49.29006" lon="1.17126">
        <ele>61.7</ele>
        <time>2017-05-01T07:02:46Z</time>
      </trkpt>
      <trkpt lat="49.29005" lon="1.17144">
        <ele>61.4</ele>
        <time>2017-05-01T07:02:49Z</time>
      </trkpt>
      <trkpt lat="49.29005" lon="1.17162">
        <ele>61.3</ele>
        <time>2017-05-01T07:02:52Z</time>
      </trkpt>
      <trkpt lat="49.2901" lon="1.17176">
        <ele>61.2</ele>
        <time>2017-05-01T07:02:55Z</time>
      </trkpt>
      <trkpt lat="49.29017" lon="1.17189">
        <ele>61.2</ele>
        <time>2017-05-01T07:02:57Z</time>
      </trkpt>
      <trkpt lat="49.29024" lon="1.17199">
        <ele>61.2</ele>
        <time>2017-05-01T07:02:59Z</time>
      </trkpt>
      <trkpt lat="49.29029" lon="1.1721">
        <ele>61.1</ele>
        <time>2017-05-01T07:03:01Z</time>
      </trkpt>
      <trkpt lat="49.29037" lon="1.17222">
        <ele>61.1</ele>
        <time>2017-05-01T07:03:03Z</time>
      </trkpt>
      <trkpt lat="49.29043" lon="1.17238">
        <ele>61.2</ele>
        <time>2017-05-01T07:03:06Z</time>
      </trkpt>
      <trkpt lat="49.29036" lon="1.17252">
        <ele>61.2</ele>
        <time>2017-05-01T07:03:08Z</time>
      </trkpt>
      <trkpt lat="49.2903" lon="1.17264">
        <ele>61.4</ele>
        <time>2017-05-01T07:03:10Z</time>
      </trkpt>
      <trkpt lat="49.29023" lon="1.17275">
        <ele>61.5</ele>
        <time>2017-05-01T07:03:12Z</time>
      </trkpt>
      <trkpt lat="49.29017" lon="1.17286">
        <ele>61.7</ele>
        <time>2017-05-01T07:03:14Z</time>
      </trkpt>
      <trkpt lat="49.29009" lon="1.17299">
        <ele>62.1</ele>
        <time>2017-05-01T07:03:17Z</time>
      </trkpt>
      <trkpt lat="49.28998" lon="1.17315">
        <ele>62.5</ele>
        <time>2017-05-01T07:03:21Z</time>
      </trkpt>
      <trkpt lat="49.2899" lon="1.17325">
        <ele>62.7</ele>
        <time>2017-05-01T07:03:23Z</time>
      </trkpt>
      <trkpt lat="49.28977" lon="1.1733">
        <ele>63.1</ele>
        <time>2017-05-01T07:03:26Z</time>
      </trkpt>
      <trkpt lat="49.28967" lon="1.17331">
        <ele>63.2</ele>
        <time>2017-05-01T07:03:28Z</time>
      </trkpt>
      <trkpt lat="49.28957" lon="1.17331">
        <ele>63.4</ele>
        <time>2017-05-01T07:03:30Z</time>
      </trkpt>
      <trkpt lat="49.28947" lon="1.17331">
        <ele>63.5</ele>
        <time>2017-05-01T07:03:32Z</time>
      </trkpt>
      <trkpt lat="49.28934" lon="1.17326">
        <ele>63.7</ele>
        <time>2017-05-01T07:03:35Z</time>
      </trkpt>
      <trkpt lat="49.28925" lon="1.17321">
        <ele>63.8</ele>
        <time>2017-05-01T07:03:37Z</time>
      </trkpt>
      <trkpt lat="49.28912" lon="1.17314">
        <ele>64</ele>
        <time>2017-05-01T07:03:40Z</time>
      </trkpt>
      <trkpt lat="49.28903" lon="1.17311">
        <ele>64.1</ele>
        <time>2017-05-01T07:03:42Z</time>
      </trkpt>
      <trkpt lat="49.28893" lon="1.1731">
        <ele>64.2</ele>
        <time>2017-05-01T07:03:44Z</time>
      </trkpt>
      <trkpt lat="49.28884" lon="1.17308">
        <ele>64.2</ele>
        <time>2017-05-01T07:03:46Z</time>
      </trkpt>
      <trkpt lat="49.28872" lon="1.17307">
        <ele>64.3</ele>
        <time>2017-05-01T07:03:48Z</time>
      </trkpt>
      <trkpt lat="49.28859" lon="1.17307">
        <ele>64.4</ele>
        <time>2017-05-01T07:03:51Z</time>
      </trkpt>
      <trkpt lat="49.2885" lon="1.17312">
        <ele>64.5</ele>
        <time>2017-05-01T07:03:53Z</time>
      </trkpt>
      <trkpt lat="49.2884" lon="1.17319">
        <ele>64.7</ele>
        <time>2017-05-01T07:03:56Z</time>
      </trkpt>
      <trkpt lat="49.28832" lon="1.17325">
        <ele>64.8</ele>
        <time>2017-05-01T07:03:58Z</time>
      </trkpt>
      <trkpt lat="49.2882" lon="1.17333">
        <ele>65.2</ele>
        <time>2017-05-01T07:04:01Z</time>
      </trkpt>
      <trkpt lat="49.28808" lon="1.1734">
        <ele>65.5</ele>
        <time>2017-05-01T07:04:04Z</time>
      </trkpt>
      <trkpt lat="49.28799" lon="1.17344">
        <ele>65.7</ele>
        <time>2017-05-01T07:04:06Z</time>
      </trkpt>
      <trkpt lat="49.28787" lon="1.17353">
        <ele>66.1</ele>
        <time>2017-05-01T07:04:09Z</time>
      </trkpt>
      <trkpt lat="49.28779" lon="1.17359">
        <ele>66.3</ele>
        <time>2017-05-01T07:04:11Z</time>
      </trkpt>
      <trkpt lat="49.2877" lon="1.17367">
        <ele>66.5</ele>
        <time>2017-05-01T07:04:13Z</time>
      </trkpt>
      <trkpt lat="49.28763" lon="1.17375">
        <ele>66.8</ele>
        <time>2017-05-01T07:04:15Z</time>
      </trkpt>
      <trkpt lat="49.28752" lon="1.17386">
        <ele>67.1</ele>
        <time>2017-05-01T07:04:18Z</time>
      </trkpt>
      <trkpt lat="49.28742" lon="1.17399">
        <ele>67.4</ele>
        <time>2017-05-01T07:04:21Z</time>
      </trkpt>
      <trkpt lat="49.28736" lon="1.17413">
        <ele>67.7</ele>
        <time>2017-05-01T07:04:24Z</time>
      </trkpt>
      <trkpt lat="49.2873" lon="1.17427">
        <ele>68</ele>
        <time>2017-05-01T07:04:28Z</time>
      </trkpt>
      <trkpt lat="49.28718" lon="1.17426">
        <ele>68.3</ele>
        <time>2017-05-01T07:04:32Z</time>
      </trkpt>
      <trkpt lat="49.28709" lon="1.17423">
        <ele>68.7</ele>
        <time>2017-05-01T07:04:35Z</time>
      </trkpt>
      <trkpt lat="49.28698" lon="1.17421">
        <ele>69.1</ele>
        <time>2017-05-01T07:04:39Z</time>
      </trkpt>
      <trkpt lat="49.28689" lon="1.17423">
        <ele>69.8</ele>
        <time>2017-05-01T07:04:49Z</time>
      </trkpt>
      <trkpt lat="49.2868" lon="1.17422">
        <ele>70.2</ele>
        <time>2017-05-01T07:04:57Z</time>
      </trkpt>
      <trkpt lat="49.2867" lon="1.17418">
        <ele>70.5</ele>
        <time>2017-05-01T07:05:03Z</time>
      </trkpt>
      <trkpt lat="49.28659" lon="1.17416">
        <ele>71</ele>
        <time>2017-05-01T07:05:08Z</time>
      </trkpt>
      <trkpt lat="49.28647" lon="1.17414">
        <ele>71.4</ele>
        <time>2017-05-01T07:05:13Z</time>
      </trkpt>
      <trkpt lat="49.28637" lon="1.17411">
        <ele>71.6</ele>
        <time>2017-05-01T07:05:17Z</time>
      </trkpt>
      <trkpt lat="49.28626" lon="1.17408">
        <ele>71.7</ele>
        <time>2017-05-01T07:05:21Z</time>
      </trkpt>
      <trkpt lat="49.28616" lon="1.17405">
        <ele>71.9</ele>
        <time>2017-05-01T07:05:25Z</time>
      </trkpt>
      <trkpt lat="49.28607" lon="1.17408">
        <ele>72.1</ele>
        <time>2017-05-01T07:05:28Z</time>
      </trkpt>
      <trkpt lat="49.28596" lon="1.17413">
        <ele>72.6</ele>
        <time>2017-05-01T07:05:32Z</time>
      </trkpt>
      <trkpt lat="49.28587" lon="1.1742">
        <ele>73.2</ele>
        <time>2017-05-01T07:05:37Z</time>
      </trkpt>
      <trkpt lat="49.28578" lon="1.17424">
        <ele>73.6</ele>
        <time>2017-05-01T07:05:41Z</time>
      </trkpt>
      <trkpt lat="49.28567" lon="1.17426">
        <ele>74.1</ele>
        <time>2017-05-01T07:05:46Z</time>
      </trkpt>
      <trkpt lat="49.28557" lon="1.17431">
        <ele>74.5</ele>
        <time>2017-05-01T07:05:50Z</time>
      </trkpt>
      <trkpt lat="49.28546" lon="1.1743">
        <ele>74.8</ele>
        <time>2017-05-01T07:05:54Z</time>
      </trkpt>
      <trkpt lat="49.28537" lon="1.17429">
        <ele>75.1</ele>
        <time>2017-05-01T07:05:57Z</time>
      </trkpt>
      <trkpt lat="49.28527" lon="1.17428">
        <ele>75.5</ele>
        <time>2017-05-01T07:06:00Z</time>
      </trkpt>
      <trkpt lat="49.28518" lon="1.17425">
        <ele>75.8</ele>
        <time>2017-05-01T07:06:03Z</time>
      </trkpt>
      <trkpt lat="49.28506" lon="1.17424">
        <ele>76.1</ele>
        <time>2017-05-01T07:06:07Z</time>
      </trkpt>
      <trkpt lat="49.28497" lon="1.17423">
        <ele>76.4</ele>
        <time>2017-05-01T07:06:10Z</time>
      </trkpt>
      <trkpt lat="49.28487" lon="1.17423">
        <ele>76.8</ele>
        <time>2017-05-01T07:06:14Z</time>
      </trkpt>
      <trkpt lat="49.28476" lon="1.17421">
        <ele>77.1</ele>
        <time>2017-05-01T07:06:18Z</time>
      </trkpt>
      <trkpt lat="49.28474" lon="1.17436">
        <ele>77.7</ele>
        <time>2017-05-01T07:06:23Z</time>
      </trkpt>
      <trkpt lat="49.28475" lon="1.17454">
        <ele>78.1</ele>
        <time>2017-05-01T07:06:27Z</time>
      </trkpt>
      <trkpt lat="49.28474" lon="1.1747">
        <ele>78.4</ele>
        <time>2017-05-01T07:06:30Z</time>
      </trkpt>
      <trkpt lat="49.28477" lon="1.17486">
        <ele>78.9</ele>
        <time>2017-05-01T07:06:34Z</time>
      </trkpt>
      <trkpt lat="49.28478" lon="1.17504">
        <ele>79.3</ele>
        <time>2017-05-01T07:06:38Z</time>
      </trkpt>
      <trkpt lat="49.2848" lon="1.1752">
        <ele>79.7</ele>
        <time>2017-05-01T07:06:41Z</time>
      </trkpt>
      <trkpt lat="49.28483" lon="1.17534">
        <ele>80</ele>
        <time>2017-05-01T07:06:43Z</time>
      </trkpt>
      <trkpt lat="49.28484" lon="1.17547">
        <ele>80.2</ele>
        <time>2017-05-01T07:06:45Z</time>
      </trkpt>
      <trkpt lat="49.28483" lon="1.17562">
        <ele>80.5</ele>
        <time>2017-05-01T07:06:48Z</time>
      </trkpt>
      <trkpt lat="49.28484" lon="1.1758">
        <ele>80.8</ele>
        <time>2017-05-01T07:06:51Z</time>
      </trkpt>
      <trkpt lat="49.28483" lon="1.17599">
        <ele>81.1</ele>
        <time>2017-05-01T07:06:54Z</time>
      </trkpt>
      <trkpt lat="49.28482" lon="1.17616">
        <ele>81.4</ele>
        <time>2017-05-01T07:06:56Z</time>
      </trkpt>
      <trkpt lat="49.28484" lon="1.17633">
        <ele>81.7</ele>
        <time>2017-05-01T07:06:59Z</time>
      </trkpt>
      <trkpt lat="49.28479" lon="1.17649">
        <ele>81.9</ele>
        <time>2017-05-01T07:07:01Z</time>
      </trkpt>
      <trkpt lat="49.28478" lon="1.17668">
        <ele>82.2</ele>
        <time>2017-05-01T07:07:04Z</time>
      </trkpt>
      <trkpt lat="49.28477" lon="1.17686">
        <ele>82.5</ele>
        <time>2017-05-01T07:07:07Z</time>
      </trkpt>
      <trkpt lat="49.28477" lon="1.17705">
        <ele>82.8</ele>
        <time>2017-05-01T07:07:10Z</time>
      </trkpt>
      <trkpt lat="49.28475" lon="1.17724">
        <ele>83.2</ele>
        <time>2017-05-01T07:07:13Z</time>
      </trkpt>
      <trkpt lat="49.28472" lon="1.17741">
        <ele>83.5</ele>
        <time>2017-05-01T07:07:15Z</time>
      </trkpt>
      <trkpt lat="49.28469" lon="1.17756">
        <ele>83.7</ele>
        <time>2017-05-01T07:07:17Z</time>
      </trkpt>
      <trkpt lat="49.28467" lon="1.1777">
        <ele>83.9</ele>
        <time>2017-05-01T07:07:19Z</time>
      </trkpt>
      <trkpt lat="49.28463" lon="1.1779">
        <ele>84.1</ele>
        <time>2017-05-01T07:07:21Z</time>
      </trkpt>
      <trkpt lat="49.28462" lon="1.17805">
        <ele>84.2</ele>
        <time>2017-05-01T07:07:23Z</time>
      </trkpt>
      <trkpt lat="49.2846" lon="1.1782">
        <ele>84.4</ele>
        <time>2017-05-01T07:07:25Z</time>
      </trkpt>
      <trkpt lat="49.28457" lon="1.17837">
        <ele>84.6</ele>
        <time>2017-05-01T07:07:27Z</time>
      </trkpt>
      <trkpt lat="49.28455" lon="1.17855">
        <ele>84.7</ele>
        <time>2017-05-01T07:07:29Z</time>
      </trkpt>
      <trkpt lat="49.28452" lon="1.17871">
        <ele>84.8</ele>
        <time>2017-05-01T07:07:31Z</time>
      </trkpt>
      <trkpt lat="49.2845" lon="1.17889">
        <ele>85</ele>
        <time>2017-05-01T07:07:33Z</time>
      </trkpt>
      <trkpt lat="49.28446" lon="1.1791">
        <ele>85.1</ele>
        <time>2017-05-01T07:07:35Z</time>
      </trkpt>
      <trkpt lat="49.28443" lon="1.17928">
        <ele>85.2</ele>
        <time>2017-05-01T07:07:37Z</time>
      </trkpt>
      <trkpt lat="49.28441" lon="1.17947">
        <ele>85.4</ele>
        <time>2017-05-01T07:07:39Z</time>
      </trkpt>
      <trkpt lat="49.28438" lon="1.17965">
        <ele>85.5</ele>
        <time>2017-05-01T07:07:41Z</time>
      </trkpt>
      <trkpt lat="49.28435" lon="1.17983">
        <ele>85.6</ele>
        <time>2017-05-01T07:07:43Z</time>
      </trkpt>
      <trkpt lat="49.28433" lon="1.17999">
        <ele>85.8</ele>
        <time>2017-05-01T07:07:45Z</time>
      </trkpt>
      <trkpt lat="49.28432" lon="1.18014">
        <ele>85.8</ele>
        <time>2017-05-01T07:07:47Z</time>
      </trkpt>
      <trkpt lat="49.2843" lon="1.18029">
        <ele>85.9</ele>
        <time>2017-05-01T07:07:49Z</time>
      </trkpt>
      <trkpt lat="49.28427" lon="1.18044">
        <ele>86</ele>
        <time>2017-05-01T07:07:51Z</time>
      </trkpt>
      <trkpt lat="49.28426" lon="1.18061">
        <ele>86.1</ele>
        <time>2017-05-01T07:07:53Z</time>
      </trkpt>
      <trkpt lat="49.28423" lon="1.18078">
        <ele>86.1</ele>
        <time>2017-05-01T07:07:55Z</time>
      </trkpt>
      <trkpt lat="49.2842" lon="1.18094">
        <ele>86.2</ele>
        <time>2017-05-01T07:07:57Z</time>
      </trkpt>
      <trkpt lat="49.28419" lon="1.1811">
        <ele>86.4</ele>
        <time>2017-05-01T07:07:59Z</time>
      </trkpt>
      <trkpt lat="49.28417" lon="1.18126">
        <ele>86.6</ele>
        <time>2017-05-01T07:08:01Z</time>
      </trkpt>
      <trkpt lat="49.28414" lon="1.18142">
        <ele>86.8</ele>
        <time>2017-05-01T07:08:03Z</time>
      </trkpt>
      <trkpt lat="49.28413" lon="1.18157">
        <ele>86.9</ele>
        <time>2017-05-01T07:08:05Z</time>
      </trkpt>
      <trkpt lat="49.28417" lon="1.18171">
        <ele>87.1</ele>
        <time>2017-05-01T07:08:07Z</time>
      </trkpt>
      <trkpt lat="49.28423" lon="1.18185">
        <ele>87.2</ele>
        <time>2017-05-01T07:08:09Z</time>
      </trkpt>
      <trkpt lat="49.2843" lon="1.182">
        <ele>87.4</ele>
        <time>2017-05-01T07:08:11Z</time>
      </trkpt>
      <trkpt lat="49.28438" lon="1.18215">
        <ele>87.5</ele>
        <time>2017-05-01T07:08:13Z</time>
      </trkpt>
      <trkpt lat="49.28445" lon="1.1823">
        <ele>87.6</ele>
        <time>2017-05-01T07:08:15Z</time>
      </trkpt>
      <trkpt lat="49.28453" lon="1.18246">
        <ele>87.6</ele>
        <time>2017-05-01T07:08:17Z</time>
      </trkpt>
      <trkpt lat="49.28461" lon="1.18263">
        <ele>87.5</ele>
        <time>2017-05-01T07:08:19Z</time>
      </trkpt>
      <trkpt lat="49.2847" lon="1.18279">
        <ele>87.4</ele>
        <time>2017-05-01T07:08:21Z</time>
      </trkpt>
      <trkpt lat="49.28478" lon="1.18296">
        <ele>87.3</ele>
        <time>2017-05-01T07:08:23Z</time>
      </trkpt>
      <trkpt lat="49.28487" lon="1.18314">
        <ele>87</ele>
        <time>2017-05-01T07:08:25Z</time>
      </trkpt>
      <trkpt lat="49.28496" lon="1.1833">
        <ele>86.7</ele>
        <time>2017-05-01T07:08:27Z</time>
      </trkpt>
      <trkpt lat="49.28505" lon="1.18347">
        <ele>86.5</ele>
        <time>2017-05-01T07:08:29Z</time>
      </trkpt>
      <trkpt lat="49.28514" lon="1.18364">
        <ele>86.1</ele>
        <time>2017-05-01T07:08:31Z</time>
      </trkpt>
      <trkpt lat="49.28524" lon="1.18382">
        <ele>85.7</ele>
        <time>2017-05-01T07:08:33Z</time>
      </trkpt>
      <trkpt lat="49.28533" lon="1.18399">
        <ele>85.3</ele>
        <time>2017-05-01T07:08:35Z</time>
      </trkpt>
      <trkpt lat="49.28542" lon="1.18418">
        <ele>84.9</ele>
        <time>2017-05-01T07:08:37Z</time>
      </trkpt>
      <trkpt lat="49.28552" lon="1.1843">
        <ele>84.5</ele>
        <time>2017-05-01T07:08:39Z</time>
      </trkpt>
      <trkpt lat="49.28566" lon="1.18437">
        <ele>84.1</ele>
        <time>2017-05-01T07:08:41Z</time>
      </trkpt>
      <trkpt lat="49.2858" lon="1.1844">
        <ele>83.6</ele>
        <time>2017-05-01T07:08:43Z</time>
      </trkpt>
      <trkpt lat="49.28594" lon="1.18443">
        <ele>83.1</ele>
        <time>2017-05-01T07:08:45Z</time>
      </trkpt>
      <trkpt lat="49.28605" lon="1.18451">
        <ele>82.6</ele>
        <time>2017-05-01T07:08:47Z</time>
      </trkpt>
      <trkpt lat="49.2861" lon="1.18466">
        <ele>82.1</ele>
        <time>2017-05-01T07:08:49Z</time>
      </trkpt>
      <trkpt lat="49.28609" lon="1.18481">
        <ele>81.6</ele>
        <time>2017-05-01T07:08:51Z</time>
      </trkpt>
      <trkpt lat="49.28607" lon="1.18497">
        <ele>81.2</ele>
        <time>2017-05-01T07:08:53Z</time>
      </trkpt>
      <trkpt lat="49.28606" lon="1.18512">
        <ele>80.8</ele>
        <time>2017-05-01T07:08:55Z</time>
      </trkpt>
      <trkpt lat="49.28605" lon="1.18528">
        <ele>80.5</ele>
        <time>2017-05-01T07:08:57Z</time>
      </trkpt>
      <trkpt lat="49.28604" lon="1.18543">
        <ele>80.2</ele>
        <time>2017-05-01T07:08:59Z</time>
      </trkpt>
      <trkpt lat="49.28602" lon="1.18557">
        <ele>79.9</ele>
        <time>2017-05-01T07:09:01Z</time>
      </trkpt>
      <trkpt lat="49.286" lon="1.18571">
        <ele>79.7</ele>
        <time>2017-05-01T07:09:03Z</time>
      </trkpt>
      <trkpt lat="49.28598" lon="1.18586">
        <ele>79.5</ele>
        <time>2017-05-01T07:09:05Z</time>
      </trkpt>
      <trkpt lat="49.28597" lon="1.186">
        <ele>79.5</ele>
        <time>2017-05-01T07:09:07Z</time>
      </trkpt>
      <trkpt lat="49.28596" lon="1.18614">
        <ele>79.5</ele>
        <time>2017-05-01T07:09:09Z</time>
      </trkpt>
      <trkpt lat="49.28594" lon="1.18628">
        <ele>79.5</ele>
        <time>2017-05-01T07:09:11Z</time>
      </trkpt>
      <trkpt lat="49.28592" lon="1.18642">
        <ele>79.6</ele>
        <time>2017-05-01T07:09:13Z</time>
      </trkpt>
      <trkpt lat="49.28591" lon="1.18657">
        <ele>79.7</ele>
        <time>2017-05-01T07:09:15Z</time>
      </trkpt>
      <trkpt lat="49.28589" lon="1.18671">
        <ele>79.8</ele>
        <time>2017-05-01T07:09:17Z</time>
      </trkpt>
      <trkpt lat="49.28587" lon="1.18686">
        <ele>79.9</ele>
        <time>2017-05-01T07:09:19Z</time>
      </trkpt>
      <trkpt lat="49.28586" lon="1.18701">
        <ele>80</ele>
        <time>2017-05-01T07:09:21Z</time>
      </trkpt>
      <trkpt lat="49.28584" lon="1.18716">
        <ele>80.1</ele>
        <time>2017-05-01T07:09:23Z</time>
      </trkpt>
      <trkpt lat="49.28582" lon="1.18731">
        <ele>80.2</ele>
        <time>2017-05-01T07:09:25Z</time>
      </trkpt>
      <trkpt lat="49.2858" lon="1.18747">
        <ele>80.3</ele>
        <time>2017-05-01T07:09:27Z</time>
      </trkpt>
      <trkpt lat="49.28579" lon="1.18762">
        <ele>80.4</ele>
        <time>2017-05-01T07:09:29Z</time>
      </trkpt>
      <trkpt lat="49.28577" lon="1.18777">
        <ele>80.5</ele>
        <time>2017-05-01T07:09:31Z</time>
      </trkpt>
      <trkpt lat="49.28575" lon="1.18794">
        <ele>80.6</ele>
        <time>2017-05-01T07:09:33Z</time>
      </trkpt>
      <trkpt lat="49.28573" lon="1.1881">
        <ele>80.7</ele>
        <time>2017-05-01T07:09:35Z</time>
      </trkpt>
      <trkpt lat="49.28571" lon="1.18826">
        <ele>80.8</ele>
        <time>2017-05-01T07:09:37Z</time>
      </trkpt>
      <trkpt lat="49.28569" lon="1.18843">
        <ele>80.9</ele>
        <time>2017-05-01T07:09:39Z</time>
      </trkpt>
      <trkpt lat="49.28568" lon="1.18859">
        <ele>80.9</ele>
        <time>2017-05-01T07:09:41Z</time>
      </trkpt>
      <trkpt lat="49.28565" lon="1.18876">
        <ele>81</ele>
        <time>2017-05-01T07:09:43Z</time>
      </trkpt>
      <trkpt lat="49.28563" lon="1.18892">
        <ele>81.1</ele>
        <time>2017-05-01T07:09:45Z</time>
      </trkpt>
      <trkpt lat="49.28562" lon="1.18907">
        <ele>81.1</ele>
        <time>2017-05-01T07:09:47Z</time>
      </trkpt>
      <trkpt lat="49.28561" lon="1.18922">
        <ele>81.2</ele>
        <time>2017-05-01T07:09:49Z</time>
      </trkpt>
      <trkpt lat="49.28559" lon="1.18941">
        <ele>81.3</ele>
        <time>2017-05-01T07:09:52Z</time>
      </trkpt>
      <trkpt lat="49.28555" lon="1.18955">
        <ele>81.4</ele>
        <time>2017-05-01T07:09:55Z</time>
      </trkpt>
      <trkpt lat="49.28543" lon="1.18959">
        <ele>81.4</ele>
        <time>2017-05-01T07:09:59Z</time>
      </trkpt>
      <trkpt lat="49.28532" lon="1.18953">
        <ele>81.6</ele>
        <time>2017-05-01T07:10:02Z</time>
      </trkpt>
      <trkpt lat="49.28523" lon="1.18952">
        <ele>81.8</ele>
        <time>2017-05-01T07:10:04Z</time>
      </trkpt>
      <trkpt lat="49.28514" lon="1.18949">
        <ele>82</ele>
        <time>2017-05-01T07:10:06Z</time>
      </trkpt>
      <trkpt lat="49.28501" lon="1.18945">
        <ele>82.4</ele>
        <time>2017-05-01T07:10:09Z</time>
      </trkpt>
      <trkpt lat="49.28488" lon="1.18941">
        <ele>83</ele>
        <time>2017-05-01T07:10:12Z</time>
      </trkpt>
      <trkpt lat="49.28477" lon="1.18938">
        <ele>83.4</ele>
        <time>2017-05-01T07:10:15Z</time>
      </trkpt>
      <trkpt lat="49.28465" lon="1.18934">
        <ele>83.9</ele>
        <time>2017-05-01T07:10:18Z</time>
      </trkpt>
      <trkpt lat="49.28453" lon="1.18932">
        <ele>84.4</ele>
        <time>2017-05-01T07:10:21Z</time>
      </trkpt>
      <trkpt lat="49.28442" lon="1.18929">
        <ele>84.9</ele>
        <time>2017-05-01T07:10:24Z</time>
      </trkpt>
      <trkpt lat="49.2843" lon="1.18926">
        <ele>85.3</ele>
        <time>2017-05-01T07:10:27Z</time>
      </trkpt>
      <trkpt lat="49.28418" lon="1.18923">
        <ele>85.8</ele>
        <time>2017-05-01T07:10:30Z</time>
      </trkpt>
      <trkpt lat="49.28407" lon="1.18921">
        <ele>86.4</ele>
        <time>2017-05-01T07:10:33Z</time>
      </trkpt>
      <trkpt lat="49.28397" lon="1.18918">
        <ele>86.9</ele>
        <time>2017-05-01T07:10:36Z</time>
      </trkpt>
      <trkpt lat="49.28387" lon="1.18915">
        <ele>87.3</ele>
        <time>2017-05-01T07:10:39Z</time>
      </trkpt>
      <trkpt lat="49.28377" lon="1.18913">
        <ele>87.7</ele>
        <time>2017-05-01T07:10:42Z</time>
      </trkpt>
      <trkpt lat="49.28365" lon="1.1891">
        <ele>88.1</ele>
        <time>2017-05-01T07:10:45Z</time>
      </trkpt>
      <trkpt lat="49.28354" lon="1.18906">
        <ele>88.5</ele>
        <time>2017-05-01T07:10:48Z</time>
      </trkpt>
      <trkpt lat="49.28342" lon="1.18901">
        <ele>88.9</ele>
        <time>2017-05-01T07:10:51Z</time>
      </trkpt>
      <trkpt lat="49.2833" lon="1.18898">
        <ele>89.4</ele>
        <time>2017-05-01T07:10:54Z</time>
      </trkpt>
      <trkpt lat="49.28319" lon="1.18895">
        <ele>89.8</ele>
        <time>2017-05-01T07:10:57Z</time>
      </trkpt>
      <trkpt lat="49.28308" lon="1.18892">
        <ele>90.2</ele>
        <time>2017-05-01T07:11:00Z</time>
      </trkpt>
      <trkpt lat="49.28297" lon="1.18888">
        <ele>90.6</ele>
        <time>2017-05-01T07:11:03Z</time>
      </trkpt>
      <trkpt lat="49.28286" lon="1.18883">
        <ele>91.1</ele>
        <time>2017-05-01T07:11:06Z</time>
      </trkpt>
      <trkpt lat="49.28275" lon="1.1888">
        <ele>91.6</ele>
        <time>2017-05-01T07:11:09Z</time>
      </trkpt>
      <trkpt lat="49.28264" lon="1.18877">
        <ele>92</ele>
        <time>2017-05-01T07:11:12Z</time>
      </trkpt>
      <trkpt lat="49.28254" lon="1.18874">
        <ele>92.6</ele>
        <time>2017-05-01T07:11:15Z</time>
      </trkpt>
      <trkpt lat="49.28244" lon="1.18871">
        <ele>93</ele>
        <time>2017-05-01T07:11:18Z</time>
      </trkpt>
      <trkpt lat="49.28234" lon="1.1887">
        <ele>93.6</ele>
        <time>2017-05-01T07:11:21Z</time>
      </trkpt>
      <trkpt lat="49.28224" lon="1.18868">
        <ele>94.2</ele>
        <time>2017-05-01T07:11:24Z</time>
      </trkpt>
      <trkpt lat="49.28213" lon="1.18866">
        <ele>95</ele>
        <time>2017-05-01T07:11:28Z</time>
      </trkpt>
      <trkpt lat="49.28204" lon="1.18863">
        <ele>95.6</ele>
        <time>2017-05-01T07:11:31Z</time>
      </trkpt>
      <trkpt lat="49.28192" lon="1.18861">
        <ele>96.5</ele>
        <time>2017-05-01T07:11:35Z</time>
      </trkpt>
      <trkpt lat="49.28181" lon="1.18858">
        <ele>97.5</ele>
        <time>2017-05-01T07:11:39Z</time>
      </trkpt>
      <trkpt lat="49.28179" lon="1.18844">
        <ele>98.4</ele>
        <time>2017-05-01T07:11:43Z</time>
      </trkpt>
      <trkpt lat="49.28181" lon="1.18826">
        <ele>99.2</ele>
        <time>2017-05-01T07:11:47Z</time>
      </trkpt>
      <trkpt lat="49.28182" lon="1.18812">
        <ele>100</ele>
        <time>2017-05-01T07:11:50Z</time>
      </trkpt>
      <trkpt lat="49.28183" lon="1.18797">
        <ele>100.6</ele>
        <time>2017-05-01T07:11:53Z</time>
      </trkpt>
      <trkpt lat="49.28184" lon="1.18781">
        <ele>101.2</ele>
        <time>2017-05-01T07:11:56Z</time>
      </trkpt>
      <trkpt lat="49.28186" lon="1.18763">
        <ele>101.8</ele>
        <time>2017-05-01T07:11:59Z</time>
      </trkpt>
      <trkpt lat="49.28188" lon="1.18746">
        <ele>102.2</ele>
        <time>2017-05-01T07:12:02Z</time>
      </trkpt>
      <trkpt lat="49.2819" lon="1.18728">
        <ele>102.7</ele>
        <time>2017-05-01T07:12:05Z</time>
      </trkpt>
      <trkpt lat="49.28192" lon="1.18709">
        <ele>103.1</ele>
        <time>2017-05-01T07:12:08Z</time>
      </trkpt>
      <trkpt lat="49.28194" lon="1.18691">
        <ele>103.5</ele>
        <time>2017-05-01T07:12:11Z</time>
      </trkpt>
      <trkpt lat="49.28197" lon="1.18676">
        <ele>103.8</ele>
        <time>2017-05-01T07:12:14Z</time>
      </trkpt>
      <trkpt lat="49.282" lon="1.18657">
        <ele>104</ele>
        <time>2017-05-01T07:12:17Z</time>
      </trkpt>
      <trkpt lat="49.28201" lon="1.18636">
        <ele>104.1</ele>
        <time>2017-05-01T07:12:20Z</time>
      </trkpt>
      <trkpt lat="49.28202" lon="1.18621">
        <ele>104.2</ele>
        <time>2017-05-01T07:12:22Z</time>
      </trkpt>
      <trkpt lat="49.28203" lon="1.18605">
        <ele>104.2</ele>
        <time>2017-05-01T07:12:24Z</time>
      </trkpt>
      <trkpt lat="49.28205" lon="1.18588">
        <ele>104.2</ele>
        <time>2017-05-01T07:12:26Z</time>
      </trkpt>
      <trkpt lat="49.28207" lon="1.18571">
        <ele>104.2</ele>
        <time>2017-05-01T07:12:28Z</time>
      </trkpt>
      <trkpt lat="49.28209" lon="1.18553">
        <ele>104.1</ele>
        <time>2017-05-01T07:12:30Z</time>
      </trkpt>
      <trkpt lat="49.28211" lon="1.18534">
        <ele>104</ele>
        <time>2017-05-01T07:12:32Z</time>
      </trkpt>
      <trkpt lat="49.28213" lon="1.18516">
        <ele>103.8</ele>
        <time>2017-05-01T07:12:34Z</time>
      </trkpt>
      <trkpt lat="49.28214" lon="1.18501">
        <ele>103.6</ele>
        <time>2017-05-01T07:12:36Z</time>
      </trkpt>
      <trkpt lat="49.28216" lon="1.18485">
        <ele>103.4</ele>
        <time>2017-05-01T07:12:38Z</time>
      </trkpt>
      <trkpt lat="49.28218" lon="1.18469">
        <ele>103.2</ele>
        <time>2017-05-01T07:12:40Z</time>
      </trkpt>
      <trkpt lat="49.2822" lon="1.18454">
        <ele>103</ele>
        <time>2017-05-01T07:12:42Z</time>
      </trkpt>
      <trkpt lat="49.28215" lon="1.18438">
        <ele>102.6</ele>
        <time>2017-05-01T07:12:45Z</time>
      </trkpt>
      <trkpt lat="49.28203" lon="1.18431">
        <ele>102.2</ele>
        <time>2017-05-01T07:12:48Z</time>
      </trkpt>
      <trkpt lat="49.28194" lon="1.18427">
        <ele>102.1</ele>
        <time>2017-05-01T07:12:50Z</time>
      </trkpt>
      <trkpt lat="49.28182" lon="1.18424">
        <ele>102</ele>
        <time>2017-05-01T07:12:53Z</time>
      </trkpt>
      <trkpt lat="49.2817" lon="1.18419">
        <ele>102.2</ele>
        <time>2017-05-01T07:12:56Z</time>
      </trkpt>
      <trkpt lat="49.28159" lon="1.18416">
        <ele>102.5</ele>
        <time>2017-05-01T07:12:59Z</time>
      </trkpt>
      <trkpt lat="49.28148" lon="1.18413">
        <ele>102.9</ele>
        <time>2017-05-01T07:13:02Z</time>
      </trkpt>
      <trkpt lat="49.28137" lon="1.1841">
        <ele>103.3</ele>
        <time>2017-05-01T07:13:05Z</time>
      </trkpt>
      <trkpt lat="49.28127" lon="1.18407">
        <ele>103.8</ele>
        <time>2017-05-01T07:13:08Z</time>
      </trkpt>
      <trkpt lat="49.28118" lon="1.18404">
        <ele>104.3</ele>
        <time>2017-05-01T07:13:11Z</time>
      </trkpt>
      <trkpt lat="49.28106" lon="1.18402">
        <ele>105.1</ele>
        <time>2017-05-01T07:13:15Z</time>
      </trkpt>
      <trkpt lat="49.28096" lon="1.18399">
        <ele>105.6</ele>
        <time>2017-05-01T07:13:18Z</time>
      </trkpt>
      <trkpt lat="49.28086" lon="1.18397">
        <ele>106.3</ele>
        <time>2017-05-01T07:13:21Z</time>
      </trkpt>
      <trkpt lat="49.28077" lon="1.18394">
        <ele>106.9</ele>
        <time>2017-05-01T07:13:24Z</time>
      </trkpt>
      <trkpt lat="49.28067" lon="1.18392">
        <ele>107.5</ele>
        <time>2017-05-01T07:13:27Z</time>
      </trkpt>
      <trkpt lat="49.28057" lon="1.1839">
        <ele>108</ele>
        <time>2017-05-01T07:13:30Z</time>
      </trkpt>
      <trkpt lat="49.28047" lon="1.18388">
        <ele>108.6</ele>
        <time>2017-05-01T07:13:33Z</time>
      </trkpt>
      <trkpt lat="49.28037" lon="1.18384">
        <ele>109.2</ele>
        <time>2017-05-01T07:13:36Z</time>
      </trkpt>
      <trkpt lat="49.28026" lon="1.18382">
        <ele>109.9</ele>
        <time>2017-05-01T07:13:39Z</time>
      </trkpt>
      <trkpt lat="49.28017" lon="1.18379">
        <ele>110.4</ele>
        <time>2017-05-01T07:13:42Z</time>
      </trkpt>
      <trkpt lat="49.28007" lon="1.18376">
        <ele>110.9</ele>
        <time>2017-05-01T07:13:45Z</time>
      </trkpt>
      <trkpt lat="49.27996" lon="1.18374">
        <ele>111.4</ele>
        <time>2017-05-01T07:13:48Z</time>
      </trkpt>
      <trkpt lat="49.27985" lon="1.18372">
        <ele>111.9</ele>
        <time>2017-05-01T07:13:51Z</time>
      </trkpt>
      <trkpt lat="49.27976" lon="1.18368">
        <ele>112.4</ele>
        <time>2017-05-01T07:13:54Z</time>
      </trkpt>
      <trkpt lat="49.27965" lon="1.18366">
        <ele>112.9</ele>
        <time>2017-05-01T07:13:57Z</time>
      </trkpt>
      <trkpt lat="49.27952" lon="1.18361">
        <ele>113.3</ele>
        <time>2017-05-01T07:14:00Z</time>
      </trkpt>
      <trkpt lat="49.27939" lon="1.1836">
        <ele>113.7</ele>
        <time>2017-05-01T07:14:03Z</time>
      </trkpt>
      <trkpt lat="49.27928" lon="1.18355">
        <ele>114</ele>
        <time>2017-05-01T07:14:06Z</time>
      </trkpt>
      <trkpt lat="49.27919" lon="1.18354">
        <ele>114.1</ele>
        <time>2017-05-01T07:14:08Z</time>
      </trkpt>
      <trkpt lat="49.27906" lon="1.18351">
        <ele>114.4</ele>
        <time>2017-05-01T07:14:11Z</time>
      </trkpt>
      <trkpt lat="49.27893" lon="1.1835">
        <ele>114.6</ele>
        <time>2017-05-01T07:14:14Z</time>
      </trkpt>
      <trkpt lat="49.27888" lon="1.18364">
        <ele>114.7</ele>
        <time>2017-05-01T07:14:17Z</time>
      </trkpt>
      <trkpt lat="49.27887" lon="1.18378">
        <ele>114.8</ele>
        <time>2017-05-01T07:14:19Z</time>
      </trkpt>
      <trkpt lat="49.27885" lon="1.18392">
        <ele>114.9</ele>
        <time>2017-05-01T07:14:21Z</time>
      </trkpt>
      <trkpt lat="49.27883" lon="1.18407">
        <ele>114.9</ele>
        <time>2017-05-01T07:14:23Z</time>
      </trkpt>
      <trkpt lat="49.2788" lon="1.18421">
        <ele>115</ele>
        <time>2017-05-01T07:14:25Z</time>
      </trkpt>
      <trkpt lat="49.27878" lon="1.18436">
        <ele>115.1</ele>
        <time>2017-05-01T07:14:27Z</time>
      </trkpt>
      <trkpt lat="49.27876" lon="1.1845">
        <ele>115.1</ele>
        <time>2017-05-01T07:14:29Z</time>
      </trkpt>
      <trkpt lat="49.27875" lon="1.18466">
        <ele>115.1</ele>
        <time>2017-05-01T07:14:31Z</time>
      </trkpt>
      <trkpt lat="49.27874" lon="1.18483">
        <ele>115.1</ele>
        <time>2017-05-01T07:14:33Z</time>
      </trkpt>
      <trkpt lat="49.27872" lon="1.18499">
        <ele>115.1</ele>
        <time>2017-05-01T07:14:35Z</time>
      </trkpt>
      <trkpt lat="49.2787" lon="1.18515">
        <ele>115</ele>
        <time>2017-05-01T07:14:37Z</time>
      </trkpt>
      <trkpt lat="49.27869" lon="1.18531">
        <ele>114.8</ele>
        <time>2017-05-01T07:14:39Z</time>
      </trkpt>
      <trkpt lat="49.27869" lon="1.18546">
        <ele>114.7</ele>
        <time>2017-05-01T07:14:41Z</time>
      </trkpt>
      <trkpt lat="49.27875" lon="1.18561">
        <ele>114.4</ele>
        <time>2017-05-01T07:14:43Z</time>
      </trkpt>
      <trkpt lat="49.27881" lon="1.18573">
        <ele>114.1</ele>
        <time>2017-05-01T07:14:45Z</time>
      </trkpt>
      <trkpt lat="49.27889" lon="1.18587">
        <ele>113.9</ele>
        <time>2017-05-01T07:14:47Z</time>
      </trkpt>
      <trkpt lat="49.27896" lon="1.18601">
        <ele>113.7</ele>
        <time>2017-05-01T07:14:49Z</time>
      </trkpt>
      <trkpt lat="49.27903" lon="1.18614">
        <ele>113.6</ele>
        <time>2017-05-01T07:14:51Z</time>
      </trkpt>
      <trkpt lat="49.2791" lon="1.18627">
        <ele>113.4</ele>
        <time>2017-05-01T07:14:53Z</time>
      </trkpt>
      <trkpt lat="49.27917" lon="1.18639">
        <ele>113.3</ele>
        <time>2017-05-01T07:14:55Z</time>
      </trkpt>
      <trkpt lat="49.27923" lon="1.18651">
        <ele>113.3</ele>
        <time>2017-05-01T07:14:57Z</time>
      </trkpt>
      <trkpt lat="49.27929" lon="1.18663">
        <ele>113.3</ele>
        <time>2017-05-01T07:14:59Z</time>
      </trkpt>
      <trkpt lat="49.27938" lon="1.18674">
        <ele>113.3</ele>
        <time>2017-05-01T07:15:01Z</time>
      </trkpt>
      <trkpt lat="49.27945" lon="1.18687">
        <ele>113.3</ele>
        <time>2017-05-01T07:15:03Z</time>
      </trkpt>
      <trkpt lat="49.27953" lon="1.18701">
        <ele>113.3</ele>
        <time>2017-05-01T07:15:05Z</time>
      </trkpt>
      <trkpt lat="49.2796" lon="1.18714">
        <ele>113.3</ele>
        <time>2017-05-01T07:15:07Z</time>
      </trkpt>
      <trkpt lat="49.27968" lon="1.18728">
        <ele>113.3</ele>
        <time>2017-05-01T07:15:09Z</time>
      </trkpt>
      <trkpt lat="49.27976" lon="1.18743">
        <ele>113.2</ele>
        <time>2017-05-01T07:15:11Z</time>
      </trkpt>
      <trkpt lat="49.27982" lon="1.18757">
        <ele>113</ele>
        <time>2017-05-01T07:15:13Z</time>
      </trkpt>
      <trkpt lat="49.2799" lon="1.18772">
        <ele>112.9</ele>
        <time>2017-05-01T07:15:15Z</time>
      </trkpt>
      <trkpt lat="49.27999" lon="1.18785">
        <ele>112.7</ele>
        <time>2017-05-01T07:15:17Z</time>
      </trkpt>
      <trkpt lat="49.28007" lon="1.18799">
        <ele>112.6</ele>
        <time>2017-05-01T07:15:19Z</time>
      </trkpt>
      <trkpt lat="49.28014" lon="1.18813">
        <ele>112.4</ele>
        <time>2017-05-01T07:15:21Z</time>
      </trkpt>
      <trkpt lat="49.28021" lon="1.1883">
        <ele>112.2</ele>
        <time>2017-05-01T07:15:23Z</time>
      </trkpt>
      <trkpt lat="49.28028" lon="1.18849">
        <ele>111.8</ele>
        <time>2017-05-01T07:15:25Z</time>
      </trkpt>
      <trkpt lat="49.28037" lon="1.18865">
        <ele>111.5</ele>
        <time>2017-05-01T07:15:27Z</time>
      </trkpt>
      <trkpt lat="49.28046" lon="1.18879">
        <ele>111</ele>
        <time>2017-05-01T07:15:29Z</time>
      </trkpt>
      <trkpt lat="49.28057" lon="1.18896">
        <ele>110.4</ele>
        <time>2017-05-01T07:15:31Z</time>
      </trkpt>
      <trkpt lat="49.28068" lon="1.18913">
        <ele>109.8</ele>
        <time>2017-05-01T07:15:33Z</time>
      </trkpt>
      <trkpt lat="49.2808" lon="1.1893">
        <ele>109.1</ele>
        <time>2017-05-01T07:15:35Z</time>
      </trkpt>
      <trkpt lat="49.28087" lon="1.18939">
        <ele>108.7</ele>
        <time>2017-05-01T07:15:36Z</time>
      </trkpt>
      <trkpt lat="49.28099" lon="1.18958">
        <ele>107.8</ele>
        <time>2017-05-01T07:15:38Z</time>
      </trkpt>
      <trkpt lat="49.28106" lon="1.18968">
        <ele>107.4</ele>
        <time>2017-05-01T07:15:39Z</time>
      </trkpt>
      <trkpt lat="49.28115" lon="1.18978">
        <ele>107</ele>
        <time>2017-05-01T07:15:40Z</time>
      </trkpt>
      <trkpt lat="49.28122" lon="1.18988">
        <ele>106.6</ele>
        <time>2017-05-01T07:15:41Z</time>
      </trkpt>
      <trkpt lat="49.28133" lon="1.19004">
        <ele>105.7</ele>
        <time>2017-05-01T07:15:43Z</time>
      </trkpt>
      <trkpt lat="49.28143" lon="1.19016">
        <ele>104.8</ele>
        <time>2017-05-01T07:15:45Z</time>
      </trkpt>
      <trkpt lat="49.28146" lon="1.19032">
        <ele>103.9</ele>
        <time>2017-05-01T07:15:47Z</time>
      </trkpt>
      <trkpt lat="49.28146" lon="1.19047">
        <ele>102.9</ele>
        <time>2017-05-01T07:15:49Z</time>
      </trkpt>
      <trkpt lat="49.28147" lon="1.19066">
        <ele>101.5</ele>
        <time>2017-05-01T07:15:52Z</time>
      </trkpt>
      <trkpt lat="49.28159" lon="1.1908">
        <ele>100</ele>
        <time>2017-05-01T07:15:55Z</time>
      </trkpt>
      <trkpt lat="49.28169" lon="1.19085">
        <ele>99.2</ele>
        <time>2017-05-01T07:15:57Z</time>
      </trkpt>
      <trkpt lat="49.28181" lon="1.19091">
        <ele>98.4</ele>
        <time>2017-05-01T07:15:59Z</time>
      </trkpt>
      <trkpt lat="49.28194" lon="1.19098">
        <ele>97.8</ele>
        <time>2017-05-01T07:16:01Z</time>
      </trkpt>
      <trkpt lat="49.28208" lon="1.19103">
        <ele>97.1</ele>
        <time>2017-05-01T07:16:03Z</time>
      </trkpt>
      <trkpt lat="49.28222" lon="1.19107">
        <ele>96.4</ele>
        <time>2017-05-01T07:16:05Z</time>
      </trkpt>
      <trkpt lat="49.28235" lon="1.19108">
        <ele>95.7</ele>
        <time>2017-05-01T07:16:07Z</time>
      </trkpt>
      <trkpt lat="49.28248" lon="1.19105">
        <ele>95.2</ele>
        <time>2017-05-01T07:16:09Z</time>
      </trkpt>
      <trkpt lat="49.2826" lon="1.19103">
        <ele>94.7</ele>
        <time>2017-05-01T07:16:11Z</time>
      </trkpt>
      <trkpt lat="49.28273" lon="1.191">
        <ele>94.2</ele>
        <time>2017-05-01T07:16:13Z</time>
      </trkpt>
      <trkpt lat="49.28286" lon="1.191">
        <ele>93.8</ele>
        <time>2017-05-01T07:16:15Z</time>
      </trkpt>
      <trkpt lat="49.283" lon="1.19101">
        <ele>93.3</ele>
        <time>2017-05-01T07:16:17Z</time>
      </trkpt>
      <trkpt lat="49.28314" lon="1.19105">
        <ele>92.9</ele>
        <time>2017-05-01T07:16:19Z</time>
      </trkpt>
      <trkpt lat="49.28328" lon="1.1911">
        <ele>92.5</ele>
        <time>2017-05-01T07:16:21Z</time>
      </trkpt>
      <trkpt lat="49.2834" lon="1.19119">
        <ele>92</ele>
        <time>2017-05-01T07:16:23Z</time>
      </trkpt>
      <trkpt lat="49.28353" lon="1.19131">
        <ele>91.5</ele>
        <time>2017-05-01T07:16:25Z</time>
      </trkpt>
      <trkpt lat="49.28365" lon="1.19144">
        <ele>90.9</ele>
        <time>2017-05-01T07:16:27Z</time>
      </trkpt>
      <trkpt lat="49.28378" lon="1.19155">
        <ele>90.4</ele>
        <time>2017-05-01T07:16:29Z</time>
      </trkpt>
      <trkpt lat="49.28392" lon="1.19165">
        <ele>90</ele>
        <time>2017-05-01T07:16:31Z</time>
      </trkpt>
      <trkpt lat="49.28407" lon="1.19172">
        <ele>89.4</ele>
        <time>2017-05-01T07:16:33Z</time>
      </trkpt>
      <trkpt lat="49.28422" lon="1.19179">
        <ele>88.9</ele>
        <time>2017-05-01T07:16:35Z</time>
      </trkpt>
      <trkpt lat="49.28436" lon="1.19185">
        <ele>88.5</ele>
        <time>2017-05-01T07:16:37Z</time>
      </trkpt>
      <trkpt lat="49.28448" lon="1.19192">
        <ele>88.1</ele>
        <time>2017-05-01T07:16:39Z</time>
      </trkpt>
      <trkpt lat="49.2846" lon="1.19202">
        <ele>87.7</ele>
        <time>2017-05-01T07:16:41Z</time>
      </trkpt>
      <trkpt lat="49.28471" lon="1.19212">
        <ele>87.3</ele>
        <time>2017-05-01T07:16:43Z</time>
      </trkpt>
      <trkpt lat="49.28482" lon="1.19222">
        <ele>86.8</ele>
        <time>2017-05-01T07:16:45Z</time>
      </trkpt>
      <trkpt lat="49.28492" lon="1.19234">
        <ele>86.1</ele>
        <time>2017-05-01T07:16:47Z</time>
      </trkpt>
      <trkpt lat="49.28502" lon="1.19248">
        <ele>85.6</ele>
        <time>2017-05-01T07:16:49Z</time>
      </trkpt>
      <trkpt lat="49.2851" lon="1.19259">
        <ele>85.1</ele>
        <time>2017-05-01T07:16:51Z</time>
      </trkpt>
      <trkpt lat="49.28519" lon="1.19267">
        <ele>84.6</ele>
        <time>2017-05-01T07:16:53Z</time>
      </trkpt>
      <trkpt lat="49.28528" lon="1.19269">
        <ele>84.1</ele>
        <time>2017-05-01T07:16:55Z</time>
      </trkpt>
      <trkpt lat="49.28537" lon="1.19261">
        <ele>83.6</ele>
        <time>2017-05-01T07:16:57Z</time>
      </trkpt>
      <trkpt lat="49.28546" lon="1.19252">
        <ele>83.2</ele>
        <time>2017-05-01T07:16:59Z</time>
      </trkpt>
      <trkpt lat="49.28556" lon="1.19242">
        <ele>82.8</ele>
        <time>2017-05-01T07:17:01Z</time>
      </trkpt>
      <trkpt lat="49.28566" lon="1.19232">
        <ele>82.4</ele>
        <time>2017-05-01T07:17:03Z</time>
      </trkpt>
      <trkpt lat="49.28576" lon="1.19221">
        <ele>82.1</ele>
        <time>2017-05-01T07:17:05Z</time>
      </trkpt>
      <trkpt lat="49.28587" lon="1.19211">
        <ele>81.7</ele>
        <time>2017-05-01T07:17:07Z</time>
      </trkpt>
      <trkpt lat="49.28598" lon="1.19202">
        <ele>81.4</ele>
        <time>2017-05-01T07:17:09Z</time>
      </trkpt>
      <trkpt lat="49.2861" lon="1.19194">
        <ele>81.1</ele>
        <time>2017-05-01T07:17:11Z</time>
      </trkpt>
      <trkpt lat="49.28623" lon="1.19187">
        <ele>80.7</ele>
        <time>2017-05-01T07:17:13Z</time>
      </trkpt>
      <trkpt lat="49.28635" lon="1.19178">
        <ele>80.3</ele>
        <time>2017-05-01T07:17:15Z</time>
      </trkpt>
      <trkpt lat="49.28647" lon="1.19169">
        <ele>79.9</ele>
        <time>2017-05-01T07:17:17Z</time>
      </trkpt>
      <trkpt lat="49.2866" lon="1.1916">
        <ele>79.5</ele>
        <time>2017-05-01T07:17:19Z</time>
      </trkpt>
      <trkpt lat="49.28673" lon="1.19151">
        <ele>78.9</ele>
        <time>2017-05-01T07:17:21Z</time>
      </trkpt>
      <trkpt lat="49.28686" lon="1.19142">
        <ele>78.4</ele>
        <time>2017-05-01T07:17:23Z</time>
      </trkpt>
      <trkpt lat="49.28698" lon="1.19133">
        <ele>77.9</ele>
        <time>2017-05-01T07:17:25Z</time>
      </trkpt>
      <trkpt lat="49.28711" lon="1.19124">
        <ele>77.4</ele>
        <time>2017-05-01T07:17:27Z</time>
      </trkpt>
      <trkpt lat="49.28724" lon="1.19115">
        <ele>77</ele>
        <time>2017-05-01T07:17:29Z</time>
      </trkpt>
      <trkpt lat="49.28738" lon="1.19107">
        <ele>76.6</ele>
        <time>2017-05-01T07:17:31Z</time>
      </trkpt>
      <trkpt lat="49.28751" lon="1.19099">
        <ele>76.2</ele>
        <time>2017-05-01T07:17:33Z</time>
      </trkpt>
      <trkpt lat="49.28764" lon="1.1909">
        <ele>75.7</ele>
        <time>2017-05-01T07:17:35Z</time>
      </trkpt>
      <trkpt lat="49.28778" lon="1.19082">
        <ele>75.3</ele>
        <time>2017-05-01T07:17:37Z</time>
      </trkpt>
      <trkpt lat="49.28792" lon="1.19074">
        <ele>74.9</ele>
        <time>2017-05-01T07:17:39Z</time>
      </trkpt>
      <trkpt lat="49.28806" lon="1.19066">
        <ele>74.5</ele>
        <time>2017-05-01T07:17:41Z</time>
      </trkpt>
      <trkpt lat="49.28821" lon="1.19058">
        <ele>74.1</ele>
        <time>2017-05-01T07:17:43Z</time>
      </trkpt>
      <trkpt lat="49.28835" lon="1.1905">
        <ele>73.7</ele>
        <time>2017-05-01T07:17:45Z</time>
      </trkpt>
      <trkpt lat="49.2885" lon="1.19041">
        <ele>73.2</ele>
        <time>2017-05-01T07:17:47Z</time>
      </trkpt>
      <trkpt lat="49.28864" lon="1.19033">
        <ele>72.7</ele>
        <time>2017-05-01T07:17:49Z</time>
      </trkpt>
      <trkpt lat="49.28877" lon="1.19023">
        <ele>72.3</ele>
        <time>2017-05-01T07:17:51Z</time>
      </trkpt>
      <trkpt lat="49.28892" lon="1.19014">
        <ele>71.8</ele>
        <time>2017-05-01T07:17:53Z</time>
      </trkpt>
      <trkpt lat="49.28907" lon="1.19006">
        <ele>71.3</ele>
        <time>2017-05-01T07:17:55Z</time>
      </trkpt>
      <trkpt lat="49.28922" lon="1.18998">
        <ele>70.8</ele>
        <time>2017-05-01T07:17:57Z</time>
      </trkpt>
      <trkpt lat="49.28936" lon="1.1899">
        <ele>70.3</ele>
        <time>2017-05-01T07:17:59Z</time>
      </trkpt>
      <trkpt lat="49.28951" lon="1.18982">
        <ele>69.9</ele>
        <time>2017-05-01T07:18:01Z</time>
      </trkpt>
      <trkpt lat="49.28965" lon="1.18976">
        <ele>69.4</ele>
        <time>2017-05-01T07:18:03Z</time>
      </trkpt>
      <trkpt lat="49.28977" lon="1.18972">
        <ele>68.9</ele>
        <time>2017-05-01T07:18:05Z</time>
      </trkpt>
      <trkpt lat="49.28986" lon="1.18978">
        <ele>68.4</ele>
        <time>2017-05-01T07:18:07Z</time>
      </trkpt>
      <trkpt lat="49.28991" lon="1.18993">
        <ele>68</ele>
        <time>2017-05-01T07:18:09Z</time>
      </trkpt>
      <trkpt lat="49.28995" lon="1.19009">
        <ele>67.6</ele>
        <time>2017-05-01T07:18:11Z</time>
      </trkpt>
      <trkpt lat="49.28999" lon="1.19027">
        <ele>67.2</ele>
        <time>2017-05-01T07:18:13Z</time>
      </trkpt>
      <trkpt lat="49.29003" lon="1.19045">
        <ele>66.9</ele>
        <time>2017-05-01T07:18:15Z</time>
      </trkpt>
      <trkpt lat="49.29008" lon="1.19063">
        <ele>66.6</ele>
        <time>2017-05-01T07:18:17Z</time>
      </trkpt>
      <trkpt lat="49.29012" lon="1.19081">
        <ele>66.4</ele>
        <time>2017-05-01T07:18:19Z</time>
      </trkpt>
      <trkpt lat="49.29016" lon="1.19096">
        <ele>66.2</ele>
        <time>2017-05-01T07:18:21Z</time>
      </trkpt>
      <trkpt lat="49.2902" lon="1.19112">
        <ele>66.1</ele>
        <time>2017-05-01T07:18:23Z</time>
      </trkpt>
      <trkpt lat="49.29023" lon="1.19127">
        <ele>66.2</ele>
        <time>2017-05-01T07:18:25Z</time>
      </trkpt>
      <trkpt lat="49.29027" lon="1.19142">
        <ele>66.4</ele>
        <time>2017-05-01T07:18:27Z</time>
      </trkpt>
      <trkpt lat="49.29031" lon="1.19158">
        <ele>66.7</ele>
        <time>2017-05-01T07:18:29Z</time>
      </trkpt>
      <trkpt lat="49.29034" lon="1.19174">
        <ele>66.9</ele>
        <time>2017-05-01T07:18:31Z</time>
      </trkpt>
      <trkpt lat="49.29038" lon="1.1919">
        <ele>67.1</ele>
        <time>2017-05-01T07:18:33Z</time>
      </trkpt>
      <trkpt lat="49.29042" lon="1.19206">
        <ele>67.3</ele>
        <time>2017-05-01T07:18:35Z</time>
      </trkpt>
      <trkpt lat="49.29046" lon="1.19222">
        <ele>67.6</ele>
        <time>2017-05-01T07:18:37Z</time>
      </trkpt>
      <trkpt lat="49.2905" lon="1.19238">
        <ele>67.8</ele>
        <time>2017-05-01T07:18:39Z</time>
      </trkpt>
      <trkpt lat="49.29054" lon="1.19254">
        <ele>68.1</ele>
        <time>2017-05-01T07:18:41Z</time>
      </trkpt>
      <trkpt lat="49.29058" lon="1.1927">
        <ele>68.5</ele>
        <time>2017-05-01T07:18:43Z</time>
      </trkpt>
      <trkpt lat="49.29066" lon="1.19282">
        <ele>68.8</ele>
        <time>2017-05-01T07:18:45Z</time>
      </trkpt>
      <trkpt lat="49.29075" lon="1.19291">
        <ele>69.2</ele>
        <time>2017-05-01T07:18:47Z</time>
      </trkpt>
      <trkpt lat="49.29086" lon="1.19297">
        <ele>69.4</ele>
        <time>2017-05-01T07:18:49Z</time>
      </trkpt>
      <trkpt lat="49.29098" lon="1.19303">
        <ele>69.7</ele>
        <time>2017-05-01T07:18:51Z</time>
      </trkpt>
      <trkpt lat="49.29109" lon="1.19308">
        <ele>69.9</ele>
        <time>2017-05-01T07:18:53Z</time>
      </trkpt>
      <trkpt lat="49.2912" lon="1.19313">
        <ele>70.1</ele>
        <time>2017-05-01T07:18:55Z</time>
      </trkpt>
      <trkpt lat="49.29132" lon="1.19317">
        <ele>70.3</ele>
        <time>2017-05-01T07:18:57Z</time>
      </trkpt>
      <trkpt lat="49.29144" lon="1.19322">
        <ele>70.5</ele>
        <time>2017-05-01T07:18:59Z</time>
      </trkpt>
      <trkpt lat="49.29155" lon="1.19327">
        <ele>70.6</ele>
        <time>2017-05-01T07:19:01Z</time>
      </trkpt>
      <trkpt lat="49.29167" lon="1.19331">
        <ele>70.8</ele>
        <time>2017-05-01T07:19:03Z</time>
      </trkpt>
      <trkpt lat="49.29179" lon="1.19336">
        <ele>71</ele>
        <time>2017-05-01T07:19:05Z</time>
      </trkpt>
      <trkpt lat="49.29191" lon="1.19342">
        <ele>71.2</ele>
        <time>2017-05-01T07:19:07Z</time>
      </trkpt>
      <trkpt lat="49.29203" lon="1.19348">
        <ele>71.3</ele>
        <time>2017-05-01T07:19:09Z</time>
      </trkpt>
      <trkpt lat="49.29215" lon="1.19353">
        <ele>71.5</ele>
        <time>2017-05-01T07:19:11Z</time>
      </trkpt>
      <trkpt lat="49.29227" lon="1.1936">
        <ele>71.6</ele>
        <time>2017-05-01T07:19:13Z</time>
      </trkpt>
      <trkpt lat="49.2924" lon="1.19366">
        <ele>71.7</ele>
        <time>2017-05-01T07:19:15Z</time>
      </trkpt>
      <trkpt lat="49.29252" lon="1.19373">
        <ele>71.9</ele>
        <time>2017-05-01T07:19:17Z</time>
      </trkpt>
      <trkpt lat="49.29263" lon="1.19378">
        <ele>72</ele>
        <time>2017-05-01T07:19:19Z</time>
      </trkpt>
      <trkpt lat="49.29272" lon="1.19388">
        <ele>72.1</ele>
        <time>2017-05-01T07:19:22Z</time>
      </trkpt>
      <trkpt lat="49.29275" lon="1.19407">
        <ele>72.2</ele>
        <time>2017-05-01T07:19:25Z</time>
      </trkpt>
      <trkpt lat="49.29281" lon="1.19422">
        <ele>72.3</ele>
        <time>2017-05-01T07:19:28Z</time>
      </trkpt>
      <trkpt lat="49.29287" lon="1.19437">
        <ele>72.5</ele>
        <time>2017-05-01T07:19:31Z</time>
      </trkpt>
      <trkpt lat="49.29292" lon="1.19454">
        <ele>72.6</ele>
        <time>2017-05-01T07:19:34Z</time>
      </trkpt>
      <trkpt lat="49.29299" lon="1.19471">
        <ele>72.7</ele>
        <time>2017-05-01T07:19:37Z</time>
      </trkpt>
      <trkpt lat="49.29305" lon="1.19485">
        <ele>72.7</ele>
        <time>2017-05-01T07:19:39Z</time>
      </trkpt>
      <trkpt lat="49.29316" lon="1.19486">
        <ele>72.8</ele>
        <time>2017-05-01T07:19:42Z</time>
      </trkpt>
      <trkpt lat="49.29327" lon="1.19485">
        <ele>72.8</ele>
        <time>2017-05-01T07:19:44Z</time>
      </trkpt>
      <trkpt lat="49.29338" lon="1.19482">
        <ele>72.8</ele>
        <time>2017-05-01T07:19:46Z</time>
      </trkpt>
      <trkpt lat="49.29347" lon="1.19479">
        <ele>72.8</ele>
        <time>2017-05-01T07:19:48Z</time>
      </trkpt>
      <trkpt lat="49.29357" lon="1.19477">
        <ele>72.7</ele>
        <time>2017-05-01T07:19:50Z</time>
      </trkpt>
      <trkpt lat="49.29369" lon="1.19473">
        <ele>72.7</ele>
        <time>2017-05-01T07:19:53Z</time>
      </trkpt>
      <trkpt lat="49.29381" lon="1.19471">
        <ele>72.7</ele>
        <time>2017-05-01T07:19:56Z</time>
      </trkpt>
      <trkpt lat="49.29392" lon="1.19467">
        <ele>72.8</ele>
        <time>2017-05-01T07:19:59Z</time>
      </trkpt>
      <trkpt lat="49.29405" lon="1.19469">
        <ele>72.8</ele>
        <time>2017-05-01T07:20:01Z</time>
      </trkpt>
      <trkpt lat="49.29418" lon="1.19471">
        <ele>72.9</ele>
        <time>2017-05-01T07:20:03Z</time>
      </trkpt>
      <trkpt lat="49.29429" lon="1.19473">
        <ele>72.9</ele>
        <time>2017-05-01T07:20:05Z</time>
      </trkpt>
      <trkpt lat="49.29439" lon="1.19475">
        <ele>72.9</ele>
        <time>2017-05-01T07:20:07Z</time>
      </trkpt>
      <trkpt lat="49.29449" lon="1.19479">
        <ele>72.9</ele>
        <time>2017-05-01T07:20:09Z</time>
      </trkpt>
      <trkpt lat="49.29462" lon="1.19483">
        <ele>72.9</ele>
        <time>2017-05-01T07:20:12Z</time>
      </trkpt>
      <trkpt lat="49.29473" lon="1.19483">
        <ele>72.9</ele>
        <time>2017-05-01T07:20:14Z</time>
      </trkpt>
      <trkpt lat="49.29484" lon="1.19482">
        <ele>72.7</ele>
        <time>2017-05-01T07:20:16Z</time>
      </trkpt>
      <trkpt lat="49.29495" lon="1.19483">
        <ele>72.5</ele>
        <time>2017-05-01T07:20:18Z</time>
      </trkpt>
      <trkpt lat="49.29505" lon="1.19485">
        <ele>72.5</ele>
        <time>2017-05-01T07:20:20Z</time>
      </trkpt>
      <trkpt lat="49.29515" lon="1.19487">
        <ele>72.4</ele>
        <time>2017-05-01T07:20:22Z</time>
      </trkpt>
      <trkpt lat="49.29525" lon="1.19487">
        <ele>72.2</ele>
        <time>2017-05-01T07:20:24Z</time>
      </trkpt>
      <trkpt lat="49.29536" lon="1.19488">
        <ele>72.1</ele>
        <time>2017-05-01T07:20:26Z</time>
      </trkpt>
      <trkpt lat="49.2955" lon="1.19489">
        <ele>71.8</ele>
        <time>2017-05-01T07:20:29Z</time>
      </trkpt>
      <trkpt lat="49.29564" lon="1.19488">
        <ele>71.5</ele>
        <time>2017-05-01T07:20:32Z</time>
      </trkpt>
      <trkpt lat="49.29576" lon="1.19484">
        <ele>71.1</ele>
        <time>2017-05-01T07:20:37Z</time>
      </trkpt>
      <trkpt lat="49.29587" lon="1.19479">
        <ele>70.8</ele>
        <time>2017-05-01T07:20:40Z</time>
      </trkpt>
      <trkpt lat="49.29598" lon="1.19467">
        <ele>70.4</ele>
        <time>2017-05-01T07:20:43Z</time>
      </trkpt>
      <trkpt lat="49.29605" lon="1.19453">
        <ele>69.9</ele>
        <time>2017-05-01T07:20:46Z</time>
      </trkpt>
      <trkpt lat="49.29609" lon="1.19439">
        <ele>69.5</ele>
        <time>2017-05-01T07:20:49Z</time>
      </trkpt>
      <trkpt lat="49.29615" lon="1.19428">
        <ele>68.9</ele>
        <time>2017-05-01T07:20:52Z</time>
      </trkpt>
      <trkpt lat="49.29619" lon="1.19414">
        <ele>68.4</ele>
        <time>2017-05-01T07:20:55Z</time>
      </trkpt>
      <trkpt lat="49.29624" lon="1.19398">
        <ele>68</ele>
        <time>2017-05-01T07:20:58Z</time>
      </trkpt>
      <trkpt lat="49.29621" lon="1.1938">
        <ele>67.7</ele>
        <time>2017-05-01T07:21:01Z</time>
      </trkpt>
      <trkpt lat="49.29611" lon="1.19369">
        <ele>67.5</ele>
        <time>2017-05-01T07:21:04Z</time>
      </trkpt>
      <trkpt lat="49.29602" lon="1.19357">
        <ele>67.2</ele>
        <time>2017-05-01T07:21:07Z</time>
      </trkpt>
      <trkpt lat="49.29595" lon="1.19347">
        <ele>67.2</ele>
        <time>2017-05-01T07:21:09Z</time>
      </trkpt>
      <trkpt lat="49.29586" lon="1.19336">
        <ele>67.4</ele>
        <time>2017-05-01T07:21:12Z</time>
      </trkpt>
      <trkpt lat="49.29577" lon="1.19325">
        <ele>67.7</ele>
        <time>2017-05-01T07:21:15Z</time>
      </trkpt>
      <trkpt lat="49.29568" lon="1.19316">
        <ele>67.8</ele>
        <time>2017-05-01T07:21:18Z</time>
      </trkpt>
      <trkpt lat="49.2956" lon="1.19307">
        <ele>68</ele>
        <time>2017-05-01T07:21:21Z</time>
      </trkpt>
      <trkpt lat="49.29552" lon="1.19297">
        <ele>68.2</ele>
        <time>2017-05-01T07:21:23Z</time>
      </trkpt>
      <trkpt lat="49.29544" lon="1.19288">
        <ele>68.3</ele>
        <time>2017-05-01T07:21:25Z</time>
      </trkpt>
      <trkpt lat="49.29536" lon="1.19279">
        <ele>68.4</ele>
        <time>2017-05-01T07:21:27Z</time>
      </trkpt>
      <trkpt lat="49.29525" lon="1.19268">
        <ele>68.6</ele>
        <time>2017-05-01T07:21:30Z</time>
      </trkpt>
      <trkpt lat="49.29518" lon="1.19259">
        <ele>68.8</ele>
        <time>2017-05-01T07:21:32Z</time>
      </trkpt>
      <trkpt lat="49.2951" lon="1.1925">
        <ele>68.9</ele>
        <time>2017-05-01T07:21:34Z</time>
      </trkpt>
      <trkpt lat="49.29503" lon="1.19241">
        <ele>69</ele>
        <time>2017-05-01T07:21:36Z</time>
      </trkpt>
      <trkpt lat="49.29496" lon="1.19233">
        <ele>69.1</ele>
        <time>2017-05-01T07:21:38Z</time>
      </trkpt>
      <trkpt lat="49.29487" lon="1.19222">
        <ele>69.2</ele>
        <time>2017-05-01T07:21:40Z</time>
      </trkpt>
      <trkpt lat="49.29479" lon="1.19214">
        <ele>69.2</ele>
        <time>2017-05-01T07:21:42Z</time>
      </trkpt>
      <trkpt lat="49.29471" lon="1.19205">
        <ele>69.3</ele>
        <time>2017-05-01T07:21:44Z</time>
      </trkpt>
      <trkpt lat="49.29463" lon="1.19194">
        <ele>69.3</ele>
        <time>2017-05-01T07:21:46Z</time>
      </trkpt>
      <trkpt lat="49.29454" lon="1.19185">
        <ele>69.4</ele>
        <time>2017-05-01T07:21:48Z</time>
      </trkpt>
      <trkpt lat="49.29446" lon="1.19178">
        <ele>69.4</ele>
        <time>2017-05-01T07:21:50Z</time>
      </trkpt>
      <trkpt lat="49.29438" lon="1.19169">
        <ele>69.5</ele>
        <time>2017-05-01T07:21:52Z</time>
      </trkpt>
      <trkpt lat="49.2943" lon="1.19159">
        <ele>69.5</ele>
        <time>2017-05-01T07:21:54Z</time>
      </trkpt>
      <trkpt lat="49.29419" lon="1.19146">
        <ele>69.5</ele>
        <time>2017-05-01T07:21:57Z</time>
      </trkpt>
      <trkpt lat="49.29412" lon="1.19137">
        <ele>69.5</ele>
        <time>2017-05-01T07:21:59Z</time>
      </trkpt>
      <trkpt lat="49.29411" lon="1.19121">
        <ele>69.5</ele>
        <time>2017-05-01T07:22:01Z</time>
      </trkpt>
      <trkpt lat="49.29418" lon="1.19104">
        <ele>69.5</ele>
        <time>2017-05-01T07:22:04Z</time>
      </trkpt>
      <trkpt lat="49.29424" lon="1.19091">
        <ele>69.5</ele>
        <time>2017-05-01T07:22:06Z</time>
      </trkpt>
      <trkpt lat="49.2943" lon="1.19078">
        <ele>69.5</ele>
        <time>2017-05-01T07:22:08Z</time>
      </trkpt>
      <trkpt lat="49.29436" lon="1.19065">
        <ele>69.5</ele>
        <time>2017-05-01T07:22:10Z</time>
      </trkpt>
      <trkpt lat="49.29443" lon="1.19051">
        <ele>69.5</ele>
        <time>2017-05-01T07:22:12Z</time>
      </trkpt>
      <trkpt lat="49.29449" lon="1.19037">
        <ele>69.5</ele>
        <time>2017-05-01T07:22:14Z</time>
      </trkpt>
      <trkpt lat="49.29455" lon="1.19023">
        <ele>69.4</ele>
        <time>2017-05-01T07:22:16Z</time>
      </trkpt>
      <trkpt lat="49.29461" lon="1.19009">
        <ele>69.4</ele>
        <time>2017-05-01T07:22:18Z</time>
      </trkpt>
      <trkpt lat="49.29469" lon="1.18996">
        <ele>69.4</ele>
        <time>2017-05-01T07:22:20Z</time>
      </trkpt>
      <trkpt lat="49.29476" lon="1.18983">
        <ele>69.3</ele>
        <time>2017-05-01T07:22:22Z</time>
      </trkpt>
      <trkpt lat="49.29483" lon="1.1897">
        <ele>69.3</ele>
        <time>2017-05-01T07:22:24Z</time>
      </trkpt>
      <trkpt lat="49.2949" lon="1.18956">
        <ele>69.3</ele>
        <time>2017-05-01T07:22:26Z</time>
      </trkpt>
      <trkpt lat="49.29497" lon="1.18944">
        <ele>69.2</ele>
        <time>2017-05-01T07:22:28Z</time>
      </trkpt>
      <trkpt lat="49.29504" lon="1.18928">
        <ele>69.2</ele>
        <time>2017-05-01T07:22:30Z</time>
      </trkpt>
      <trkpt lat="49.29511" lon="1.18914">
        <ele>69.2</ele>
        <time>2017-05-01T07:22:32Z</time>
      </trkpt>
      <trkpt lat="49.29519" lon="1.18902">
        <ele>69.1</ele>
        <time>2017-05-01T07:22:34Z</time>
      </trkpt>
      <trkpt lat="49.29526" lon="1.18886">
        <ele>69.1</ele>
        <time>2017-05-01T07:22:36Z</time>
      </trkpt>
      <trkpt lat="49.29533" lon="1.1887">
        <ele>69.1</ele>
        <time>2017-05-01T07:22:38Z</time>
      </trkpt>
      <trkpt lat="49.29541" lon="1.18855">
        <ele>69.1</ele>
        <time>2017-05-01T07:22:40Z</time>
      </trkpt>
      <trkpt lat="49.29548" lon="1.1884">
        <ele>69</ele>
        <time>2017-05-01T07:22:42Z</time>
      </trkpt>
      <trkpt lat="49.29555" lon="1.18826">
        <ele>69</ele>
        <time>2017-05-01T07:22:44Z</time>
      </trkpt>
      <trkpt lat="49.29562" lon="1.18811">
        <ele>68.9</ele>
        <time>2017-05-01T07:22:46Z</time>
      </trkpt>
      <trkpt lat="49.29567" lon="1.18798">
        <ele>68.8</ele>
        <time>2017-05-01T07:22:48Z</time>
      </trkpt>
      <trkpt lat="49.29574" lon="1.18784">
        <ele>68.6</ele>
        <time>2017-05-01T07:22:50Z</time>
      </trkpt>
      <trkpt lat="49.2958" lon="1.18771">
        <ele>68.4</ele>
        <time>2017-05-01T07:22:52Z</time>
      </trkpt>
      <trkpt lat="49.29587" lon="1.18757">
        <ele>68.3</ele>
        <time>2017-05-01T07:22:54Z</time>
      </trkpt>
      <trkpt lat="49.29594" lon="1.18741">
        <ele>68.1</ele>
        <time>2017-05-01T07:22:56Z</time>
      </trkpt>
      <trkpt lat="49.29601" lon="1.18726">
        <ele>67.9</ele>
        <time>2017-05-01T07:22:58Z</time>
      </trkpt>
      <trkpt lat="49.29608" lon="1.18711">
        <ele>67.7</ele>
        <time>2017-05-01T07:23:00Z</time>
      </trkpt>
      <trkpt lat="49.29616" lon="1.18695">
        <ele>67.6</ele>
        <time>2017-05-01T07:23:02Z</time>
      </trkpt>
      <trkpt lat="49.29624" lon="1.18678">
        <ele>67.4</ele>
        <time>2017-05-01T07:23:04Z</time>
      </trkpt>
      <trkpt lat="49.29632" lon="1.18662">
        <ele>67.2</ele>
        <time>2017-05-01T07:23:06Z</time>
      </trkpt>
      <trkpt lat="49.29641" lon="1.18647">
        <ele>66.9</ele>
        <time>2017-05-01T07:23:08Z</time>
      </trkpt>
      <trkpt lat="49.29651" lon="1.18631">
        <ele>66.6</ele>
        <time>2017-05-01T07:23:10Z</time>
      </trkpt>
      <trkpt lat="49.2966" lon="1.18616">
        <ele>66.2</ele>
        <time>2017-05-01T07:23:12Z</time>
      </trkpt>
      <trkpt lat="49.29668" lon="1.18598">
        <ele>65.8</ele>
        <time>2017-05-01T07:23:14Z</time>
      </trkpt>
      <trkpt lat="49.29678" lon="1.18584">
        <ele>65.4</ele>
        <time>2017-05-01T07:23:16Z</time>
      </trkpt>
      <trkpt lat="49.29688" lon="1.18567">
        <ele>64.9</ele>
        <time>2017-05-01T07:23:18Z</time>
      </trkpt>
      <trkpt lat="49.29696" lon="1.18548">
        <ele>64.4</ele>
        <time>2017-05-01T07:23:20Z</time>
      </trkpt>
      <trkpt lat="49.29699" lon="1.18535">
        <ele>64.1</ele>
        <time>2017-05-01T07:23:21Z</time>
      </trkpt>
      <trkpt lat="49.29708" lon="1.18517">
        <ele>63.4</ele>
        <time>2017-05-01T07:23:23Z</time>
      </trkpt>
      <trkpt lat="49.29715" lon="1.18492">
        <ele>62.8</ele>
        <time>2017-05-01T07:23:25Z</time>
      </trkpt>
      <trkpt lat="49.29726" lon="1.18472">
        <ele>61.9</ele>
        <time>2017-05-01T07:23:27Z</time>
      </trkpt>
      <trkpt lat="49.29735" lon="1.18451">
        <ele>61.1</ele>
        <time>2017-05-01T07:23:29Z</time>
      </trkpt>
      <trkpt lat="49.29745" lon="1.18432">
        <ele>60.3</ele>
        <time>2017-05-01T07:23:31Z</time>
      </trkpt>
      <trkpt lat="49.29755" lon="1.18417">
        <ele>59.5</ele>
        <time>2017-05-01T07:23:33Z</time>
      </trkpt>
      <trkpt lat="49.29765" lon="1.18398">
        <ele>58.8</ele>
        <time>2017-05-01T07:23:35Z</time>
      </trkpt>
      <trkpt lat="49.29774" lon="1.18377">
        <ele>58.1</ele>
        <time>2017-05-01T07:23:37Z</time>
      </trkpt>
      <trkpt lat="49.29783" lon="1.18357">
        <ele>57.4</ele>
        <time>2017-05-01T07:23:39Z</time>
      </trkpt>
      <trkpt lat="49.29792" lon="1.18336">
        <ele>56.5</ele>
        <time>2017-05-01T07:23:41Z</time>
      </trkpt>
      <trkpt lat="49.29802" lon="1.18319">
        <ele>55.8</ele>
        <time>2017-05-01T07:23:43Z</time>
      </trkpt>
      <trkpt lat="49.29813" lon="1.183">
        <ele>54.9</ele>
        <time>2017-05-01T07:23:45Z</time>
      </trkpt>
      <trkpt lat="49.29824" lon="1.18281">
        <ele>54</ele>
        <time>2017-05-01T07:23:47Z</time>
      </trkpt>
      <trkpt lat="49.29834" lon="1.18261">
        <ele>53.1</ele>
        <time>2017-05-01T07:23:49Z</time>
      </trkpt>
      <trkpt lat="49.29843" lon="1.1824">
        <ele>52.3</ele>
        <time>2017-05-01T07:23:51Z</time>
      </trkpt>
      <trkpt lat="49.29853" lon="1.18222">
        <ele>51.3</ele>
        <time>2017-05-01T07:23:53Z</time>
      </trkpt>
      <trkpt lat="49.29862" lon="1.18204">
        <ele>50.4</ele>
        <time>2017-05-01T07:23:55Z</time>
      </trkpt>
      <trkpt lat="49.29872" lon="1.18183">
        <ele>49.5</ele>
        <time>2017-05-01T07:23:57Z</time>
      </trkpt>
      <trkpt lat="49.29881" lon="1.18166">
        <ele>48.6</ele>
        <time>2017-05-01T07:23:59Z</time>
      </trkpt>
      <trkpt lat="49.29892" lon="1.18151">
        <ele>47.6</ele>
        <time>2017-05-01T07:24:01Z</time>
      </trkpt>
      <trkpt lat="49.29895" lon="1.18135">
        <ele>47.1</ele>
        <time>2017-05-01T07:24:02Z</time>
      </trkpt>
      <trkpt lat="49.29902" lon="1.18118">
        <ele>46.1</ele>
        <time>2017-05-01T07:24:04Z</time>
      </trkpt>
      <trkpt lat="49.29905" lon="1.18105">
        <ele>45</ele>
        <time>2017-05-01T07:24:06Z</time>
      </trkpt>
      <trkpt lat="49.29901" lon="1.18088">
        <ele>43.5</ele>
        <time>2017-05-01T07:24:09Z</time>
      </trkpt>
      <trkpt lat="49.29897" lon="1.18074">
        <ele>42.2</ele>
        <time>2017-05-01T07:24:12Z</time>
      </trkpt>
      <trkpt lat="49.29895" lon="1.18058">
        <ele>40.8</ele>
        <time>2017-05-01T07:24:16Z</time>
      </trkpt>
      <trkpt lat="49.29889" lon="1.18045">
        <ele>39.7</ele>
        <time>2017-05-01T07:24:20Z</time>
      </trkpt>
      <trkpt lat="49.29883" lon="1.18035">
        <ele>38.8</ele>
        <time>2017-05-01T07:24:24Z</time>
      </trkpt>
      <trkpt lat="49.29876" lon="1.18026">
        <ele>38</ele>
        <time>2017-05-01T07:24:28Z</time>
      </trkpt>
      <trkpt lat="49.29869" lon="1.18013">
        <ele>37.3</ele>
        <time>2017-05-01T07:24:33Z</time>
      </trkpt>
      <trkpt lat="49.29866" lon="1.17999">
        <ele>36.8</ele>
        <time>2017-05-01T07:24:38Z</time>
      </trkpt>
      <trkpt lat="49.29861" lon="1.17987">
        <ele>36.5</ele>
        <time>2017-05-01T07:24:42Z</time>
      </trkpt>
      <trkpt lat="49.29857" lon="1.17974">
        <ele>36.2</ele>
        <time>2017-05-01T07:24:46Z</time>
      </trkpt>
      <trkpt lat="49.29849" lon="1.17963">
        <ele>36</ele>
        <time>2017-05-01T07:24:50Z</time>
      </trkpt>
      <trkpt lat="49.29844" lon="1.17951">
        <ele>35.9</ele>
        <time>2017-05-01T07:24:53Z</time>
      </trkpt>
      <trkpt lat="49.29836" lon="1.17938">
        <ele>35.9</ele>
        <time>2017-05-01T07:24:56Z</time>
      </trkpt>
      <trkpt lat="49.29831" lon="1.17924">
        <ele>36</ele>
        <time>2017-05-01T07:24:59Z</time>
      </trkpt>
      <trkpt lat="49.29825" lon="1.17913">
        <ele>36</ele>
        <time>2017-05-01T07:25:02Z</time>
      </trkpt>
      <trkpt lat="49.29817" lon="1.17902">
        <ele>36.1</ele>
        <time>2017-05-01T07:25:05Z</time>
      </trkpt>
      <trkpt lat="49.29807" lon="1.17887">
        <ele>36.1</ele>
        <time>2017-05-01T07:25:08Z</time>
      </trkpt>
      <trkpt lat="49.29799" lon="1.17873">
        <ele>36</ele>
        <time>2017-05-01T07:25:11Z</time>
      </trkpt>
      <trkpt lat="49.29792" lon="1.17862">
        <ele>35.9</ele>
        <time>2017-05-01T07:25:13Z</time>
      </trkpt>
      <trkpt lat="49.29785" lon="1.17851">
        <ele>35.7</ele>
        <time>2017-05-01T07:25:15Z</time>
      </trkpt>
      <trkpt lat="49.29775" lon="1.1784">
        <ele>35.4</ele>
        <time>2017-05-01T07:25:18Z</time>
      </trkpt>
      <trkpt lat="49.29769" lon="1.1783">
        <ele>34.9</ele>
        <time>2017-05-01T07:25:20Z</time>
      </trkpt>
      <trkpt lat="49.29762" lon="1.1782">
        <ele>34.3</ele>
        <time>2017-05-01T07:25:22Z</time>
      </trkpt>
      <trkpt lat="49.29754" lon="1.17807">
        <ele>32.8</ele>
        <time>2017-05-01T07:25:25Z</time>
      </trkpt>
      <trkpt lat="49.29747" lon="1.17794">
        <ele>30.9</ele>
        <time>2017-05-01T07:25:29Z</time>
      </trkpt>
      <trkpt lat="49.29738" lon="1.17785">
        <ele>27.8</ele>
        <time>2017-05-01T07:25:35Z</time>
      </trkpt>
      <trkpt lat="49.29731" lon="1.17775">
        <ele>25.1</ele>
        <time>2017-05-01T07:25:43Z</time>
      </trkpt>
      <trkpt lat="49.29721" lon="1.17772">
        <ele>23.5</ele>
        <time>2017-05-01T07:25:51Z</time>
      </trkpt>
      <trkpt lat="49.29712" lon="1.17766">
        <ele>23</ele>
        <time>2017-05-01T07:26:00Z</time>
      </trkpt>
      <trkpt lat="49.29713" lon="1.17751">
        <ele>24.1</ele>
        <time>2017-05-01T07:26:23Z</time>
      </trkpt>
      <trkpt lat="49.29722" lon="1.17739">
        <ele>24.2</ele>
        <time>2017-05-01T07:26:27Z</time>
      </trkpt>
      <trkpt lat="49.29731" lon="1.17727">
        <ele>24.2</ele>
        <time>2017-05-01T07:26:30Z</time>
      </trkpt>
      <trkpt lat="49.29741" lon="1.17714">
        <ele>24.3</ele>
        <time>2017-05-01T07:26:33Z</time>
      </trkpt>
      <trkpt lat="49.29748" lon="1.17705">
        <ele>24.3</ele>
        <time>2017-05-01T07:26:35Z</time>
      </trkpt>
      <trkpt lat="49.29757" lon="1.1769">
        <ele>24.5</ele>
        <time>2017-05-01T07:26:38Z</time>
      </trkpt>
      <trkpt lat="49.29758" lon="1.17675">
        <ele>24.6</ele>
        <time>2017-05-01T07:26:40Z</time>
      </trkpt>
      <trkpt lat="49.29772" lon="1.17655">
        <ele>24</ele>
        <time>2017-05-01T07:26:44Z</time>
      </trkpt>
      <trkpt lat="49.29791" lon="1.17643">
        <ele>25</ele>
        <time>2017-05-01T07:26:48Z</time>
      </trkpt>
      <trkpt lat="49.29801" lon="1.17631">
        <ele>25.2</ele>
        <time>2017-05-01T07:26:51Z</time>
      </trkpt>
      <trkpt lat="49.29807" lon="1.17618">
        <ele>25.4</ele>
        <time>2017-05-01T07:26:53Z</time>
      </trkpt>
      <trkpt lat="49.29817" lon="1.17602">
        <ele>25.7</ele>
        <time>2017-05-01T07:26:56Z</time>
      </trkpt>
      <trkpt lat="49.29826" lon="1.17593">
        <ele>25.9</ele>
        <time>2017-05-01T07:26:58Z</time>
      </trkpt>
      <trkpt lat="49.29835" lon="1.17579">
        <ele>26.3</ele>
        <time>2017-05-01T07:27:01Z</time>
      </trkpt>
      <trkpt lat="49.29845" lon="1.17565">
        <ele>26.6</ele>
        <time>2017-05-01T07:27:04Z</time>
      </trkpt>
      <trkpt lat="49.29852" lon="1.17555">
        <ele>26.9</ele>
        <time>2017-05-01T07:27:06Z</time>
      </trkpt>
      <trkpt lat="49.2986" lon="1.17546">
        <ele>27.1</ele>
        <time>2017-05-01T07:27:08Z</time>
      </trkpt>
      <trkpt lat="49.2987" lon="1.17533">
        <ele>27.5</ele>
        <time>2017-05-01T07:27:11Z</time>
      </trkpt>
      <trkpt lat="49.29878" lon="1.17524">
        <ele>27.7</ele>
        <time>2017-05-01T07:27:13Z</time>
      </trkpt>
      <trkpt lat="49.29886" lon="1.17517">
        <ele>27.9</ele>
        <time>2017-05-01T07:27:16Z</time>
      </trkpt>
      <trkpt lat="49.29877" lon="1.17512">
        <ele>28.3</ele>
        <time>2017-05-01T07:27:24Z</time>
      </trkpt>
      <trkpt lat="49.29879" lon="1.17494">
        <ele>28.4</ele>
        <time>2017-05-01T07:27:28Z</time>
      </trkpt>
      <trkpt lat="49.29883" lon="1.17478">
        <ele>28.5</ele>
        <time>2017-05-01T07:27:32Z</time>
      </trkpt>
      <trkpt lat="49.29891" lon="1.17472">
        <ele>28.5</ele>
        <time>2017-05-01T07:27:35Z</time>
      </trkpt>
      <trkpt lat="49.29905" lon="1.17467">
        <ele>28.5</ele>
        <time>2017-05-01T07:27:38Z</time>
      </trkpt>
      <trkpt lat="49.29914" lon="1.17462">
        <ele>28.4</ele>
        <time>2017-05-01T07:27:40Z</time>
      </trkpt>
      <trkpt lat="49.29921" lon="1.17451">
        <ele>28.2</ele>
        <time>2017-05-01T07:27:42Z</time>
      </trkpt>
      <trkpt lat="49.29927" lon="1.17435">
        <ele>28</ele>
        <time>2017-05-01T07:27:45Z</time>
      </trkpt>
      <trkpt lat="49.29933" lon="1.17418">
        <ele>27.9</ele>
        <time>2017-05-01T07:27:48Z</time>
      </trkpt>
      <trkpt lat="49.29939" lon="1.17403">
        <ele>27.7</ele>
        <time>2017-05-01T07:27:51Z</time>
      </trkpt>
      <trkpt lat="49.29945" lon="1.17387">
        <ele>27.5</ele>
        <time>2017-05-01T07:27:54Z</time>
      </trkpt>
      <trkpt lat="49.29951" lon="1.17375">
        <ele>27.3</ele>
        <time>2017-05-01T07:27:56Z</time>
      </trkpt>
      <trkpt lat="49.29955" lon="1.1736">
        <ele>27.2</ele>
        <time>2017-05-01T07:27:58Z</time>
      </trkpt>
      <trkpt lat="49.29958" lon="1.17343">
        <ele>27</ele>
        <time>2017-05-01T07:28:00Z</time>
      </trkpt>
      <trkpt lat="49.29963" lon="1.17327">
        <ele>26.9</ele>
        <time>2017-05-01T07:28:02Z</time>
      </trkpt>
      <trkpt lat="49.29967" lon="1.17311">
        <ele>26.7</ele>
        <time>2017-05-01T07:28:04Z</time>
      </trkpt>
      <trkpt lat="49.29971" lon="1.17294">
        <ele>26.5</ele>
        <time>2017-05-01T07:28:06Z</time>
      </trkpt>
      <trkpt lat="49.29975" lon="1.17276">
        <ele>26.3</ele>
        <time>2017-05-01T07:28:08Z</time>
      </trkpt>
      <trkpt lat="49.29979" lon="1.17259">
        <ele>26.1</ele>
        <time>2017-05-01T07:28:10Z</time>
      </trkpt>
      <trkpt lat="49.29983" lon="1.17241">
        <ele>26</ele>
        <time>2017-05-01T07:28:12Z</time>
      </trkpt>
      <trkpt lat="49.29987" lon="1.17223">
        <ele>25.8</ele>
        <time>2017-05-01T07:28:14Z</time>
      </trkpt>
      <trkpt lat="49.2999" lon="1.17206">
        <ele>25.7</ele>
        <time>2017-05-01T07:28:16Z</time>
      </trkpt>
      <trkpt lat="49.29994" lon="1.17188">
        <ele>25.5</ele>
        <time>2017-05-01T07:28:18Z</time>
      </trkpt>
      <trkpt lat="49.29998" lon="1.1717">
        <ele>25.4</ele>
        <time>2017-05-01T07:28:20Z</time>
      </trkpt>
      <trkpt lat="49.30002" lon="1.17153">
        <ele>25.2</ele>
        <time>2017-05-01T07:28:22Z</time>
      </trkpt>
      <trkpt lat="49.30006" lon="1.17136">
        <ele>25</ele>
        <time>2017-05-01T07:28:24Z</time>
      </trkpt>
      <trkpt lat="49.3001" lon="1.17118">
        <ele>24.9</ele>
        <time>2017-05-01T07:28:26Z</time>
      </trkpt>
      <trkpt lat="49.30014" lon="1.171">
        <ele>24.7</ele>
        <time>2017-05-01T07:28:28Z</time>
      </trkpt>
      <trkpt lat="49.30018" lon="1.17083">
        <ele>24.6</ele>
        <time>2017-05-01T07:28:30Z</time>
      </trkpt>
      <trkpt lat="49.30022" lon="1.17065">
        <ele>24.5</ele>
        <time>2017-05-01T07:28:32Z</time>
      </trkpt>
      <trkpt lat="49.30026" lon="1.17047">
        <ele>24.4</ele>
        <time>2017-05-01T07:28:34Z</time>
      </trkpt>
      <trkpt lat="49.3003" lon="1.1703">
        <ele>24.3</ele>
        <time>2017-05-01T07:28:36Z</time>
      </trkpt>
      <trkpt lat="49.30034" lon="1.17012">
        <ele>24.2</ele>
        <time>2017-05-01T07:28:38Z</time>
      </trkpt>
      <trkpt lat="49.30038" lon="1.16993">
        <ele>24.1</ele>
        <time>2017-05-01T07:28:40Z</time>
      </trkpt>
      <trkpt lat="49.30042" lon="1.16974">
        <ele>24</ele>
        <time>2017-05-01T07:28:42Z</time>
      </trkpt>
      <trkpt lat="49.30046" lon="1.16956">
        <ele>23.9</ele>
        <time>2017-05-01T07:28:44Z</time>
      </trkpt>
      <trkpt lat="49.3005" lon="1.16938">
        <ele>23.8</ele>
        <time>2017-05-01T07:28:46Z</time>
      </trkpt>
      <trkpt lat="49.30054" lon="1.16922">
        <ele>23.7</ele>
        <time>2017-05-01T07:28:48Z</time>
      </trkpt>
      <trkpt lat="49.30057" lon="1.16908">
        <ele>23.6</ele>
        <time>2017-05-01T07:28:50Z</time>
      </trkpt>
      <trkpt lat="49.3006" lon="1.16894">
        <ele>23.4</ele>
        <time>2017-05-01T07:28:52Z</time>
      </trkpt>
      <trkpt lat="49.30063" lon="1.16879">
        <ele>23.3</ele>
        <time>2017-05-01T07:28:54Z</time>
      </trkpt>
      <trkpt lat="49.30067" lon="1.16863">
        <ele>23.1</ele>
        <time>2017-05-01T07:28:56Z</time>
      </trkpt>
      <trkpt lat="49.30071" lon="1.16845">
        <ele>22.9</ele>
        <time>2017-05-01T07:28:58Z</time>
      </trkpt>
      <trkpt lat="49.30075" lon="1.16827">
        <ele>22.7</ele>
        <time>2017-05-01T07:29:00Z</time>
      </trkpt>
      <trkpt lat="49.30079" lon="1.16809">
        <ele>22.6</ele>
        <time>2017-05-01T07:29:02Z</time>
      </trkpt>
      <trkpt lat="49.30083" lon="1.16791">
        <ele>22.5</ele>
        <time>2017-05-01T07:29:04Z</time>
      </trkpt>
      <trkpt lat="49.30087" lon="1.16772">
        <ele>22.3</ele>
        <time>2017-05-01T07:29:06Z</time>
      </trkpt>
      <trkpt lat="49.30091" lon="1.16753">
        <ele>22.2</ele>
        <time>2017-05-01T07:29:08Z</time>
      </trkpt>
      <trkpt lat="49.30096" lon="1.16735">
        <ele>22.1</ele>
        <time>2017-05-01T07:29:10Z</time>
      </trkpt>
      <trkpt lat="49.301" lon="1.16716">
        <ele>21.9</ele>
        <time>2017-05-01T07:29:12Z</time>
      </trkpt>
      <trkpt lat="49.30105" lon="1.16699">
        <ele>21.6</ele>
        <time>2017-05-01T07:29:14Z</time>
      </trkpt>
      <trkpt lat="49.30109" lon="1.16681">
        <ele>21.4</ele>
        <time>2017-05-01T07:29:16Z</time>
      </trkpt>
      <trkpt lat="49.30113" lon="1.16663">
        <ele>21.2</ele>
        <time>2017-05-01T07:29:18Z</time>
      </trkpt>
      <trkpt lat="49.30117" lon="1.16645">
        <ele>21</ele>
        <time>2017-05-01T07:29:20Z</time>
      </trkpt>
      <trkpt lat="49.30121" lon="1.16627">
        <ele>20.8</ele>
        <time>2017-05-01T07:29:22Z</time>
      </trkpt>
      <trkpt lat="49.30125" lon="1.16608">
        <ele>20.6</ele>
        <time>2017-05-01T07:29:24Z</time>
      </trkpt>
      <trkpt lat="49.30127" lon="1.1659">
        <ele>20.3</ele>
        <time>2017-05-01T07:29:26Z</time>
      </trkpt>
      <trkpt lat="49.30128" lon="1.16572">
        <ele>20.1</ele>
        <time>2017-05-01T07:29:28Z</time>
      </trkpt>
      <trkpt lat="49.30127" lon="1.16554">
        <ele>19.7</ele>
        <time>2017-05-01T07:29:31Z</time>
      </trkpt>
      <trkpt lat="49.30129" lon="1.16539">
        <ele>19.3</ele>
        <time>2017-05-01T07:29:34Z</time>
      </trkpt>
      <trkpt lat="49.30131" lon="1.16526">
        <ele>18.7</ele>
        <time>2017-05-01T07:29:38Z</time>
      </trkpt>
      <trkpt lat="49.3012" lon="1.16517">
        <ele>18.3</ele>
        <time>2017-05-01T07:29:42Z</time>
      </trkpt>
      <trkpt lat="49.3011" lon="1.16513">
        <ele>18</ele>
        <time>2017-05-01T07:29:45Z</time>
      </trkpt>
      <trkpt lat="49.30099" lon="1.16509">
        <ele>17.8</ele>
        <time>2017-05-01T07:29:48Z</time>
      </trkpt>
      <trkpt lat="49.30088" lon="1.16503">
        <ele>17.6</ele>
        <time>2017-05-01T07:29:51Z</time>
      </trkpt>
      <trkpt lat="49.30077" lon="1.16498">
        <ele>17.5</ele>
        <time>2017-05-01T07:29:54Z</time>
      </trkpt>
      <trkpt lat="49.30065" lon="1.16492">
        <ele>17.6</ele>
        <time>2017-05-01T07:29:57Z</time>
      </trkpt>
      <trkpt lat="49.30054" lon="1.16487">
        <ele>17.7</ele>
        <time>2017-05-01T07:30:00Z</time>
      </trkpt>
      <trkpt lat="49.30042" lon="1.16482">
        <ele>17.9</ele>
        <time>2017-05-01T07:30:03Z</time>
      </trkpt>
      <trkpt lat="49.30031" lon="1.16476">
        <ele>18.1</ele>
        <time>2017-05-01T07:30:06Z</time>
      </trkpt>
      <trkpt lat="49.3002" lon="1.16469">
        <ele>18.3</ele>
        <time>2017-05-01T07:30:09Z</time>
      </trkpt>
      <trkpt lat="49.30009" lon="1.16464">
        <ele>18.5</ele>
        <time>2017-05-01T07:30:12Z</time>
      </trkpt>
      <trkpt lat="49.29997" lon="1.16459">
        <ele>18.8</ele>
        <time>2017-05-01T07:30:15Z</time>
      </trkpt>
      <trkpt lat="49.29985" lon="1.16456">
        <ele>19.1</ele>
        <time>2017-05-01T07:30:18Z</time>
      </trkpt>
      <trkpt lat="49.29973" lon="1.16455">
        <ele>19.5</ele>
        <time>2017-05-01T07:30:21Z</time>
      </trkpt>
      <trkpt lat="49.29961" lon="1.16455">
        <ele>19.9</ele>
        <time>2017-05-01T07:30:24Z</time>
      </trkpt>
      <trkpt lat="49.29949" lon="1.16456">
        <ele>20.4</ele>
        <time>2017-05-01T07:30:27Z</time>
      </trkpt>
      <trkpt lat="49.29937" lon="1.16458">
        <ele>20.9</ele>
        <time>2017-05-01T07:30:30Z</time>
      </trkpt>
      <trkpt lat="49.29926" lon="1.16456">
        <ele>21.3</ele>
        <time>2017-05-01T07:30:33Z</time>
      </trkpt>
      <trkpt lat="49.29919" lon="1.16443">
        <ele>21.8</ele>
        <time>2017-05-01T07:30:36Z</time>
      </trkpt>
      <trkpt lat="49.2992" lon="1.16424">
        <ele>22.4</ele>
        <time>2017-05-01T07:30:39Z</time>
      </trkpt>
      <trkpt lat="49.29921" lon="1.16404">
        <ele>22.9</ele>
        <time>2017-05-01T07:30:42Z</time>
      </trkpt>
      <trkpt lat="49.29918" lon="1.1642">
        <ele>24.1</ele>
        <time>2017-05-01T07:30:54Z</time>
      </trkpt>
      <trkpt lat="49.29912" lon="1.1643">
        <ele>24.3</ele>
        <time>2017-05-01T07:30:57Z</time>
      </trkpt>
      <trkpt lat="49.29903" lon="1.16441">
        <ele>24.5</ele>
        <time>2017-05-01T07:31:01Z</time>
      </trkpt>
      <trkpt lat="49.29894" lon="1.16445">
        <ele>24.8</ele>
        <time>2017-05-01T07:31:04Z</time>
      </trkpt>
      <trkpt lat="49.29883" lon="1.16451">
        <ele>25.3</ele>
        <time>2017-05-01T07:31:08Z</time>
      </trkpt>
      <trkpt lat="49.29874" lon="1.16461">
        <ele>25.8</ele>
        <time>2017-05-01T07:31:12Z</time>
      </trkpt>
      <trkpt lat="49.29869" lon="1.16472">
        <ele>26.5</ele>
        <time>2017-05-01T07:31:17Z</time>
      </trkpt>
      <trkpt lat="49.29859" lon="1.16471">
        <ele>27.2</ele>
        <time>2017-05-01T07:31:22Z</time>
      </trkpt>
      <trkpt lat="49.2986" lon="1.16458">
        <ele>27.9</ele>
        <time>2017-05-01T07:31:29Z</time>
      </trkpt>
      <trkpt lat="49.29862" lon="1.16443">
        <ele>28.3</ele>
        <time>2017-05-01T07:31:35Z</time>
      </trkpt>
      <trkpt lat="49.29861" lon="1.16426">
        <ele>28.4</ele>
        <time>2017-05-01T07:31:39Z</time>
      </trkpt>
      <trkpt lat="49.2986" lon="1.16411">
        <ele>28.5</ele>
        <time>2017-05-01T07:31:42Z</time>
      </trkpt>
      <trkpt lat="49.2986" lon="1.16396">
        <ele>28.6</ele>
        <time>2017-05-01T07:31:45Z</time>
      </trkpt>
      <trkpt lat="49.29858" lon="1.1638">
        <ele>28.7</ele>
        <time>2017-05-01T07:31:49Z</time>
      </trkpt>
      <trkpt lat="49.29863" lon="1.16366">
        <ele>28.8</ele>
        <time>2017-05-01T07:31:54Z</time>
      </trkpt>
      <trkpt lat="49.29862" lon="1.1635">
        <ele>28.8</ele>
        <time>2017-05-01T07:31:58Z</time>
      </trkpt>
      <trkpt lat="49.29859" lon="1.16333">
        <ele>28.8</ele>
        <time>2017-05-01T07:32:02Z</time>
      </trkpt>
      <trkpt lat="49.29856" lon="1.16319">
        <ele>28.8</ele>
        <time>2017-05-01T07:32:05Z</time>
      </trkpt>
      <trkpt lat="49.29854" lon="1.16304">
        <ele>28.8</ele>
        <time>2017-05-01T07:32:10Z</time>
      </trkpt>
      <trkpt lat="49.29847" lon="1.16291">
        <ele>28.8</ele>
        <time>2017-05-01T07:32:14Z</time>
      </trkpt>
      <trkpt lat="49.29843" lon="1.16277">
        <ele>28.7</ele>
        <time>2017-05-01T07:32:19Z</time>
      </trkpt>
      <trkpt lat="49.29842" lon="1.16261">
        <ele>28.7</ele>
        <time>2017-05-01T07:32:25Z</time>
      </trkpt>
      <trkpt lat="49.29844" lon="1.16244">
        <ele>28.7</ele>
        <time>2017-05-01T07:32:29Z</time>
      </trkpt>
      <trkpt lat="49.29848" lon="1.16232">
        <ele>28.7</ele>
        <time>2017-05-01T07:32:33Z</time>
      </trkpt>
      <trkpt lat="49.29853" lon="1.16214">
        <ele>28.6</ele>
        <time>2017-05-01T07:32:41Z</time>
      </trkpt>
      <trkpt lat="49.29858" lon="1.16201">
        <ele>27.7</ele>
        <time>2017-05-01T07:32:45Z</time>
      </trkpt>
      <trkpt lat="49.29857" lon="1.16184">
        <ele>26.9</ele>
        <time>2017-05-01T07:32:50Z</time>
      </trkpt>
      <trkpt lat="49.29855" lon="1.16166">
        <ele>26.4</ele>
        <time>2017-05-01T07:32:54Z</time>
      </trkpt>
      <trkpt lat="49.29849" lon="1.1615">
        <ele>26.2</ele>
        <time>2017-05-01T07:32:57Z</time>
      </trkpt>
      <trkpt lat="49.29841" lon="1.16137">
        <ele>26.4</ele>
        <time>2017-05-01T07:33:00Z</time>
      </trkpt>
      <trkpt lat="49.29836" lon="1.16123">
        <ele>26.7</ele>
        <time>2017-05-01T07:33:04Z</time>
      </trkpt>
      <trkpt lat="49.29841" lon="1.16111">
        <ele>27</ele>
        <time>2017-05-01T07:33:10Z</time>
      </trkpt>
      <trkpt lat="49.29846" lon="1.16099">
        <ele>26.6</ele>
        <time>2017-05-01T07:33:14Z</time>
      </trkpt>
      <trkpt lat="49.29854" lon="1.16086">
        <ele>26.1</ele>
        <time>2017-05-01T07:33:19Z</time>
      </trkpt>
      <trkpt lat="49.29861" lon="1.16076">
        <ele>25.6</ele>
        <time>2017-05-01T07:33:22Z</time>
      </trkpt>
      <trkpt lat="49.29872" lon="1.1607">
        <ele>24.4</ele>
        <time>2017-05-01T07:33:26Z</time>
      </trkpt>
      <trkpt lat="49.29873" lon="1.16057">
        <ele>22.4</ele>
        <time>2017-05-01T07:33:35Z</time>
      </trkpt>
      <trkpt lat="49.29868" lon="1.16041">
        <ele>21.6</ele>
        <time>2017-05-01T07:33:40Z</time>
      </trkpt>
      <trkpt lat="49.29866" lon="1.16025">
        <ele>21.3</ele>
        <time>2017-05-01T07:33:43Z</time>
      </trkpt>
      <trkpt lat="49.29861" lon="1.1601">
        <ele>20.9</ele>
        <time>2017-05-01T07:33:46Z</time>
      </trkpt>
      <trkpt lat="49.29855" lon="1.15999">
        <ele>20.7</ele>
        <time>2017-05-01T07:33:48Z</time>
      </trkpt>
      <trkpt lat="49.29847" lon="1.15993">
        <ele>20.5</ele>
        <time>2017-05-01T07:33:50Z</time>
      </trkpt>
      <trkpt lat="49.29834" lon="1.1599">
        <ele>20.3</ele>
        <time>2017-05-01T07:33:53Z</time>
      </trkpt>
      <trkpt lat="49.29821" lon="1.15989">
        <ele>20.1</ele>
        <time>2017-05-01T07:33:56Z</time>
      </trkpt>
      <trkpt lat="49.29808" lon="1.15988">
        <ele>19.9</ele>
        <time>2017-05-01T07:33:59Z</time>
      </trkpt>
      <trkpt lat="49.29795" lon="1.15988">
        <ele>19.8</ele>
        <time>2017-05-01T07:34:02Z</time>
      </trkpt>
      <trkpt lat="49.29781" lon="1.15985">
        <ele>19.7</ele>
        <time>2017-05-01T07:34:05Z</time>
      </trkpt>
      <trkpt lat="49.29771" lon="1.15992">
        <ele>19.6</ele>
        <time>2017-05-01T07:34:08Z</time>
      </trkpt>
      <trkpt lat="49.29771" lon="1.16006">
        <ele>19.6</ele>
        <time>2017-05-01T07:34:11Z</time>
      </trkpt>
      <trkpt lat="49.29773" lon="1.16021">
        <ele>19.9</ele>
        <time>2017-05-01T07:34:15Z</time>
      </trkpt>
      <trkpt lat="49.29774" lon="1.16037">
        <ele>20.4</ele>
        <time>2017-05-01T07:34:19Z</time>
      </trkpt>
      <trkpt lat="49.29768" lon="1.16049">
        <ele>21.2</ele>
        <time>2017-05-01T07:34:23Z</time>
      </trkpt>
      <trkpt lat="49.29757" lon="1.16055">
        <ele>21.9</ele>
        <time>2017-05-01T07:34:27Z</time>
      </trkpt>
      <trkpt lat="49.29747" lon="1.16059">
        <ele>22.4</ele>
        <time>2017-05-01T07:34:30Z</time>
      </trkpt>
      <trkpt lat="49.29738" lon="1.16066">
        <ele>23</ele>
        <time>2017-05-01T07:34:33Z</time>
      </trkpt>
      <trkpt lat="49.29733" lon="1.16079">
        <ele>23.6</ele>
        <time>2017-05-01T07:34:36Z</time>
      </trkpt>
      <trkpt lat="49.29733" lon="1.16096">
        <ele>24.6</ele>
        <time>2017-05-01T07:34:40Z</time>
      </trkpt>
      <trkpt lat="49.29734" lon="1.1611">
        <ele>25.3</ele>
        <time>2017-05-01T07:34:43Z</time>
      </trkpt>
      <trkpt lat="49.2973" lon="1.16126">
        <ele>26.5</ele>
        <time>2017-05-01T07:34:47Z</time>
      </trkpt>
      <trkpt lat="49.29721" lon="1.16133">
        <ele>27.6</ele>
        <time>2017-05-01T07:34:51Z</time>
      </trkpt>
      <trkpt lat="49.2971" lon="1.16133">
        <ele>29.3</ele>
        <time>2017-05-01T07:34:58Z</time>
      </trkpt>
      <trkpt lat="49.29697" lon="1.16147">
        <ele>29.7</ele>
        <time>2017-05-01T07:35:00Z</time>
      </trkpt>
      <trkpt lat="49.29686" lon="1.16143">
        <ele>30.2</ele>
        <time>2017-05-01T07:35:03Z</time>
      </trkpt>
      <trkpt lat="49.29678" lon="1.16127">
        <ele>30.6</ele>
        <time>2017-05-01T07:35:06Z</time>
      </trkpt>
      <trkpt lat="49.2967" lon="1.16114">
        <ele>30.6</ele>
        <time>2017-05-01T07:35:08Z</time>
      </trkpt>
      <trkpt lat="49.29662" lon="1.16098">
        <ele>30.5</ele>
        <time>2017-05-01T07:35:10Z</time>
      </trkpt>
      <trkpt lat="49.29651" lon="1.16078">
        <ele>30.1</ele>
        <time>2017-05-01T07:35:12Z</time>
      </trkpt>
      <trkpt lat="49.29642" lon="1.16054">
        <ele>29.7</ele>
        <time>2017-05-01T07:35:14Z</time>
      </trkpt>
      <trkpt lat="49.29638" lon="1.1604">
        <ele>29.5</ele>
        <time>2017-05-01T07:35:15Z</time>
      </trkpt>
      <trkpt lat="49.29632" lon="1.16021">
        <ele>29.1</ele>
        <time>2017-05-01T07:35:17Z</time>
      </trkpt>
      <trkpt lat="49.29629" lon="1.16005">
        <ele>28.8</ele>
        <time>2017-05-01T07:35:19Z</time>
      </trkpt>
      <trkpt lat="49.29626" lon="1.15989">
        <ele>28.6</ele>
        <time>2017-05-01T07:35:22Z</time>
      </trkpt>
      <trkpt lat="49.29622" lon="1.15972">
        <ele>28.6</ele>
        <time>2017-05-01T07:35:25Z</time>
      </trkpt>
      <trkpt lat="49.29612" lon="1.15965">
        <ele>28.7</ele>
        <time>2017-05-01T07:35:28Z</time>
      </trkpt>
      <trkpt lat="49.29603" lon="1.15962">
        <ele>28.9</ele>
        <time>2017-05-01T07:35:31Z</time>
      </trkpt>
      <trkpt lat="49.29591" lon="1.15963">
        <ele>29.3</ele>
        <time>2017-05-01T07:35:35Z</time>
      </trkpt>
      <trkpt lat="49.29581" lon="1.15965">
        <ele>29.6</ele>
        <time>2017-05-01T07:35:38Z</time>
      </trkpt>
      <trkpt lat="49.29572" lon="1.15965">
        <ele>30</ele>
        <time>2017-05-01T07:35:41Z</time>
      </trkpt>
      <trkpt lat="49.29562" lon="1.15966">
        <ele>30.4</ele>
        <time>2017-05-01T07:35:44Z</time>
      </trkpt>
      <trkpt lat="49.29553" lon="1.15968">
        <ele>30.9</ele>
        <time>2017-05-01T07:35:47Z</time>
      </trkpt>
      <trkpt lat="49.29543" lon="1.15969">
        <ele>31.4</ele>
        <time>2017-05-01T07:35:50Z</time>
      </trkpt>
      <trkpt lat="49.29533" lon="1.15972">
        <ele>32</ele>
        <time>2017-05-01T07:35:53Z</time>
      </trkpt>
      <trkpt lat="49.29522" lon="1.15974">
        <ele>32.6</ele>
        <time>2017-05-01T07:35:57Z</time>
      </trkpt>
      <trkpt lat="49.29512" lon="1.15975">
        <ele>33.1</ele>
        <time>2017-05-01T07:36:00Z</time>
      </trkpt>
      <trkpt lat="49.29503" lon="1.15976">
        <ele>33.5</ele>
        <time>2017-05-01T07:36:03Z</time>
      </trkpt>
      <trkpt lat="49.29493" lon="1.15978">
        <ele>34</ele>
        <time>2017-05-01T07:36:06Z</time>
      </trkpt>
      <trkpt lat="49.29482" lon="1.1598">
        <ele>34.6</ele>
        <time>2017-05-01T07:36:09Z</time>
      </trkpt>
      <trkpt lat="49.29472" lon="1.15982">
        <ele>35.1</ele>
        <time>2017-05-01T07:36:12Z</time>
      </trkpt>
      <trkpt lat="49.29462" lon="1.15981">
        <ele>35.8</ele>
        <time>2017-05-01T07:36:15Z</time>
      </trkpt>
      <trkpt lat="49.2945" lon="1.15984">
        <ele>36.5</ele>
        <time>2017-05-01T07:36:19Z</time>
      </trkpt>
      <trkpt lat="49.2944" lon="1.15986">
        <ele>37</ele>
        <time>2017-05-01T07:36:22Z</time>
      </trkpt>
      <trkpt lat="49.2943" lon="1.15986">
        <ele>37.4</ele>
        <time>2017-05-01T07:36:25Z</time>
      </trkpt>
      <trkpt lat="49.29419" lon="1.15988">
        <ele>37.9</ele>
        <time>2017-05-01T07:36:28Z</time>
      </trkpt>
      <trkpt lat="49.29408" lon="1.15992">
        <ele>38.2</ele>
        <time>2017-05-01T07:36:31Z</time>
      </trkpt>
      <trkpt lat="49.29396" lon="1.15993">
        <ele>38.4</ele>
        <time>2017-05-01T07:36:34Z</time>
      </trkpt>
      <trkpt lat="49.29383" lon="1.15993">
        <ele>38.5</ele>
        <time>2017-05-01T07:36:37Z</time>
      </trkpt>
      <trkpt lat="49.29373" lon="1.15994">
        <ele>38.6</ele>
        <time>2017-05-01T07:36:39Z</time>
      </trkpt>
      <trkpt lat="49.29364" lon="1.15994">
        <ele>38.6</ele>
        <time>2017-05-01T07:36:41Z</time>
      </trkpt>
      <trkpt lat="49.29354" lon="1.15997">
        <ele>38.6</ele>
        <time>2017-05-01T07:36:43Z</time>
      </trkpt>
      <trkpt lat="49.29344" lon="1.15999">
        <ele>38.6</ele>
        <time>2017-05-01T07:36:45Z</time>
      </trkpt>
      <trkpt lat="49.29335" lon="1.16001">
        <ele>38.5</ele>
        <time>2017-05-01T07:36:47Z</time>
      </trkpt>
      <trkpt lat="49.29323" lon="1.16003">
        <ele>38.5</ele>
        <time>2017-05-01T07:36:50Z</time>
      </trkpt>
      <trkpt lat="49.29313" lon="1.16">
        <ele>38.6</ele>
        <time>2017-05-01T07:36:53Z</time>
      </trkpt>
      <trkpt lat="49.29304" lon="1.16003">
        <ele>38.7</ele>
        <time>2017-05-01T07:36:57Z</time>
      </trkpt>
      <trkpt lat="49.29295" lon="1.16007">
        <ele>38.8</ele>
        <time>2017-05-01T07:37:01Z</time>
      </trkpt>
      <trkpt lat="49.29285" lon="1.16008">
        <ele>39.1</ele>
        <time>2017-05-01T07:37:05Z</time>
      </trkpt>
      <trkpt lat="49.29275" lon="1.16009">
        <ele>39.4</ele>
        <time>2017-05-01T07:37:09Z</time>
      </trkpt>
      <trkpt lat="49.29264" lon="1.1601">
        <ele>39.8</ele>
        <time>2017-05-01T07:37:13Z</time>
      </trkpt>
      <trkpt lat="49.29253" lon="1.1601">
        <ele>40.1</ele>
        <time>2017-05-01T07:37:17Z</time>
      </trkpt>
      <trkpt lat="49.29242" lon="1.16012">
        <ele>40.4</ele>
        <time>2017-05-01T07:37:21Z</time>
      </trkpt>
      <trkpt lat="49.29233" lon="1.16014">
        <ele>40.9</ele>
        <time>2017-05-01T07:37:24Z</time>
      </trkpt>
      <trkpt lat="49.29221" lon="1.16017">
        <ele>41.7</ele>
        <time>2017-05-01T07:37:28Z</time>
      </trkpt>
      <trkpt lat="49.29212" lon="1.16019">
        <ele>42.3</ele>
        <time>2017-05-01T07:37:31Z</time>
      </trkpt>
      <trkpt lat="49.29203" lon="1.16021">
        <ele>42.9</ele>
        <time>2017-05-01T07:37:34Z</time>
      </trkpt>
      <trkpt lat="49.29194" lon="1.16023">
        <ele>43.4</ele>
        <time>2017-05-01T07:37:37Z</time>
      </trkpt>
      <trkpt lat="49.29182" lon="1.16022">
        <ele>44.1</ele>
        <time>2017-05-01T07:37:41Z</time>
      </trkpt>
      <trkpt lat="49.29176" lon="1.16011">
        <ele>44.9</ele>
        <time>2017-05-01T07:37:46Z</time>
      </trkpt>
      <trkpt lat="49.29175" lon="1.15993">
        <ele>45.6</ele>
        <time>2017-05-01T07:37:51Z</time>
      </trkpt>
      <trkpt lat="49.29174" lon="1.15977">
        <ele>46.1</ele>
        <time>2017-05-01T07:37:55Z</time>
      </trkpt>
      <trkpt lat="49.29172" lon="1.15962">
        <ele>46.4</ele>
        <time>2017-05-01T07:37:58Z</time>
      </trkpt>
      <trkpt lat="49.29171" lon="1.15947">
        <ele>46.6</ele>
        <time>2017-05-01T07:38:01Z</time>
      </trkpt>
      <trkpt lat="49.29171" lon="1.15932">
        <ele>46.8</ele>
        <time>2017-05-01T07:38:04Z</time>
      </trkpt>
      <trkpt lat="49.29166" lon="1.15917">
        <ele>47.1</ele>
        <time>2017-05-01T07:38:08Z</time>
      </trkpt>
      <trkpt lat="49.29155" lon="1.15913">
        <ele>47.3</ele>
        <time>2017-05-01T07:38:12Z</time>
      </trkpt>
      <trkpt lat="49.29146" lon="1.15917">
        <ele>47.6</ele>
        <time>2017-05-01T07:38:15Z</time>
      </trkpt>
      <trkpt lat="49.29137" lon="1.15924">
        <ele>47.8</ele>
        <time>2017-05-01T07:38:18Z</time>
      </trkpt>
      <trkpt lat="49.29128" lon="1.1593">
        <ele>48</ele>
        <time>2017-05-01T07:38:21Z</time>
      </trkpt>
      <trkpt lat="49.29119" lon="1.15935">
        <ele>48.3</ele>
        <time>2017-05-01T07:38:24Z</time>
      </trkpt>
      <trkpt lat="49.2911" lon="1.15937">
        <ele>48.6</ele>
        <time>2017-05-01T07:38:27Z</time>
      </trkpt>
      <trkpt lat="49.29099" lon="1.15935">
        <ele>48.8</ele>
        <time>2017-05-01T07:38:30Z</time>
      </trkpt>
      <trkpt lat="49.29089" lon="1.15932">
        <ele>49.1</ele>
        <time>2017-05-01T07:38:33Z</time>
      </trkpt>
      <trkpt lat="49.29077" lon="1.15933">
        <ele>49.4</ele>
        <time>2017-05-01T07:38:36Z</time>
      </trkpt>
      <trkpt lat="49.29067" lon="1.15936">
        <ele>49.5</ele>
        <time>2017-05-01T07:38:39Z</time>
      </trkpt>
      <trkpt lat="49.29055" lon="1.1594">
        <ele>49.7</ele>
        <time>2017-05-01T07:38:42Z</time>
      </trkpt>
      <trkpt lat="49.29043" lon="1.15941">
        <ele>49.9</ele>
        <time>2017-05-01T07:38:45Z</time>
      </trkpt>
      <trkpt lat="49.2903" lon="1.1594">
        <ele>50.1</ele>
        <time>2017-05-01T07:38:48Z</time>
      </trkpt>
      <trkpt lat="49.29017" lon="1.15942">
        <ele>50.2</ele>
        <time>2017-05-01T07:38:51Z</time>
      </trkpt>
      <trkpt lat="49.29008" lon="1.15944">
        <ele>50.3</ele>
        <time>2017-05-01T07:38:53Z</time>
      </trkpt>
      <trkpt lat="49.28999" lon="1.15946">
        <ele>50.4</ele>
        <time>2017-05-01T07:38:55Z</time>
      </trkpt>
      <trkpt lat="49.28989" lon="1.15949">
        <ele>50.5</ele>
        <time>2017-05-01T07:38:57Z</time>
      </trkpt>
      <trkpt lat="49.2898" lon="1.15952">
        <ele>50.5</ele>
        <time>2017-05-01T07:38:59Z</time>
      </trkpt>
      <trkpt lat="49.28971" lon="1.15957">
        <ele>50.6</ele>
        <time>2017-05-01T07:39:01Z</time>
      </trkpt>
      <trkpt lat="49.28962" lon="1.15962">
        <ele>50.8</ele>
        <time>2017-05-01T07:39:03Z</time>
      </trkpt>
      <trkpt lat="49.28954" lon="1.15968">
        <ele>50.9</ele>
        <time>2017-05-01T07:39:05Z</time>
      </trkpt>
      <trkpt lat="49.28945" lon="1.15974">
        <ele>51</ele>
        <time>2017-05-01T07:39:07Z</time>
      </trkpt>
      <trkpt lat="49.28936" lon="1.15979">
        <ele>51</ele>
        <time>2017-05-01T07:39:09Z</time>
      </trkpt>
      <trkpt lat="49.28927" lon="1.15982">
        <ele>51.1</ele>
        <time>2017-05-01T07:39:11Z</time>
      </trkpt>
      <trkpt lat="49.28915" lon="1.15986">
        <ele>51.2</ele>
        <time>2017-05-01T07:39:14Z</time>
      </trkpt>
      <trkpt lat="49.28909" lon="1.15973">
        <ele>51.3</ele>
        <time>2017-05-01T07:39:19Z</time>
      </trkpt>
      <trkpt lat="49.28909" lon="1.15958">
        <ele>51.6</ele>
        <time>2017-05-01T07:47:14Z</time>
      </trkpt>
      <trkpt lat="49.28912" lon="1.15941">
        <ele>51.6</ele>
        <time>2017-05-01T07:47:19Z</time>
      </trkpt>
      <trkpt lat="49.28914" lon="1.15926">
        <ele>51.6</ele>
        <time>2017-05-01T07:47:22Z</time>
      </trkpt>
      <trkpt lat="49.28915" lon="1.1591">
        <ele>51.5</ele>
        <time>2017-05-01T07:47:25Z</time>
      </trkpt>
      <trkpt lat="49.28918" lon="1.15892">
        <ele>51.5</ele>
        <time>2017-05-01T07:47:28Z</time>
      </trkpt>
      <trkpt lat="49.2892" lon="1.15874">
        <ele>51.5</ele>
        <time>2017-05-01T07:47:31Z</time>
      </trkpt>
      <trkpt lat="49.28922" lon="1.15855">
        <ele>51.5</ele>
        <time>2017-05-01T07:47:34Z</time>
      </trkpt>
      <trkpt lat="49.28924" lon="1.15835">
        <ele>51.5</ele>
        <time>2017-05-01T07:47:37Z</time>
      </trkpt>
      <trkpt lat="49.28927" lon="1.15821">
        <ele>51.4</ele>
        <time>2017-05-01T07:47:39Z</time>
      </trkpt>
      <trkpt lat="49.28928" lon="1.15805">
        <ele>51.4</ele>
        <time>2017-05-01T07:47:41Z</time>
      </trkpt>
      <trkpt lat="49.2893" lon="1.1579">
        <ele>51.3</ele>
        <time>2017-05-01T07:47:43Z</time>
      </trkpt>
      <trkpt lat="49.28932" lon="1.15775">
        <ele>51.2</ele>
        <time>2017-05-01T07:47:45Z</time>
      </trkpt>
      <trkpt lat="49.28934" lon="1.1576">
        <ele>51.1</ele>
        <time>2017-05-01T07:47:47Z</time>
      </trkpt>
      <trkpt lat="49.28936" lon="1.15746">
        <ele>51</ele>
        <time>2017-05-01T07:47:49Z</time>
      </trkpt>
      <trkpt lat="49.28938" lon="1.1573">
        <ele>50.8</ele>
        <time>2017-05-01T07:47:52Z</time>
      </trkpt>
      <trkpt lat="49.2894" lon="1.15715">
        <ele>49.8</ele>
        <time>2017-05-01T07:48:14Z</time>
      </trkpt>
      <trkpt lat="49.28942" lon="1.157">
        <ele>49.7</ele>
        <time>2017-05-01T07:48:17Z</time>
      </trkpt>
      <trkpt lat="49.28943" lon="1.15685">
        <ele>49.7</ele>
        <time>2017-05-01T07:48:19Z</time>
      </trkpt>
      <trkpt lat="49.28945" lon="1.15669">
        <ele>49.4</ele>
        <time>2017-05-01T07:48:21Z</time>
      </trkpt>
      <trkpt lat="49.28946" lon="1.15655">
        <ele>49.2</ele>
        <time>2017-05-01T07:48:23Z</time>
      </trkpt>
      <trkpt lat="49.28948" lon="1.15641">
        <ele>48.8</ele>
        <time>2017-05-01T07:48:26Z</time>
      </trkpt>
      <trkpt lat="49.28944" lon="1.15655">
        <ele>46.8</ele>
        <time>2017-05-01T07:48:50Z</time>
      </trkpt>
      <trkpt lat="49.28943" lon="1.15672">
        <ele>46.7</ele>
        <time>2017-05-01T07:48:53Z</time>
      </trkpt>
      <trkpt lat="49.28942" lon="1.1569">
        <ele>46.7</ele>
        <time>2017-05-01T07:48:56Z</time>
      </trkpt>
      <trkpt lat="49.28938" lon="1.15705">
        <ele>47</ele>
        <time>2017-05-01T07:48:59Z</time>
      </trkpt>
      <trkpt lat="49.28929" lon="1.1571">
        <ele>47.3</ele>
        <time>2017-05-01T07:49:02Z</time>
      </trkpt>
      <trkpt lat="49.28917" lon="1.15709">
        <ele>47.6</ele>
        <time>2017-05-01T07:49:05Z</time>
      </trkpt>
      <trkpt lat="49.28908" lon="1.15705">
        <ele>48.4</ele>
        <time>2017-05-01T07:49:16Z</time>
      </trkpt>
      <trkpt lat="49.28899" lon="1.15701">
        <ele>48.7</ele>
        <time>2017-05-01T07:49:22Z</time>
      </trkpt>
      <trkpt lat="49.2889" lon="1.15696">
        <ele>48.8</ele>
        <time>2017-05-01T07:49:26Z</time>
      </trkpt>
      <trkpt lat="49.28881" lon="1.15691">
        <ele>48.9</ele>
        <time>2017-05-01T07:49:33Z</time>
      </trkpt>
      <trkpt lat="49.28872" lon="1.15685">
        <ele>48.9</ele>
        <time>2017-05-01T07:49:36Z</time>
      </trkpt>
      <trkpt lat="49.2886" lon="1.15681">
        <ele>48.9</ele>
        <time>2017-05-01T07:49:39Z</time>
      </trkpt>
      <trkpt lat="49.28851" lon="1.15676">
        <ele>48.9</ele>
        <time>2017-05-01T07:49:42Z</time>
      </trkpt>
      <trkpt lat="49.28841" lon="1.15672">
        <ele>48.9</ele>
        <time>2017-05-01T07:49:45Z</time>
      </trkpt>
      <trkpt lat="49.28831" lon="1.15668">
        <ele>48.9</ele>
        <time>2017-05-01T07:49:48Z</time>
      </trkpt>
      <trkpt lat="49.28822" lon="1.15664">
        <ele>48.9</ele>
        <time>2017-05-01T07:49:51Z</time>
      </trkpt>
      <trkpt lat="49.28811" lon="1.15659">
        <ele>48.9</ele>
        <time>2017-05-01T07:49:54Z</time>
      </trkpt>
      <trkpt lat="49.288" lon="1.15653">
        <ele>49</ele>
        <time>2017-05-01T07:49:57Z</time>
      </trkpt>
      <trkpt lat="49.28788" lon="1.15647">
        <ele>49.1</ele>
        <time>2017-05-01T07:50:00Z</time>
      </trkpt>
      <trkpt lat="49.28776" lon="1.15642">
        <ele>49.3</ele>
        <time>2017-05-01T07:50:03Z</time>
      </trkpt>
      <trkpt lat="49.28764" lon="1.15636">
        <ele>49.5</ele>
        <time>2017-05-01T07:50:06Z</time>
      </trkpt>
      <trkpt lat="49.28752" lon="1.1563">
        <ele>49.7</ele>
        <time>2017-05-01T07:50:09Z</time>
      </trkpt>
      <trkpt lat="49.2874" lon="1.15625">
        <ele>50</ele>
        <time>2017-05-01T07:50:12Z</time>
      </trkpt>
      <trkpt lat="49.28728" lon="1.15619">
        <ele>50.2</ele>
        <time>2017-05-01T07:50:15Z</time>
      </trkpt>
      <trkpt lat="49.28716" lon="1.15613">
        <ele>50.6</ele>
        <time>2017-05-01T07:50:18Z</time>
      </trkpt>
      <trkpt lat="49.28703" lon="1.15608">
        <ele>50.9</ele>
        <time>2017-05-01T07:50:21Z</time>
      </trkpt>
      <trkpt lat="49.28691" lon="1.15602">
        <ele>51.3</ele>
        <time>2017-05-01T07:50:24Z</time>
      </trkpt>
      <trkpt lat="49.28678" lon="1.15596">
        <ele>51.5</ele>
        <time>2017-05-01T07:50:27Z</time>
      </trkpt>
      <trkpt lat="49.28666" lon="1.1559">
        <ele>51.8</ele>
        <time>2017-05-01T07:50:30Z</time>
      </trkpt>
      <trkpt lat="49.28653" lon="1.15584">
        <ele>52.1</ele>
        <time>2017-05-01T07:50:33Z</time>
      </trkpt>
      <trkpt lat="49.2864" lon="1.15579">
        <ele>52.5</ele>
        <time>2017-05-01T07:50:36Z</time>
      </trkpt>
      <trkpt lat="49.28628" lon="1.15573">
        <ele>52.8</ele>
        <time>2017-05-01T07:50:39Z</time>
      </trkpt>
      <trkpt lat="49.28616" lon="1.15567">
        <ele>53.2</ele>
        <time>2017-05-01T07:50:42Z</time>
      </trkpt>
      <trkpt lat="49.28604" lon="1.15562">
        <ele>53.5</ele>
        <time>2017-05-01T07:50:45Z</time>
      </trkpt>
      <trkpt lat="49.28592" lon="1.15557">
        <ele>53.9</ele>
        <time>2017-05-01T07:50:48Z</time>
      </trkpt>
      <trkpt lat="49.28581" lon="1.15553">
        <ele>54.2</ele>
        <time>2017-05-01T07:50:51Z</time>
      </trkpt>
      <trkpt lat="49.28569" lon="1.15547">
        <ele>54.6</ele>
        <time>2017-05-01T07:50:54Z</time>
      </trkpt>
      <trkpt lat="49.28557" lon="1.15541">
        <ele>54.9</ele>
        <time>2017-05-01T07:50:57Z</time>
      </trkpt>
      <trkpt lat="49.28545" lon="1.15535">
        <ele>55.2</ele>
        <time>2017-05-01T07:51:00Z</time>
      </trkpt>
      <trkpt lat="49.28538" lon="1.1552">
        <ele>55.6</ele>
        <time>2017-05-01T07:51:03Z</time>
      </trkpt>
      <trkpt lat="49.28538" lon="1.15505">
        <ele>55.8</ele>
        <time>2017-05-01T07:51:05Z</time>
      </trkpt>
      <trkpt lat="49.28539" lon="1.15491">
        <ele>55.9</ele>
        <time>2017-05-01T07:51:07Z</time>
      </trkpt>
      <trkpt lat="49.28541" lon="1.15477">
        <ele>56.1</ele>
        <time>2017-05-01T07:51:09Z</time>
      </trkpt>
      <trkpt lat="49.28542" lon="1.15462">
        <ele>56.2</ele>
        <time>2017-05-01T07:51:11Z</time>
      </trkpt>
      <trkpt lat="49.28544" lon="1.15447">
        <ele>56.3</ele>
        <time>2017-05-01T07:51:13Z</time>
      </trkpt>
      <trkpt lat="49.28545" lon="1.15432">
        <ele>56.4</ele>
        <time>2017-05-01T07:51:15Z</time>
      </trkpt>
      <trkpt lat="49.28546" lon="1.15416">
        <ele>56.5</ele>
        <time>2017-05-01T07:51:17Z</time>
      </trkpt>
      <trkpt lat="49.28547" lon="1.154">
        <ele>56.6</ele>
        <time>2017-05-01T07:51:19Z</time>
      </trkpt>
      <trkpt lat="49.28549" lon="1.15385">
        <ele>56.7</ele>
        <time>2017-05-01T07:51:21Z</time>
      </trkpt>
      <trkpt lat="49.2855" lon="1.15369">
        <ele>56.8</ele>
        <time>2017-05-01T07:51:23Z</time>
      </trkpt>
      <trkpt lat="49.28551" lon="1.15353">
        <ele>56.9</ele>
        <time>2017-05-01T07:51:25Z</time>
      </trkpt>
      <trkpt lat="49.28553" lon="1.15337">
        <ele>56.9</ele>
        <time>2017-05-01T07:51:27Z</time>
      </trkpt>
      <trkpt lat="49.28554" lon="1.15321">
        <ele>57</ele>
        <time>2017-05-01T07:51:29Z</time>
      </trkpt>
      <trkpt lat="49.28555" lon="1.15305">
        <ele>57</ele>
        <time>2017-05-01T07:51:31Z</time>
      </trkpt>
      <trkpt lat="49.28557" lon="1.15289">
        <ele>57</ele>
        <time>2017-05-01T07:51:33Z</time>
      </trkpt>
      <trkpt lat="49.28558" lon="1.15272">
        <ele>57</ele>
        <time>2017-05-01T07:51:35Z</time>
      </trkpt>
      <trkpt lat="49.28559" lon="1.15256">
        <ele>57</ele>
        <time>2017-05-01T07:51:37Z</time>
      </trkpt>
      <trkpt lat="49.2856" lon="1.15239">
        <ele>57</ele>
        <time>2017-05-01T07:51:39Z</time>
      </trkpt>
      <trkpt lat="49.28562" lon="1.15223">
        <ele>57</ele>
        <time>2017-05-01T07:51:41Z</time>
      </trkpt>
      <trkpt lat="49.28563" lon="1.15206">
        <ele>57</ele>
        <time>2017-05-01T07:51:43Z</time>
      </trkpt>
      <trkpt lat="49.28565" lon="1.1519">
        <ele>57</ele>
        <time>2017-05-01T07:51:45Z</time>
      </trkpt>
      <trkpt lat="49.28567" lon="1.15174">
        <ele>57</ele>
        <time>2017-05-01T07:51:47Z</time>
      </trkpt>
      <trkpt lat="49.28568" lon="1.15159">
        <ele>57</ele>
        <time>2017-05-01T07:51:49Z</time>
      </trkpt>
      <trkpt lat="49.28571" lon="1.15144">
        <ele>57</ele>
        <time>2017-05-01T07:51:51Z</time>
      </trkpt>
      <trkpt lat="49.28573" lon="1.1513">
        <ele>57</ele>
        <time>2017-05-01T07:51:53Z</time>
      </trkpt>
      <trkpt lat="49.28574" lon="1.15111">
        <ele>56.9</ele>
        <time>2017-05-01T07:51:55Z</time>
      </trkpt>
      <trkpt lat="49.28576" lon="1.15095">
        <ele>56.9</ele>
        <time>2017-05-01T07:51:57Z</time>
      </trkpt>
      <trkpt lat="49.28577" lon="1.15077">
        <ele>56.9</ele>
        <time>2017-05-01T07:51:59Z</time>
      </trkpt>
      <trkpt lat="49.28578" lon="1.1506">
        <ele>56.8</ele>
        <time>2017-05-01T07:52:01Z</time>
      </trkpt>
      <trkpt lat="49.2858" lon="1.15042">
        <ele>56.7</ele>
        <time>2017-05-01T07:52:03Z</time>
      </trkpt>
      <trkpt lat="49.28581" lon="1.15025">
        <ele>56.6</ele>
        <time>2017-05-01T07:52:05Z</time>
      </trkpt>
      <trkpt lat="49.28583" lon="1.15008">
        <ele>56.4</ele>
        <time>2017-05-01T07:52:07Z</time>
      </trkpt>
      <trkpt lat="49.28585" lon="1.14989">
        <ele>56.3</ele>
        <time>2017-05-01T07:52:09Z</time>
      </trkpt>
      <trkpt lat="49.28586" lon="1.14969">
        <ele>56.2</ele>
        <time>2017-05-01T07:52:11Z</time>
      </trkpt>
      <trkpt lat="49.28587" lon="1.1495">
        <ele>56</ele>
        <time>2017-05-01T07:52:13Z</time>
      </trkpt>
      <trkpt lat="49.28588" lon="1.14929">
        <ele>55.8</ele>
        <time>2017-05-01T07:52:15Z</time>
      </trkpt>
      <trkpt lat="49.2859" lon="1.14908">
        <ele>55.4</ele>
        <time>2017-05-01T07:52:17Z</time>
      </trkpt>
      <trkpt lat="49.28592" lon="1.14887">
        <ele>54.9</ele>
        <time>2017-05-01T07:52:19Z</time>
      </trkpt>
      <trkpt lat="49.28594" lon="1.14866">
        <ele>54.4</ele>
        <time>2017-05-01T07:52:21Z</time>
      </trkpt>
      <trkpt lat="49.28597" lon="1.14845">
        <ele>54</ele>
        <time>2017-05-01T07:52:23Z</time>
      </trkpt>
      <trkpt lat="49.286" lon="1.14827">
        <ele>53.6</ele>
        <time>2017-05-01T07:52:25Z</time>
      </trkpt>
      <trkpt lat="49.28598" lon="1.14812">
        <ele>53.2</ele>
        <time>2017-05-01T07:52:27Z</time>
      </trkpt>
      <trkpt lat="49.2859" lon="1.14804">
        <ele>52.9</ele>
        <time>2017-05-01T07:52:29Z</time>
      </trkpt>
      <trkpt lat="49.2858" lon="1.14798">
        <ele>52.6</ele>
        <time>2017-05-01T07:52:31Z</time>
      </trkpt>
      <trkpt lat="49.28571" lon="1.14793">
        <ele>52.4</ele>
        <time>2017-05-01T07:52:33Z</time>
      </trkpt>
      <trkpt lat="49.28558" lon="1.14787">
        <ele>52</ele>
        <time>2017-05-01T07:52:36Z</time>
      </trkpt>
      <trkpt lat="49.28546" lon="1.1478">
        <ele>51.7</ele>
        <time>2017-05-01T07:52:39Z</time>
      </trkpt>
      <trkpt lat="49.28535" lon="1.14773">
        <ele>51.5</ele>
        <time>2017-05-01T07:52:42Z</time>
      </trkpt>
      <trkpt lat="49.28526" lon="1.14764">
        <ele>51.4</ele>
        <time>2017-05-01T07:52:45Z</time>
      </trkpt>
      <trkpt lat="49.28516" lon="1.14756">
        <ele>51.5</ele>
        <time>2017-05-01T07:52:48Z</time>
      </trkpt>
      <trkpt lat="49.28504" lon="1.14747">
        <ele>51.5</ele>
        <time>2017-05-01T07:52:51Z</time>
      </trkpt>
      <trkpt lat="49.28492" lon="1.14737">
        <ele>51.6</ele>
        <time>2017-05-01T07:52:54Z</time>
      </trkpt>
      <trkpt lat="49.28481" lon="1.14728">
        <ele>51.6</ele>
        <time>2017-05-01T07:52:57Z</time>
      </trkpt>
      <trkpt lat="49.2847" lon="1.14719">
        <ele>51.6</ele>
        <time>2017-05-01T07:53:00Z</time>
      </trkpt>
      <trkpt lat="49.28458" lon="1.1471">
        <ele>51.8</ele>
        <time>2017-05-01T07:53:03Z</time>
      </trkpt>
      <trkpt lat="49.28446" lon="1.14702">
        <ele>52.1</ele>
        <time>2017-05-01T07:53:06Z</time>
      </trkpt>
      <trkpt lat="49.28435" lon="1.14694">
        <ele>52.6</ele>
        <time>2017-05-01T07:53:09Z</time>
      </trkpt>
      <trkpt lat="49.28424" lon="1.14684">
        <ele>53.2</ele>
        <time>2017-05-01T07:53:12Z</time>
      </trkpt>
      <trkpt lat="49.28415" lon="1.14673">
        <ele>53.9</ele>
        <time>2017-05-01T07:53:15Z</time>
      </trkpt>
      <trkpt lat="49.28406" lon="1.14662">
        <ele>54.5</ele>
        <time>2017-05-01T07:53:18Z</time>
      </trkpt>
      <trkpt lat="49.28397" lon="1.14649">
        <ele>55</ele>
        <time>2017-05-01T07:53:21Z</time>
      </trkpt>
      <trkpt lat="49.28388" lon="1.14635">
        <ele>55.6</ele>
        <time>2017-05-01T07:53:24Z</time>
      </trkpt>
      <trkpt lat="49.2838" lon="1.1462">
        <ele>56.1</ele>
        <time>2017-05-01T07:53:27Z</time>
      </trkpt>
      <trkpt lat="49.28372" lon="1.14608">
        <ele>56.5</ele>
        <time>2017-05-01T07:53:30Z</time>
      </trkpt>
      <trkpt lat="49.28366" lon="1.14593">
        <ele>57</ele>
        <time>2017-05-01T07:53:33Z</time>
      </trkpt>
      <trkpt lat="49.28359" lon="1.14577">
        <ele>57.5</ele>
        <time>2017-05-01T07:53:36Z</time>
      </trkpt>
      <trkpt lat="49.28352" lon="1.14565">
        <ele>58.1</ele>
        <time>2017-05-01T07:53:39Z</time>
      </trkpt>
      <trkpt lat="49.28344" lon="1.14553">
        <ele>58.6</ele>
        <time>2017-05-01T07:53:42Z</time>
      </trkpt>
      <trkpt lat="49.28337" lon="1.1454">
        <ele>59.1</ele>
        <time>2017-05-01T07:53:45Z</time>
      </trkpt>
      <trkpt lat="49.28328" lon="1.14526">
        <ele>59.6</ele>
        <time>2017-05-01T07:53:48Z</time>
      </trkpt>
      <trkpt lat="49.2832" lon="1.14517">
        <ele>59.9</ele>
        <time>2017-05-01T07:53:50Z</time>
      </trkpt>
      <trkpt lat="49.28311" lon="1.14505">
        <ele>60.3</ele>
        <time>2017-05-01T07:53:53Z</time>
      </trkpt>
      <trkpt lat="49.28304" lon="1.14493">
        <ele>60.8</ele>
        <time>2017-05-01T07:53:56Z</time>
      </trkpt>
      <trkpt lat="49.28296" lon="1.14483">
        <ele>61.2</ele>
        <time>2017-05-01T07:53:59Z</time>
      </trkpt>
      <trkpt lat="49.28288" lon="1.14472">
        <ele>61.6</ele>
        <time>2017-05-01T07:54:02Z</time>
      </trkpt>
      <trkpt lat="49.28281" lon="1.14461">
        <ele>61.9</ele>
        <time>2017-05-01T07:54:05Z</time>
      </trkpt>
      <trkpt lat="49.28272" lon="1.1445">
        <ele>62.2</ele>
        <time>2017-05-01T07:54:08Z</time>
      </trkpt>
      <trkpt lat="49.28264" lon="1.14442">
        <ele>62.5</ele>
        <time>2017-05-01T07:54:11Z</time>
      </trkpt>
      <trkpt lat="49.28256" lon="1.14433">
        <ele>62.9</ele>
        <time>2017-05-01T07:54:14Z</time>
      </trkpt>
      <trkpt lat="49.28246" lon="1.14424">
        <ele>63.4</ele>
        <time>2017-05-01T07:54:18Z</time>
      </trkpt>
      <trkpt lat="49.28239" lon="1.14415">
        <ele>65</ele>
        <time>2017-05-01T07:54:47Z</time>
      </trkpt>
      <trkpt lat="49.28238" lon="1.14399">
        <ele>66.2</ele>
        <time>2017-05-01T07:56:29Z</time>
      </trkpt>
      <trkpt lat="49.28233" lon="1.14413">
        <ele>66.2</ele>
        <time>2017-05-01T07:56:37Z</time>
      </trkpt>
      <trkpt lat="49.28233" lon="1.14429">
        <ele>66.2</ele>
        <time>2017-05-01T07:56:42Z</time>
      </trkpt>
      <trkpt lat="49.28232" lon="1.14444">
        <ele>67.1</ele>
        <time>2017-05-01T07:56:48Z</time>
      </trkpt>
      <trkpt lat="49.28232" lon="1.14459">
        <ele>68.8</ele>
        <time>2017-05-01T07:56:55Z</time>
      </trkpt>
      <trkpt lat="49.2823" lon="1.14474">
        <ele>70.9</ele>
        <time>2017-05-01T07:57:02Z</time>
      </trkpt>
      <trkpt lat="49.28227" lon="1.14488">
        <ele>73.3</ele>
        <time>2017-05-01T07:57:09Z</time>
      </trkpt>
      <trkpt lat="49.28226" lon="1.14503">
        <ele>75.8</ele>
        <time>2017-05-01T07:57:16Z</time>
      </trkpt>
      <trkpt lat="49.28225" lon="1.14517">
        <ele>78.4</ele>
        <time>2017-05-01T07:57:24Z</time>
      </trkpt>
      <trkpt lat="49.28224" lon="1.14531">
        <ele>80.6</ele>
        <time>2017-05-01T07:57:32Z</time>
      </trkpt>
      <trkpt lat="49.28223" lon="1.14546">
        <ele>82.8</ele>
        <time>2017-05-01T07:57:40Z</time>
      </trkpt>
      <trkpt lat="49.28219" lon="1.14561">
        <ele>85.2</ele>
        <time>2017-05-01T07:57:48Z</time>
      </trkpt>
      <trkpt lat="49.2822" lon="1.14575">
        <ele>88.3</ele>
        <time>2017-05-01T07:58:06Z</time>
      </trkpt>
      <trkpt lat="49.28223" lon="1.14589">
        <ele>90.6</ele>
        <time>2017-05-01T07:58:46Z</time>
      </trkpt>
      <trkpt lat="49.28221" lon="1.14604">
        <ele>90.7</ele>
        <time>2017-05-01T07:58:53Z</time>
      </trkpt>
      <trkpt lat="49.28216" lon="1.14617">
        <ele>90.8</ele>
        <time>2017-05-01T07:58:59Z</time>
      </trkpt>
      <trkpt lat="49.28215" lon="1.14633">
        <ele>91</ele>
        <time>2017-05-01T07:59:05Z</time>
      </trkpt>
      <trkpt lat="49.28212" lon="1.14648">
        <ele>91.4</ele>
        <time>2017-05-01T07:59:10Z</time>
      </trkpt>
      <trkpt lat="49.28211" lon="1.14664">
        <ele>91.8</ele>
        <time>2017-05-01T07:59:16Z</time>
      </trkpt>
      <trkpt lat="49.28209" lon="1.14678">
        <ele>92.2</ele>
        <time>2017-05-01T07:59:20Z</time>
      </trkpt>
      <trkpt lat="49.28209" lon="1.14695">
        <ele>92.7</ele>
        <time>2017-05-01T07:59:25Z</time>
      </trkpt>
      <trkpt lat="49.28206" lon="1.1471">
        <ele>93</ele>
        <time>2017-05-01T07:59:29Z</time>
      </trkpt>
      <trkpt lat="49.28206" lon="1.14725">
        <ele>93.6</ele>
        <time>2017-05-01T07:59:33Z</time>
      </trkpt>
      <trkpt lat="49.28206" lon="1.14742">
        <ele>94.1</ele>
        <time>2017-05-01T07:59:37Z</time>
      </trkpt>
      <trkpt lat="49.28205" lon="1.14759">
        <ele>94.6</ele>
        <time>2017-05-01T07:59:41Z</time>
      </trkpt>
      <trkpt lat="49.28202" lon="1.14774">
        <ele>94.9</ele>
        <time>2017-05-01T07:59:44Z</time>
      </trkpt>
      <trkpt lat="49.28201" lon="1.14793">
        <ele>95.2</ele>
        <time>2017-05-01T07:59:47Z</time>
      </trkpt>
      <trkpt lat="49.28199" lon="1.14809">
        <ele>95.5</ele>
        <time>2017-05-01T07:59:50Z</time>
      </trkpt>
      <trkpt lat="49.28199" lon="1.14827">
        <ele>95.8</ele>
        <time>2017-05-01T07:59:53Z</time>
      </trkpt>
      <trkpt lat="49.28196" lon="1.14842">
        <ele>96</ele>
        <time>2017-05-01T07:59:56Z</time>
      </trkpt>
      <trkpt lat="49.28196" lon="1.14857">
        <ele>96.3</ele>
        <time>2017-05-01T07:59:59Z</time>
      </trkpt>
      <trkpt lat="49.28194" lon="1.14872">
        <ele>96.5</ele>
        <time>2017-05-01T08:00:02Z</time>
      </trkpt>
      <trkpt lat="49.28191" lon="1.14887">
        <ele>96.7</ele>
        <time>2017-05-01T08:00:05Z</time>
      </trkpt>
      <trkpt lat="49.2819" lon="1.14905">
        <ele>97</ele>
        <time>2017-05-01T08:00:09Z</time>
      </trkpt>
      <trkpt lat="49.28185" lon="1.14924">
        <ele>97.2</ele>
        <time>2017-05-01T08:00:12Z</time>
      </trkpt>
      <trkpt lat="49.28184" lon="1.14941">
        <ele>97.3</ele>
        <time>2017-05-01T08:00:15Z</time>
      </trkpt>
      <trkpt lat="49.28182" lon="1.14959">
        <ele>97.1</ele>
        <time>2017-05-01T08:00:18Z</time>
      </trkpt>
      <trkpt lat="49.2818" lon="1.14978">
        <ele>96.9</ele>
        <time>2017-05-01T08:00:20Z</time>
      </trkpt>
      <trkpt lat="49.28178" lon="1.14995">
        <ele>96.6</ele>
        <time>2017-05-01T08:00:22Z</time>
      </trkpt>
      <trkpt lat="49.28181" lon="1.15012">
        <ele>96.4</ele>
        <time>2017-05-01T08:00:24Z</time>
      </trkpt>
      <trkpt lat="49.28179" lon="1.15028">
        <ele>96.2</ele>
        <time>2017-05-01T08:00:26Z</time>
      </trkpt>
      <trkpt lat="49.28177" lon="1.15046">
        <ele>96.1</ele>
        <time>2017-05-01T08:00:29Z</time>
      </trkpt>
      <trkpt lat="49.28177" lon="1.1506">
        <ele>96</ele>
        <time>2017-05-01T08:00:31Z</time>
      </trkpt>
      <trkpt lat="49.28175" lon="1.1508">
        <ele>96</ele>
        <time>2017-05-01T08:00:34Z</time>
      </trkpt>
      <trkpt lat="49.28173" lon="1.151">
        <ele>96</ele>
        <time>2017-05-01T08:00:37Z</time>
      </trkpt>
      <trkpt lat="49.28171" lon="1.15118">
        <ele>96.3</ele>
        <time>2017-05-01T08:00:40Z</time>
      </trkpt>
      <trkpt lat="49.28168" lon="1.15137">
        <ele>96.5</ele>
        <time>2017-05-01T08:00:43Z</time>
      </trkpt>
      <trkpt lat="49.28167" lon="1.15158">
        <ele>96.8</ele>
        <time>2017-05-01T08:00:46Z</time>
      </trkpt>
      <trkpt lat="49.28166" lon="1.15179">
        <ele>97.2</ele>
        <time>2017-05-01T08:00:49Z</time>
      </trkpt>
      <trkpt lat="49.28165" lon="1.15193">
        <ele>97.5</ele>
        <time>2017-05-01T08:00:51Z</time>
      </trkpt>
      <trkpt lat="49.28164" lon="1.15208">
        <ele>97.7</ele>
        <time>2017-05-01T08:00:53Z</time>
      </trkpt>
      <trkpt lat="49.28162" lon="1.15223">
        <ele>97.9</ele>
        <time>2017-05-01T08:00:55Z</time>
      </trkpt>
      <trkpt lat="49.28161" lon="1.15238">
        <ele>98.1</ele>
        <time>2017-05-01T08:00:57Z</time>
      </trkpt>
      <trkpt lat="49.2816" lon="1.15253">
        <ele>98.3</ele>
        <time>2017-05-01T08:00:59Z</time>
      </trkpt>
      <trkpt lat="49.28158" lon="1.15268">
        <ele>98.4</ele>
        <time>2017-05-01T08:01:01Z</time>
      </trkpt>
      <trkpt lat="49.28157" lon="1.15284">
        <ele>98.5</ele>
        <time>2017-05-01T08:01:03Z</time>
      </trkpt>
      <trkpt lat="49.28156" lon="1.15299">
        <ele>98.6</ele>
        <time>2017-05-01T08:01:05Z</time>
      </trkpt>
      <trkpt lat="49.28154" lon="1.15314">
        <ele>98.7</ele>
        <time>2017-05-01T08:01:07Z</time>
      </trkpt>
      <trkpt lat="49.28152" lon="1.15334">
        <ele>98.8</ele>
        <time>2017-05-01T08:01:10Z</time>
      </trkpt>
      <trkpt lat="49.28143" lon="1.15342">
        <ele>99.1</ele>
        <time>2017-05-01T08:01:13Z</time>
      </trkpt>
      <trkpt lat="49.28131" lon="1.15339">
        <ele>99.5</ele>
        <time>2017-05-01T08:01:17Z</time>
      </trkpt>
      <trkpt lat="49.2812" lon="1.15335">
        <ele>100.1</ele>
        <time>2017-05-01T08:01:21Z</time>
      </trkpt>
      <trkpt lat="49.2811" lon="1.15332">
        <ele>100.8</ele>
        <time>2017-05-01T08:01:25Z</time>
      </trkpt>
      <trkpt lat="49.28101" lon="1.15329">
        <ele>101.6</ele>
        <time>2017-05-01T08:01:29Z</time>
      </trkpt>
      <trkpt lat="49.28091" lon="1.15325">
        <ele>102.6</ele>
        <time>2017-05-01T08:01:33Z</time>
      </trkpt>
      <trkpt lat="49.28081" lon="1.15321">
        <ele>103.5</ele>
        <time>2017-05-01T08:01:37Z</time>
      </trkpt>
      <trkpt lat="49.28071" lon="1.15317">
        <ele>104.4</ele>
        <time>2017-05-01T08:01:41Z</time>
      </trkpt>
      <trkpt lat="49.28062" lon="1.15312">
        <ele>105.2</ele>
        <time>2017-05-01T08:01:45Z</time>
      </trkpt>
      <trkpt lat="49.28052" lon="1.15307">
        <ele>106.1</ele>
        <time>2017-05-01T08:01:49Z</time>
      </trkpt>
      <trkpt lat="49.28041" lon="1.15303">
        <ele>106.9</ele>
        <time>2017-05-01T08:01:53Z</time>
      </trkpt>
      <trkpt lat="49.28031" lon="1.15299">
        <ele>107.8</ele>
        <time>2017-05-01T08:01:57Z</time>
      </trkpt>
      <trkpt lat="49.28022" lon="1.15294">
        <ele>108.5</ele>
        <time>2017-05-01T08:02:00Z</time>
      </trkpt>
      <trkpt lat="49.28011" lon="1.15289">
        <ele>109.9</ele>
        <time>2017-05-01T08:02:04Z</time>
      </trkpt>
      <trkpt lat="49.28" lon="1.15284">
        <ele>111</ele>
        <time>2017-05-01T08:02:08Z</time>
      </trkpt>
      <trkpt lat="49.27992" lon="1.15281">
        <ele>111.7</ele>
        <time>2017-05-01T08:02:11Z</time>
      </trkpt>
      <trkpt lat="49.27981" lon="1.15275">
        <ele>112.4</ele>
        <time>2017-05-01T08:02:15Z</time>
      </trkpt>
      <trkpt lat="49.27971" lon="1.1527">
        <ele>113</ele>
        <time>2017-05-01T08:02:19Z</time>
      </trkpt>
      <trkpt lat="49.2796" lon="1.15265">
        <ele>114.1</ele>
        <time>2017-05-01T08:02:23Z</time>
      </trkpt>
      <trkpt lat="49.2795" lon="1.15259">
        <ele>114.3</ele>
        <time>2017-05-01T08:02:27Z</time>
      </trkpt>
      <trkpt lat="49.27939" lon="1.15256">
        <ele>115</ele>
        <time>2017-05-01T08:02:32Z</time>
      </trkpt>
      <trkpt lat="49.2793" lon="1.15254">
        <ele>116.9</ele>
        <time>2017-05-01T08:02:58Z</time>
      </trkpt>
      <trkpt lat="49.27921" lon="1.15249">
        <ele>117.1</ele>
        <time>2017-05-01T08:03:04Z</time>
      </trkpt>
      <trkpt lat="49.2791" lon="1.15244">
        <ele>117.3</ele>
        <time>2017-05-01T08:03:08Z</time>
      </trkpt>
      <trkpt lat="49.27902" lon="1.1524">
        <ele>117.4</ele>
        <time>2017-05-01T08:03:11Z</time>
      </trkpt>
      <trkpt lat="49.27891" lon="1.15235">
        <ele>117.5</ele>
        <time>2017-05-01T08:03:14Z</time>
      </trkpt>
      <trkpt lat="49.2788" lon="1.15229">
        <ele>117.6</ele>
        <time>2017-05-01T08:03:17Z</time>
      </trkpt>
      <trkpt lat="49.27869" lon="1.15223">
        <ele>117.9</ele>
        <time>2017-05-01T08:03:20Z</time>
      </trkpt>
      <trkpt lat="49.27859" lon="1.15218">
        <ele>118.1</ele>
        <time>2017-05-01T08:03:23Z</time>
      </trkpt>
      <trkpt lat="49.27847" lon="1.15212">
        <ele>118.2</ele>
        <time>2017-05-01T08:03:26Z</time>
      </trkpt>
      <trkpt lat="49.27836" lon="1.15207">
        <ele>118.4</ele>
        <time>2017-05-01T08:03:29Z</time>
      </trkpt>
      <trkpt lat="49.27825" lon="1.15203">
        <ele>118.5</ele>
        <time>2017-05-01T08:03:32Z</time>
      </trkpt>
      <trkpt lat="49.27815" lon="1.15197">
        <ele>118.7</ele>
        <time>2017-05-01T08:03:35Z</time>
      </trkpt>
      <trkpt lat="49.27805" lon="1.15191">
        <ele>118.8</ele>
        <time>2017-05-01T08:03:37Z</time>
      </trkpt>
      <trkpt lat="49.27792" lon="1.15188">
        <ele>119.1</ele>
        <time>2017-05-01T08:03:40Z</time>
      </trkpt>
      <trkpt lat="49.2778" lon="1.15181">
        <ele>119.3</ele>
        <time>2017-05-01T08:03:43Z</time>
      </trkpt>
      <trkpt lat="49.27768" lon="1.15175">
        <ele>119.6</ele>
        <time>2017-05-01T08:03:46Z</time>
      </trkpt>
      <trkpt lat="49.27755" lon="1.15171">
        <ele>119.8</ele>
        <time>2017-05-01T08:03:49Z</time>
      </trkpt>
      <trkpt lat="49.27742" lon="1.15165">
        <ele>119.9</ele>
        <time>2017-05-01T08:03:52Z</time>
      </trkpt>
      <trkpt lat="49.27734" lon="1.1516">
        <ele>120</ele>
        <time>2017-05-01T08:03:54Z</time>
      </trkpt>
      <trkpt lat="49.27724" lon="1.15154">
        <ele>120.1</ele>
        <time>2017-05-01T08:03:56Z</time>
      </trkpt>
      <trkpt lat="49.2772" lon="1.15136">
        <ele>120.2</ele>
        <time>2017-05-01T08:03:59Z</time>
      </trkpt>
      <trkpt lat="49.27721" lon="1.15117">
        <ele>120.3</ele>
        <time>2017-05-01T08:04:02Z</time>
      </trkpt>
      <trkpt lat="49.2772" lon="1.15101">
        <ele>120.4</ele>
        <time>2017-05-01T08:04:04Z</time>
      </trkpt>
      <trkpt lat="49.27722" lon="1.15087">
        <ele>120.5</ele>
        <time>2017-05-01T08:04:06Z</time>
      </trkpt>
      <trkpt lat="49.27724" lon="1.15071">
        <ele>120.5</ele>
        <time>2017-05-01T08:04:08Z</time>
      </trkpt>
      <trkpt lat="49.27724" lon="1.15056">
        <ele>120.6</ele>
        <time>2017-05-01T08:04:10Z</time>
      </trkpt>
      <trkpt lat="49.27725" lon="1.1504">
        <ele>120.7</ele>
        <time>2017-05-01T08:04:12Z</time>
      </trkpt>
      <trkpt lat="49.27727" lon="1.15024">
        <ele>120.7</ele>
        <time>2017-05-01T08:04:14Z</time>
      </trkpt>
      <trkpt lat="49.27729" lon="1.1501">
        <ele>120.7</ele>
        <time>2017-05-01T08:04:16Z</time>
      </trkpt>
      <trkpt lat="49.2773" lon="1.14995">
        <ele>120.8</ele>
        <time>2017-05-01T08:04:18Z</time>
      </trkpt>
      <trkpt lat="49.27732" lon="1.14981">
        <ele>120.8</ele>
        <time>2017-05-01T08:04:20Z</time>
      </trkpt>
      <trkpt lat="49.27733" lon="1.14964">
        <ele>120.8</ele>
        <time>2017-05-01T08:04:22Z</time>
      </trkpt>
      <trkpt lat="49.27734" lon="1.14947">
        <ele>120.9</ele>
        <time>2017-05-01T08:04:24Z</time>
      </trkpt>
      <trkpt lat="49.27735" lon="1.14931">
        <ele>120.9</ele>
        <time>2017-05-01T08:04:26Z</time>
      </trkpt>
      <trkpt lat="49.27739" lon="1.14915">
        <ele>120.9</ele>
        <time>2017-05-01T08:04:28Z</time>
      </trkpt>
      <trkpt lat="49.2774" lon="1.14896">
        <ele>120.9</ele>
        <time>2017-05-01T08:04:30Z</time>
      </trkpt>
      <trkpt lat="49.27742" lon="1.1488">
        <ele>121</ele>
        <time>2017-05-01T08:04:32Z</time>
      </trkpt>
      <trkpt lat="49.27745" lon="1.14864">
        <ele>121</ele>
        <time>2017-05-01T08:04:34Z</time>
      </trkpt>
      <trkpt lat="49.27747" lon="1.14847">
        <ele>121</ele>
        <time>2017-05-01T08:04:36Z</time>
      </trkpt>
      <trkpt lat="49.27748" lon="1.14831">
        <ele>121</ele>
        <time>2017-05-01T08:04:38Z</time>
      </trkpt>
      <trkpt lat="49.27749" lon="1.14814">
        <ele>121.1</ele>
        <time>2017-05-01T08:04:40Z</time>
      </trkpt>
      <trkpt lat="49.2775" lon="1.14797">
        <ele>121.1</ele>
        <time>2017-05-01T08:04:42Z</time>
      </trkpt>
      <trkpt lat="49.27752" lon="1.1478">
        <ele>121</ele>
        <time>2017-05-01T08:04:44Z</time>
      </trkpt>
      <trkpt lat="49.27754" lon="1.14764">
        <ele>121</ele>
        <time>2017-05-01T08:04:46Z</time>
      </trkpt>
      <trkpt lat="49.27756" lon="1.14748">
        <ele>120.9</ele>
        <time>2017-05-01T08:04:48Z</time>
      </trkpt>
      <trkpt lat="49.27758" lon="1.14732">
        <ele>120.9</ele>
        <time>2017-05-01T08:04:50Z</time>
      </trkpt>
      <trkpt lat="49.27759" lon="1.14716">
        <ele>120.9</ele>
        <time>2017-05-01T08:04:52Z</time>
      </trkpt>
      <trkpt lat="49.27761" lon="1.14701">
        <ele>120.8</ele>
        <time>2017-05-01T08:04:54Z</time>
      </trkpt>
      <trkpt lat="49.27762" lon="1.14686">
        <ele>120.8</ele>
        <time>2017-05-01T08:04:56Z</time>
      </trkpt>
      <trkpt lat="49.27765" lon="1.1467">
        <ele>120.7</ele>
        <time>2017-05-01T08:04:58Z</time>
      </trkpt>
      <trkpt lat="49.27766" lon="1.14652">
        <ele>120.7</ele>
        <time>2017-05-01T08:05:00Z</time>
      </trkpt>
      <trkpt lat="49.27768" lon="1.14634">
        <ele>120.6</ele>
        <time>2017-05-01T08:05:02Z</time>
      </trkpt>
      <trkpt lat="49.27771" lon="1.14618">
        <ele>120.6</ele>
        <time>2017-05-01T08:05:04Z</time>
      </trkpt>
      <trkpt lat="49.27772" lon="1.14604">
        <ele>120.5</ele>
        <time>2017-05-01T08:05:06Z</time>
      </trkpt>
      <trkpt lat="49.27775" lon="1.14591">
        <ele>120.5</ele>
        <time>2017-05-01T08:05:08Z</time>
      </trkpt>
      <trkpt lat="49.27777" lon="1.14576">
        <ele>120.4</ele>
        <time>2017-05-01T08:05:10Z</time>
      </trkpt>
      <trkpt lat="49.27778" lon="1.14561">
        <ele>120.3</ele>
        <time>2017-05-01T08:05:12Z</time>
      </trkpt>
      <trkpt lat="49.27781" lon="1.1454">
        <ele>120.1</ele>
        <time>2017-05-01T08:05:15Z</time>
      </trkpt>
      <trkpt lat="49.27782" lon="1.14525">
        <ele>119.9</ele>
        <time>2017-05-01T08:05:17Z</time>
      </trkpt>
      <trkpt lat="49.27785" lon="1.14505">
        <ele>119.7</ele>
        <time>2017-05-01T08:05:20Z</time>
      </trkpt>
      <trkpt lat="49.27779" lon="1.14493">
        <ele>119.4</ele>
        <time>2017-05-01T08:05:23Z</time>
      </trkpt>
      <trkpt lat="49.27767" lon="1.14487">
        <ele>119.2</ele>
        <time>2017-05-01T08:05:26Z</time>
      </trkpt>
      <trkpt lat="49.27754" lon="1.14483">
        <ele>118.9</ele>
        <time>2017-05-01T08:05:29Z</time>
      </trkpt>
      <trkpt lat="49.27742" lon="1.14479">
        <ele>118.7</ele>
        <time>2017-05-01T08:05:32Z</time>
      </trkpt>
      <trkpt lat="49.27733" lon="1.14476">
        <ele>118.4</ele>
        <time>2017-05-01T08:05:34Z</time>
      </trkpt>
      <trkpt lat="49.27722" lon="1.14472">
        <ele>118.1</ele>
        <time>2017-05-01T08:05:37Z</time>
      </trkpt>
      <trkpt lat="49.27712" lon="1.14469">
        <ele>117.9</ele>
        <time>2017-05-01T08:05:39Z</time>
      </trkpt>
      <trkpt lat="49.27703" lon="1.14467">
        <ele>117.7</ele>
        <time>2017-05-01T08:05:41Z</time>
      </trkpt>
      <trkpt lat="49.27693" lon="1.14465">
        <ele>117.6</ele>
        <time>2017-05-01T08:05:43Z</time>
      </trkpt>
      <trkpt lat="49.27684" lon="1.14463">
        <ele>117.5</ele>
        <time>2017-05-01T08:05:45Z</time>
      </trkpt>
      <trkpt lat="49.27675" lon="1.1446">
        <ele>117.4</ele>
        <time>2017-05-01T08:05:47Z</time>
      </trkpt>
      <trkpt lat="49.27665" lon="1.14459">
        <ele>117.2</ele>
        <time>2017-05-01T08:05:49Z</time>
      </trkpt>
      <trkpt lat="49.27651" lon="1.14454">
        <ele>117</ele>
        <time>2017-05-01T08:05:52Z</time>
      </trkpt>
      <trkpt lat="49.27642" lon="1.14451">
        <ele>116.8</ele>
        <time>2017-05-01T08:05:54Z</time>
      </trkpt>
      <trkpt lat="49.27631" lon="1.14448">
        <ele>116.7</ele>
        <time>2017-05-01T08:05:56Z</time>
      </trkpt>
      <trkpt lat="49.27621" lon="1.14445">
        <ele>116.6</ele>
        <time>2017-05-01T08:05:58Z</time>
      </trkpt>
      <trkpt lat="49.27611" lon="1.14442">
        <ele>116.4</ele>
        <time>2017-05-01T08:06:00Z</time>
      </trkpt>
      <trkpt lat="49.27601" lon="1.1444">
        <ele>116.1</ele>
        <time>2017-05-01T08:06:02Z</time>
      </trkpt>
      <trkpt lat="49.27592" lon="1.14438">
        <ele>115.7</ele>
        <time>2017-05-01T08:06:04Z</time>
      </trkpt>
      <trkpt lat="49.27582" lon="1.14435">
        <ele>115.4</ele>
        <time>2017-05-01T08:06:06Z</time>
      </trkpt>
      <trkpt lat="49.27572" lon="1.14434">
        <ele>115.2</ele>
        <time>2017-05-01T08:06:08Z</time>
      </trkpt>
      <trkpt lat="49.27563" lon="1.14432">
        <ele>115</ele>
        <time>2017-05-01T08:06:10Z</time>
      </trkpt>
      <trkpt lat="49.27554" lon="1.1443">
        <ele>114.8</ele>
        <time>2017-05-01T08:06:12Z</time>
      </trkpt>
      <trkpt lat="49.27544" lon="1.14427">
        <ele>114.7</ele>
        <time>2017-05-01T08:06:14Z</time>
      </trkpt>
      <trkpt lat="49.2753" lon="1.14425">
        <ele>114.6</ele>
        <time>2017-05-01T08:06:17Z</time>
      </trkpt>
      <trkpt lat="49.27517" lon="1.14421">
        <ele>114.7</ele>
        <time>2017-05-01T08:06:20Z</time>
      </trkpt>
      <trkpt lat="49.27506" lon="1.14417">
        <ele>114.7</ele>
        <time>2017-05-01T08:06:23Z</time>
      </trkpt>
      <trkpt lat="49.27496" lon="1.14414">
        <ele>114.8</ele>
        <time>2017-05-01T08:06:26Z</time>
      </trkpt>
      <trkpt lat="49.27483" lon="1.1441">
        <ele>114.9</ele>
        <time>2017-05-01T08:06:29Z</time>
      </trkpt>
      <trkpt lat="49.2747" lon="1.14407">
        <ele>115</ele>
        <time>2017-05-01T08:06:32Z</time>
      </trkpt>
      <trkpt lat="49.27459" lon="1.14404">
        <ele>115.3</ele>
        <time>2017-05-01T08:06:35Z</time>
      </trkpt>
      <trkpt lat="49.27446" lon="1.14402">
        <ele>115.4</ele>
        <time>2017-05-01T08:06:38Z</time>
      </trkpt>
      <trkpt lat="49.27437" lon="1.144">
        <ele>115.5</ele>
        <time>2017-05-01T08:06:40Z</time>
      </trkpt>
      <trkpt lat="49.27425" lon="1.14395">
        <ele>115.7</ele>
        <time>2017-05-01T08:06:43Z</time>
      </trkpt>
      <trkpt lat="49.27412" lon="1.14393">
        <ele>115.8</ele>
        <time>2017-05-01T08:06:46Z</time>
      </trkpt>
      <trkpt lat="49.27402" lon="1.1439">
        <ele>116</ele>
        <time>2017-05-01T08:06:50Z</time>
      </trkpt>
      <trkpt lat="49.27399" lon="1.14374">
        <ele>116.5</ele>
        <time>2017-05-01T08:07:01Z</time>
      </trkpt>
      <trkpt lat="49.27393" lon="1.14386">
        <ele>116.8</ele>
        <time>2017-05-01T08:07:13Z</time>
      </trkpt>
      <trkpt lat="49.27391" lon="1.14404">
        <ele>116.9</ele>
        <time>2017-05-01T08:07:18Z</time>
      </trkpt>
      <trkpt lat="49.27388" lon="1.14419">
        <ele>117.2</ele>
        <time>2017-05-01T08:07:22Z</time>
      </trkpt>
      <trkpt lat="49.27386" lon="1.14436">
        <ele>117.4</ele>
        <time>2017-05-01T08:07:26Z</time>
      </trkpt>
      <trkpt lat="49.27385" lon="1.14453">
        <ele>117.6</ele>
        <time>2017-05-01T08:07:29Z</time>
      </trkpt>
      <trkpt lat="49.27383" lon="1.14471">
        <ele>117.8</ele>
        <time>2017-05-01T08:07:32Z</time>
      </trkpt>
      <trkpt lat="49.27381" lon="1.14489">
        <ele>118</ele>
        <time>2017-05-01T08:07:35Z</time>
      </trkpt>
      <trkpt lat="49.27379" lon="1.14507">
        <ele>118.2</ele>
        <time>2017-05-01T08:07:38Z</time>
      </trkpt>
      <trkpt lat="49.27376" lon="1.14525">
        <ele>118.4</ele>
        <time>2017-05-01T08:07:41Z</time>
      </trkpt>
      <trkpt lat="49.27374" lon="1.1454">
        <ele>118.7</ele>
        <time>2017-05-01T08:07:44Z</time>
      </trkpt>
      <trkpt lat="49.27369" lon="1.14553">
        <ele>119</ele>
        <time>2017-05-01T08:07:48Z</time>
      </trkpt>
      <trkpt lat="49.27359" lon="1.14551">
        <ele>119.3</ele>
        <time>2017-05-01T08:07:52Z</time>
      </trkpt>
      <trkpt lat="49.27349" lon="1.1455">
        <ele>119.5</ele>
        <time>2017-05-01T08:07:56Z</time>
      </trkpt>
      <trkpt lat="49.27338" lon="1.14546">
        <ele>119.7</ele>
        <time>2017-05-01T08:08:00Z</time>
      </trkpt>
      <trkpt lat="49.27328" lon="1.14542">
        <ele>119.7</ele>
        <time>2017-05-01T08:08:04Z</time>
      </trkpt>
      <trkpt lat="49.27318" lon="1.14538">
        <ele>119.8</ele>
        <time>2017-05-01T08:08:07Z</time>
      </trkpt>
      <trkpt lat="49.27305" lon="1.14532">
        <ele>119.9</ele>
        <time>2017-05-01T08:08:10Z</time>
      </trkpt>
      <trkpt lat="49.27292" lon="1.14527">
        <ele>120</ele>
        <time>2017-05-01T08:08:13Z</time>
      </trkpt>
      <trkpt lat="49.27283" lon="1.14524">
        <ele>120</ele>
        <time>2017-05-01T08:08:15Z</time>
      </trkpt>
      <trkpt lat="49.27272" lon="1.1452">
        <ele>120</ele>
        <time>2017-05-01T08:08:17Z</time>
      </trkpt>
      <trkpt lat="49.27261" lon="1.14514">
        <ele>120</ele>
        <time>2017-05-01T08:08:20Z</time>
      </trkpt>
      <trkpt lat="49.27252" lon="1.14509">
        <ele>120.1</ele>
        <time>2017-05-01T08:08:22Z</time>
      </trkpt>
      <trkpt lat="49.27243" lon="1.14504">
        <ele>120.1</ele>
        <time>2017-05-01T08:08:24Z</time>
      </trkpt>
      <trkpt lat="49.27233" lon="1.14499">
        <ele>120.1</ele>
        <time>2017-05-01T08:08:26Z</time>
      </trkpt>
      <trkpt lat="49.27224" lon="1.14497">
        <ele>120.1</ele>
        <time>2017-05-01T08:08:28Z</time>
      </trkpt>
      <trkpt lat="49.27214" lon="1.14492">
        <ele>120.1</ele>
        <time>2017-05-01T08:08:30Z</time>
      </trkpt>
      <trkpt lat="49.27205" lon="1.14487">
        <ele>120.2</ele>
        <time>2017-05-01T08:08:32Z</time>
      </trkpt>
      <trkpt lat="49.27195" lon="1.14483">
        <ele>120.3</ele>
        <time>2017-05-01T08:08:34Z</time>
      </trkpt>
      <trkpt lat="49.27185" lon="1.14478">
        <ele>120.5</ele>
        <time>2017-05-01T08:08:36Z</time>
      </trkpt>
      <trkpt lat="49.27176" lon="1.14474">
        <ele>120.5</ele>
        <time>2017-05-01T08:08:38Z</time>
      </trkpt>
      <trkpt lat="49.27167" lon="1.14469">
        <ele>120.6</ele>
        <time>2017-05-01T08:08:40Z</time>
      </trkpt>
      <trkpt lat="49.27155" lon="1.14464">
        <ele>120.7</ele>
        <time>2017-05-01T08:08:43Z</time>
      </trkpt>
      <trkpt lat="49.27146" lon="1.14461">
        <ele>120.7</ele>
        <time>2017-05-01T08:08:45Z</time>
      </trkpt>
      <trkpt lat="49.27137" lon="1.14457">
        <ele>120.8</ele>
        <time>2017-05-01T08:08:47Z</time>
      </trkpt>
      <trkpt lat="49.27127" lon="1.14452">
        <ele>120.8</ele>
        <time>2017-05-01T08:08:49Z</time>
      </trkpt>
      <trkpt lat="49.27118" lon="1.14448">
        <ele>120.7</ele>
        <time>2017-05-01T08:08:51Z</time>
      </trkpt>
      <trkpt lat="49.27109" lon="1.14444">
        <ele>120.6</ele>
        <time>2017-05-01T08:08:53Z</time>
      </trkpt>
      <trkpt lat="49.27099" lon="1.14438">
        <ele>120.6</ele>
        <time>2017-05-01T08:08:56Z</time>
      </trkpt>
      <trkpt lat="49.27089" lon="1.14436">
        <ele>120.5</ele>
        <time>2017-05-01T08:08:58Z</time>
      </trkpt>
      <trkpt lat="49.27081" lon="1.1443">
        <ele>120.6</ele>
        <time>2017-05-01T08:09:01Z</time>
      </trkpt>
      <trkpt lat="49.27071" lon="1.14425">
        <ele>120.6</ele>
        <time>2017-05-01T08:09:04Z</time>
      </trkpt>
      <trkpt lat="49.27057" lon="1.1442">
        <ele>120.6</ele>
        <time>2017-05-01T08:09:08Z</time>
      </trkpt>
      <trkpt lat="49.27043" lon="1.14416">
        <ele>120.7</ele>
        <time>2017-05-01T08:09:10Z</time>
      </trkpt>
      <trkpt lat="49.27032" lon="1.14415">
        <ele>120.8</ele>
        <time>2017-05-01T08:09:13Z</time>
      </trkpt>
      <trkpt lat="49.27021" lon="1.14409">
        <ele>120.8</ele>
        <time>2017-05-01T08:09:15Z</time>
      </trkpt>
      <trkpt lat="49.2701" lon="1.14399">
        <ele>120.9</ele>
        <time>2017-05-01T08:09:18Z</time>
      </trkpt>
      <trkpt lat="49.26998" lon="1.14394">
        <ele>120.9</ele>
        <time>2017-05-01T08:09:21Z</time>
      </trkpt>
      <trkpt lat="49.26988" lon="1.14389">
        <ele>120.9</ele>
        <time>2017-05-01T08:09:23Z</time>
      </trkpt>
      <trkpt lat="49.26978" lon="1.14384">
        <ele>121</ele>
        <time>2017-05-01T08:09:26Z</time>
      </trkpt>
      <trkpt lat="49.26965" lon="1.14381">
        <ele>121</ele>
        <time>2017-05-01T08:09:29Z</time>
      </trkpt>
      <trkpt lat="49.26957" lon="1.14376">
        <ele>121</ele>
        <time>2017-05-01T08:09:31Z</time>
      </trkpt>
      <trkpt lat="49.26946" lon="1.14373">
        <ele>121</ele>
        <time>2017-05-01T08:09:34Z</time>
      </trkpt>
      <trkpt lat="49.26934" lon="1.14367">
        <ele>121</ele>
        <time>2017-05-01T08:09:37Z</time>
      </trkpt>
      <trkpt lat="49.26922" lon="1.14365">
        <ele>120.9</ele>
        <time>2017-05-01T08:09:40Z</time>
      </trkpt>
      <trkpt lat="49.26913" lon="1.1436">
        <ele>121</ele>
        <time>2017-05-01T08:09:42Z</time>
      </trkpt>
      <trkpt lat="49.26901" lon="1.14353">
        <ele>121</ele>
        <time>2017-05-01T08:09:45Z</time>
      </trkpt>
      <trkpt lat="49.26889" lon="1.14346">
        <ele>121</ele>
        <time>2017-05-01T08:09:48Z</time>
      </trkpt>
      <trkpt lat="49.2688" lon="1.1434">
        <ele>121</ele>
        <time>2017-05-01T08:09:50Z</time>
      </trkpt>
      <trkpt lat="49.26868" lon="1.14336">
        <ele>121</ele>
        <time>2017-05-01T08:09:52Z</time>
      </trkpt>
      <trkpt lat="49.26859" lon="1.14331">
        <ele>121</ele>
        <time>2017-05-01T08:09:54Z</time>
      </trkpt>
      <trkpt lat="49.26846" lon="1.14325">
        <ele>121</ele>
        <time>2017-05-01T08:09:57Z</time>
      </trkpt>
      <trkpt lat="49.26836" lon="1.14323">
        <ele>121</ele>
        <time>2017-05-01T08:09:59Z</time>
      </trkpt>
      <trkpt lat="49.26826" lon="1.14318">
        <ele>121</ele>
        <time>2017-05-01T08:10:01Z</time>
      </trkpt>
      <trkpt lat="49.26816" lon="1.14314">
        <ele>120.9</ele>
        <time>2017-05-01T08:10:03Z</time>
      </trkpt>
      <trkpt lat="49.26807" lon="1.1431">
        <ele>120.8</ele>
        <time>2017-05-01T08:10:05Z</time>
      </trkpt>
      <trkpt lat="49.26794" lon="1.14301">
        <ele>120.8</ele>
        <time>2017-05-01T08:10:08Z</time>
      </trkpt>
      <trkpt lat="49.26785" lon="1.14296">
        <ele>120.7</ele>
        <time>2017-05-01T08:10:10Z</time>
      </trkpt>
      <trkpt lat="49.26776" lon="1.1429">
        <ele>120.6</ele>
        <time>2017-05-01T08:10:12Z</time>
      </trkpt>
      <trkpt lat="49.26768" lon="1.14284">
        <ele>120.6</ele>
        <time>2017-05-01T08:10:14Z</time>
      </trkpt>
      <trkpt lat="49.26758" lon="1.14276">
        <ele>120.3</ele>
        <time>2017-05-01T08:10:17Z</time>
      </trkpt>
      <trkpt lat="49.26747" lon="1.14269">
        <ele>120</ele>
        <time>2017-05-01T08:10:20Z</time>
      </trkpt>
      <trkpt lat="49.26737" lon="1.14263">
        <ele>119.8</ele>
        <time>2017-05-01T08:10:22Z</time>
      </trkpt>
      <trkpt lat="49.26723" lon="1.14263">
        <ele>119.6</ele>
        <time>2017-05-01T08:10:24Z</time>
      </trkpt>
      <trkpt lat="49.26713" lon="1.14264">
        <ele>119.3</ele>
        <time>2017-05-01T08:10:27Z</time>
      </trkpt>
      <trkpt lat="49.26705" lon="1.14258">
        <ele>118.2</ele>
        <time>2017-05-01T08:10:54Z</time>
      </trkpt>
      <trkpt lat="49.26696" lon="1.14256">
        <ele>118.1</ele>
        <time>2017-05-01T08:10:57Z</time>
      </trkpt>
      <trkpt lat="49.26683" lon="1.14252">
        <ele>118</ele>
        <time>2017-05-01T08:11:00Z</time>
      </trkpt>
      <trkpt lat="49.26674" lon="1.14249">
        <ele>117.9</ele>
        <time>2017-05-01T08:11:02Z</time>
      </trkpt>
      <trkpt lat="49.26665" lon="1.14246">
        <ele>117.8</ele>
        <time>2017-05-01T08:11:04Z</time>
      </trkpt>
      <trkpt lat="49.26656" lon="1.14243">
        <ele>117.7</ele>
        <time>2017-05-01T08:11:06Z</time>
      </trkpt>
      <trkpt lat="49.26644" lon="1.14238">
        <ele>117.4</ele>
        <time>2017-05-01T08:11:09Z</time>
      </trkpt>
      <trkpt lat="49.26635" lon="1.14233">
        <ele>117.2</ele>
        <time>2017-05-01T08:11:11Z</time>
      </trkpt>
      <trkpt lat="49.26626" lon="1.14228">
        <ele>117</ele>
        <time>2017-05-01T08:11:13Z</time>
      </trkpt>
      <trkpt lat="49.26615" lon="1.14223">
        <ele>116.8</ele>
        <time>2017-05-01T08:11:15Z</time>
      </trkpt>
      <trkpt lat="49.26605" lon="1.14217">
        <ele>116.7</ele>
        <time>2017-05-01T08:11:17Z</time>
      </trkpt>
      <trkpt lat="49.26593" lon="1.14207">
        <ele>116.5</ele>
        <time>2017-05-01T08:11:20Z</time>
      </trkpt>
      <trkpt lat="49.26584" lon="1.14203">
        <ele>116.3</ele>
        <time>2017-05-01T08:11:22Z</time>
      </trkpt>
      <trkpt lat="49.26574" lon="1.14199">
        <ele>116.2</ele>
        <time>2017-05-01T08:11:24Z</time>
      </trkpt>
      <trkpt lat="49.26564" lon="1.14195">
        <ele>116</ele>
        <time>2017-05-01T08:11:26Z</time>
      </trkpt>
      <trkpt lat="49.26553" lon="1.1419">
        <ele>115.9</ele>
        <time>2017-05-01T08:11:28Z</time>
      </trkpt>
      <trkpt lat="49.26543" lon="1.14187">
        <ele>115.7</ele>
        <time>2017-05-01T08:11:30Z</time>
      </trkpt>
      <trkpt lat="49.26532" lon="1.14183">
        <ele>115.5</ele>
        <time>2017-05-01T08:11:32Z</time>
      </trkpt>
      <trkpt lat="49.26521" lon="1.14178">
        <ele>115.3</ele>
        <time>2017-05-01T08:11:34Z</time>
      </trkpt>
      <trkpt lat="49.2651" lon="1.14174">
        <ele>115</ele>
        <time>2017-05-01T08:11:36Z</time>
      </trkpt>
      <trkpt lat="49.265" lon="1.1417">
        <ele>114.7</ele>
        <time>2017-05-01T08:11:39Z</time>
      </trkpt>
      <trkpt lat="49.26497" lon="1.14155">
        <ele>114.2</ele>
        <time>2017-05-01T08:11:44Z</time>
      </trkpt>
      <trkpt lat="49.26488" lon="1.14147">
        <ele>113.9</ele>
        <time>2017-05-01T08:11:49Z</time>
      </trkpt>
      <trkpt lat="49.26481" lon="1.14139">
        <ele>113.5</ele>
        <time>2017-05-01T08:11:59Z</time>
      </trkpt>
      <trkpt lat="49.26476" lon="1.14126">
        <ele>113.3</ele>
        <time>2017-05-01T08:12:08Z</time>
      </trkpt>
      <trkpt lat="49.26467" lon="1.14123">
        <ele>113.3</ele>
        <time>2017-05-01T08:12:10Z</time>
      </trkpt>
      <trkpt lat="49.26463" lon="1.14108">
        <ele>113.2</ele>
        <time>2017-05-01T08:12:13Z</time>
      </trkpt>
      <trkpt lat="49.26456" lon="1.14097">
        <ele>113.2</ele>
        <time>2017-05-01T08:12:17Z</time>
      </trkpt>
      <trkpt lat="49.26445" lon="1.14092">
        <ele>113.2</ele>
        <time>2017-05-01T08:12:21Z</time>
      </trkpt>
      <trkpt lat="49.26436" lon="1.14093">
        <ele>113.1</ele>
        <time>2017-05-01T08:12:24Z</time>
      </trkpt>
      <trkpt lat="49.26426" lon="1.14098">
        <ele>113.1</ele>
        <time>2017-05-01T08:12:27Z</time>
      </trkpt>
      <trkpt lat="49.26414" lon="1.14103">
        <ele>113.1</ele>
        <time>2017-05-01T08:12:31Z</time>
      </trkpt>
      <trkpt lat="49.26404" lon="1.14101">
        <ele>113.1</ele>
        <time>2017-05-01T08:12:34Z</time>
      </trkpt>
      <trkpt lat="49.26395" lon="1.1411">
        <ele>113.1</ele>
        <time>2017-05-01T08:12:37Z</time>
      </trkpt>
      <trkpt lat="49.26386" lon="1.14109">
        <ele>112.9</ele>
        <time>2017-05-01T08:12:42Z</time>
      </trkpt>
      <trkpt lat="49.26377" lon="1.14106">
        <ele>112.8</ele>
        <time>2017-05-01T08:12:45Z</time>
      </trkpt>
      <trkpt lat="49.26368" lon="1.14104">
        <ele>112.8</ele>
        <time>2017-05-01T08:12:47Z</time>
      </trkpt>
      <trkpt lat="49.26358" lon="1.14097">
        <ele>112.7</ele>
        <time>2017-05-01T08:12:51Z</time>
      </trkpt>
      <trkpt lat="49.26347" lon="1.14093">
        <ele>112.7</ele>
        <time>2017-05-01T08:12:54Z</time>
      </trkpt>
      <trkpt lat="49.26337" lon="1.1409">
        <ele>112.6</ele>
        <time>2017-05-01T08:12:57Z</time>
      </trkpt>
      <trkpt lat="49.26327" lon="1.14088">
        <ele>112.6</ele>
        <time>2017-05-01T08:12:59Z</time>
      </trkpt>
      <trkpt lat="49.26317" lon="1.14083">
        <ele>112.5</ele>
        <time>2017-05-01T08:13:02Z</time>
      </trkpt>
      <trkpt lat="49.26307" lon="1.14082">
        <ele>112.3</ele>
        <time>2017-05-01T08:13:05Z</time>
      </trkpt>
      <trkpt lat="49.26297" lon="1.14077">
        <ele>112.2</ele>
        <time>2017-05-01T08:13:07Z</time>
      </trkpt>
      <trkpt lat="49.26288" lon="1.14072">
        <ele>112.2</ele>
        <time>2017-05-01T08:13:09Z</time>
      </trkpt>
      <trkpt lat="49.26277" lon="1.14069">
        <ele>112.1</ele>
        <time>2017-05-01T08:13:12Z</time>
      </trkpt>
      <trkpt lat="49.26268" lon="1.14074">
        <ele>112</ele>
        <time>2017-05-01T08:13:17Z</time>
      </trkpt>
      <trkpt lat="49.2626" lon="1.14064">
        <ele>112</ele>
        <time>2017-05-01T08:13:21Z</time>
      </trkpt>
      <trkpt lat="49.26251" lon="1.14061">
        <ele>112</ele>
        <time>2017-05-01T08:13:23Z</time>
      </trkpt>
      <trkpt lat="49.26241" lon="1.14052">
        <ele>112</ele>
        <time>2017-05-01T08:13:26Z</time>
      </trkpt>
      <trkpt lat="49.26229" lon="1.14047">
        <ele>111.9</ele>
        <time>2017-05-01T08:13:29Z</time>
      </trkpt>
      <trkpt lat="49.26218" lon="1.14042">
        <ele>111.8</ele>
        <time>2017-05-01T08:13:31Z</time>
      </trkpt>
      <trkpt lat="49.26207" lon="1.14038">
        <ele>111.6</ele>
        <time>2017-05-01T08:13:33Z</time>
      </trkpt>
      <trkpt lat="49.26195" lon="1.14032">
        <ele>111.5</ele>
        <time>2017-05-01T08:13:35Z</time>
      </trkpt>
      <trkpt lat="49.26183" lon="1.14026">
        <ele>111.4</ele>
        <time>2017-05-01T08:13:37Z</time>
      </trkpt>
      <trkpt lat="49.26168" lon="1.1402">
        <ele>111.2</ele>
        <time>2017-05-01T08:13:39Z</time>
      </trkpt>
      <trkpt lat="49.26155" lon="1.14015">
        <ele>111</ele>
        <time>2017-05-01T08:13:41Z</time>
      </trkpt>
      <trkpt lat="49.26142" lon="1.14009">
        <ele>110.8</ele>
        <time>2017-05-01T08:13:43Z</time>
      </trkpt>
      <trkpt lat="49.2613" lon="1.14004">
        <ele>110.6</ele>
        <time>2017-05-01T08:13:45Z</time>
      </trkpt>
      <trkpt lat="49.26118" lon="1.13998">
        <ele>110.4</ele>
        <time>2017-05-01T08:13:47Z</time>
      </trkpt>
      <trkpt lat="49.26106" lon="1.13996">
        <ele>110.1</ele>
        <time>2017-05-01T08:13:49Z</time>
      </trkpt>
      <trkpt lat="49.26094" lon="1.13992">
        <ele>109.9</ele>
        <time>2017-05-01T08:13:51Z</time>
      </trkpt>
      <trkpt lat="49.26082" lon="1.13987">
        <ele>109.7</ele>
        <time>2017-05-01T08:13:53Z</time>
      </trkpt>
      <trkpt lat="49.26073" lon="1.13978">
        <ele>109.5</ele>
        <time>2017-05-01T08:13:55Z</time>
      </trkpt>
      <trkpt lat="49.26063" lon="1.13971">
        <ele>109.5</ele>
        <time>2017-05-01T08:13:57Z</time>
      </trkpt>
      <trkpt lat="49.26053" lon="1.13969">
        <ele>109.4</ele>
        <time>2017-05-01T08:13:59Z</time>
      </trkpt>
      <trkpt lat="49.26043" lon="1.13966">
        <ele>109.3</ele>
        <time>2017-05-01T08:14:01Z</time>
      </trkpt>
      <trkpt lat="49.26034" lon="1.13962">
        <ele>109.2</ele>
        <time>2017-05-01T08:14:03Z</time>
      </trkpt>
      <trkpt lat="49.26023" lon="1.13958">
        <ele>109.2</ele>
        <time>2017-05-01T08:14:05Z</time>
      </trkpt>
      <trkpt lat="49.26015" lon="1.13954">
        <ele>109.2</ele>
        <time>2017-05-01T08:14:07Z</time>
      </trkpt>
      <trkpt lat="49.26006" lon="1.13949">
        <ele>109.2</ele>
        <time>2017-05-01T08:14:09Z</time>
      </trkpt>
      <trkpt lat="49.25997" lon="1.13943">
        <ele>109.2</ele>
        <time>2017-05-01T08:14:11Z</time>
      </trkpt>
      <trkpt lat="49.25987" lon="1.13939">
        <ele>109.2</ele>
        <time>2017-05-01T08:14:13Z</time>
      </trkpt>
      <trkpt lat="49.25978" lon="1.13937">
        <ele>109.3</ele>
        <time>2017-05-01T08:14:15Z</time>
      </trkpt>
      <trkpt lat="49.25969" lon="1.13933">
        <ele>109.3</ele>
        <time>2017-05-01T08:14:17Z</time>
      </trkpt>
      <trkpt lat="49.25959" lon="1.13929">
        <ele>109.3</ele>
        <time>2017-05-01T08:14:19Z</time>
      </trkpt>
      <trkpt lat="49.25949" lon="1.13925">
        <ele>109.4</ele>
        <time>2017-05-01T08:14:21Z</time>
      </trkpt>
      <trkpt lat="49.25939" lon="1.1392">
        <ele>109.4</ele>
        <time>2017-05-01T08:14:23Z</time>
      </trkpt>
      <trkpt lat="49.2593" lon="1.13914">
        <ele>109.4</ele>
        <time>2017-05-01T08:14:25Z</time>
      </trkpt>
      <trkpt lat="49.25921" lon="1.1391">
        <ele>109.5</ele>
        <time>2017-05-01T08:14:27Z</time>
      </trkpt>
      <trkpt lat="49.25916" lon="1.13896">
        <ele>109.5</ele>
        <time>2017-05-01T08:14:32Z</time>
      </trkpt>
      <trkpt lat="49.25919" lon="1.13882">
        <ele>109.4</ele>
        <time>2017-05-01T08:14:35Z</time>
      </trkpt>
      <trkpt lat="49.25923" lon="1.13865">
        <ele>109.3</ele>
        <time>2017-05-01T08:14:38Z</time>
      </trkpt>
      <trkpt lat="49.25926" lon="1.13848">
        <ele>109.2</ele>
        <time>2017-05-01T08:14:41Z</time>
      </trkpt>
      <trkpt lat="49.25928" lon="1.13829">
        <ele>109.2</ele>
        <time>2017-05-01T08:14:44Z</time>
      </trkpt>
      <trkpt lat="49.25932" lon="1.13816">
        <ele>109.1</ele>
        <time>2017-05-01T08:14:47Z</time>
      </trkpt>
      <trkpt lat="49.25938" lon="1.13799">
        <ele>109</ele>
        <time>2017-05-01T08:14:50Z</time>
      </trkpt>
      <trkpt lat="49.25942" lon="1.13784">
        <ele>109</ele>
        <time>2017-05-01T08:14:53Z</time>
      </trkpt>
      <trkpt lat="49.25945" lon="1.13767">
        <ele>108.9</ele>
        <time>2017-05-01T08:14:56Z</time>
      </trkpt>
      <trkpt lat="49.25946" lon="1.13751">
        <ele>108.9</ele>
        <time>2017-05-01T08:14:59Z</time>
      </trkpt>
      <trkpt lat="49.25948" lon="1.13736">
        <ele>109.1</ele>
        <time>2017-05-01T08:15:02Z</time>
      </trkpt>
      <trkpt lat="49.25951" lon="1.1372">
        <ele>109.2</ele>
        <time>2017-05-01T08:15:05Z</time>
      </trkpt>
      <trkpt lat="49.25954" lon="1.13702">
        <ele>109.3</ele>
        <time>2017-05-01T08:15:08Z</time>
      </trkpt>
      <trkpt lat="49.25957" lon="1.13684">
        <ele>109.4</ele>
        <time>2017-05-01T08:15:11Z</time>
      </trkpt>
      <trkpt lat="49.2596" lon="1.13666">
        <ele>109.4</ele>
        <time>2017-05-01T08:15:14Z</time>
      </trkpt>
      <trkpt lat="49.25963" lon="1.13648">
        <ele>109.5</ele>
        <time>2017-05-01T08:15:17Z</time>
      </trkpt>
      <trkpt lat="49.25967" lon="1.13632">
        <ele>109.5</ele>
        <time>2017-05-01T08:15:20Z</time>
      </trkpt>
      <trkpt lat="49.25971" lon="1.13617">
        <ele>109.5</ele>
        <time>2017-05-01T08:15:23Z</time>
      </trkpt>
      <trkpt lat="49.25974" lon="1.136">
        <ele>109.6</ele>
        <time>2017-05-01T08:15:26Z</time>
      </trkpt>
      <trkpt lat="49.25977" lon="1.13582">
        <ele>109.6</ele>
        <time>2017-05-01T08:15:29Z</time>
      </trkpt>
      <trkpt lat="49.25981" lon="1.13567">
        <ele>109.6</ele>
        <time>2017-05-01T08:15:32Z</time>
      </trkpt>
      <trkpt lat="49.25983" lon="1.13552">
        <ele>109.6</ele>
        <time>2017-05-01T08:15:35Z</time>
      </trkpt>
      <trkpt lat="49.25986" lon="1.13536">
        <ele>109.7</ele>
        <time>2017-05-01T08:15:38Z</time>
      </trkpt>
      <trkpt lat="49.25988" lon="1.13522">
        <ele>109.8</ele>
        <time>2017-05-01T08:15:41Z</time>
      </trkpt>
      <trkpt lat="49.25992" lon="1.13507">
        <ele>109.7</ele>
        <time>2017-05-01T08:15:44Z</time>
      </trkpt>
      <trkpt lat="49.25985" lon="1.13496">
        <ele>109.7</ele>
        <time>2017-05-01T08:15:49Z</time>
      </trkpt>
      <trkpt lat="49.25981" lon="1.13481">
        <ele>110</ele>
        <time>2017-05-01T08:15:55Z</time>
      </trkpt>
      <trkpt lat="49.25984" lon="1.13468">
        <ele>110.1</ele>
        <time>2017-05-01T08:15:58Z</time>
      </trkpt>
      <trkpt lat="49.25987" lon="1.13452">
        <ele>110.3</ele>
        <time>2017-05-01T08:16:01Z</time>
      </trkpt>
      <trkpt lat="49.25988" lon="1.13437">
        <ele>110.3</ele>
        <time>2017-05-01T08:16:04Z</time>
      </trkpt>
      <trkpt lat="49.2599" lon="1.13423">
        <ele>110.4</ele>
        <time>2017-05-01T08:16:07Z</time>
      </trkpt>
      <trkpt lat="49.25994" lon="1.13408">
        <ele>110.5</ele>
        <time>2017-05-01T08:16:10Z</time>
      </trkpt>
      <trkpt lat="49.25998" lon="1.13393">
        <ele>110.6</ele>
        <time>2017-05-01T08:16:13Z</time>
      </trkpt>
      <trkpt lat="49.26001" lon="1.13378">
        <ele>110.6</ele>
        <time>2017-05-01T08:16:16Z</time>
      </trkpt>
      <trkpt lat="49.26005" lon="1.13363">
        <ele>110.7</ele>
        <time>2017-05-01T08:16:19Z</time>
      </trkpt>
      <trkpt lat="49.26007" lon="1.13346">
        <ele>110.8</ele>
        <time>2017-05-01T08:16:22Z</time>
      </trkpt>
      <trkpt lat="49.26011" lon="1.13328">
        <ele>110.9</ele>
        <time>2017-05-01T08:16:25Z</time>
      </trkpt>
      <trkpt lat="49.26013" lon="1.13311">
        <ele>111</ele>
        <time>2017-05-01T08:16:28Z</time>
      </trkpt>
      <trkpt lat="49.26017" lon="1.13294">
        <ele>111.1</ele>
        <time>2017-05-01T08:16:31Z</time>
      </trkpt>
      <trkpt lat="49.26021" lon="1.13278">
        <ele>111.2</ele>
        <time>2017-05-01T08:16:34Z</time>
      </trkpt>
      <trkpt lat="49.26025" lon="1.13261">
        <ele>111.3</ele>
        <time>2017-05-01T08:16:37Z</time>
      </trkpt>
      <trkpt lat="49.26028" lon="1.13243">
        <ele>111.3</ele>
        <time>2017-05-01T08:16:40Z</time>
      </trkpt>
      <trkpt lat="49.26032" lon="1.13225">
        <ele>111.4</ele>
        <time>2017-05-01T08:16:43Z</time>
      </trkpt>
      <trkpt lat="49.26036" lon="1.13208">
        <ele>111.4</ele>
        <time>2017-05-01T08:16:46Z</time>
      </trkpt>
      <trkpt lat="49.26039" lon="1.1319">
        <ele>111.5</ele>
        <time>2017-05-01T08:16:49Z</time>
      </trkpt>
      <trkpt lat="49.26042" lon="1.13172">
        <ele>111.5</ele>
        <time>2017-05-01T08:16:52Z</time>
      </trkpt>
      <trkpt lat="49.26046" lon="1.13158">
        <ele>111.5</ele>
        <time>2017-05-01T08:16:55Z</time>
      </trkpt>
      <trkpt lat="49.26049" lon="1.13144">
        <ele>111.5</ele>
        <time>2017-05-01T08:16:58Z</time>
      </trkpt>
      <trkpt lat="49.26052" lon="1.13128">
        <ele>111.5</ele>
        <time>2017-05-01T08:17:01Z</time>
      </trkpt>
      <trkpt lat="49.26056" lon="1.1311">
        <ele>111.6</ele>
        <time>2017-05-01T08:17:04Z</time>
      </trkpt>
      <trkpt lat="49.2606" lon="1.13096">
        <ele>111.5</ele>
        <time>2017-05-01T08:17:07Z</time>
      </trkpt>
      <trkpt lat="49.26058" lon="1.13082">
        <ele>111.4</ele>
        <time>2017-05-01T08:17:12Z</time>
      </trkpt>
      <trkpt lat="49.26049" lon="1.13076">
        <ele>111.4</ele>
        <time>2017-05-01T08:17:16Z</time>
      </trkpt>
      <trkpt lat="49.2604" lon="1.1307">
        <ele>111.3</ele>
        <time>2017-05-01T08:17:19Z</time>
      </trkpt>
      <trkpt lat="49.26031" lon="1.13066">
        <ele>111.2</ele>
        <time>2017-05-01T08:17:22Z</time>
      </trkpt>
      <trkpt lat="49.2602" lon="1.13063">
        <ele>111.2</ele>
        <time>2017-05-01T08:17:25Z</time>
      </trkpt>
      <trkpt lat="49.26009" lon="1.1306">
        <ele>111.1</ele>
        <time>2017-05-01T08:17:28Z</time>
      </trkpt>
      <trkpt lat="49.25997" lon="1.13055">
        <ele>111</ele>
        <time>2017-05-01T08:17:31Z</time>
      </trkpt>
      <trkpt lat="49.25986" lon="1.13049">
        <ele>110.9</ele>
        <time>2017-05-01T08:17:34Z</time>
      </trkpt>
      <trkpt lat="49.25974" lon="1.13043">
        <ele>110.8</ele>
        <time>2017-05-01T08:17:37Z</time>
      </trkpt>
      <trkpt lat="49.25964" lon="1.13036">
        <ele>110.7</ele>
        <time>2017-05-01T08:17:40Z</time>
      </trkpt>
      <trkpt lat="49.25952" lon="1.13029">
        <ele>110.7</ele>
        <time>2017-05-01T08:17:43Z</time>
      </trkpt>
      <trkpt lat="49.2594" lon="1.13024">
        <ele>110.7</ele>
        <time>2017-05-01T08:17:46Z</time>
      </trkpt>
      <trkpt lat="49.2593" lon="1.13021">
        <ele>110.7</ele>
        <time>2017-05-01T08:17:49Z</time>
      </trkpt>
      <trkpt lat="49.25918" lon="1.13018">
        <ele>110.7</ele>
        <time>2017-05-01T08:17:52Z</time>
      </trkpt>
      <trkpt lat="49.25907" lon="1.13014">
        <ele>110.5</ele>
        <time>2017-05-01T08:17:55Z</time>
      </trkpt>
      <trkpt lat="49.25895" lon="1.13008">
        <ele>110.3</ele>
        <time>2017-05-01T08:17:58Z</time>
      </trkpt>
      <trkpt lat="49.25882" lon="1.13002">
        <ele>110.3</ele>
        <time>2017-05-01T08:18:01Z</time>
      </trkpt>
      <trkpt lat="49.25869" lon="1.12998">
        <ele>110.3</ele>
        <time>2017-05-01T08:18:04Z</time>
      </trkpt>
      <trkpt lat="49.25857" lon="1.12991">
        <ele>110.3</ele>
        <time>2017-05-01T08:18:07Z</time>
      </trkpt>
      <trkpt lat="49.25848" lon="1.12988">
        <ele>110.3</ele>
        <time>2017-05-01T08:18:09Z</time>
      </trkpt>
      <trkpt lat="49.25836" lon="1.12986">
        <ele>110.3</ele>
        <time>2017-05-01T08:18:12Z</time>
      </trkpt>
      <trkpt lat="49.25823" lon="1.12981">
        <ele>110.3</ele>
        <time>2017-05-01T08:18:15Z</time>
      </trkpt>
      <trkpt lat="49.25814" lon="1.12972">
        <ele>110.3</ele>
        <time>2017-05-01T08:18:18Z</time>
      </trkpt>
      <trkpt lat="49.25801" lon="1.12966">
        <ele>110.1</ele>
        <time>2017-05-01T08:18:21Z</time>
      </trkpt>
      <trkpt lat="49.25792" lon="1.12962">
        <ele>110</ele>
        <time>2017-05-01T08:18:23Z</time>
      </trkpt>
      <trkpt lat="49.25783" lon="1.12958">
        <ele>109.8</ele>
        <time>2017-05-01T08:18:25Z</time>
      </trkpt>
      <trkpt lat="49.25774" lon="1.12953">
        <ele>109.7</ele>
        <time>2017-05-01T08:18:27Z</time>
      </trkpt>
      <trkpt lat="49.25765" lon="1.12948">
        <ele>109.6</ele>
        <time>2017-05-01T08:18:29Z</time>
      </trkpt>
      <trkpt lat="49.25756" lon="1.12943">
        <ele>109.5</ele>
        <time>2017-05-01T08:18:31Z</time>
      </trkpt>
      <trkpt lat="49.25747" lon="1.12938">
        <ele>109.4</ele>
        <time>2017-05-01T08:18:33Z</time>
      </trkpt>
      <trkpt lat="49.25738" lon="1.12932">
        <ele>109.4</ele>
        <time>2017-05-01T08:18:35Z</time>
      </trkpt>
      <trkpt lat="49.25729" lon="1.12924">
        <ele>109.3</ele>
        <time>2017-05-01T08:18:37Z</time>
      </trkpt>
      <trkpt lat="49.2572" lon="1.12919">
        <ele>109.2</ele>
        <time>2017-05-01T08:18:39Z</time>
      </trkpt>
      <trkpt lat="49.2571" lon="1.12914">
        <ele>109.1</ele>
        <time>2017-05-01T08:18:41Z</time>
      </trkpt>
      <trkpt lat="49.25701" lon="1.12909">
        <ele>109</ele>
        <time>2017-05-01T08:18:43Z</time>
      </trkpt>
      <trkpt lat="49.25692" lon="1.12905">
        <ele>108.8</ele>
        <time>2017-05-01T08:18:45Z</time>
      </trkpt>
      <trkpt lat="49.25684" lon="1.12899">
        <ele>108.5</ele>
        <time>2017-05-01T08:18:47Z</time>
      </trkpt>
      <trkpt lat="49.25673" lon="1.12895">
        <ele>108.3</ele>
        <time>2017-05-01T08:18:49Z</time>
      </trkpt>
      <trkpt lat="49.25664" lon="1.1289">
        <ele>108.1</ele>
        <time>2017-05-01T08:18:51Z</time>
      </trkpt>
      <trkpt lat="49.25653" lon="1.12887">
        <ele>107.9</ele>
        <time>2017-05-01T08:18:53Z</time>
      </trkpt>
      <trkpt lat="49.25642" lon="1.12883">
        <ele>107.8</ele>
        <time>2017-05-01T08:18:55Z</time>
      </trkpt>
      <trkpt lat="49.25633" lon="1.12878">
        <ele>107.6</ele>
        <time>2017-05-01T08:18:57Z</time>
      </trkpt>
      <trkpt lat="49.25624" lon="1.12875">
        <ele>107.5</ele>
        <time>2017-05-01T08:18:59Z</time>
      </trkpt>
      <trkpt lat="49.25615" lon="1.12871">
        <ele>107.4</ele>
        <time>2017-05-01T08:19:01Z</time>
      </trkpt>
      <trkpt lat="49.25601" lon="1.1287">
        <ele>107.3</ele>
        <time>2017-05-01T08:19:04Z</time>
      </trkpt>
      <trkpt lat="49.25591" lon="1.12883">
        <ele>107.1</ele>
        <time>2017-05-01T08:19:07Z</time>
      </trkpt>
      <trkpt lat="49.25586" lon="1.12902">
        <ele>107</ele>
        <time>2017-05-01T08:19:10Z</time>
      </trkpt>
      <trkpt lat="49.25582" lon="1.12917">
        <ele>106.9</ele>
        <time>2017-05-01T08:19:12Z</time>
      </trkpt>
      <trkpt lat="49.25579" lon="1.12931">
        <ele>107</ele>
        <time>2017-05-01T08:19:14Z</time>
      </trkpt>
      <trkpt lat="49.25576" lon="1.12944">
        <ele>107.5</ele>
        <time>2017-05-01T08:19:16Z</time>
      </trkpt>
      <trkpt lat="49.25572" lon="1.12958">
        <ele>107.4</ele>
        <time>2017-05-01T08:19:18Z</time>
      </trkpt>
      <trkpt lat="49.2557" lon="1.12972">
        <ele>107.3</ele>
        <time>2017-05-01T08:19:20Z</time>
      </trkpt>
      <trkpt lat="49.25568" lon="1.12986">
        <ele>107.2</ele>
        <time>2017-05-01T08:19:22Z</time>
      </trkpt>
      <trkpt lat="49.25565" lon="1.13">
        <ele>107.1</ele>
        <time>2017-05-01T08:19:24Z</time>
      </trkpt>
      <trkpt lat="49.25562" lon="1.13015">
        <ele>107.1</ele>
        <time>2017-05-01T08:19:26Z</time>
      </trkpt>
      <trkpt lat="49.25558" lon="1.13029">
        <ele>107</ele>
        <time>2017-05-01T08:19:28Z</time>
      </trkpt>
      <trkpt lat="49.25556" lon="1.13044">
        <ele>106.9</ele>
        <time>2017-05-01T08:19:30Z</time>
      </trkpt>
      <trkpt lat="49.25553" lon="1.13059">
        <ele>106.9</ele>
        <time>2017-05-01T08:19:32Z</time>
      </trkpt>
      <trkpt lat="49.2555" lon="1.13074">
        <ele>107</ele>
        <time>2017-05-01T08:19:34Z</time>
      </trkpt>
      <trkpt lat="49.25547" lon="1.13089">
        <ele>107</ele>
        <time>2017-05-01T08:19:36Z</time>
      </trkpt>
      <trkpt lat="49.25544" lon="1.13104">
        <ele>107</ele>
        <time>2017-05-01T08:19:38Z</time>
      </trkpt>
      <trkpt lat="49.25541" lon="1.1312">
        <ele>107</ele>
        <time>2017-05-01T08:19:40Z</time>
      </trkpt>
      <trkpt lat="49.25537" lon="1.13134">
        <ele>107.1</ele>
        <time>2017-05-01T08:19:42Z</time>
      </trkpt>
      <trkpt lat="49.25534" lon="1.1315">
        <ele>107.1</ele>
        <time>2017-05-01T08:19:44Z</time>
      </trkpt>
      <trkpt lat="49.25531" lon="1.13166">
        <ele>107.1</ele>
        <time>2017-05-01T08:19:46Z</time>
      </trkpt>
      <trkpt lat="49.25528" lon="1.13183">
        <ele>107.2</ele>
        <time>2017-05-01T08:19:48Z</time>
      </trkpt>
      <trkpt lat="49.25526" lon="1.13199">
        <ele>107.2</ele>
        <time>2017-05-01T08:19:50Z</time>
      </trkpt>
      <trkpt lat="49.25523" lon="1.13214">
        <ele>107.2</ele>
        <time>2017-05-01T08:19:52Z</time>
      </trkpt>
      <trkpt lat="49.2552" lon="1.13228">
        <ele>107.2</ele>
        <time>2017-05-01T08:19:54Z</time>
      </trkpt>
      <trkpt lat="49.25518" lon="1.13243">
        <ele>107.3</ele>
        <time>2017-05-01T08:19:56Z</time>
      </trkpt>
      <trkpt lat="49.25515" lon="1.1326">
        <ele>107.3</ele>
        <time>2017-05-01T08:19:58Z</time>
      </trkpt>
      <trkpt lat="49.25511" lon="1.13274">
        <ele>107.3</ele>
        <time>2017-05-01T08:20:00Z</time>
      </trkpt>
      <trkpt lat="49.255" lon="1.13276">
        <ele>107.3</ele>
        <time>2017-05-01T08:20:03Z</time>
      </trkpt>
      <trkpt lat="49.25491" lon="1.13273">
        <ele>107.3</ele>
        <time>2017-05-01T08:20:05Z</time>
      </trkpt>
      <trkpt lat="49.25482" lon="1.1327">
        <ele>107.3</ele>
        <time>2017-05-01T08:20:07Z</time>
      </trkpt>
      <trkpt lat="49.25471" lon="1.13266">
        <ele>107.3</ele>
        <time>2017-05-01T08:20:09Z</time>
      </trkpt>
      <trkpt lat="49.25461" lon="1.13262">
        <ele>107.3</ele>
        <time>2017-05-01T08:20:11Z</time>
      </trkpt>
      <trkpt lat="49.2545" lon="1.13257">
        <ele>107.3</ele>
        <time>2017-05-01T08:20:13Z</time>
      </trkpt>
      <trkpt lat="49.2544" lon="1.13252">
        <ele>107.2</ele>
        <time>2017-05-01T08:20:15Z</time>
      </trkpt>
      <trkpt lat="49.25427" lon="1.13247">
        <ele>107.1</ele>
        <time>2017-05-01T08:20:17Z</time>
      </trkpt>
      <trkpt lat="49.25416" lon="1.13242">
        <ele>106.9</ele>
        <time>2017-05-01T08:20:19Z</time>
      </trkpt>
      <trkpt lat="49.25403" lon="1.13237">
        <ele>106.8</ele>
        <time>2017-05-01T08:20:21Z</time>
      </trkpt>
      <trkpt lat="49.25389" lon="1.1323">
        <ele>106.5</ele>
        <time>2017-05-01T08:20:23Z</time>
      </trkpt>
      <trkpt lat="49.25378" lon="1.13224">
        <ele>106.3</ele>
        <time>2017-05-01T08:20:25Z</time>
      </trkpt>
      <trkpt lat="49.25365" lon="1.1322">
        <ele>106</ele>
        <time>2017-05-01T08:20:27Z</time>
      </trkpt>
      <trkpt lat="49.25353" lon="1.13214">
        <ele>105.6</ele>
        <time>2017-05-01T08:20:29Z</time>
      </trkpt>
      <trkpt lat="49.25343" lon="1.1321">
        <ele>105.2</ele>
        <time>2017-05-01T08:20:31Z</time>
      </trkpt>
      <trkpt lat="49.25332" lon="1.13204">
        <ele>104.9</ele>
        <time>2017-05-01T08:20:33Z</time>
      </trkpt>
      <trkpt lat="49.2532" lon="1.13198">
        <ele>104.5</ele>
        <time>2017-05-01T08:20:35Z</time>
      </trkpt>
      <trkpt lat="49.25306" lon="1.13191">
        <ele>104.1</ele>
        <time>2017-05-01T08:20:37Z</time>
      </trkpt>
      <trkpt lat="49.25294" lon="1.13186">
        <ele>103.7</ele>
        <time>2017-05-01T08:20:39Z</time>
      </trkpt>
      <trkpt lat="49.25285" lon="1.13179">
        <ele>103.2</ele>
        <time>2017-05-01T08:20:41Z</time>
      </trkpt>
      <trkpt lat="49.25273" lon="1.13172">
        <ele>102.5</ele>
        <time>2017-05-01T08:20:44Z</time>
      </trkpt>
      <trkpt lat="49.25265" lon="1.13166">
        <ele>101.6</ele>
        <time>2017-05-01T08:20:48Z</time>
      </trkpt>
      <trkpt lat="49.25274" lon="1.13176">
        <ele>99.7</ele>
        <time>2017-05-01T08:20:59Z</time>
      </trkpt>
      <trkpt lat="49.25283" lon="1.13182">
        <ele>99.3</ele>
        <time>2017-05-01T08:21:03Z</time>
      </trkpt>
      <trkpt lat="49.25292" lon="1.13187">
        <ele>99.2</ele>
        <time>2017-05-01T08:21:07Z</time>
      </trkpt>
      <trkpt lat="49.25304" lon="1.13193">
        <ele>99.3</ele>
        <time>2017-05-01T08:21:10Z</time>
      </trkpt>
      <trkpt lat="49.25315" lon="1.13199">
        <ele>99.4</ele>
        <time>2017-05-01T08:21:13Z</time>
      </trkpt>
      <trkpt lat="49.25327" lon="1.13206">
        <ele>99.6</ele>
        <time>2017-05-01T08:21:17Z</time>
      </trkpt>
      <trkpt lat="49.25335" lon="1.13212">
        <ele>99.9</ele>
        <time>2017-05-01T08:21:21Z</time>
      </trkpt>
      <trkpt lat="49.25346" lon="1.13216">
        <ele>100.2</ele>
        <time>2017-05-01T08:21:24Z</time>
      </trkpt>
      <trkpt lat="49.25355" lon="1.13219">
        <ele>100.4</ele>
        <time>2017-05-01T08:21:26Z</time>
      </trkpt>
      <trkpt lat="49.25365" lon="1.13222">
        <ele>100.7</ele>
        <time>2017-05-01T08:21:29Z</time>
      </trkpt>
      <trkpt lat="49.25375" lon="1.13224">
        <ele>101</ele>
        <time>2017-05-01T08:21:31Z</time>
      </trkpt>
      <trkpt lat="49.2538" lon="1.13211">
        <ele>101.3</ele>
        <time>2017-05-01T08:21:34Z</time>
      </trkpt>
      <trkpt lat="49.25382" lon="1.13193">
        <ele>101.7</ele>
        <time>2017-05-01T08:21:37Z</time>
      </trkpt>
      <trkpt lat="49.25377" lon="1.13174">
        <ele>102</ele>
        <time>2017-05-01T08:21:40Z</time>
      </trkpt>
      <trkpt lat="49.25377" lon="1.13154">
        <ele>102.2</ele>
        <time>2017-05-01T08:21:43Z</time>
      </trkpt>
      <trkpt lat="49.25373" lon="1.13134">
        <ele>102.2</ele>
        <time>2017-05-01T08:21:46Z</time>
      </trkpt>
      <trkpt lat="49.25371" lon="1.1312">
        <ele>102.2</ele>
        <time>2017-05-01T08:21:48Z</time>
      </trkpt>
      <trkpt lat="49.25372" lon="1.13104">
        <ele>102.2</ele>
        <time>2017-05-01T08:21:50Z</time>
      </trkpt>
      <trkpt lat="49.25375" lon="1.13088">
        <ele>102.2</ele>
        <time>2017-05-01T08:21:52Z</time>
      </trkpt>
      <trkpt lat="49.25377" lon="1.13072">
        <ele>102</ele>
        <time>2017-05-01T08:21:54Z</time>
      </trkpt>
      <trkpt lat="49.25378" lon="1.13057">
        <ele>101.8</ele>
        <time>2017-05-01T08:21:56Z</time>
      </trkpt>
      <trkpt lat="49.25376" lon="1.13043">
        <ele>101.6</ele>
        <time>2017-05-01T08:21:58Z</time>
      </trkpt>
      <trkpt lat="49.25374" lon="1.13024">
        <ele>101.3</ele>
        <time>2017-05-01T08:22:01Z</time>
      </trkpt>
      <trkpt lat="49.25374" lon="1.13007">
        <ele>101.1</ele>
        <time>2017-05-01T08:22:04Z</time>
      </trkpt>
      <trkpt lat="49.25368" lon="1.12996">
        <ele>100.9</ele>
        <time>2017-05-01T08:22:06Z</time>
      </trkpt>
      <trkpt lat="49.25359" lon="1.12979">
        <ele>100.6</ele>
        <time>2017-05-01T08:22:09Z</time>
      </trkpt>
      <trkpt lat="49.25352" lon="1.12967">
        <ele>100.5</ele>
        <time>2017-05-01T08:22:11Z</time>
      </trkpt>
      <trkpt lat="49.25345" lon="1.12952">
        <ele>100.3</ele>
        <time>2017-05-01T08:22:13Z</time>
      </trkpt>
      <trkpt lat="49.25339" lon="1.12938">
        <ele>100.1</ele>
        <time>2017-05-01T08:22:15Z</time>
      </trkpt>
      <trkpt lat="49.25332" lon="1.12924">
        <ele>99.9</ele>
        <time>2017-05-01T08:22:17Z</time>
      </trkpt>
      <trkpt lat="49.25325" lon="1.12908">
        <ele>99.6</ele>
        <time>2017-05-01T08:22:19Z</time>
      </trkpt>
      <trkpt lat="49.25316" lon="1.12898">
        <ele>99.1</ele>
        <time>2017-05-01T08:22:21Z</time>
      </trkpt>
      <trkpt lat="49.25305" lon="1.12889">
        <ele>98.7</ele>
        <time>2017-05-01T08:22:23Z</time>
      </trkpt>
      <trkpt lat="49.25296" lon="1.12882">
        <ele>98.3</ele>
        <time>2017-05-01T08:22:25Z</time>
      </trkpt>
      <trkpt lat="49.25287" lon="1.12868">
        <ele>97.9</ele>
        <time>2017-05-01T08:22:27Z</time>
      </trkpt>
      <trkpt lat="49.25283" lon="1.12851">
        <ele>97.2</ele>
        <time>2017-05-01T08:22:30Z</time>
      </trkpt>
      <trkpt lat="49.25276" lon="1.12838">
        <ele>96.5</ele>
        <time>2017-05-01T08:22:34Z</time>
      </trkpt>
      <trkpt lat="49.25263" lon="1.12823">
        <ele>96.2</ele>
        <time>2017-05-01T08:22:37Z</time>
      </trkpt>
      <trkpt lat="49.25254" lon="1.12814">
        <ele>96</ele>
        <time>2017-05-01T08:22:39Z</time>
      </trkpt>
      <trkpt lat="49.25251" lon="1.12801">
        <ele>95.8</ele>
        <time>2017-05-01T08:22:42Z</time>
      </trkpt>
      <trkpt lat="49.25244" lon="1.12785">
        <ele>95.7</ele>
        <time>2017-05-01T08:22:45Z</time>
      </trkpt>
      <trkpt lat="49.2524" lon="1.12766">
        <ele>95.8</ele>
        <time>2017-05-01T08:22:48Z</time>
      </trkpt>
      <trkpt lat="49.25235" lon="1.12755">
        <ele>95.8</ele>
        <time>2017-05-01T08:22:50Z</time>
      </trkpt>
      <trkpt lat="49.25231" lon="1.12741">
        <ele>95.8</ele>
        <time>2017-05-01T08:22:52Z</time>
      </trkpt>
      <trkpt lat="49.25227" lon="1.12724">
        <ele>95.8</ele>
        <time>2017-05-01T08:22:55Z</time>
      </trkpt>
      <trkpt lat="49.25226" lon="1.12706">
        <ele>95.8</ele>
        <time>2017-05-01T08:22:58Z</time>
      </trkpt>
      <trkpt lat="49.2522" lon="1.12694">
        <ele>95.8</ele>
        <time>2017-05-01T08:23:01Z</time>
      </trkpt>
      <trkpt lat="49.2521" lon="1.12685">
        <ele>95.8</ele>
        <time>2017-05-01T08:23:04Z</time>
      </trkpt>
      <trkpt lat="49.25207" lon="1.12671">
        <ele>95.6</ele>
        <time>2017-05-01T08:23:07Z</time>
      </trkpt>
      <trkpt lat="49.25204" lon="1.12651">
        <ele>95.5</ele>
        <time>2017-05-01T08:23:10Z</time>
      </trkpt>
      <trkpt lat="49.25198" lon="1.12638">
        <ele>95.4</ele>
        <time>2017-05-01T08:23:12Z</time>
      </trkpt>
      <trkpt lat="49.25196" lon="1.12621">
        <ele>95.1</ele>
        <time>2017-05-01T08:23:16Z</time>
      </trkpt>
      <trkpt lat="49.25192" lon="1.12604">
        <ele>94.8</ele>
        <time>2017-05-01T08:23:20Z</time>
      </trkpt>
      <trkpt lat="49.25188" lon="1.12587">
        <ele>94.4</ele>
        <time>2017-05-01T08:23:23Z</time>
      </trkpt>
      <trkpt lat="49.25185" lon="1.12573">
        <ele>94.2</ele>
        <time>2017-05-01T08:23:25Z</time>
      </trkpt>
      <trkpt lat="49.25182" lon="1.12554">
        <ele>94</ele>
        <time>2017-05-01T08:23:27Z</time>
      </trkpt>
      <trkpt lat="49.25176" lon="1.12542">
        <ele>93.8</ele>
        <time>2017-05-01T08:23:29Z</time>
      </trkpt>
      <trkpt lat="49.25167" lon="1.12532">
        <ele>93.6</ele>
        <time>2017-05-01T08:23:31Z</time>
      </trkpt>
      <trkpt lat="49.25157" lon="1.12522">
        <ele>93.3</ele>
        <time>2017-05-01T08:23:33Z</time>
      </trkpt>
      <trkpt lat="49.25145" lon="1.12512">
        <ele>92.7</ele>
        <time>2017-05-01T08:23:36Z</time>
      </trkpt>
      <trkpt lat="49.25136" lon="1.12509">
        <ele>92.3</ele>
        <time>2017-05-01T08:23:38Z</time>
      </trkpt>
      <trkpt lat="49.25124" lon="1.12503">
        <ele>91.4</ele>
        <time>2017-05-01T08:23:41Z</time>
      </trkpt>
      <trkpt lat="49.25114" lon="1.12492">
        <ele>90.7</ele>
        <time>2017-05-01T08:23:43Z</time>
      </trkpt>
      <trkpt lat="49.25103" lon="1.12484">
        <ele>89.8</ele>
        <time>2017-05-01T08:23:45Z</time>
      </trkpt>
      <trkpt lat="49.25093" lon="1.12471">
        <ele>88.9</ele>
        <time>2017-05-01T08:23:47Z</time>
      </trkpt>
      <trkpt lat="49.25082" lon="1.1246">
        <ele>88.1</ele>
        <time>2017-05-01T08:23:49Z</time>
      </trkpt>
      <trkpt lat="49.25076" lon="1.12447">
        <ele>87.2</ele>
        <time>2017-05-01T08:23:51Z</time>
      </trkpt>
      <trkpt lat="49.25068" lon="1.12436">
        <ele>86.5</ele>
        <time>2017-05-01T08:23:53Z</time>
      </trkpt>
      <trkpt lat="49.25054" lon="1.12423">
        <ele>85.6</ele>
        <time>2017-05-01T08:23:55Z</time>
      </trkpt>
      <trkpt lat="49.25042" lon="1.12408">
        <ele>84.4</ele>
        <time>2017-05-01T08:23:57Z</time>
      </trkpt>
      <trkpt lat="49.2503" lon="1.12395">
        <ele>83</ele>
        <time>2017-05-01T08:23:59Z</time>
      </trkpt>
      <trkpt lat="49.25021" lon="1.12384">
        <ele>81.5</ele>
        <time>2017-05-01T08:24:01Z</time>
      </trkpt>
      <trkpt lat="49.25009" lon="1.12376">
        <ele>80</ele>
        <time>2017-05-01T08:24:03Z</time>
      </trkpt>
      <trkpt lat="49.24997" lon="1.12377">
        <ele>78.3</ele>
        <time>2017-05-01T08:24:05Z</time>
      </trkpt>
      <trkpt lat="49.24985" lon="1.12386">
        <ele>76.7</ele>
        <time>2017-05-01T08:24:07Z</time>
      </trkpt>
      <trkpt lat="49.24975" lon="1.12395">
        <ele>75.1</ele>
        <time>2017-05-01T08:24:09Z</time>
      </trkpt>
      <trkpt lat="49.24969" lon="1.12408">
        <ele>73.7</ele>
        <time>2017-05-01T08:24:11Z</time>
      </trkpt>
      <trkpt lat="49.24965" lon="1.12426">
        <ele>71.9</ele>
        <time>2017-05-01T08:24:14Z</time>
      </trkpt>
      <trkpt lat="49.2496" lon="1.12438">
        <ele>70.9</ele>
        <time>2017-05-01T08:24:16Z</time>
      </trkpt>
      <trkpt lat="49.24958" lon="1.12453">
        <ele>69.3</ele>
        <time>2017-05-01T08:24:20Z</time>
      </trkpt>
      <trkpt lat="49.24957" lon="1.12469">
        <ele>68</ele>
        <time>2017-05-01T08:24:25Z</time>
      </trkpt>
      <trkpt lat="49.24958" lon="1.12486">
        <ele>67.4</ele>
        <time>2017-05-01T08:24:28Z</time>
      </trkpt>
      <trkpt lat="49.24958" lon="1.12501">
        <ele>67</ele>
        <time>2017-05-01T08:24:30Z</time>
      </trkpt>
      <trkpt lat="49.24959" lon="1.12515">
        <ele>66.7</ele>
        <time>2017-05-01T08:24:32Z</time>
      </trkpt>
      <trkpt lat="49.24964" lon="1.1253">
        <ele>66.5</ele>
        <time>2017-05-01T08:24:34Z</time>
      </trkpt>
      <trkpt lat="49.24965" lon="1.12545">
        <ele>66.2</ele>
        <time>2017-05-01T08:24:36Z</time>
      </trkpt>
      <trkpt lat="49.24968" lon="1.1256">
        <ele>66</ele>
        <time>2017-05-01T08:24:38Z</time>
      </trkpt>
      <trkpt lat="49.24971" lon="1.12575">
        <ele>65.8</ele>
        <time>2017-05-01T08:24:40Z</time>
      </trkpt>
      <trkpt lat="49.24973" lon="1.12592">
        <ele>65.7</ele>
        <time>2017-05-01T08:24:42Z</time>
      </trkpt>
      <trkpt lat="49.24982" lon="1.12608">
        <ele>65.5</ele>
        <time>2017-05-01T08:24:44Z</time>
      </trkpt>
      <trkpt lat="49.24984" lon="1.12624">
        <ele>65.3</ele>
        <time>2017-05-01T08:24:46Z</time>
      </trkpt>
      <trkpt lat="49.24991" lon="1.12637">
        <ele>65.1</ele>
        <time>2017-05-01T08:24:48Z</time>
      </trkpt>
      <trkpt lat="49.24995" lon="1.12652">
        <ele>65</ele>
        <time>2017-05-01T08:24:50Z</time>
      </trkpt>
      <trkpt lat="49.24994" lon="1.12673">
        <ele>64.8</ele>
        <time>2017-05-01T08:24:52Z</time>
      </trkpt>
      <trkpt lat="49.24994" lon="1.12692">
        <ele>64.7</ele>
        <time>2017-05-01T08:24:54Z</time>
      </trkpt>
      <trkpt lat="49.24996" lon="1.12708">
        <ele>64.5</ele>
        <time>2017-05-01T08:24:56Z</time>
      </trkpt>
      <trkpt lat="49.24998" lon="1.12726">
        <ele>64.3</ele>
        <time>2017-05-01T08:24:58Z</time>
      </trkpt>
      <trkpt lat="49.24998" lon="1.12741">
        <ele>64.1</ele>
        <time>2017-05-01T08:25:00Z</time>
      </trkpt>
      <trkpt lat="49.25002" lon="1.12754">
        <ele>63.8</ele>
        <time>2017-05-01T08:25:03Z</time>
      </trkpt>
      <trkpt lat="49.25008" lon="1.12766">
        <ele>63.1</ele>
        <time>2017-05-01T08:25:10Z</time>
      </trkpt>
      <trkpt lat="49.25009" lon="1.1278">
        <ele>62.8</ele>
        <time>2017-05-01T08:25:15Z</time>
      </trkpt>
      <trkpt lat="49.25008" lon="1.12793">
        <ele>62.6</ele>
        <time>2017-05-01T08:25:18Z</time>
      </trkpt>
      <trkpt lat="49.25008" lon="1.12811">
        <ele>62.3</ele>
        <time>2017-05-01T08:25:21Z</time>
      </trkpt>
      <trkpt lat="49.25004" lon="1.12824">
        <ele>62.2</ele>
        <time>2017-05-01T08:25:23Z</time>
      </trkpt>
      <trkpt lat="49.24999" lon="1.12841">
        <ele>61.9</ele>
        <time>2017-05-01T08:25:26Z</time>
      </trkpt>
      <trkpt lat="49.24994" lon="1.12856">
        <ele>61.6</ele>
        <time>2017-05-01T08:25:29Z</time>
      </trkpt>
      <trkpt lat="49.24987" lon="1.1287">
        <ele>61.3</ele>
        <time>2017-05-01T08:25:32Z</time>
      </trkpt>
      <trkpt lat="49.2498" lon="1.12885">
        <ele>60.9</ele>
        <time>2017-05-01T08:25:35Z</time>
      </trkpt>
      <trkpt lat="49.24975" lon="1.12901">
        <ele>60.7</ele>
        <time>2017-05-01T08:25:38Z</time>
      </trkpt>
      <trkpt lat="49.24967" lon="1.12919">
        <ele>60.4</ele>
        <time>2017-05-01T08:25:41Z</time>
      </trkpt>
      <trkpt lat="49.24961" lon="1.12931">
        <ele>60.2</ele>
        <time>2017-05-01T08:25:43Z</time>
      </trkpt>
      <trkpt lat="49.24955" lon="1.12941">
        <ele>60</ele>
        <time>2017-05-01T08:25:45Z</time>
      </trkpt>
      <trkpt lat="49.24947" lon="1.12956">
        <ele>59.7</ele>
        <time>2017-05-01T08:25:48Z</time>
      </trkpt>
      <trkpt lat="49.2494" lon="1.12966">
        <ele>59.5</ele>
        <time>2017-05-01T08:25:50Z</time>
      </trkpt>
      <trkpt lat="49.24932" lon="1.12978">
        <ele>59.3</ele>
        <time>2017-05-01T08:25:52Z</time>
      </trkpt>
      <trkpt lat="49.24922" lon="1.1299">
        <ele>59.1</ele>
        <time>2017-05-01T08:25:54Z</time>
      </trkpt>
      <trkpt lat="49.24913" lon="1.13002">
        <ele>58.9</ele>
        <time>2017-05-01T08:25:56Z</time>
      </trkpt>
      <trkpt lat="49.24905" lon="1.13015">
        <ele>58.5</ele>
        <time>2017-05-01T08:25:58Z</time>
      </trkpt>
      <trkpt lat="49.24899" lon="1.13028">
        <ele>58.2</ele>
        <time>2017-05-01T08:26:00Z</time>
      </trkpt>
      <trkpt lat="49.24893" lon="1.13043">
        <ele>58</ele>
        <time>2017-05-01T08:26:02Z</time>
      </trkpt>
      <trkpt lat="49.24886" lon="1.1306">
        <ele>57.7</ele>
        <time>2017-05-01T08:26:04Z</time>
      </trkpt>
      <trkpt lat="49.24882" lon="1.13077">
        <ele>57.4</ele>
        <time>2017-05-01T08:26:06Z</time>
      </trkpt>
      <trkpt lat="49.24878" lon="1.13092">
        <ele>57.1</ele>
        <time>2017-05-01T08:26:08Z</time>
      </trkpt>
      <trkpt lat="49.24873" lon="1.1311">
        <ele>56.9</ele>
        <time>2017-05-01T08:26:10Z</time>
      </trkpt>
      <trkpt lat="49.24869" lon="1.13125">
        <ele>56.6</ele>
        <time>2017-05-01T08:26:12Z</time>
      </trkpt>
      <trkpt lat="49.24867" lon="1.13141">
        <ele>56.4</ele>
        <time>2017-05-01T08:26:14Z</time>
      </trkpt>
      <trkpt lat="49.24866" lon="1.13156">
        <ele>56.1</ele>
        <time>2017-05-01T08:26:17Z</time>
      </trkpt>
      <trkpt lat="49.24862" lon="1.13169">
        <ele>55.8</ele>
        <time>2017-05-01T08:26:20Z</time>
      </trkpt>
      <trkpt lat="49.24859" lon="1.13182">
        <ele>54.5</ele>
        <time>2017-05-01T08:26:31Z</time>
      </trkpt>
      <trkpt lat="49.24855" lon="1.13195">
        <ele>54.9</ele>
        <time>2017-05-01T08:26:48Z</time>
      </trkpt>
      <trkpt lat="49.24855" lon="1.1321">
        <ele>54.9</ele>
        <time>2017-05-01T08:26:53Z</time>
      </trkpt>
      <trkpt lat="49.2485" lon="1.13224">
        <ele>54.9</ele>
        <time>2017-05-01T08:26:56Z</time>
      </trkpt>
      <trkpt lat="49.24849" lon="1.1324">
        <ele>54.9</ele>
        <time>2017-05-01T08:26:59Z</time>
      </trkpt>
      <trkpt lat="49.24849" lon="1.13254">
        <ele>54.8</ele>
        <time>2017-05-01T08:27:02Z</time>
      </trkpt>
      <trkpt lat="49.2485" lon="1.13269">
        <ele>54.7</ele>
        <time>2017-05-01T08:27:04Z</time>
      </trkpt>
      <trkpt lat="49.24847" lon="1.13285">
        <ele>54.5</ele>
        <time>2017-05-01T08:27:08Z</time>
      </trkpt>
      <trkpt lat="49.24845" lon="1.13301">
        <ele>54.3</ele>
        <time>2017-05-01T08:27:13Z</time>
      </trkpt>
      <trkpt lat="49.24847" lon="1.13318">
        <ele>54.2</ele>
        <time>2017-05-01T08:27:18Z</time>
      </trkpt>
      <trkpt lat="49.24848" lon="1.13336">
        <ele>53.9</ele>
        <time>2017-05-01T08:27:21Z</time>
      </trkpt>
      <trkpt lat="49.2485" lon="1.13355">
        <ele>53.8</ele>
        <time>2017-05-01T08:27:24Z</time>
      </trkpt>
      <trkpt lat="49.24853" lon="1.13369">
        <ele>53.7</ele>
        <time>2017-05-01T08:27:26Z</time>
      </trkpt>
      <trkpt lat="49.24852" lon="1.13385">
        <ele>53.6</ele>
        <time>2017-05-01T08:27:28Z</time>
      </trkpt>
      <trkpt lat="49.24853" lon="1.134">
        <ele>53.5</ele>
        <time>2017-05-01T08:27:30Z</time>
      </trkpt>
      <trkpt lat="49.24853" lon="1.13416">
        <ele>53.4</ele>
        <time>2017-05-01T08:27:32Z</time>
      </trkpt>
      <trkpt lat="49.24855" lon="1.13432">
        <ele>53.3</ele>
        <time>2017-05-01T08:27:34Z</time>
      </trkpt>
      <trkpt lat="49.24856" lon="1.13446">
        <ele>53.1</ele>
        <time>2017-05-01T08:27:36Z</time>
      </trkpt>
      <trkpt lat="49.24859" lon="1.13462">
        <ele>53</ele>
        <time>2017-05-01T08:27:38Z</time>
      </trkpt>
      <trkpt lat="49.24862" lon="1.13477">
        <ele>52.8</ele>
        <time>2017-05-01T08:27:40Z</time>
      </trkpt>
      <trkpt lat="49.24865" lon="1.13492">
        <ele>52.7</ele>
        <time>2017-05-01T08:27:42Z</time>
      </trkpt>
      <trkpt lat="49.2487" lon="1.13507">
        <ele>52.5</ele>
        <time>2017-05-01T08:27:44Z</time>
      </trkpt>
      <trkpt lat="49.24878" lon="1.13524">
        <ele>52.3</ele>
        <time>2017-05-01T08:27:46Z</time>
      </trkpt>
      <trkpt lat="49.24881" lon="1.1354">
        <ele>52.1</ele>
        <time>2017-05-01T08:27:48Z</time>
      </trkpt>
      <trkpt lat="49.24886" lon="1.13557">
        <ele>51.9</ele>
        <time>2017-05-01T08:27:50Z</time>
      </trkpt>
      <trkpt lat="49.24893" lon="1.13576">
        <ele>51.8</ele>
        <time>2017-05-01T08:27:52Z</time>
      </trkpt>
      <trkpt lat="49.24899" lon="1.13592">
        <ele>51.6</ele>
        <time>2017-05-01T08:27:54Z</time>
      </trkpt>
      <trkpt lat="49.24905" lon="1.13609">
        <ele>51.5</ele>
        <time>2017-05-01T08:27:56Z</time>
      </trkpt>
      <trkpt lat="49.24911" lon="1.13624">
        <ele>51.3</ele>
        <time>2017-05-01T08:27:58Z</time>
      </trkpt>
      <trkpt lat="49.24917" lon="1.13639">
        <ele>51.2</ele>
        <time>2017-05-01T08:28:00Z</time>
      </trkpt>
      <trkpt lat="49.24925" lon="1.13652">
        <ele>51.1</ele>
        <time>2017-05-01T08:28:02Z</time>
      </trkpt>
      <trkpt lat="49.24933" lon="1.13664">
        <ele>51.1</ele>
        <time>2017-05-01T08:28:04Z</time>
      </trkpt>
      <trkpt lat="49.24937" lon="1.13677">
        <ele>51.2</ele>
        <time>2017-05-01T08:28:06Z</time>
      </trkpt>
      <trkpt lat="49.24942" lon="1.13691">
        <ele>51.3</ele>
        <time>2017-05-01T08:28:08Z</time>
      </trkpt>
      <trkpt lat="49.2494" lon="1.13705">
        <ele>51.6</ele>
        <time>2017-05-01T08:28:11Z</time>
      </trkpt>
      <trkpt lat="49.24937" lon="1.13721">
        <ele>52</ele>
        <time>2017-05-01T08:28:15Z</time>
      </trkpt>
      <trkpt lat="49.24932" lon="1.13734">
        <ele>52.5</ele>
        <time>2017-05-01T08:28:19Z</time>
      </trkpt>
      <trkpt lat="49.24924" lon="1.1374">
        <ele>53.1</ele>
        <time>2017-05-01T08:28:25Z</time>
      </trkpt>
      <trkpt lat="49.24922" lon="1.13757">
        <ele>53.4</ele>
        <time>2017-05-01T08:28:28Z</time>
      </trkpt>
      <trkpt lat="49.24918" lon="1.13773">
        <ele>53.7</ele>
        <time>2017-05-01T08:28:32Z</time>
      </trkpt>
      <trkpt lat="49.2491" lon="1.13788">
        <ele>54</ele>
        <time>2017-05-01T08:28:36Z</time>
      </trkpt>
      <trkpt lat="49.24901" lon="1.13799">
        <ele>54.2</ele>
        <time>2017-05-01T08:28:39Z</time>
      </trkpt>
      <trkpt lat="49.24892" lon="1.13806">
        <ele>54.4</ele>
        <time>2017-05-01T08:28:42Z</time>
      </trkpt>
      <trkpt lat="49.24881" lon="1.13816">
        <ele>54.7</ele>
        <time>2017-05-01T08:28:45Z</time>
      </trkpt>
      <trkpt lat="49.24871" lon="1.13819">
        <ele>55</ele>
        <time>2017-05-01T08:28:47Z</time>
      </trkpt>
      <trkpt lat="49.24862" lon="1.1382">
        <ele>55.2</ele>
        <time>2017-05-01T08:28:49Z</time>
      </trkpt>
      <trkpt lat="49.24852" lon="1.13824">
        <ele>55.5</ele>
        <time>2017-05-01T08:28:52Z</time>
      </trkpt>
      <trkpt lat="49.24857" lon="1.13838">
        <ele>55.7</ele>
        <time>2017-05-01T08:28:57Z</time>
      </trkpt>
      <trkpt lat="49.24867" lon="1.13846">
        <ele>55.7</ele>
        <time>2017-05-01T08:29:00Z</time>
      </trkpt>
      <trkpt lat="49.24876" lon="1.1385">
        <ele>55.6</ele>
        <time>2017-05-01T08:29:02Z</time>
      </trkpt>
      <trkpt lat="49.24887" lon="1.13858">
        <ele>55.4</ele>
        <time>2017-05-01T08:29:05Z</time>
      </trkpt>
      <trkpt lat="49.24896" lon="1.13863">
        <ele>55.3</ele>
        <time>2017-05-01T08:29:07Z</time>
      </trkpt>
      <trkpt lat="49.24907" lon="1.13868">
        <ele>55.1</ele>
        <time>2017-05-01T08:29:09Z</time>
      </trkpt>
      <trkpt lat="49.24916" lon="1.13874">
        <ele>54.9</ele>
        <time>2017-05-01T08:29:11Z</time>
      </trkpt>
      <trkpt lat="49.24926" lon="1.1388">
        <ele>54.6</ele>
        <time>2017-05-01T08:29:13Z</time>
      </trkpt>
      <trkpt lat="49.24938" lon="1.13886">
        <ele>54.3</ele>
        <time>2017-05-01T08:29:15Z</time>
      </trkpt>
      <trkpt lat="49.24953" lon="1.13894">
        <ele>53.9</ele>
        <time>2017-05-01T08:29:17Z</time>
      </trkpt>
      <trkpt lat="49.24969" lon="1.13902">
        <ele>53.5</ele>
        <time>2017-05-01T08:29:19Z</time>
      </trkpt>
      <trkpt lat="49.24984" lon="1.1391">
        <ele>53</ele>
        <time>2017-05-01T08:29:21Z</time>
      </trkpt>
      <trkpt lat="49.24998" lon="1.13917">
        <ele>52.4</ele>
        <time>2017-05-01T08:29:23Z</time>
      </trkpt>
      <trkpt lat="49.25013" lon="1.13926">
        <ele>51.9</ele>
        <time>2017-05-01T08:29:25Z</time>
      </trkpt>
      <trkpt lat="49.25022" lon="1.13941">
        <ele>51.5</ele>
        <time>2017-05-01T08:29:27Z</time>
      </trkpt>
      <trkpt lat="49.25024" lon="1.13958">
        <ele>51</ele>
        <time>2017-05-01T08:29:29Z</time>
      </trkpt>
      <trkpt lat="49.25021" lon="1.13975">
        <ele>50.8</ele>
        <time>2017-05-01T08:29:32Z</time>
      </trkpt>
      <trkpt lat="49.25016" lon="1.1399">
        <ele>50.8</ele>
        <time>2017-05-01T08:29:35Z</time>
      </trkpt>
      <trkpt lat="49.25013" lon="1.14004">
        <ele>51</ele>
        <time>2017-05-01T08:29:38Z</time>
      </trkpt>
      <trkpt lat="49.25011" lon="1.14019">
        <ele>51.4</ele>
        <time>2017-05-01T08:29:41Z</time>
      </trkpt>
      <trkpt lat="49.25008" lon="1.14035">
        <ele>52</ele>
        <time>2017-05-01T08:29:45Z</time>
      </trkpt>
      <trkpt lat="49.25007" lon="1.14051">
        <ele>52.9</ele>
        <time>2017-05-01T08:29:49Z</time>
      </trkpt>
      <trkpt lat="49.25006" lon="1.14064">
        <ele>53.6</ele>
        <time>2017-05-01T08:29:52Z</time>
      </trkpt>
      <trkpt lat="49.25004" lon="1.1408">
        <ele>54.7</ele>
        <time>2017-05-01T08:29:56Z</time>
      </trkpt>
      <trkpt lat="49.25003" lon="1.14094">
        <ele>55.7</ele>
        <time>2017-05-01T08:30:00Z</time>
      </trkpt>
      <trkpt lat="49.25001" lon="1.1411">
        <ele>56.7</ele>
        <time>2017-05-01T08:30:04Z</time>
      </trkpt>
      <trkpt lat="49.25001" lon="1.14125">
        <ele>57.9</ele>
        <time>2017-05-01T08:30:08Z</time>
      </trkpt>
      <trkpt lat="49.25" lon="1.1414">
        <ele>59.1</ele>
        <time>2017-05-01T08:30:12Z</time>
      </trkpt>
      <trkpt lat="49.24998" lon="1.14155">
        <ele>60.2</ele>
        <time>2017-05-01T08:30:16Z</time>
      </trkpt>
      <trkpt lat="49.24997" lon="1.1417">
        <ele>61.3</ele>
        <time>2017-05-01T08:30:20Z</time>
      </trkpt>
      <trkpt lat="49.24994" lon="1.14188">
        <ele>62.4</ele>
        <time>2017-05-01T08:30:24Z</time>
      </trkpt>
      <trkpt lat="49.24995" lon="1.14205">
        <ele>63.5</ele>
        <time>2017-05-01T08:30:28Z</time>
      </trkpt>
      <trkpt lat="49.25005" lon="1.14211">
        <ele>64.7</ele>
        <time>2017-05-01T08:30:32Z</time>
      </trkpt>
      <trkpt lat="49.25013" lon="1.14203">
        <ele>65.9</ele>
        <time>2017-05-01T08:30:36Z</time>
      </trkpt>
      <trkpt lat="49.25018" lon="1.14191">
        <ele>67.1</ele>
        <time>2017-05-01T08:30:40Z</time>
      </trkpt>
      <trkpt lat="49.25022" lon="1.14178">
        <ele>68.2</ele>
        <time>2017-05-01T08:30:44Z</time>
      </trkpt>
      <trkpt lat="49.25027" lon="1.14167">
        <ele>69.4</ele>
        <time>2017-05-01T08:30:48Z</time>
      </trkpt>
      <trkpt lat="49.25033" lon="1.14156">
        <ele>70.4</ele>
        <time>2017-05-01T08:30:52Z</time>
      </trkpt>
      <trkpt lat="49.2504" lon="1.14145">
        <ele>71.3</ele>
        <time>2017-05-01T08:30:56Z</time>
      </trkpt>
      <trkpt lat="49.25047" lon="1.14135">
        <ele>72.4</ele>
        <time>2017-05-01T08:31:00Z</time>
      </trkpt>
      <trkpt lat="49.25054" lon="1.14126">
        <ele>73.5</ele>
        <time>2017-05-01T08:31:04Z</time>
      </trkpt>
      <trkpt lat="49.25061" lon="1.14115">
        <ele>74.6</ele>
        <time>2017-05-01T08:31:08Z</time>
      </trkpt>
      <trkpt lat="49.25068" lon="1.14105">
        <ele>75.6</ele>
        <time>2017-05-01T08:31:12Z</time>
      </trkpt>
      <trkpt lat="49.25077" lon="1.14096">
        <ele>76.7</ele>
        <time>2017-05-01T08:31:16Z</time>
      </trkpt>
      <trkpt lat="49.25085" lon="1.14086">
        <ele>77.8</ele>
        <time>2017-05-01T08:31:20Z</time>
      </trkpt>
      <trkpt lat="49.25093" lon="1.14076">
        <ele>79.1</ele>
        <time>2017-05-01T08:31:24Z</time>
      </trkpt>
      <trkpt lat="49.25102" lon="1.14065">
        <ele>80.5</ele>
        <time>2017-05-01T08:31:28Z</time>
      </trkpt>
      <trkpt lat="49.25111" lon="1.14055">
        <ele>81.8</ele>
        <time>2017-05-01T08:31:32Z</time>
      </trkpt>
      <trkpt lat="49.25119" lon="1.14046">
        <ele>83.1</ele>
        <time>2017-05-01T08:31:36Z</time>
      </trkpt>
      <trkpt lat="49.25127" lon="1.14037">
        <ele>84.3</ele>
        <time>2017-05-01T08:31:40Z</time>
      </trkpt>
      <trkpt lat="49.25135" lon="1.14028">
        <ele>85.5</ele>
        <time>2017-05-01T08:31:44Z</time>
      </trkpt>
      <trkpt lat="49.25143" lon="1.14021">
        <ele>86.5</ele>
        <time>2017-05-01T08:31:48Z</time>
      </trkpt>
      <trkpt lat="49.25152" lon="1.14014">
        <ele>87.6</ele>
        <time>2017-05-01T08:31:52Z</time>
      </trkpt>
      <trkpt lat="49.25161" lon="1.1401">
        <ele>88.9</ele>
        <time>2017-05-01T08:31:56Z</time>
      </trkpt>
      <trkpt lat="49.2517" lon="1.14007">
        <ele>90.1</ele>
        <time>2017-05-01T08:32:00Z</time>
      </trkpt>
      <trkpt lat="49.25181" lon="1.14009">
        <ele>91.8</ele>
        <time>2017-05-01T08:32:05Z</time>
      </trkpt>
      <trkpt lat="49.25192" lon="1.14014">
        <ele>93</ele>
        <time>2017-05-01T08:32:09Z</time>
      </trkpt>
      <trkpt lat="49.25201" lon="1.14018">
        <ele>94.3</ele>
        <time>2017-05-01T08:32:13Z</time>
      </trkpt>
      <trkpt lat="49.2521" lon="1.14023">
        <ele>95.4</ele>
        <time>2017-05-01T08:32:17Z</time>
      </trkpt>
      <trkpt lat="49.2522" lon="1.14028">
        <ele>96.5</ele>
        <time>2017-05-01T08:32:21Z</time>
      </trkpt>
      <trkpt lat="49.2523" lon="1.14032">
        <ele>97.5</ele>
        <time>2017-05-01T08:32:25Z</time>
      </trkpt>
      <trkpt lat="49.25239" lon="1.14038">
        <ele>98.4</ele>
        <time>2017-05-01T08:32:29Z</time>
      </trkpt>
      <trkpt lat="49.25248" lon="1.14042">
        <ele>99.4</ele>
        <time>2017-05-01T08:32:34Z</time>
      </trkpt>
      <trkpt lat="49.25257" lon="1.14045">
        <ele>100.2</ele>
        <time>2017-05-01T08:32:40Z</time>
      </trkpt>
      <trkpt lat="49.25266" lon="1.14045">
        <ele>103</ele>
        <time>2017-05-01T08:33:13Z</time>
      </trkpt>
      <trkpt lat="49.25275" lon="1.14047">
        <ele>102</ele>
        <time>2017-05-01T08:34:15Z</time>
      </trkpt>
      <trkpt lat="49.25285" lon="1.14053">
        <ele>102</ele>
        <time>2017-05-01T08:35:24Z</time>
      </trkpt>
      <trkpt lat="49.25294" lon="1.14058">
        <ele>102</ele>
        <time>2017-05-01T08:35:28Z</time>
      </trkpt>
      <trkpt lat="49.25303" lon="1.14062">
        <ele>102</ele>
        <time>2017-05-01T08:35:31Z</time>
      </trkpt>
      <trkpt lat="49.25315" lon="1.14068">
        <ele>102</ele>
        <time>2017-05-01T08:35:34Z</time>
      </trkpt>
      <trkpt lat="49.25327" lon="1.14074">
        <ele>102</ele>
        <time>2017-05-01T08:35:37Z</time>
      </trkpt>
      <trkpt lat="49.25336" lon="1.14079">
        <ele>102.1</ele>
        <time>2017-05-01T08:35:39Z</time>
      </trkpt>
      <trkpt lat="49.25349" lon="1.14077">
        <ele>102.1</ele>
        <time>2017-05-01T08:35:42Z</time>
      </trkpt>
      <trkpt lat="49.25355" lon="1.14067">
        <ele>102.1</ele>
        <time>2017-05-01T08:35:44Z</time>
      </trkpt>
      <trkpt lat="49.25359" lon="1.14053">
        <ele>102.1</ele>
        <time>2017-05-01T08:35:46Z</time>
      </trkpt>
      <trkpt lat="49.25362" lon="1.14039">
        <ele>102.2</ele>
        <time>2017-05-01T08:35:48Z</time>
      </trkpt>
      <trkpt lat="49.25365" lon="1.14026">
        <ele>102.3</ele>
        <time>2017-05-01T08:35:50Z</time>
      </trkpt>
      <trkpt lat="49.25371" lon="1.14012">
        <ele>102.4</ele>
        <time>2017-05-01T08:35:52Z</time>
      </trkpt>
      <trkpt lat="49.25376" lon="1.13998">
        <ele>102.5</ele>
        <time>2017-05-01T08:35:54Z</time>
      </trkpt>
      <trkpt lat="49.2538" lon="1.13984">
        <ele>102.6</ele>
        <time>2017-05-01T08:35:56Z</time>
      </trkpt>
      <trkpt lat="49.25384" lon="1.13965">
        <ele>102.7</ele>
        <time>2017-05-01T08:35:59Z</time>
      </trkpt>
      <trkpt lat="49.25388" lon="1.13952">
        <ele>102.7</ele>
        <time>2017-05-01T08:36:01Z</time>
      </trkpt>
      <trkpt lat="49.25392" lon="1.13935">
        <ele>102.8</ele>
        <time>2017-05-01T08:36:04Z</time>
      </trkpt>
      <trkpt lat="49.25397" lon="1.1392">
        <ele>102.9</ele>
        <time>2017-05-01T08:36:07Z</time>
      </trkpt>
      <trkpt lat="49.25401" lon="1.13905">
        <ele>102.9</ele>
        <time>2017-05-01T08:36:09Z</time>
      </trkpt>
      <trkpt lat="49.25404" lon="1.13891">
        <ele>103</ele>
        <time>2017-05-01T08:36:11Z</time>
      </trkpt>
      <trkpt lat="49.25408" lon="1.13877">
        <ele>103</ele>
        <time>2017-05-01T08:36:13Z</time>
      </trkpt>
      <trkpt lat="49.25412" lon="1.13862">
        <ele>103</ele>
        <time>2017-05-01T08:36:15Z</time>
      </trkpt>
      <trkpt lat="49.25416" lon="1.13847">
        <ele>103</ele>
        <time>2017-05-01T08:36:17Z</time>
      </trkpt>
      <trkpt lat="49.25417" lon="1.13831">
        <ele>103</ele>
        <time>2017-05-01T08:36:19Z</time>
      </trkpt>
      <trkpt lat="49.25418" lon="1.13815">
        <ele>103.1</ele>
        <time>2017-05-01T08:36:21Z</time>
      </trkpt>
      <trkpt lat="49.25421" lon="1.13799">
        <ele>103.2</ele>
        <time>2017-05-01T08:36:23Z</time>
      </trkpt>
      <trkpt lat="49.25426" lon="1.13782">
        <ele>103.2</ele>
        <time>2017-05-01T08:36:25Z</time>
      </trkpt>
      <trkpt lat="49.25429" lon="1.13766">
        <ele>103.3</ele>
        <time>2017-05-01T08:36:27Z</time>
      </trkpt>
      <trkpt lat="49.25432" lon="1.13751">
        <ele>103.4</ele>
        <time>2017-05-01T08:36:29Z</time>
      </trkpt>
      <trkpt lat="49.25433" lon="1.13733">
        <ele>103.5</ele>
        <time>2017-05-01T08:36:31Z</time>
      </trkpt>
      <trkpt lat="49.25437" lon="1.13715">
        <ele>103.6</ele>
        <time>2017-05-01T08:36:33Z</time>
      </trkpt>
      <trkpt lat="49.2544" lon="1.13698">
        <ele>103.7</ele>
        <time>2017-05-01T08:36:35Z</time>
      </trkpt>
      <trkpt lat="49.25444" lon="1.1368">
        <ele>103.9</ele>
        <time>2017-05-01T08:36:37Z</time>
      </trkpt>
      <trkpt lat="49.25449" lon="1.13662">
        <ele>104</ele>
        <time>2017-05-01T08:36:39Z</time>
      </trkpt>
      <trkpt lat="49.25453" lon="1.13645">
        <ele>104</ele>
        <time>2017-05-01T08:36:41Z</time>
      </trkpt>
      <trkpt lat="49.25456" lon="1.13626">
        <ele>104.1</ele>
        <time>2017-05-01T08:36:43Z</time>
      </trkpt>
      <trkpt lat="49.25462" lon="1.1361">
        <ele>104.2</ele>
        <time>2017-05-01T08:36:45Z</time>
      </trkpt>
      <trkpt lat="49.25467" lon="1.13594">
        <ele>104.2</ele>
        <time>2017-05-01T08:36:47Z</time>
      </trkpt>
      <trkpt lat="49.25471" lon="1.13577">
        <ele>104.2</ele>
        <time>2017-05-01T08:36:49Z</time>
      </trkpt>
      <trkpt lat="49.25475" lon="1.13558">
        <ele>104.3</ele>
        <time>2017-05-01T08:36:51Z</time>
      </trkpt>
      <trkpt lat="49.25478" lon="1.1354">
        <ele>104.3</ele>
        <time>2017-05-01T08:36:53Z</time>
      </trkpt>
      <trkpt lat="49.25481" lon="1.13522">
        <ele>104.3</ele>
        <time>2017-05-01T08:36:55Z</time>
      </trkpt>
      <trkpt lat="49.25486" lon="1.13506">
        <ele>104.3</ele>
        <time>2017-05-01T08:36:57Z</time>
      </trkpt>
      <trkpt lat="49.2549" lon="1.13487">
        <ele>104.4</ele>
        <time>2017-05-01T08:36:59Z</time>
      </trkpt>
      <trkpt lat="49.2549" lon="1.13463">
        <ele>104</ele>
        <time>2017-05-01T08:37:01Z</time>
      </trkpt>
      <trkpt lat="49.25491" lon="1.1343">
        <ele>104.4</ele>
        <time>2017-05-01T08:37:04Z</time>
      </trkpt>
      <trkpt lat="49.25496" lon="1.13414">
        <ele>104.4</ele>
        <time>2017-05-01T08:37:06Z</time>
      </trkpt>
      <trkpt lat="49.255" lon="1.13396">
        <ele>104.4</ele>
        <time>2017-05-01T08:37:08Z</time>
      </trkpt>
      <trkpt lat="49.25503" lon="1.13375">
        <ele>104.5</ele>
        <time>2017-05-01T08:37:10Z</time>
      </trkpt>
      <trkpt lat="49.25507" lon="1.13359">
        <ele>104.5</ele>
        <time>2017-05-01T08:37:12Z</time>
      </trkpt>
      <trkpt lat="49.25512" lon="1.13343">
        <ele>104.5</ele>
        <time>2017-05-01T08:37:14Z</time>
      </trkpt>
      <trkpt lat="49.25516" lon="1.13325">
        <ele>104.6</ele>
        <time>2017-05-01T08:37:16Z</time>
      </trkpt>
      <trkpt lat="49.25521" lon="1.13309">
        <ele>104.6</ele>
        <time>2017-05-01T08:37:18Z</time>
      </trkpt>
      <trkpt lat="49.2553" lon="1.13297">
        <ele>104.7</ele>
        <time>2017-05-01T08:37:21Z</time>
      </trkpt>
      <trkpt lat="49.25542" lon="1.13302">
        <ele>104.9</ele>
        <time>2017-05-01T08:37:24Z</time>
      </trkpt>
      <trkpt lat="49.25552" lon="1.13307">
        <ele>105</ele>
        <time>2017-05-01T08:37:26Z</time>
      </trkpt>
      <trkpt lat="49.25562" lon="1.13312">
        <ele>105.1</ele>
        <time>2017-05-01T08:37:28Z</time>
      </trkpt>
      <trkpt lat="49.25572" lon="1.13317">
        <ele>105.1</ele>
        <time>2017-05-01T08:37:30Z</time>
      </trkpt>
      <trkpt lat="49.25582" lon="1.13321">
        <ele>105.3</ele>
        <time>2017-05-01T08:37:32Z</time>
      </trkpt>
      <trkpt lat="49.25591" lon="1.13325">
        <ele>105.6</ele>
        <time>2017-05-01T08:37:34Z</time>
      </trkpt>
      <trkpt lat="49.25603" lon="1.13332">
        <ele>105.8</ele>
        <time>2017-05-01T08:37:37Z</time>
      </trkpt>
      <trkpt lat="49.25613" lon="1.13337">
        <ele>106</ele>
        <time>2017-05-01T08:37:39Z</time>
      </trkpt>
      <trkpt lat="49.25623" lon="1.13342">
        <ele>106.2</ele>
        <time>2017-05-01T08:37:41Z</time>
      </trkpt>
      <trkpt lat="49.25634" lon="1.13347">
        <ele>106.3</ele>
        <time>2017-05-01T08:37:43Z</time>
      </trkpt>
      <trkpt lat="49.25645" lon="1.13352">
        <ele>106.5</ele>
        <time>2017-05-01T08:37:45Z</time>
      </trkpt>
      <trkpt lat="49.25658" lon="1.13357">
        <ele>106.7</ele>
        <time>2017-05-01T08:37:48Z</time>
      </trkpt>
      <trkpt lat="49.2567" lon="1.13364">
        <ele>106.8</ele>
        <time>2017-05-01T08:37:50Z</time>
      </trkpt>
      <trkpt lat="49.25682" lon="1.13369">
        <ele>106.9</ele>
        <time>2017-05-01T08:37:52Z</time>
      </trkpt>
      <trkpt lat="49.25692" lon="1.13376">
        <ele>107</ele>
        <time>2017-05-01T08:37:54Z</time>
      </trkpt>
      <trkpt lat="49.25692" lon="1.13393">
        <ele>107.1</ele>
        <time>2017-05-01T08:37:58Z</time>
      </trkpt>
      <trkpt lat="49.25687" lon="1.13413">
        <ele>107.3</ele>
        <time>2017-05-01T08:38:02Z</time>
      </trkpt>
      <trkpt lat="49.25687" lon="1.13428">
        <ele>107.4</ele>
        <time>2017-05-01T08:38:04Z</time>
      </trkpt>
      <trkpt lat="49.25688" lon="1.13442">
        <ele>107.4</ele>
        <time>2017-05-01T08:38:06Z</time>
      </trkpt>
      <trkpt lat="49.25686" lon="1.13457">
        <ele>107.4</ele>
        <time>2017-05-01T08:38:08Z</time>
      </trkpt>
      <trkpt lat="49.25681" lon="1.13471">
        <ele>107.4</ele>
        <time>2017-05-01T08:38:10Z</time>
      </trkpt>
      <trkpt lat="49.2568" lon="1.13487">
        <ele>107.4</ele>
        <time>2017-05-01T08:38:13Z</time>
      </trkpt>
      <trkpt lat="49.25676" lon="1.135">
        <ele>107.4</ele>
        <time>2017-05-01T08:38:17Z</time>
      </trkpt>
      <trkpt lat="49.25674" lon="1.1352">
        <ele>107.3</ele>
        <time>2017-05-01T08:38:21Z</time>
      </trkpt>
      <trkpt lat="49.25671" lon="1.13543">
        <ele>107</ele>
        <time>2017-05-01T08:38:24Z</time>
      </trkpt>
      <trkpt lat="49.25663" lon="1.1356">
        <ele>106.7</ele>
        <time>2017-05-01T08:38:27Z</time>
      </trkpt>
      <trkpt lat="49.2566" lon="1.13573">
        <ele>106.4</ele>
        <time>2017-05-01T08:38:29Z</time>
      </trkpt>
      <trkpt lat="49.25661" lon="1.1359">
        <ele>106</ele>
        <time>2017-05-01T08:38:32Z</time>
      </trkpt>
      <trkpt lat="49.25657" lon="1.1361">
        <ele>105.7</ele>
        <time>2017-05-01T08:38:35Z</time>
      </trkpt>
      <trkpt lat="49.25656" lon="1.13627">
        <ele>105.3</ele>
        <time>2017-05-01T08:38:38Z</time>
      </trkpt>
      <trkpt lat="49.25652" lon="1.13642">
        <ele>105.1</ele>
        <time>2017-05-01T08:38:40Z</time>
      </trkpt>
      <trkpt lat="49.25652" lon="1.13658">
        <ele>104.9</ele>
        <time>2017-05-01T08:38:42Z</time>
      </trkpt>
      <trkpt lat="49.25652" lon="1.1368">
        <ele>104.6</ele>
        <time>2017-05-01T08:38:46Z</time>
      </trkpt>
      <trkpt lat="49.2565" lon="1.13699">
        <ele>104.4</ele>
        <time>2017-05-01T08:38:49Z</time>
      </trkpt>
      <trkpt lat="49.25647" lon="1.13717">
        <ele>104.2</ele>
        <time>2017-05-01T08:38:52Z</time>
      </trkpt>
      <trkpt lat="49.25646" lon="1.13735">
        <ele>104</ele>
        <time>2017-05-01T08:38:55Z</time>
      </trkpt>
      <trkpt lat="49.25642" lon="1.13753">
        <ele>103.7</ele>
        <time>2017-05-01T08:38:57Z</time>
      </trkpt>
      <trkpt lat="49.25638" lon="1.13766">
        <ele>103.3</ele>
        <time>2017-05-01T08:38:59Z</time>
      </trkpt>
      <trkpt lat="49.25634" lon="1.13786">
        <ele>102.9</ele>
        <time>2017-05-01T08:39:02Z</time>
      </trkpt>
      <trkpt lat="49.25632" lon="1.13801">
        <ele>102.5</ele>
        <time>2017-05-01T08:39:05Z</time>
      </trkpt>
      <trkpt lat="49.25632" lon="1.13817">
        <ele>102.2</ele>
        <time>2017-05-01T08:39:08Z</time>
      </trkpt>
      <trkpt lat="49.2563" lon="1.1383">
        <ele>102.1</ele>
        <time>2017-05-01T08:39:10Z</time>
      </trkpt>
      <trkpt lat="49.25625" lon="1.13846">
        <ele>101.9</ele>
        <time>2017-05-01T08:39:12Z</time>
      </trkpt>
      <trkpt lat="49.2562" lon="1.13865">
        <ele>101.7</ele>
        <time>2017-05-01T08:39:14Z</time>
      </trkpt>
      <trkpt lat="49.25617" lon="1.13879">
        <ele>101.6</ele>
        <time>2017-05-01T08:39:16Z</time>
      </trkpt>
      <trkpt lat="49.25615" lon="1.13896">
        <ele>101.4</ele>
        <time>2017-05-01T08:39:19Z</time>
      </trkpt>
      <trkpt lat="49.25611" lon="1.1391">
        <ele>101.1</ele>
        <time>2017-05-01T08:39:22Z</time>
      </trkpt>
      <trkpt lat="49.25607" lon="1.13929">
        <ele>100.8</ele>
        <time>2017-05-01T08:39:26Z</time>
      </trkpt>
      <trkpt lat="49.25605" lon="1.13946">
        <ele>100.6</ele>
        <time>2017-05-01T08:39:29Z</time>
      </trkpt>
      <trkpt lat="49.25604" lon="1.13966">
        <ele>100.4</ele>
        <time>2017-05-01T08:39:32Z</time>
      </trkpt>
      <trkpt lat="49.25601" lon="1.13982">
        <ele>100.2</ele>
        <time>2017-05-01T08:39:34Z</time>
      </trkpt>
      <trkpt lat="49.256" lon="1.13996">
        <ele>99.9</ele>
        <time>2017-05-01T08:39:36Z</time>
      </trkpt>
      <trkpt lat="49.25598" lon="1.14012">
        <ele>99.7</ele>
        <time>2017-05-01T08:39:38Z</time>
      </trkpt>
      <trkpt lat="49.25594" lon="1.14027">
        <ele>99.6</ele>
        <time>2017-05-01T08:39:40Z</time>
      </trkpt>
      <trkpt lat="49.25595" lon="1.14044">
        <ele>99.4</ele>
        <time>2017-05-01T08:39:43Z</time>
      </trkpt>
      <trkpt lat="49.2559" lon="1.14062">
        <ele>99.3</ele>
        <time>2017-05-01T08:39:45Z</time>
      </trkpt>
      <trkpt lat="49.25588" lon="1.14077">
        <ele>99.2</ele>
        <time>2017-05-01T08:39:47Z</time>
      </trkpt>
      <trkpt lat="49.25589" lon="1.14091">
        <ele>99.1</ele>
        <time>2017-05-01T08:39:49Z</time>
      </trkpt>
      <trkpt lat="49.25588" lon="1.14107">
        <ele>98.9</ele>
        <time>2017-05-01T08:39:51Z</time>
      </trkpt>
      <trkpt lat="49.25587" lon="1.14122">
        <ele>98.8</ele>
        <time>2017-05-01T08:39:53Z</time>
      </trkpt>
      <trkpt lat="49.25585" lon="1.14139">
        <ele>98.7</ele>
        <time>2017-05-01T08:39:55Z</time>
      </trkpt>
      <trkpt lat="49.25586" lon="1.14158">
        <ele>98.4</ele>
        <time>2017-05-01T08:39:58Z</time>
      </trkpt>
      <trkpt lat="49.25592" lon="1.14168">
        <ele>98.3</ele>
        <time>2017-05-01T08:40:01Z</time>
      </trkpt>
      <trkpt lat="49.25601" lon="1.14176">
        <ele>98.5</ele>
        <time>2017-05-01T08:40:04Z</time>
      </trkpt>
      <trkpt lat="49.25612" lon="1.14185">
        <ele>98.3</ele>
        <time>2017-05-01T08:40:07Z</time>
      </trkpt>
      <trkpt lat="49.25624" lon="1.14193">
        <ele>98.2</ele>
        <time>2017-05-01T08:40:10Z</time>
      </trkpt>
      <trkpt lat="49.25633" lon="1.14198">
        <ele>98.1</ele>
        <time>2017-05-01T08:40:12Z</time>
      </trkpt>
      <trkpt lat="49.25645" lon="1.14203">
        <ele>98</ele>
        <time>2017-05-01T08:40:15Z</time>
      </trkpt>
      <trkpt lat="49.25655" lon="1.14211">
        <ele>97.9</ele>
        <time>2017-05-01T08:40:20Z</time>
      </trkpt>
      <trkpt lat="49.25665" lon="1.14216">
        <ele>98.3</ele>
        <time>2017-05-01T08:40:24Z</time>
      </trkpt>
      <trkpt lat="49.25675" lon="1.14223">
        <ele>98.7</ele>
        <time>2017-05-01T08:40:26Z</time>
      </trkpt>
      <trkpt lat="49.25684" lon="1.14229">
        <ele>98.9</ele>
        <time>2017-05-01T08:40:28Z</time>
      </trkpt>
      <trkpt lat="49.25695" lon="1.14233">
        <ele>99.1</ele>
        <time>2017-05-01T08:40:31Z</time>
      </trkpt>
      <trkpt lat="49.25705" lon="1.1424">
        <ele>99.2</ele>
        <time>2017-05-01T08:40:33Z</time>
      </trkpt>
      <trkpt lat="49.25715" lon="1.14245">
        <ele>99.3</ele>
        <time>2017-05-01T08:40:35Z</time>
      </trkpt>
      <trkpt lat="49.25725" lon="1.1425">
        <ele>99.4</ele>
        <time>2017-05-01T08:40:37Z</time>
      </trkpt>
      <trkpt lat="49.25738" lon="1.14257">
        <ele>99.5</ele>
        <time>2017-05-01T08:40:40Z</time>
      </trkpt>
      <trkpt lat="49.25746" lon="1.1426">
        <ele>99.6</ele>
        <time>2017-05-01T08:40:42Z</time>
      </trkpt>
      <trkpt lat="49.25758" lon="1.14265">
        <ele>99.8</ele>
        <time>2017-05-01T08:40:44Z</time>
      </trkpt>
      <trkpt lat="49.25769" lon="1.14271">
        <ele>99.9</ele>
        <time>2017-05-01T08:40:46Z</time>
      </trkpt>
      <trkpt lat="49.25781" lon="1.14276">
        <ele>100.1</ele>
        <time>2017-05-01T08:40:48Z</time>
      </trkpt>
      <trkpt lat="49.25792" lon="1.14281">
        <ele>100.4</ele>
        <time>2017-05-01T08:40:50Z</time>
      </trkpt>
      <trkpt lat="49.25801" lon="1.14285">
        <ele>100.6</ele>
        <time>2017-05-01T08:40:52Z</time>
      </trkpt>
      <trkpt lat="49.25812" lon="1.14293">
        <ele>100.9</ele>
        <time>2017-05-01T08:40:55Z</time>
      </trkpt>
      <trkpt lat="49.25821" lon="1.14297">
        <ele>101.1</ele>
        <time>2017-05-01T08:40:57Z</time>
      </trkpt>
      <trkpt lat="49.25833" lon="1.143">
        <ele>101.3</ele>
        <time>2017-05-01T08:40:59Z</time>
      </trkpt>
      <trkpt lat="49.25845" lon="1.14307">
        <ele>101.5</ele>
        <time>2017-05-01T08:41:01Z</time>
      </trkpt>
      <trkpt lat="49.25857" lon="1.14313">
        <ele>101.7</ele>
        <time>2017-05-01T08:41:03Z</time>
      </trkpt>
      <trkpt lat="49.25868" lon="1.14318">
        <ele>102</ele>
        <time>2017-05-01T08:41:05Z</time>
      </trkpt>
      <trkpt lat="49.25879" lon="1.14323">
        <ele>102.3</ele>
        <time>2017-05-01T08:41:07Z</time>
      </trkpt>
      <trkpt lat="49.2589" lon="1.14328">
        <ele>102.5</ele>
        <time>2017-05-01T08:41:09Z</time>
      </trkpt>
      <trkpt lat="49.25899" lon="1.14333">
        <ele>102.7</ele>
        <time>2017-05-01T08:41:11Z</time>
      </trkpt>
      <trkpt lat="49.25908" lon="1.14339">
        <ele>102.9</ele>
        <time>2017-05-01T08:41:13Z</time>
      </trkpt>
      <trkpt lat="49.2592" lon="1.14343">
        <ele>103.1</ele>
        <time>2017-05-01T08:41:15Z</time>
      </trkpt>
      <trkpt lat="49.25931" lon="1.14347">
        <ele>103.3</ele>
        <time>2017-05-01T08:41:17Z</time>
      </trkpt>
      <trkpt lat="49.2594" lon="1.14351">
        <ele>103.4</ele>
        <time>2017-05-01T08:41:19Z</time>
      </trkpt>
      <trkpt lat="49.25952" lon="1.14357">
        <ele>103.6</ele>
        <time>2017-05-01T08:41:22Z</time>
      </trkpt>
      <trkpt lat="49.25962" lon="1.14361">
        <ele>103.8</ele>
        <time>2017-05-01T08:41:24Z</time>
      </trkpt>
      <trkpt lat="49.25974" lon="1.14367">
        <ele>103.9</ele>
        <time>2017-05-01T08:41:26Z</time>
      </trkpt>
      <trkpt lat="49.25986" lon="1.14372">
        <ele>104</ele>
        <time>2017-05-01T08:41:28Z</time>
      </trkpt>
      <trkpt lat="49.25999" lon="1.14377">
        <ele>104.1</ele>
        <time>2017-05-01T08:41:30Z</time>
      </trkpt>
      <trkpt lat="49.2601" lon="1.14383">
        <ele>104.2</ele>
        <time>2017-05-01T08:41:32Z</time>
      </trkpt>
      <trkpt lat="49.26022" lon="1.14389">
        <ele>104.3</ele>
        <time>2017-05-01T08:41:34Z</time>
      </trkpt>
      <trkpt lat="49.26034" lon="1.14394">
        <ele>104.4</ele>
        <time>2017-05-01T08:41:36Z</time>
      </trkpt>
      <trkpt lat="49.26048" lon="1.14399">
        <ele>104.4</ele>
        <time>2017-05-01T08:41:38Z</time>
      </trkpt>
      <trkpt lat="49.26062" lon="1.14406">
        <ele>104.3</ele>
        <time>2017-05-01T08:41:40Z</time>
      </trkpt>
      <trkpt lat="49.26074" lon="1.14409">
        <ele>104.2</ele>
        <time>2017-05-01T08:41:42Z</time>
      </trkpt>
      <trkpt lat="49.26087" lon="1.14409">
        <ele>104.2</ele>
        <time>2017-05-01T08:41:44Z</time>
      </trkpt>
      <trkpt lat="49.261" lon="1.14403">
        <ele>104.1</ele>
        <time>2017-05-01T08:41:46Z</time>
      </trkpt>
      <trkpt lat="49.26111" lon="1.14395">
        <ele>104</ele>
        <time>2017-05-01T08:41:48Z</time>
      </trkpt>
      <trkpt lat="49.26122" lon="1.14385">
        <ele>104</ele>
        <time>2017-05-01T08:41:50Z</time>
      </trkpt>
      <trkpt lat="49.26132" lon="1.14374">
        <ele>103.8</ele>
        <time>2017-05-01T08:41:52Z</time>
      </trkpt>
      <trkpt lat="49.26142" lon="1.14362">
        <ele>103.7</ele>
        <time>2017-05-01T08:41:54Z</time>
      </trkpt>
      <trkpt lat="49.26154" lon="1.14355">
        <ele>103.5</ele>
        <time>2017-05-01T08:41:56Z</time>
      </trkpt>
      <trkpt lat="49.26166" lon="1.14353">
        <ele>103.4</ele>
        <time>2017-05-01T08:41:58Z</time>
      </trkpt>
      <trkpt lat="49.26179" lon="1.14356">
        <ele>103.3</ele>
        <time>2017-05-01T08:42:00Z</time>
      </trkpt>
      <trkpt lat="49.26192" lon="1.14365">
        <ele>103.1</ele>
        <time>2017-05-01T08:42:02Z</time>
      </trkpt>
      <trkpt lat="49.26202" lon="1.14377">
        <ele>102.9</ele>
        <time>2017-05-01T08:42:04Z</time>
      </trkpt>
      <trkpt lat="49.26211" lon="1.1439">
        <ele>102.8</ele>
        <time>2017-05-01T08:42:06Z</time>
      </trkpt>
      <trkpt lat="49.2622" lon="1.14404">
        <ele>102.7</ele>
        <time>2017-05-01T08:42:08Z</time>
      </trkpt>
      <trkpt lat="49.26229" lon="1.14418">
        <ele>102.6</ele>
        <time>2017-05-01T08:42:10Z</time>
      </trkpt>
      <trkpt lat="49.26237" lon="1.14431">
        <ele>102.5</ele>
        <time>2017-05-01T08:42:12Z</time>
      </trkpt>
      <trkpt lat="49.26246" lon="1.14445">
        <ele>102.4</ele>
        <time>2017-05-01T08:42:14Z</time>
      </trkpt>
      <trkpt lat="49.26252" lon="1.14456">
        <ele>102.4</ele>
        <time>2017-05-01T08:42:16Z</time>
      </trkpt>
      <trkpt lat="49.2626" lon="1.14471">
        <ele>102.3</ele>
        <time>2017-05-01T08:42:18Z</time>
      </trkpt>
      <trkpt lat="49.26263" lon="1.14483">
        <ele>102.3</ele>
        <time>2017-05-01T08:42:20Z</time>
      </trkpt>
      <trkpt lat="49.26256" lon="1.14493">
        <ele>102.7</ele>
        <time>2017-05-01T08:42:28Z</time>
      </trkpt>
      <trkpt lat="49.26245" lon="1.14502">
        <ele>103</ele>
        <time>2017-05-01T08:42:32Z</time>
      </trkpt>
      <trkpt lat="49.26236" lon="1.14518">
        <ele>103.2</ele>
        <time>2017-05-01T08:42:35Z</time>
      </trkpt>
      <trkpt lat="49.2623" lon="1.14528">
        <ele>103.2</ele>
        <time>2017-05-01T08:42:37Z</time>
      </trkpt>
      <trkpt lat="49.26224" lon="1.14539">
        <ele>103.5</ele>
        <time>2017-05-01T08:42:39Z</time>
      </trkpt>
      <trkpt lat="49.26216" lon="1.14552">
        <ele>103.5</ele>
        <time>2017-05-01T08:42:41Z</time>
      </trkpt>
      <trkpt lat="49.26209" lon="1.14565">
        <ele>103.4</ele>
        <time>2017-05-01T08:42:43Z</time>
      </trkpt>
      <trkpt lat="49.262" lon="1.14582">
        <ele>103.3</ele>
        <time>2017-05-01T08:42:45Z</time>
      </trkpt>
      <trkpt lat="49.26192" lon="1.14598">
        <ele>103.1</ele>
        <time>2017-05-01T08:42:47Z</time>
      </trkpt>
      <trkpt lat="49.26186" lon="1.14618">
        <ele>103</ele>
        <time>2017-05-01T08:42:49Z</time>
      </trkpt>
      <trkpt lat="49.26182" lon="1.14643">
        <ele>102.4</ele>
        <time>2017-05-01T08:42:51Z</time>
      </trkpt>
      <trkpt lat="49.26182" lon="1.14667">
        <ele>101.9</ele>
        <time>2017-05-01T08:42:53Z</time>
      </trkpt>
      <trkpt lat="49.26187" lon="1.14691">
        <ele>101.4</ele>
        <time>2017-05-01T08:42:55Z</time>
      </trkpt>
      <trkpt lat="49.26194" lon="1.14714">
        <ele>100.8</ele>
        <time>2017-05-01T08:42:57Z</time>
      </trkpt>
      <trkpt lat="49.262" lon="1.14736">
        <ele>100.2</ele>
        <time>2017-05-01T08:42:59Z</time>
      </trkpt>
      <trkpt lat="49.26206" lon="1.14757">
        <ele>99.6</ele>
        <time>2017-05-01T08:43:01Z</time>
      </trkpt>
      <trkpt lat="49.26213" lon="1.14775">
        <ele>98.9</ele>
        <time>2017-05-01T08:43:03Z</time>
      </trkpt>
      <trkpt lat="49.26215" lon="1.14797">
        <ele>98.1</ele>
        <time>2017-05-01T08:43:05Z</time>
      </trkpt>
      <trkpt lat="49.2622" lon="1.14821">
        <ele>97.4</ele>
        <time>2017-05-01T08:43:07Z</time>
      </trkpt>
      <trkpt lat="49.26223" lon="1.14844">
        <ele>96.4</ele>
        <time>2017-05-01T08:43:09Z</time>
      </trkpt>
      <trkpt lat="49.26223" lon="1.1487">
        <ele>95.2</ele>
        <time>2017-05-01T08:43:11Z</time>
      </trkpt>
      <trkpt lat="49.26226" lon="1.14893">
        <ele>94.2</ele>
        <time>2017-05-01T08:43:13Z</time>
      </trkpt>
      <trkpt lat="49.2623" lon="1.14914">
        <ele>93.2</ele>
        <time>2017-05-01T08:43:15Z</time>
      </trkpt>
      <trkpt lat="49.26229" lon="1.14933">
        <ele>91.8</ele>
        <time>2017-05-01T08:43:18Z</time>
      </trkpt>
      <trkpt lat="49.26225" lon="1.14952">
        <ele>90.6</ele>
        <time>2017-05-01T08:43:21Z</time>
      </trkpt>
      <trkpt lat="49.26226" lon="1.14967">
        <ele>88</ele>
        <time>2017-05-01T08:43:30Z</time>
      </trkpt>
      <trkpt lat="49.26232" lon="1.14978">
        <ele>85.5</ele>
        <time>2017-05-01T08:43:52Z</time>
      </trkpt>
      <trkpt lat="49.26228" lon="1.14995">
        <ele>85.3</ele>
        <time>2017-05-01T08:43:56Z</time>
      </trkpt>
      <trkpt lat="49.26225" lon="1.15009">
        <ele>85.1</ele>
        <time>2017-05-01T08:43:58Z</time>
      </trkpt>
      <trkpt lat="49.26222" lon="1.15024">
        <ele>84.8</ele>
        <time>2017-05-01T08:44:00Z</time>
      </trkpt>
      <trkpt lat="49.26219" lon="1.15041">
        <ele>84.6</ele>
        <time>2017-05-01T08:44:02Z</time>
      </trkpt>
      <trkpt lat="49.26215" lon="1.15059">
        <ele>84.1</ele>
        <time>2017-05-01T08:44:04Z</time>
      </trkpt>
      <trkpt lat="49.26209" lon="1.15077">
        <ele>83.8</ele>
        <time>2017-05-01T08:44:06Z</time>
      </trkpt>
      <trkpt lat="49.26204" lon="1.15094">
        <ele>83.4</ele>
        <time>2017-05-01T08:44:08Z</time>
      </trkpt>
      <trkpt lat="49.26199" lon="1.15113">
        <ele>82.8</ele>
        <time>2017-05-01T08:44:10Z</time>
      </trkpt>
      <trkpt lat="49.26195" lon="1.15133">
        <ele>82.3</ele>
        <time>2017-05-01T08:44:12Z</time>
      </trkpt>
      <trkpt lat="49.2619" lon="1.15152">
        <ele>81.8</ele>
        <time>2017-05-01T08:44:14Z</time>
      </trkpt>
      <trkpt lat="49.26187" lon="1.15172">
        <ele>81.4</ele>
        <time>2017-05-01T08:44:16Z</time>
      </trkpt>
      <trkpt lat="49.26182" lon="1.1519">
        <ele>80.9</ele>
        <time>2017-05-01T08:44:18Z</time>
      </trkpt>
      <trkpt lat="49.26176" lon="1.15208">
        <ele>80.5</ele>
        <time>2017-05-01T08:44:20Z</time>
      </trkpt>
      <trkpt lat="49.26173" lon="1.15227">
        <ele>80.1</ele>
        <time>2017-05-01T08:44:22Z</time>
      </trkpt>
      <trkpt lat="49.26168" lon="1.15246">
        <ele>79.7</ele>
        <time>2017-05-01T08:44:24Z</time>
      </trkpt>
      <trkpt lat="49.26163" lon="1.15265">
        <ele>79.2</ele>
        <time>2017-05-01T08:44:26Z</time>
      </trkpt>
      <trkpt lat="49.26156" lon="1.15282">
        <ele>78.8</ele>
        <time>2017-05-01T08:44:28Z</time>
      </trkpt>
      <trkpt lat="49.26148" lon="1.15299">
        <ele>78.3</ele>
        <time>2017-05-01T08:44:30Z</time>
      </trkpt>
      <trkpt lat="49.26141" lon="1.15317">
        <ele>77.8</ele>
        <time>2017-05-01T08:44:32Z</time>
      </trkpt>
      <trkpt lat="49.26135" lon="1.15336">
        <ele>77.3</ele>
        <time>2017-05-01T08:44:34Z</time>
      </trkpt>
      <trkpt lat="49.2613" lon="1.15356">
        <ele>76.9</ele>
        <time>2017-05-01T08:44:36Z</time>
      </trkpt>
      <trkpt lat="49.26124" lon="1.15375">
        <ele>76.4</ele>
        <time>2017-05-01T08:44:38Z</time>
      </trkpt>
      <trkpt lat="49.26119" lon="1.15394">
        <ele>76</ele>
        <time>2017-05-01T08:44:40Z</time>
      </trkpt>
      <trkpt lat="49.26115" lon="1.15409">
        <ele>75.6</ele>
        <time>2017-05-01T08:44:42Z</time>
      </trkpt>
      <trkpt lat="49.26125" lon="1.15401">
        <ele>73.7</ele>
        <time>2017-05-01T08:44:59Z</time>
      </trkpt>
      <trkpt lat="49.26127" lon="1.15387">
        <ele>73.6</ele>
        <time>2017-05-01T08:45:03Z</time>
      </trkpt>
      <trkpt lat="49.26119" lon="1.15379">
        <ele>73.5</ele>
        <time>2017-05-01T08:45:08Z</time>
      </trkpt>
      <trkpt lat="49.2611" lon="1.15372">
        <ele>73.7</ele>
        <time>2017-05-01T08:45:12Z</time>
      </trkpt>
      <trkpt lat="49.26101" lon="1.15368">
        <ele>74.2</ele>
        <time>2017-05-01T08:45:16Z</time>
      </trkpt>
      <trkpt lat="49.26093" lon="1.15363">
        <ele>75.5</ele>
        <time>2017-05-01T08:45:22Z</time>
      </trkpt>
      <trkpt lat="49.26084" lon="1.15359">
        <ele>77.2</ele>
        <time>2017-05-01T08:45:28Z</time>
      </trkpt>
      <trkpt lat="49.26075" lon="1.15353">
        <ele>79.3</ele>
        <time>2017-05-01T08:45:34Z</time>
      </trkpt>
      <trkpt lat="49.26065" lon="1.1535">
        <ele>81.3</ele>
        <time>2017-05-01T08:45:40Z</time>
      </trkpt>
      <trkpt lat="49.26057" lon="1.15346">
        <ele>83.3</ele>
        <time>2017-05-01T08:45:46Z</time>
      </trkpt>
      <trkpt lat="49.26046" lon="1.15341">
        <ele>85.1</ele>
        <time>2017-05-01T08:45:53Z</time>
      </trkpt>
      <trkpt lat="49.26036" lon="1.15336">
        <ele>86.3</ele>
        <time>2017-05-01T08:45:59Z</time>
      </trkpt>
      <trkpt lat="49.26027" lon="1.15344">
        <ele>87.3</ele>
        <time>2017-05-01T08:46:05Z</time>
      </trkpt>
      <trkpt lat="49.26023" lon="1.15361">
        <ele>87.8</ele>
        <time>2017-05-01T08:46:09Z</time>
      </trkpt>
      <trkpt lat="49.26018" lon="1.15376">
        <ele>88.1</ele>
        <time>2017-05-01T08:46:12Z</time>
      </trkpt>
      <trkpt lat="49.26009" lon="1.15376">
        <ele>88.2</ele>
        <time>2017-05-01T08:46:17Z</time>
      </trkpt>
      <trkpt lat="49.25998" lon="1.1537">
        <ele>88.1</ele>
        <time>2017-05-01T08:46:22Z</time>
      </trkpt>
      <trkpt lat="49.25988" lon="1.15367">
        <ele>88.1</ele>
        <time>2017-05-01T08:46:24Z</time>
      </trkpt>
      <trkpt lat="49.25978" lon="1.15366">
        <ele>88</ele>
        <time>2017-05-01T08:46:26Z</time>
      </trkpt>
      <trkpt lat="49.25967" lon="1.15361">
        <ele>88</ele>
        <time>2017-05-01T08:46:29Z</time>
      </trkpt>
      <trkpt lat="49.25957" lon="1.15352">
        <ele>87.8</ele>
        <time>2017-05-01T08:46:32Z</time>
      </trkpt>
      <trkpt lat="49.25949" lon="1.15346">
        <ele>87.9</ele>
        <time>2017-05-01T08:46:35Z</time>
      </trkpt>
      <trkpt lat="49.25938" lon="1.15341">
        <ele>88.3</ele>
        <time>2017-05-01T08:46:39Z</time>
      </trkpt>
      <trkpt lat="49.25927" lon="1.15338">
        <ele>89.2</ele>
        <time>2017-05-01T08:46:43Z</time>
      </trkpt>
      <trkpt lat="49.25918" lon="1.15335">
        <ele>89.8</ele>
        <time>2017-05-01T08:46:46Z</time>
      </trkpt>
      <trkpt lat="49.25907" lon="1.15332">
        <ele>90.3</ele>
        <time>2017-05-01T08:46:49Z</time>
      </trkpt>
      <trkpt lat="49.25896" lon="1.15327">
        <ele>90.8</ele>
        <time>2017-05-01T08:46:52Z</time>
      </trkpt>
      <trkpt lat="49.25886" lon="1.15323">
        <ele>91.1</ele>
        <time>2017-05-01T08:46:55Z</time>
      </trkpt>
      <trkpt lat="49.25876" lon="1.15319">
        <ele>91.5</ele>
        <time>2017-05-01T08:46:58Z</time>
      </trkpt>
      <trkpt lat="49.25866" lon="1.15315">
        <ele>91.8</ele>
        <time>2017-05-01T08:47:01Z</time>
      </trkpt>
      <trkpt lat="49.25855" lon="1.15311">
        <ele>92.3</ele>
        <time>2017-05-01T08:47:04Z</time>
      </trkpt>
      <trkpt lat="49.25845" lon="1.15308">
        <ele>92.7</ele>
        <time>2017-05-01T08:47:07Z</time>
      </trkpt>
      <trkpt lat="49.25835" lon="1.15303">
        <ele>93.1</ele>
        <time>2017-05-01T08:47:10Z</time>
      </trkpt>
      <trkpt lat="49.25824" lon="1.15297">
        <ele>93.4</ele>
        <time>2017-05-01T08:47:13Z</time>
      </trkpt>
      <trkpt lat="49.25815" lon="1.15307">
        <ele>93.7</ele>
        <time>2017-05-01T08:47:17Z</time>
      </trkpt>
      <trkpt lat="49.25806" lon="1.15321">
        <ele>94</ele>
        <time>2017-05-01T08:47:21Z</time>
      </trkpt>
      <trkpt lat="49.25799" lon="1.15333">
        <ele>94.1</ele>
        <time>2017-05-01T08:47:25Z</time>
      </trkpt>
      <trkpt lat="49.25794" lon="1.15344">
        <ele>94.3</ele>
        <time>2017-05-01T08:47:29Z</time>
      </trkpt>
      <trkpt lat="49.25788" lon="1.15356">
        <ele>94.4</ele>
        <time>2017-05-01T08:47:32Z</time>
      </trkpt>
      <trkpt lat="49.25781" lon="1.15373">
        <ele>94.4</ele>
        <time>2017-05-01T08:47:35Z</time>
      </trkpt>
      <trkpt lat="49.25775" lon="1.15385">
        <ele>94.4</ele>
        <time>2017-05-01T08:47:37Z</time>
      </trkpt>
      <trkpt lat="49.25769" lon="1.15397">
        <ele>94.3</ele>
        <time>2017-05-01T08:47:39Z</time>
      </trkpt>
      <trkpt lat="49.25764" lon="1.15409">
        <ele>94.1</ele>
        <time>2017-05-01T08:47:41Z</time>
      </trkpt>
      <trkpt lat="49.25758" lon="1.15422">
        <ele>94</ele>
        <time>2017-05-01T08:47:43Z</time>
      </trkpt>
      <trkpt lat="49.25753" lon="1.15434">
        <ele>93.9</ele>
        <time>2017-05-01T08:47:45Z</time>
      </trkpt>
      <trkpt lat="49.25746" lon="1.1545">
        <ele>94</ele>
        <time>2017-05-01T08:47:48Z</time>
      </trkpt>
      <trkpt lat="49.25742" lon="1.15463">
        <ele>94</ele>
        <time>2017-05-01T08:47:50Z</time>
      </trkpt>
      <trkpt lat="49.25736" lon="1.15475">
        <ele>93.9</ele>
        <time>2017-05-01T08:47:52Z</time>
      </trkpt>
      <trkpt lat="49.2573" lon="1.15488">
        <ele>93.8</ele>
        <time>2017-05-01T08:47:54Z</time>
      </trkpt>
      <trkpt lat="49.25723" lon="1.15502">
        <ele>93.8</ele>
        <time>2017-05-01T08:47:56Z</time>
      </trkpt>
      <trkpt lat="49.25717" lon="1.15516">
        <ele>93.7</ele>
        <time>2017-05-01T08:47:58Z</time>
      </trkpt>
      <trkpt lat="49.25711" lon="1.1553">
        <ele>93.6</ele>
        <time>2017-05-01T08:48:00Z</time>
      </trkpt>
      <trkpt lat="49.25706" lon="1.15544">
        <ele>93.5</ele>
        <time>2017-05-01T08:48:02Z</time>
      </trkpt>
      <trkpt lat="49.257" lon="1.15557">
        <ele>93.2</ele>
        <time>2017-05-01T08:48:04Z</time>
      </trkpt>
      <trkpt lat="49.25694" lon="1.15571">
        <ele>92.9</ele>
        <time>2017-05-01T08:48:06Z</time>
      </trkpt>
      <trkpt lat="49.25687" lon="1.15585">
        <ele>92.6</ele>
        <time>2017-05-01T08:48:08Z</time>
      </trkpt>
      <trkpt lat="49.25678" lon="1.15603">
        <ele>92.3</ele>
        <time>2017-05-01T08:48:10Z</time>
      </trkpt>
      <trkpt lat="49.25669" lon="1.15622">
        <ele>92</ele>
        <time>2017-05-01T08:48:12Z</time>
      </trkpt>
      <trkpt lat="49.25658" lon="1.15642">
        <ele>91.4</ele>
        <time>2017-05-01T08:48:14Z</time>
      </trkpt>
      <trkpt lat="49.25648" lon="1.15662">
        <ele>90.9</ele>
        <time>2017-05-01T08:48:16Z</time>
      </trkpt>
      <trkpt lat="49.25638" lon="1.15683">
        <ele>90.3</ele>
        <time>2017-05-01T08:48:18Z</time>
      </trkpt>
      <trkpt lat="49.25628" lon="1.15703">
        <ele>89.6</ele>
        <time>2017-05-01T08:48:20Z</time>
      </trkpt>
      <trkpt lat="49.25618" lon="1.15724">
        <ele>88.9</ele>
        <time>2017-05-01T08:48:22Z</time>
      </trkpt>
      <trkpt lat="49.25608" lon="1.15741">
        <ele>88.2</ele>
        <time>2017-05-01T08:48:24Z</time>
      </trkpt>
      <trkpt lat="49.25606" lon="1.15759">
        <ele>87.1</ele>
        <time>2017-05-01T08:48:27Z</time>
      </trkpt>
      <trkpt lat="49.25613" lon="1.1577">
        <ele>85.8</ele>
        <time>2017-05-01T08:48:31Z</time>
      </trkpt>
      <trkpt lat="49.25622" lon="1.15777">
        <ele>83.8</ele>
        <time>2017-05-01T08:48:40Z</time>
      </trkpt>
      <trkpt lat="49.2563" lon="1.15785">
        <ele>81.5</ele>
        <time>2017-05-01T08:50:31Z</time>
      </trkpt>
      <trkpt lat="49.2564" lon="1.15791">
        <ele>81.5</ele>
        <time>2017-05-01T08:50:37Z</time>
      </trkpt>
      <trkpt lat="49.25651" lon="1.15796">
        <ele>81.3</ele>
        <time>2017-05-01T08:50:41Z</time>
      </trkpt>
      <trkpt lat="49.2566" lon="1.15798">
        <ele>81.2</ele>
        <time>2017-05-01T08:50:44Z</time>
      </trkpt>
      <trkpt lat="49.25674" lon="1.158">
        <ele>80.9</ele>
        <time>2017-05-01T08:50:47Z</time>
      </trkpt>
      <trkpt lat="49.25686" lon="1.15802">
        <ele>80.7</ele>
        <time>2017-05-01T08:50:49Z</time>
      </trkpt>
      <trkpt lat="49.25699" lon="1.15804">
        <ele>80.2</ele>
        <time>2017-05-01T08:50:51Z</time>
      </trkpt>
      <trkpt lat="49.25713" lon="1.15808">
        <ele>79.7</ele>
        <time>2017-05-01T08:50:53Z</time>
      </trkpt>
      <trkpt lat="49.25726" lon="1.15815">
        <ele>78.9</ele>
        <time>2017-05-01T08:50:55Z</time>
      </trkpt>
      <trkpt lat="49.25739" lon="1.15821">
        <ele>78.1</ele>
        <time>2017-05-01T08:50:57Z</time>
      </trkpt>
      <trkpt lat="49.25752" lon="1.15827">
        <ele>77.3</ele>
        <time>2017-05-01T08:50:59Z</time>
      </trkpt>
      <trkpt lat="49.25766" lon="1.15832">
        <ele>76.5</ele>
        <time>2017-05-01T08:51:01Z</time>
      </trkpt>
      <trkpt lat="49.25779" lon="1.15839">
        <ele>75.8</ele>
        <time>2017-05-01T08:51:03Z</time>
      </trkpt>
      <trkpt lat="49.25792" lon="1.15845">
        <ele>75</ele>
        <time>2017-05-01T08:51:05Z</time>
      </trkpt>
      <trkpt lat="49.25804" lon="1.15851">
        <ele>74</ele>
        <time>2017-05-01T08:51:07Z</time>
      </trkpt>
      <trkpt lat="49.25814" lon="1.15858">
        <ele>73</ele>
        <time>2017-05-01T08:51:09Z</time>
      </trkpt>
      <trkpt lat="49.25807" lon="1.15871">
        <ele>69.3</ele>
        <time>2017-05-01T08:51:20Z</time>
      </trkpt>
      <trkpt lat="49.258" lon="1.15882">
        <ele>68.1</ele>
        <time>2017-05-01T08:51:22Z</time>
      </trkpt>
      <trkpt lat="49.25791" lon="1.159">
        <ele>67.5</ele>
        <time>2017-05-01T08:51:23Z</time>
      </trkpt>
      <trkpt lat="49.25787" lon="1.15914">
        <ele>66.8</ele>
        <time>2017-05-01T08:51:24Z</time>
      </trkpt>
      <trkpt lat="49.25779" lon="1.15936">
        <ele>65.4</ele>
        <time>2017-05-01T08:51:26Z</time>
      </trkpt>
      <trkpt lat="49.25772" lon="1.15952">
        <ele>64.2</ele>
        <time>2017-05-01T08:51:28Z</time>
      </trkpt>
      <trkpt lat="49.25765" lon="1.15968">
        <ele>63.1</ele>
        <time>2017-05-01T08:51:30Z</time>
      </trkpt>
      <trkpt lat="49.25756" lon="1.15983">
        <ele>62</ele>
        <time>2017-05-01T08:51:32Z</time>
      </trkpt>
      <trkpt lat="49.25747" lon="1.15998">
        <ele>61</ele>
        <time>2017-05-01T08:51:34Z</time>
      </trkpt>
      <trkpt lat="49.25737" lon="1.16013">
        <ele>60</ele>
        <time>2017-05-01T08:51:36Z</time>
      </trkpt>
      <trkpt lat="49.25726" lon="1.16029">
        <ele>59.1</ele>
        <time>2017-05-01T08:51:38Z</time>
      </trkpt>
      <trkpt lat="49.25716" lon="1.16044">
        <ele>58.3</ele>
        <time>2017-05-01T08:51:40Z</time>
      </trkpt>
      <trkpt lat="49.25705" lon="1.1606">
        <ele>57.5</ele>
        <time>2017-05-01T08:51:42Z</time>
      </trkpt>
      <trkpt lat="49.25694" lon="1.16075">
        <ele>56.7</ele>
        <time>2017-05-01T08:51:44Z</time>
      </trkpt>
      <trkpt lat="49.25683" lon="1.16091">
        <ele>55.9</ele>
        <time>2017-05-01T08:51:46Z</time>
      </trkpt>
      <trkpt lat="49.25674" lon="1.16106">
        <ele>55.2</ele>
        <time>2017-05-01T08:51:48Z</time>
      </trkpt>
      <trkpt lat="49.25664" lon="1.16122">
        <ele>54.6</ele>
        <time>2017-05-01T08:51:50Z</time>
      </trkpt>
      <trkpt lat="49.25655" lon="1.16138">
        <ele>54</ele>
        <time>2017-05-01T08:51:52Z</time>
      </trkpt>
      <trkpt lat="49.25646" lon="1.16153">
        <ele>53.5</ele>
        <time>2017-05-01T08:51:54Z</time>
      </trkpt>
      <trkpt lat="49.25637" lon="1.16169">
        <ele>52.9</ele>
        <time>2017-05-01T08:51:56Z</time>
      </trkpt>
      <trkpt lat="49.25628" lon="1.16183">
        <ele>52.3</ele>
        <time>2017-05-01T08:51:58Z</time>
      </trkpt>
      <trkpt lat="49.25617" lon="1.16197">
        <ele>51.7</ele>
        <time>2017-05-01T08:52:00Z</time>
      </trkpt>
      <trkpt lat="49.25606" lon="1.16209">
        <ele>51.1</ele>
        <time>2017-05-01T08:52:02Z</time>
      </trkpt>
      <trkpt lat="49.25596" lon="1.16222">
        <ele>50.6</ele>
        <time>2017-05-01T08:52:04Z</time>
      </trkpt>
      <trkpt lat="49.25586" lon="1.16235">
        <ele>50</ele>
        <time>2017-05-01T08:52:06Z</time>
      </trkpt>
      <trkpt lat="49.25575" lon="1.16249">
        <ele>49.6</ele>
        <time>2017-05-01T08:52:08Z</time>
      </trkpt>
      <trkpt lat="49.25565" lon="1.16263">
        <ele>49.1</ele>
        <time>2017-05-01T08:52:10Z</time>
      </trkpt>
      <trkpt lat="49.25554" lon="1.16277">
        <ele>48.6</ele>
        <time>2017-05-01T08:52:12Z</time>
      </trkpt>
      <trkpt lat="49.25543" lon="1.16291">
        <ele>48.2</ele>
        <time>2017-05-01T08:52:14Z</time>
      </trkpt>
      <trkpt lat="49.25532" lon="1.16303">
        <ele>47.8</ele>
        <time>2017-05-01T08:52:16Z</time>
      </trkpt>
      <trkpt lat="49.25521" lon="1.16316">
        <ele>47.4</ele>
        <time>2017-05-01T08:52:18Z</time>
      </trkpt>
      <trkpt lat="49.2551" lon="1.16329">
        <ele>47.1</ele>
        <time>2017-05-01T08:52:20Z</time>
      </trkpt>
      <trkpt lat="49.25499" lon="1.16341">
        <ele>46.8</ele>
        <time>2017-05-01T08:52:22Z</time>
      </trkpt>
      <trkpt lat="49.25489" lon="1.16352">
        <ele>46.5</ele>
        <time>2017-05-01T08:52:24Z</time>
      </trkpt>
      <trkpt lat="49.25478" lon="1.16362">
        <ele>46.1</ele>
        <time>2017-05-01T08:52:26Z</time>
      </trkpt>
      <trkpt lat="49.25466" lon="1.1637">
        <ele>45.7</ele>
        <time>2017-05-01T08:52:28Z</time>
      </trkpt>
      <trkpt lat="49.25454" lon="1.16379">
        <ele>45.4</ele>
        <time>2017-05-01T08:52:30Z</time>
      </trkpt>
      <trkpt lat="49.25443" lon="1.1639">
        <ele>45.1</ele>
        <time>2017-05-01T08:52:32Z</time>
      </trkpt>
      <trkpt lat="49.25432" lon="1.16404">
        <ele>44.8</ele>
        <time>2017-05-01T08:52:34Z</time>
      </trkpt>
      <trkpt lat="49.25423" lon="1.16418">
        <ele>44.4</ele>
        <time>2017-05-01T08:52:36Z</time>
      </trkpt>
      <trkpt lat="49.25414" lon="1.16433">
        <ele>44.1</ele>
        <time>2017-05-01T08:52:38Z</time>
      </trkpt>
      <trkpt lat="49.25404" lon="1.16447">
        <ele>43.9</ele>
        <time>2017-05-01T08:52:40Z</time>
      </trkpt>
      <trkpt lat="49.25395" lon="1.16461">
        <ele>43.5</ele>
        <time>2017-05-01T08:52:42Z</time>
      </trkpt>
      <trkpt lat="49.25383" lon="1.16472">
        <ele>43.3</ele>
        <time>2017-05-01T08:52:44Z</time>
      </trkpt>
      <trkpt lat="49.25373" lon="1.16485">
        <ele>43</ele>
        <time>2017-05-01T08:52:46Z</time>
      </trkpt>
      <trkpt lat="49.25365" lon="1.16497">
        <ele>42.7</ele>
        <time>2017-05-01T08:52:48Z</time>
      </trkpt>
      <trkpt lat="49.25357" lon="1.16509">
        <ele>42.5</ele>
        <time>2017-05-01T08:52:50Z</time>
      </trkpt>
      <trkpt lat="49.25352" lon="1.16522">
        <ele>42.3</ele>
        <time>2017-05-01T08:52:52Z</time>
      </trkpt>
      <trkpt lat="49.25343" lon="1.1654">
        <ele>41.9</ele>
        <time>2017-05-01T08:52:55Z</time>
      </trkpt>
      <trkpt lat="49.25333" lon="1.16558">
        <ele>41.7</ele>
        <time>2017-05-01T08:52:57Z</time>
      </trkpt>
      <trkpt lat="49.25325" lon="1.16574">
        <ele>41.5</ele>
        <time>2017-05-01T08:52:59Z</time>
      </trkpt>
      <trkpt lat="49.25321" lon="1.16591">
        <ele>41.3</ele>
        <time>2017-05-01T08:53:01Z</time>
      </trkpt>
      <trkpt lat="49.25316" lon="1.16604">
        <ele>41.2</ele>
        <time>2017-05-01T08:53:02Z</time>
      </trkpt>
      <trkpt lat="49.25309" lon="1.16625">
        <ele>41</ele>
        <time>2017-05-01T08:53:04Z</time>
      </trkpt>
      <trkpt lat="49.25304" lon="1.16646">
        <ele>40.7</ele>
        <time>2017-05-01T08:53:06Z</time>
      </trkpt>
      <trkpt lat="49.25303" lon="1.16666">
        <ele>40.5</ele>
        <time>2017-05-01T08:53:08Z</time>
      </trkpt>
      <trkpt lat="49.253" lon="1.16685">
        <ele>40.2</ele>
        <time>2017-05-01T08:53:10Z</time>
      </trkpt>
      <trkpt lat="49.253" lon="1.1671">
        <ele>39.8</ele>
        <time>2017-05-01T08:53:12Z</time>
      </trkpt>
      <trkpt lat="49.25301" lon="1.16732">
        <ele>39.5</ele>
        <time>2017-05-01T08:53:14Z</time>
      </trkpt>
      <trkpt lat="49.25305" lon="1.16751">
        <ele>39.2</ele>
        <time>2017-05-01T08:53:16Z</time>
      </trkpt>
      <trkpt lat="49.25306" lon="1.16773">
        <ele>38.8</ele>
        <time>2017-05-01T08:53:18Z</time>
      </trkpt>
      <trkpt lat="49.25311" lon="1.16795">
        <ele>38.3</ele>
        <time>2017-05-01T08:53:20Z</time>
      </trkpt>
      <trkpt lat="49.25312" lon="1.16809">
        <ele>38.1</ele>
        <time>2017-05-01T08:53:21Z</time>
      </trkpt>
      <trkpt lat="49.25317" lon="1.16832">
        <ele>37.7</ele>
        <time>2017-05-01T08:53:23Z</time>
      </trkpt>
      <trkpt lat="49.25324" lon="1.16853">
        <ele>37.3</ele>
        <time>2017-05-01T08:53:25Z</time>
      </trkpt>
      <trkpt lat="49.2533" lon="1.16875">
        <ele>36.8</ele>
        <time>2017-05-01T08:53:27Z</time>
      </trkpt>
      <trkpt lat="49.25333" lon="1.16894">
        <ele>36.2</ele>
        <time>2017-05-01T08:53:29Z</time>
      </trkpt>
      <trkpt lat="49.25338" lon="1.16911">
        <ele>35.8</ele>
        <time>2017-05-01T08:53:31Z</time>
      </trkpt>
      <trkpt lat="49.25347" lon="1.16929">
        <ele>35.3</ele>
        <time>2017-05-01T08:53:33Z</time>
      </trkpt>
      <trkpt lat="49.25355" lon="1.16945">
        <ele>35</ele>
        <time>2017-05-01T08:53:35Z</time>
      </trkpt>
      <trkpt lat="49.25361" lon="1.16961">
        <ele>34.6</ele>
        <time>2017-05-01T08:53:37Z</time>
      </trkpt>
      <trkpt lat="49.25368" lon="1.16974">
        <ele>34.3</ele>
        <time>2017-05-01T08:53:39Z</time>
      </trkpt>
      <trkpt lat="49.25382" lon="1.16992">
        <ele>34</ele>
        <time>2017-05-01T08:53:41Z</time>
      </trkpt>
      <trkpt lat="49.25391" lon="1.17009">
        <ele>33.7</ele>
        <time>2017-05-01T08:53:43Z</time>
      </trkpt>
      <trkpt lat="49.25402" lon="1.17024">
        <ele>33.3</ele>
        <time>2017-05-01T08:53:45Z</time>
      </trkpt>
      <trkpt lat="49.25409" lon="1.17041">
        <ele>33</ele>
        <time>2017-05-01T08:53:47Z</time>
      </trkpt>
      <trkpt lat="49.25417" lon="1.17058">
        <ele>32.6</ele>
        <time>2017-05-01T08:53:49Z</time>
      </trkpt>
      <trkpt lat="49.25422" lon="1.17072">
        <ele>32.4</ele>
        <time>2017-05-01T08:53:51Z</time>
      </trkpt>
      <trkpt lat="49.25429" lon="1.17088">
        <ele>32</ele>
        <time>2017-05-01T08:53:54Z</time>
      </trkpt>
      <trkpt lat="49.25434" lon="1.17105">
        <ele>31.7</ele>
        <time>2017-05-01T08:53:57Z</time>
      </trkpt>
      <trkpt lat="49.2544" lon="1.17118">
        <ele>31.6</ele>
        <time>2017-05-01T08:53:59Z</time>
      </trkpt>
      <trkpt lat="49.25448" lon="1.17133">
        <ele>31.4</ele>
        <time>2017-05-01T08:54:02Z</time>
      </trkpt>
      <trkpt lat="49.25453" lon="1.17144">
        <ele>31.3</ele>
        <time>2017-05-01T08:54:04Z</time>
      </trkpt>
      <trkpt lat="49.2546" lon="1.17163">
        <ele>31.1</ele>
        <time>2017-05-01T08:54:07Z</time>
      </trkpt>
      <trkpt lat="49.25464" lon="1.17178">
        <ele>31</ele>
        <time>2017-05-01T08:54:09Z</time>
      </trkpt>
      <trkpt lat="49.25466" lon="1.17194">
        <ele>30.9</ele>
        <time>2017-05-01T08:54:11Z</time>
      </trkpt>
      <trkpt lat="49.25468" lon="1.17211">
        <ele>30.7</ele>
        <time>2017-05-01T08:54:13Z</time>
      </trkpt>
      <trkpt lat="49.25468" lon="1.17228">
        <ele>30.5</ele>
        <time>2017-05-01T08:54:15Z</time>
      </trkpt>
      <trkpt lat="49.25468" lon="1.17245">
        <ele>30.3</ele>
        <time>2017-05-01T08:54:17Z</time>
      </trkpt>
      <trkpt lat="49.25469" lon="1.17262">
        <ele>30.2</ele>
        <time>2017-05-01T08:54:19Z</time>
      </trkpt>
      <trkpt lat="49.2547" lon="1.17279">
        <ele>30</ele>
        <time>2017-05-01T08:54:21Z</time>
      </trkpt>
      <trkpt lat="49.25469" lon="1.173">
        <ele>29.8</ele>
        <time>2017-05-01T08:54:24Z</time>
      </trkpt>
      <trkpt lat="49.25469" lon="1.17314">
        <ele>29.6</ele>
        <time>2017-05-01T08:54:26Z</time>
      </trkpt>
      <trkpt lat="49.2547" lon="1.17329">
        <ele>29.5</ele>
        <time>2017-05-01T08:54:28Z</time>
      </trkpt>
      <trkpt lat="49.25471" lon="1.17347">
        <ele>29.4</ele>
        <time>2017-05-01T08:54:31Z</time>
      </trkpt>
      <trkpt lat="49.25475" lon="1.17362">
        <ele>29.5</ele>
        <time>2017-05-01T08:54:34Z</time>
      </trkpt>
      <trkpt lat="49.25479" lon="1.17376">
        <ele>30.1</ele>
        <time>2017-05-01T08:54:38Z</time>
      </trkpt>
      <trkpt lat="49.2548" lon="1.17391">
        <ele>31.2</ele>
        <time>2017-05-01T08:54:42Z</time>
      </trkpt>
      <trkpt lat="49.25481" lon="1.17405">
        <ele>32.2</ele>
        <time>2017-05-01T08:54:46Z</time>
      </trkpt>
      <trkpt lat="49.25478" lon="1.17422">
        <ele>32.8</ele>
        <time>2017-05-01T08:54:49Z</time>
      </trkpt>
      <trkpt lat="49.25473" lon="1.1744">
        <ele>33.2</ele>
        <time>2017-05-01T08:54:52Z</time>
      </trkpt>
      <trkpt lat="49.25468" lon="1.17454">
        <ele>33.5</ele>
        <time>2017-05-01T08:54:54Z</time>
      </trkpt>
      <trkpt lat="49.25462" lon="1.17469">
        <ele>33.7</ele>
        <time>2017-05-01T08:54:56Z</time>
      </trkpt>
      <trkpt lat="49.25455" lon="1.17484">
        <ele>33.8</ele>
        <time>2017-05-01T08:54:58Z</time>
      </trkpt>
      <trkpt lat="49.25448" lon="1.175">
        <ele>33.7</ele>
        <time>2017-05-01T08:55:00Z</time>
      </trkpt>
      <trkpt lat="49.25441" lon="1.17517">
        <ele>33.5</ele>
        <time>2017-05-01T08:55:02Z</time>
      </trkpt>
      <trkpt lat="49.25434" lon="1.17534">
        <ele>33.3</ele>
        <time>2017-05-01T08:55:04Z</time>
      </trkpt>
      <trkpt lat="49.25427" lon="1.17551">
        <ele>32.9</ele>
        <time>2017-05-01T08:55:06Z</time>
      </trkpt>
      <trkpt lat="49.25419" lon="1.17567">
        <ele>32.4</ele>
        <time>2017-05-01T08:55:08Z</time>
      </trkpt>
      <trkpt lat="49.25408" lon="1.1758">
        <ele>32</ele>
        <time>2017-05-01T08:55:10Z</time>
      </trkpt>
      <trkpt lat="49.25397" lon="1.1759">
        <ele>31.6</ele>
        <time>2017-05-01T08:55:12Z</time>
      </trkpt>
      <trkpt lat="49.25388" lon="1.17604">
        <ele>31.2</ele>
        <time>2017-05-01T08:55:14Z</time>
      </trkpt>
      <trkpt lat="49.25386" lon="1.17623">
        <ele>30.9</ele>
        <time>2017-05-01T08:55:16Z</time>
      </trkpt>
      <trkpt lat="49.25389" lon="1.17641">
        <ele>30.6</ele>
        <time>2017-05-01T08:55:18Z</time>
      </trkpt>
      <trkpt lat="49.25399" lon="1.17654">
        <ele>30.4</ele>
        <time>2017-05-01T08:55:20Z</time>
      </trkpt>
      <trkpt lat="49.25411" lon="1.1766">
        <ele>30.1</ele>
        <time>2017-05-01T08:55:22Z</time>
      </trkpt>
      <trkpt lat="49.25423" lon="1.17657">
        <ele>29.9</ele>
        <time>2017-05-01T08:55:24Z</time>
      </trkpt>
      <trkpt lat="49.25432" lon="1.17654">
        <ele>29.6</ele>
        <time>2017-05-01T08:55:26Z</time>
      </trkpt>
      <trkpt lat="49.25441" lon="1.17658">
        <ele>29.4</ele>
        <time>2017-05-01T08:55:28Z</time>
      </trkpt>
      <trkpt lat="49.25449" lon="1.17667">
        <ele>29.2</ele>
        <time>2017-05-01T08:55:30Z</time>
      </trkpt>
      <trkpt lat="49.25456" lon="1.17679">
        <ele>29</ele>
        <time>2017-05-01T08:55:32Z</time>
      </trkpt>
      <trkpt lat="49.25461" lon="1.17694">
        <ele>28.9</ele>
        <time>2017-05-01T08:55:34Z</time>
      </trkpt>
      <trkpt lat="49.25466" lon="1.17708">
        <ele>28.7</ele>
        <time>2017-05-01T08:55:36Z</time>
      </trkpt>
      <trkpt lat="49.25472" lon="1.1772">
        <ele>28.5</ele>
        <time>2017-05-01T08:55:38Z</time>
      </trkpt>
      <trkpt lat="49.2548" lon="1.17732">
        <ele>28.3</ele>
        <time>2017-05-01T08:55:40Z</time>
      </trkpt>
      <trkpt lat="49.25488" lon="1.17744">
        <ele>28.2</ele>
        <time>2017-05-01T08:55:42Z</time>
      </trkpt>
      <trkpt lat="49.25496" lon="1.17758">
        <ele>28</ele>
        <time>2017-05-01T08:55:44Z</time>
      </trkpt>
      <trkpt lat="49.25505" lon="1.17772">
        <ele>27.7</ele>
        <time>2017-05-01T08:55:46Z</time>
      </trkpt>
      <trkpt lat="49.25514" lon="1.17787">
        <ele>27.2</ele>
        <time>2017-05-01T08:55:48Z</time>
      </trkpt>
      <trkpt lat="49.25524" lon="1.17801">
        <ele>26.8</ele>
        <time>2017-05-01T08:55:50Z</time>
      </trkpt>
      <trkpt lat="49.25534" lon="1.17816">
        <ele>26.4</ele>
        <time>2017-05-01T08:55:52Z</time>
      </trkpt>
      <trkpt lat="49.25544" lon="1.17832">
        <ele>26</ele>
        <time>2017-05-01T08:55:54Z</time>
      </trkpt>
      <trkpt lat="49.25554" lon="1.17847">
        <ele>25.6</ele>
        <time>2017-05-01T08:55:56Z</time>
      </trkpt>
      <trkpt lat="49.25564" lon="1.17863">
        <ele>25.2</ele>
        <time>2017-05-01T08:55:58Z</time>
      </trkpt>
      <trkpt lat="49.25574" lon="1.17879">
        <ele>24.8</ele>
        <time>2017-05-01T08:56:00Z</time>
      </trkpt>
      <trkpt lat="49.25584" lon="1.17894">
        <ele>24.4</ele>
        <time>2017-05-01T08:56:02Z</time>
      </trkpt>
      <trkpt lat="49.25593" lon="1.17909">
        <ele>24</ele>
        <time>2017-05-01T08:56:04Z</time>
      </trkpt>
      <trkpt lat="49.25601" lon="1.17923">
        <ele>23.6</ele>
        <time>2017-05-01T08:56:06Z</time>
      </trkpt>
      <trkpt lat="49.2561" lon="1.17936">
        <ele>23.2</ele>
        <time>2017-05-01T08:56:08Z</time>
      </trkpt>
      <trkpt lat="49.25617" lon="1.17946">
        <ele>23</ele>
        <time>2017-05-01T08:56:10Z</time>
      </trkpt>
      <trkpt lat="49.25627" lon="1.17953">
        <ele>22.7</ele>
        <time>2017-05-01T08:56:12Z</time>
      </trkpt>
      <trkpt lat="49.25636" lon="1.17961">
        <ele>22.5</ele>
        <time>2017-05-01T08:56:14Z</time>
      </trkpt>
      <trkpt lat="49.25644" lon="1.17973">
        <ele>22.3</ele>
        <time>2017-05-01T08:56:16Z</time>
      </trkpt>
      <trkpt lat="49.25652" lon="1.17987">
        <ele>22</ele>
        <time>2017-05-01T08:56:18Z</time>
      </trkpt>
      <trkpt lat="49.2566" lon="1.18002">
        <ele>21.8</ele>
        <time>2017-05-01T08:56:20Z</time>
      </trkpt>
      <trkpt lat="49.25669" lon="1.18017">
        <ele>21.6</ele>
        <time>2017-05-01T08:56:22Z</time>
      </trkpt>
      <trkpt lat="49.25678" lon="1.18032">
        <ele>21.4</ele>
        <time>2017-05-01T08:56:24Z</time>
      </trkpt>
      <trkpt lat="49.25686" lon="1.18047">
        <ele>21.1</ele>
        <time>2017-05-01T08:56:26Z</time>
      </trkpt>
      <trkpt lat="49.25695" lon="1.18062">
        <ele>20.7</ele>
        <time>2017-05-01T08:56:28Z</time>
      </trkpt>
      <trkpt lat="49.25704" lon="1.18078">
        <ele>20.4</ele>
        <time>2017-05-01T08:56:30Z</time>
      </trkpt>
      <trkpt lat="49.25713" lon="1.18094">
        <ele>20.1</ele>
        <time>2017-05-01T08:56:32Z</time>
      </trkpt>
      <trkpt lat="49.25722" lon="1.18111">
        <ele>19.8</ele>
        <time>2017-05-01T08:56:34Z</time>
      </trkpt>
      <trkpt lat="49.25731" lon="1.18127">
        <ele>19.5</ele>
        <time>2017-05-01T08:56:36Z</time>
      </trkpt>
      <trkpt lat="49.25739" lon="1.18145">
        <ele>19.3</ele>
        <time>2017-05-01T08:56:38Z</time>
      </trkpt>
      <trkpt lat="49.25746" lon="1.18164">
        <ele>19.1</ele>
        <time>2017-05-01T08:56:40Z</time>
      </trkpt>
      <trkpt lat="49.25753" lon="1.18182">
        <ele>18.9</ele>
        <time>2017-05-01T08:56:42Z</time>
      </trkpt>
      <trkpt lat="49.25759" lon="1.18202">
        <ele>18.6</ele>
        <time>2017-05-01T08:56:44Z</time>
      </trkpt>
      <trkpt lat="49.25765" lon="1.18222">
        <ele>18.4</ele>
        <time>2017-05-01T08:56:46Z</time>
      </trkpt>
      <trkpt lat="49.2577" lon="1.18241">
        <ele>18.3</ele>
        <time>2017-05-01T08:56:48Z</time>
      </trkpt>
      <trkpt lat="49.25775" lon="1.18261">
        <ele>18.1</ele>
        <time>2017-05-01T08:56:50Z</time>
      </trkpt>
      <trkpt lat="49.2578" lon="1.1828">
        <ele>18</ele>
        <time>2017-05-01T08:56:52Z</time>
      </trkpt>
      <trkpt lat="49.25783" lon="1.183">
        <ele>17.8</ele>
        <time>2017-05-01T08:56:54Z</time>
      </trkpt>
      <trkpt lat="49.25787" lon="1.1832">
        <ele>17.7</ele>
        <time>2017-05-01T08:56:56Z</time>
      </trkpt>
      <trkpt lat="49.25789" lon="1.1834">
        <ele>17.6</ele>
        <time>2017-05-01T08:56:58Z</time>
      </trkpt>
      <trkpt lat="49.25792" lon="1.1836">
        <ele>17.5</ele>
        <time>2017-05-01T08:57:00Z</time>
      </trkpt>
      <trkpt lat="49.25794" lon="1.18381">
        <ele>17.4</ele>
        <time>2017-05-01T08:57:02Z</time>
      </trkpt>
      <trkpt lat="49.25794" lon="1.18402">
        <ele>17.3</ele>
        <time>2017-05-01T08:57:04Z</time>
      </trkpt>
      <trkpt lat="49.25795" lon="1.18422">
        <ele>17.1</ele>
        <time>2017-05-01T08:57:06Z</time>
      </trkpt>
      <trkpt lat="49.25795" lon="1.18443">
        <ele>17</ele>
        <time>2017-05-01T08:57:08Z</time>
      </trkpt>
      <trkpt lat="49.25794" lon="1.18462">
        <ele>16.9</ele>
        <time>2017-05-01T08:57:10Z</time>
      </trkpt>
      <trkpt lat="49.25793" lon="1.18483">
        <ele>16.7</ele>
        <time>2017-05-01T08:57:12Z</time>
      </trkpt>
      <trkpt lat="49.25793" lon="1.18504">
        <ele>16.5</ele>
        <time>2017-05-01T08:57:14Z</time>
      </trkpt>
      <trkpt lat="49.25791" lon="1.18525">
        <ele>16.3</ele>
        <time>2017-05-01T08:57:16Z</time>
      </trkpt>
      <trkpt lat="49.25793" lon="1.18545">
        <ele>16.1</ele>
        <time>2017-05-01T08:57:18Z</time>
      </trkpt>
      <trkpt lat="49.25801" lon="1.18559">
        <ele>15.9</ele>
        <time>2017-05-01T08:57:21Z</time>
      </trkpt>
      <trkpt lat="49.2581" lon="1.18572">
        <ele>15.7</ele>
        <time>2017-05-01T08:57:24Z</time>
      </trkpt>
      <trkpt lat="49.25818" lon="1.18581">
        <ele>15.6</ele>
        <time>2017-05-01T08:57:26Z</time>
      </trkpt>
      <trkpt lat="49.25828" lon="1.18587">
        <ele>15.5</ele>
        <time>2017-05-01T08:57:28Z</time>
      </trkpt>
      <trkpt lat="49.25839" lon="1.18591">
        <ele>15.4</ele>
        <time>2017-05-01T08:57:30Z</time>
      </trkpt>
      <trkpt lat="49.2585" lon="1.18596">
        <ele>15.3</ele>
        <time>2017-05-01T08:57:32Z</time>
      </trkpt>
      <trkpt lat="49.25861" lon="1.186">
        <ele>15.1</ele>
        <time>2017-05-01T08:57:34Z</time>
      </trkpt>
      <trkpt lat="49.25871" lon="1.18605">
        <ele>15</ele>
        <time>2017-05-01T08:57:36Z</time>
      </trkpt>
      <trkpt lat="49.25876" lon="1.18618">
        <ele>14.7</ele>
        <time>2017-05-01T08:57:40Z</time>
      </trkpt>
      <trkpt lat="49.25887" lon="1.18621">
        <ele>14.2</ele>
        <time>2017-05-01T08:57:52Z</time>
      </trkpt>
      <trkpt lat="49.25899" lon="1.18626">
        <ele>14.1</ele>
        <time>2017-05-01T08:57:56Z</time>
      </trkpt>
      <trkpt lat="49.25908" lon="1.18631">
        <ele>14</ele>
        <time>2017-05-01T08:57:59Z</time>
      </trkpt>
      <trkpt lat="49.25917" lon="1.18636">
        <ele>13.9</ele>
        <time>2017-05-01T08:58:02Z</time>
      </trkpt>
      <trkpt lat="49.25927" lon="1.18639">
        <ele>13.8</ele>
        <time>2017-05-01T08:58:05Z</time>
      </trkpt>
      <trkpt lat="49.25936" lon="1.18642">
        <ele>13.6</ele>
        <time>2017-05-01T08:58:08Z</time>
      </trkpt>
      <trkpt lat="49.25946" lon="1.18646">
        <ele>13.5</ele>
        <time>2017-05-01T08:58:11Z</time>
      </trkpt>
      <trkpt lat="49.25955" lon="1.1865">
        <ele>13.5</ele>
        <time>2017-05-01T08:58:14Z</time>
      </trkpt>
      <trkpt lat="49.25965" lon="1.18653">
        <ele>13.3</ele>
        <time>2017-05-01T08:58:17Z</time>
      </trkpt>
      <trkpt lat="49.25975" lon="1.18657">
        <ele>13.2</ele>
        <time>2017-05-01T08:58:20Z</time>
      </trkpt>
      <trkpt lat="49.25985" lon="1.18661">
        <ele>13.1</ele>
        <time>2017-05-01T08:58:23Z</time>
      </trkpt>
      <trkpt lat="49.25995" lon="1.18665">
        <ele>13.1</ele>
        <time>2017-05-01T08:58:26Z</time>
      </trkpt>
      <trkpt lat="49.26005" lon="1.18669">
        <ele>13.1</ele>
        <time>2017-05-01T08:58:29Z</time>
      </trkpt>
      <trkpt lat="49.26015" lon="1.18673">
        <ele>13.1</ele>
        <time>2017-05-01T08:58:32Z</time>
      </trkpt>
      <trkpt lat="49.26024" lon="1.18675">
        <ele>13.2</ele>
        <time>2017-05-01T08:58:35Z</time>
      </trkpt>
      <trkpt lat="49.26033" lon="1.18675">
        <ele>13.5</ele>
        <time>2017-05-01T08:58:39Z</time>
      </trkpt>
      <trkpt lat="49.26043" lon="1.18673">
        <ele>13.8</ele>
        <time>2017-05-01T08:58:43Z</time>
      </trkpt>
      <trkpt lat="49.26052" lon="1.18677">
        <ele>14</ele>
        <time>2017-05-01T08:58:46Z</time>
      </trkpt>
      <trkpt lat="49.26062" lon="1.18681">
        <ele>14.2</ele>
        <time>2017-05-01T08:58:49Z</time>
      </trkpt>
      <trkpt lat="49.26071" lon="1.18684">
        <ele>14.3</ele>
        <time>2017-05-01T08:58:52Z</time>
      </trkpt>
      <trkpt lat="49.26061" lon="1.18682">
        <ele>14.7</ele>
        <time>2017-05-01T08:59:06Z</time>
      </trkpt>
      <trkpt lat="49.26051" lon="1.18678">
        <ele>14.7</ele>
        <time>2017-05-01T08:59:09Z</time>
      </trkpt>
      <trkpt lat="49.26042" lon="1.18674">
        <ele>14.6</ele>
        <time>2017-05-01T08:59:12Z</time>
      </trkpt>
      <trkpt lat="49.26034" lon="1.18682">
        <ele>14.5</ele>
        <time>2017-05-01T08:59:15Z</time>
      </trkpt>
      <trkpt lat="49.26032" lon="1.18697">
        <ele>14.4</ele>
        <time>2017-05-01T08:59:18Z</time>
      </trkpt>
      <trkpt lat="49.26031" lon="1.18714">
        <ele>14.3</ele>
        <time>2017-05-01T08:59:21Z</time>
      </trkpt>
      <trkpt lat="49.2603" lon="1.18734">
        <ele>14.3</ele>
        <time>2017-05-01T08:59:24Z</time>
      </trkpt>
      <trkpt lat="49.2603" lon="1.18754">
        <ele>14.3</ele>
        <time>2017-05-01T08:59:27Z</time>
      </trkpt>
      <trkpt lat="49.26028" lon="1.18772">
        <ele>14.2</ele>
        <time>2017-05-01T08:59:30Z</time>
      </trkpt>
      <trkpt lat="49.26027" lon="1.18791">
        <ele>14.2</ele>
        <time>2017-05-01T08:59:33Z</time>
      </trkpt>
      <trkpt lat="49.2602" lon="1.18803">
        <ele>14.1</ele>
        <time>2017-05-01T08:59:36Z</time>
      </trkpt>
      <trkpt lat="49.26012" lon="1.18795">
        <ele>14.1</ele>
        <time>2017-05-01T08:59:43Z</time>
      </trkpt>
      <trkpt lat="49.26004" lon="1.18792">
        <ele>13.9</ele>
        <time>2017-05-01T09:00:32Z</time>
      </trkpt>
      <trkpt lat="49.25994" lon="1.18789">
        <ele>13.5</ele>
        <time>2017-05-01T09:00:41Z</time>
      </trkpt>
      <trkpt lat="49.25985" lon="1.18783">
        <ele>13.4</ele>
        <time>2017-05-01T09:00:45Z</time>
      </trkpt>
      <trkpt lat="49.25975" lon="1.18777">
        <ele>13.4</ele>
        <time>2017-05-01T09:00:49Z</time>
      </trkpt>
      <trkpt lat="49.25965" lon="1.18772">
        <ele>13.3</ele>
        <time>2017-05-01T09:00:52Z</time>
      </trkpt>
      <trkpt lat="49.25955" lon="1.18767">
        <ele>13.2</ele>
        <time>2017-05-01T09:00:55Z</time>
      </trkpt>
      <trkpt lat="49.25943" lon="1.18762">
        <ele>13.2</ele>
        <time>2017-05-01T09:00:58Z</time>
      </trkpt>
      <trkpt lat="49.2593" lon="1.18758">
        <ele>13.1</ele>
        <time>2017-05-01T09:01:01Z</time>
      </trkpt>
      <trkpt lat="49.25921" lon="1.18754">
        <ele>13</ele>
        <time>2017-05-01T09:01:03Z</time>
      </trkpt>
      <trkpt lat="49.25912" lon="1.1875">
        <ele>12.9</ele>
        <time>2017-05-01T09:01:05Z</time>
      </trkpt>
      <trkpt lat="49.25903" lon="1.18745">
        <ele>12.7</ele>
        <time>2017-05-01T09:01:07Z</time>
      </trkpt>
      <trkpt lat="49.25894" lon="1.18737">
        <ele>12.5</ele>
        <time>2017-05-01T09:01:10Z</time>
      </trkpt>
      <trkpt lat="49.25884" lon="1.18736">
        <ele>12.2</ele>
        <time>2017-05-01T09:01:16Z</time>
      </trkpt>
      <trkpt lat="49.25876" lon="1.1875">
        <ele>12</ele>
        <time>2017-05-01T09:01:20Z</time>
      </trkpt>
      <trkpt lat="49.25872" lon="1.18763">
        <ele>11.8</ele>
        <time>2017-05-01T09:01:22Z</time>
      </trkpt>
      <trkpt lat="49.25868" lon="1.18776">
        <ele>11.9</ele>
        <time>2017-05-01T09:01:24Z</time>
      </trkpt>
      <trkpt lat="49.25862" lon="1.1879">
        <ele>11.8</ele>
        <time>2017-05-01T09:01:26Z</time>
      </trkpt>
      <trkpt lat="49.25857" lon="1.18805">
        <ele>11.6</ele>
        <time>2017-05-01T09:01:28Z</time>
      </trkpt>
      <trkpt lat="49.25852" lon="1.1882">
        <ele>11.3</ele>
        <time>2017-05-01T09:01:30Z</time>
      </trkpt>
      <trkpt lat="49.25846" lon="1.18835">
        <ele>11</ele>
        <time>2017-05-01T09:01:32Z</time>
      </trkpt>
      <trkpt lat="49.25841" lon="1.18849">
        <ele>10.7</ele>
        <time>2017-05-01T09:01:34Z</time>
      </trkpt>
      <trkpt lat="49.25836" lon="1.18862">
        <ele>10.5</ele>
        <time>2017-05-01T09:01:36Z</time>
      </trkpt>
      <trkpt lat="49.25831" lon="1.18876">
        <ele>10.2</ele>
        <time>2017-05-01T09:01:38Z</time>
      </trkpt>
      <trkpt lat="49.25826" lon="1.18888">
        <ele>10</ele>
        <time>2017-05-01T09:01:40Z</time>
      </trkpt>
      <trkpt lat="49.25821" lon="1.18901">
        <ele>9.9</ele>
        <time>2017-05-01T09:01:42Z</time>
      </trkpt>
      <trkpt lat="49.25815" lon="1.18913">
        <ele>9.7</ele>
        <time>2017-05-01T09:01:44Z</time>
      </trkpt>
      <trkpt lat="49.2581" lon="1.18926">
        <ele>9.6</ele>
        <time>2017-05-01T09:01:46Z</time>
      </trkpt>
      <trkpt lat="49.25805" lon="1.1894">
        <ele>9.5</ele>
        <time>2017-05-01T09:01:48Z</time>
      </trkpt>
      <trkpt lat="49.258" lon="1.18954">
        <ele>9.5</ele>
        <time>2017-05-01T09:01:50Z</time>
      </trkpt>
      <trkpt lat="49.25794" lon="1.18969">
        <ele>9.3</ele>
        <time>2017-05-01T09:01:52Z</time>
      </trkpt>
      <trkpt lat="49.25789" lon="1.18984">
        <ele>9.2</ele>
        <time>2017-05-01T09:01:54Z</time>
      </trkpt>
      <trkpt lat="49.25785" lon="1.18999">
        <ele>9.1</ele>
        <time>2017-05-01T09:01:56Z</time>
      </trkpt>
      <trkpt lat="49.25781" lon="1.19015">
        <ele>9.1</ele>
        <time>2017-05-01T09:01:58Z</time>
      </trkpt>
      <trkpt lat="49.25778" lon="1.19034">
        <ele>8.9</ele>
        <time>2017-05-01T09:02:00Z</time>
      </trkpt>
      <trkpt lat="49.25775" lon="1.19056">
        <ele>8.6</ele>
        <time>2017-05-01T09:02:02Z</time>
      </trkpt>
      <trkpt lat="49.25772" lon="1.1908">
        <ele>8.1</ele>
        <time>2017-05-01T09:02:04Z</time>
      </trkpt>
      <trkpt lat="49.25768" lon="1.19105">
        <ele>7.5</ele>
        <time>2017-05-01T09:02:06Z</time>
      </trkpt>
      <trkpt lat="49.25764" lon="1.19131">
        <ele>6.9</ele>
        <time>2017-05-01T09:02:08Z</time>
      </trkpt>
      <trkpt lat="49.25758" lon="1.19156">
        <ele>6.2</ele>
        <time>2017-05-01T09:02:10Z</time>
      </trkpt>
      <trkpt lat="49.2575" lon="1.19179">
        <ele>5.5</ele>
        <time>2017-05-01T09:02:12Z</time>
      </trkpt>
      <trkpt lat="49.25742" lon="1.192">
        <ele>4.7</ele>
        <time>2017-05-01T09:02:14Z</time>
      </trkpt>
      <trkpt lat="49.25736" lon="1.19218">
        <ele>4.1</ele>
        <time>2017-05-01T09:02:16Z</time>
      </trkpt>
      <trkpt lat="49.25736" lon="1.19234">
        <ele>3.5</ele>
        <time>2017-05-01T09:02:18Z</time>
      </trkpt>
      <trkpt lat="49.25743" lon="1.19245">
        <ele>3.1</ele>
        <time>2017-05-01T09:02:20Z</time>
      </trkpt>
      <trkpt lat="49.25752" lon="1.19253">
        <ele>2.7</ele>
        <time>2017-05-01T09:02:22Z</time>
      </trkpt>
      <trkpt lat="49.25762" lon="1.19262">
        <ele>2.3</ele>
        <time>2017-05-01T09:02:24Z</time>
      </trkpt>
      <trkpt lat="49.25772" lon="1.19272">
        <ele>1.9</ele>
        <time>2017-05-01T09:02:26Z</time>
      </trkpt>
      <trkpt lat="49.25783" lon="1.19281">
        <ele>1.9</ele>
        <time>2017-05-01T09:02:28Z</time>
      </trkpt>
      <trkpt lat="49.25793" lon="1.19292">
        <ele>1.7</ele>
        <time>2017-05-01T09:02:30Z</time>
      </trkpt>
      <trkpt lat="49.25803" lon="1.19302">
        <ele>1.4</ele>
        <time>2017-05-01T09:02:32Z</time>
      </trkpt>
      <trkpt lat="49.25814" lon="1.19312">
        <ele>1.1</ele>
        <time>2017-05-01T09:02:34Z</time>
      </trkpt>
      <trkpt lat="49.25825" lon="1.1932">
        <ele>0.8</ele>
        <time>2017-05-01T09:02:36Z</time>
      </trkpt>
      <trkpt lat="49.25836" lon="1.19326">
        <ele>0.6</ele>
        <time>2017-05-01T09:02:38Z</time>
      </trkpt>
      <trkpt lat="49.25848" lon="1.19332">
        <ele>0.4</ele>
        <time>2017-05-01T09:02:40Z</time>
      </trkpt>
      <trkpt lat="49.25859" lon="1.19337">
        <ele>0.3</ele>
        <time>2017-05-01T09:02:42Z</time>
      </trkpt>
      <trkpt lat="49.2587" lon="1.19342">
        <ele>0.1</ele>
        <time>2017-05-01T09:02:44Z</time>
      </trkpt>
      <trkpt lat="49.25881" lon="1.19347">
        <ele>15.9</ele>
        <time>2017-05-01T09:02:46Z</time>
      </trkpt>
      <trkpt lat="49.25892" lon="1.19352">
        <ele>-0.1</ele>
        <time>2017-05-01T09:02:48Z</time>
      </trkpt>
      <trkpt lat="49.25903" lon="1.19357">
        <ele>-0.2</ele>
        <time>2017-05-01T09:02:50Z</time>
      </trkpt>
      <trkpt lat="49.25914" lon="1.19363">
        <ele>-0.3</ele>
        <time>2017-05-01T09:02:52Z</time>
      </trkpt>
      <trkpt lat="49.25924" lon="1.19365">
        <ele>-0.4</ele>
        <time>2017-05-01T09:02:54Z</time>
      </trkpt>
      <trkpt lat="49.25932" lon="1.19359">
        <ele>-0.4</ele>
        <time>2017-05-01T09:02:56Z</time>
      </trkpt>
      <trkpt lat="49.25939" lon="1.19348">
        <ele>-0.5</ele>
        <time>2017-05-01T09:02:58Z</time>
      </trkpt>
      <trkpt lat="49.25942" lon="1.19335">
        <ele>-0.6</ele>
        <time>2017-05-01T09:03:00Z</time>
      </trkpt>
      <trkpt lat="49.25947" lon="1.19316">
        <ele>-0.6</ele>
        <time>2017-05-01T09:03:03Z</time>
      </trkpt>
      <trkpt lat="49.25949" lon="1.193">
        <ele>-0.4</ele>
        <time>2017-05-01T09:03:06Z</time>
      </trkpt>
      <trkpt lat="49.25957" lon="1.19288">
        <ele>0.1</ele>
        <time>2017-05-01T09:03:10Z</time>
      </trkpt>
      <trkpt lat="49.25966" lon="1.19284">
        <ele>0.5</ele>
        <time>2017-05-01T09:03:13Z</time>
      </trkpt>
      <trkpt lat="49.25956" lon="1.19288">
        <ele>2.2</ele>
        <time>2017-05-01T09:03:23Z</time>
      </trkpt>
      <trkpt lat="49.25948" lon="1.19305">
        <ele>2.3</ele>
        <time>2017-05-01T09:03:26Z</time>
      </trkpt>
      <trkpt lat="49.25944" lon="1.19322">
        <ele>2.2</ele>
        <time>2017-05-01T09:03:28Z</time>
      </trkpt>
      <trkpt lat="49.25939" lon="1.1934">
        <ele>2.1</ele>
        <time>2017-05-01T09:03:30Z</time>
      </trkpt>
      <trkpt lat="49.25932" lon="1.19356">
        <ele>1.8</ele>
        <time>2017-05-01T09:03:32Z</time>
      </trkpt>
      <trkpt lat="49.25924" lon="1.19367">
        <ele>1.5</ele>
        <time>2017-05-01T09:03:34Z</time>
      </trkpt>
      <trkpt lat="49.25919" lon="1.19384">
        <ele>1.1</ele>
        <time>2017-05-01T09:03:36Z</time>
      </trkpt>
      <trkpt lat="49.25916" lon="1.19399">
        <ele>0.8</ele>
        <time>2017-05-01T09:03:38Z</time>
      </trkpt>
      <trkpt lat="49.25923" lon="1.19412">
        <ele>0.1</ele>
        <time>2017-05-01T09:03:44Z</time>
      </trkpt>
      <trkpt lat="49.25933" lon="1.1942">
        <ele>-0.2</ele>
        <time>2017-05-01T09:03:47Z</time>
      </trkpt>
      <trkpt lat="49.25943" lon="1.19425">
        <ele>-0.4</ele>
        <time>2017-05-01T09:03:49Z</time>
      </trkpt>
      <trkpt lat="49.25951" lon="1.19431">
        <ele>-0.6</ele>
        <time>2017-05-01T09:03:51Z</time>
      </trkpt>
      <trkpt lat="49.25965" lon="1.19439">
        <ele>-1</ele>
        <time>2017-05-01T09:03:54Z</time>
      </trkpt>
      <trkpt lat="49.25976" lon="1.19446">
        <ele>-1.2</ele>
        <time>2017-05-01T09:03:56Z</time>
      </trkpt>
      <trkpt lat="49.25985" lon="1.19452">
        <ele>-1.4</ele>
        <time>2017-05-01T09:03:58Z</time>
      </trkpt>
      <trkpt lat="49.25994" lon="1.19456">
        <ele>-1.6</ele>
        <time>2017-05-01T09:04:00Z</time>
      </trkpt>
      <trkpt lat="49.26002" lon="1.19462">
        <ele>-1.7</ele>
        <time>2017-05-01T09:04:02Z</time>
      </trkpt>
      <trkpt lat="49.26012" lon="1.19468">
        <ele>-1.9</ele>
        <time>2017-05-01T09:04:05Z</time>
      </trkpt>
      <trkpt lat="49.26024" lon="1.19475">
        <ele>-2</ele>
        <time>2017-05-01T09:04:10Z</time>
      </trkpt>
      <trkpt lat="49.26033" lon="1.1948">
        <ele>-2.1</ele>
        <time>2017-05-01T09:04:14Z</time>
      </trkpt>
      <trkpt lat="49.26042" lon="1.19477">
        <ele>-2.2</ele>
        <time>2017-05-01T09:04:17Z</time>
      </trkpt>
      <trkpt lat="49.26047" lon="1.19462">
        <ele>-2.2</ele>
        <time>2017-05-01T09:04:20Z</time>
      </trkpt>
      <trkpt lat="49.2605" lon="1.19445">
        <ele>-2.2</ele>
        <time>2017-05-01T09:04:23Z</time>
      </trkpt>
      <trkpt lat="49.26054" lon="1.19426">
        <ele>-2.2</ele>
        <time>2017-05-01T09:04:26Z</time>
      </trkpt>
      <trkpt lat="49.26057" lon="1.19407">
        <ele>-1.9</ele>
        <time>2017-05-01T09:04:29Z</time>
      </trkpt>
      <trkpt lat="49.26061" lon="1.19388">
        <ele>-1.3</ele>
        <time>2017-05-01T09:04:32Z</time>
      </trkpt>
      <trkpt lat="49.26064" lon="1.19371">
        <ele>-0.8</ele>
        <time>2017-05-01T09:04:35Z</time>
      </trkpt>
      <trkpt lat="49.26067" lon="1.19354">
        <ele>-0.4</ele>
        <time>2017-05-01T09:04:38Z</time>
      </trkpt>
      <trkpt lat="49.26071" lon="1.19336">
        <ele>-0.1</ele>
        <time>2017-05-01T09:04:41Z</time>
      </trkpt>
      <trkpt lat="49.26073" lon="1.19318">
        <ele>0.3</ele>
        <time>2017-05-01T09:04:44Z</time>
      </trkpt>
      <trkpt lat="49.26076" lon="1.19304">
        <ele>0.7</ele>
        <time>2017-05-01T09:04:47Z</time>
      </trkpt>
      <trkpt lat="49.26083" lon="1.19294">
        <ele>1.8</ele>
        <time>2017-05-01T09:04:52Z</time>
      </trkpt>
      <trkpt lat="49.26091" lon="1.19286">
        <ele>3.3</ele>
        <time>2017-05-01T09:04:57Z</time>
      </trkpt>
      <trkpt lat="49.26101" lon="1.19283">
        <ele>4.5</ele>
        <time>2017-05-01T09:05:01Z</time>
      </trkpt>
      <trkpt lat="49.26112" lon="1.19285">
        <ele>5.5</ele>
        <time>2017-05-01T09:05:05Z</time>
      </trkpt>
      <trkpt lat="49.26122" lon="1.19288">
        <ele>6.2</ele>
        <time>2017-05-01T09:05:08Z</time>
      </trkpt>
      <trkpt lat="49.26135" lon="1.19292">
        <ele>6.7</ele>
        <time>2017-05-01T09:05:11Z</time>
      </trkpt>
      <trkpt lat="49.26144" lon="1.19295">
        <ele>6.9</ele>
        <time>2017-05-01T09:05:13Z</time>
      </trkpt>
      <trkpt lat="49.26153" lon="1.19298">
        <ele>7.1</ele>
        <time>2017-05-01T09:05:15Z</time>
      </trkpt>
      <trkpt lat="49.26162" lon="1.19302">
        <ele>7.2</ele>
        <time>2017-05-01T09:05:17Z</time>
      </trkpt>
      <trkpt lat="49.26173" lon="1.1931">
        <ele>7.3</ele>
        <time>2017-05-01T09:05:20Z</time>
      </trkpt>
      <trkpt lat="49.26185" lon="1.19317">
        <ele>7.5</ele>
        <time>2017-05-01T09:05:23Z</time>
      </trkpt>
      <trkpt lat="49.26195" lon="1.19322">
        <ele>7.8</ele>
        <time>2017-05-01T09:05:26Z</time>
      </trkpt>
      <trkpt lat="49.26205" lon="1.19323">
        <ele>8.3</ele>
        <time>2017-05-01T09:05:29Z</time>
      </trkpt>
      <trkpt lat="49.26216" lon="1.19324">
        <ele>9</ele>
        <time>2017-05-01T09:05:32Z</time>
      </trkpt>
      <trkpt lat="49.26225" lon="1.19326">
        <ele>9.7</ele>
        <time>2017-05-01T09:05:35Z</time>
      </trkpt>
      <trkpt lat="49.26235" lon="1.19328">
        <ele>10.3</ele>
        <time>2017-05-01T09:05:38Z</time>
      </trkpt>
      <trkpt lat="49.26245" lon="1.19331">
        <ele>10.8</ele>
        <time>2017-05-01T09:05:41Z</time>
      </trkpt>
      <trkpt lat="49.26254" lon="1.19335">
        <ele>11.3</ele>
        <time>2017-05-01T09:05:44Z</time>
      </trkpt>
      <trkpt lat="49.26264" lon="1.19337">
        <ele>11.8</ele>
        <time>2017-05-01T09:05:47Z</time>
      </trkpt>
      <trkpt lat="49.26276" lon="1.19339">
        <ele>12.2</ele>
        <time>2017-05-01T09:05:50Z</time>
      </trkpt>
      <trkpt lat="49.26287" lon="1.19341">
        <ele>12.6</ele>
        <time>2017-05-01T09:05:53Z</time>
      </trkpt>
      <trkpt lat="49.26298" lon="1.19344">
        <ele>13</ele>
        <time>2017-05-01T09:05:56Z</time>
      </trkpt>
      <trkpt lat="49.2631" lon="1.19348">
        <ele>13.3</ele>
        <time>2017-05-01T09:05:59Z</time>
      </trkpt>
      <trkpt lat="49.26322" lon="1.19353">
        <ele>13.5</ele>
        <time>2017-05-01T09:06:02Z</time>
      </trkpt>
      <trkpt lat="49.26335" lon="1.1936">
        <ele>13.8</ele>
        <time>2017-05-01T09:06:05Z</time>
      </trkpt>
      <trkpt lat="49.26347" lon="1.19366">
        <ele>14.1</ele>
        <time>2017-05-01T09:06:08Z</time>
      </trkpt>
      <trkpt lat="49.2636" lon="1.1937">
        <ele>14.5</ele>
        <time>2017-05-01T09:06:11Z</time>
      </trkpt>
      <trkpt lat="49.26373" lon="1.19371">
        <ele>14.7</ele>
        <time>2017-05-01T09:06:14Z</time>
      </trkpt>
      <trkpt lat="49.26386" lon="1.19373">
        <ele>15</ele>
        <time>2017-05-01T09:06:17Z</time>
      </trkpt>
      <trkpt lat="49.26399" lon="1.19377">
        <ele>15.2</ele>
        <time>2017-05-01T09:06:20Z</time>
      </trkpt>
      <trkpt lat="49.26408" lon="1.19381">
        <ele>15.4</ele>
        <time>2017-05-01T09:06:22Z</time>
      </trkpt>
      <trkpt lat="49.26417" lon="1.19384">
        <ele>15.5</ele>
        <time>2017-05-01T09:06:24Z</time>
      </trkpt>
      <trkpt lat="49.26428" lon="1.19388">
        <ele>15.6</ele>
        <time>2017-05-01T09:06:26Z</time>
      </trkpt>
      <trkpt lat="49.26442" lon="1.1939">
        <ele>15.6</ele>
        <time>2017-05-01T09:06:28Z</time>
      </trkpt>
      <trkpt lat="49.26455" lon="1.19385">
        <ele>15.5</ele>
        <time>2017-05-01T09:06:30Z</time>
      </trkpt>
      <trkpt lat="49.26466" lon="1.19374">
        <ele>15.2</ele>
        <time>2017-05-01T09:06:32Z</time>
      </trkpt>
      <trkpt lat="49.26479" lon="1.19368">
        <ele>14.9</ele>
        <time>2017-05-01T09:06:34Z</time>
      </trkpt>
      <trkpt lat="49.26491" lon="1.19366">
        <ele>14.7</ele>
        <time>2017-05-01T09:06:36Z</time>
      </trkpt>
      <trkpt lat="49.26502" lon="1.19364">
        <ele>14.6</ele>
        <time>2017-05-01T09:06:38Z</time>
      </trkpt>
      <trkpt lat="49.26512" lon="1.19363">
        <ele>14.7</ele>
        <time>2017-05-01T09:06:40Z</time>
      </trkpt>
      <trkpt lat="49.26522" lon="1.19361">
        <ele>14.8</ele>
        <time>2017-05-01T09:06:42Z</time>
      </trkpt>
      <trkpt lat="49.26531" lon="1.1936">
        <ele>14.9</ele>
        <time>2017-05-01T09:06:44Z</time>
      </trkpt>
      <trkpt lat="49.26541" lon="1.19359">
        <ele>15.1</ele>
        <time>2017-05-01T09:06:47Z</time>
      </trkpt>
      <trkpt lat="49.26546" lon="1.19374">
        <ele>15.4</ele>
        <time>2017-05-01T09:06:53Z</time>
      </trkpt>
      <trkpt lat="49.26549" lon="1.19389">
        <ele>15.6</ele>
        <time>2017-05-01T09:06:56Z</time>
      </trkpt>
      <trkpt lat="49.26553" lon="1.19406">
        <ele>15.8</ele>
        <time>2017-05-01T09:06:59Z</time>
      </trkpt>
      <trkpt lat="49.26558" lon="1.19424">
        <ele>15.9</ele>
        <time>2017-05-01T09:07:02Z</time>
      </trkpt>
      <trkpt lat="49.26558" lon="1.19443">
        <ele>15.9</ele>
        <time>2017-05-01T09:07:05Z</time>
      </trkpt>
      <trkpt lat="49.26557" lon="1.19457">
        <ele>16</ele>
        <time>2017-05-01T09:07:07Z</time>
      </trkpt>
      <trkpt lat="49.26555" lon="1.19471">
        <ele>16</ele>
        <time>2017-05-01T09:07:09Z</time>
      </trkpt>
      <trkpt lat="49.26551" lon="1.19484">
        <ele>15.7</ele>
        <time>2017-05-01T09:07:11Z</time>
      </trkpt>
      <trkpt lat="49.26543" lon="1.195">
        <ele>15.5</ele>
        <time>2017-05-01T09:07:14Z</time>
      </trkpt>
      <trkpt lat="49.26544" lon="1.1952">
        <ele>15.3</ele>
        <time>2017-05-01T09:07:17Z</time>
      </trkpt>
      <trkpt lat="49.26545" lon="1.19537">
        <ele>15.2</ele>
        <time>2017-05-01T09:07:20Z</time>
      </trkpt>
      <trkpt lat="49.26546" lon="1.19523">
        <ele>15</ele>
        <time>2017-05-01T09:07:34Z</time>
      </trkpt>
      <trkpt lat="49.26546" lon="1.19509">
        <ele>14.9</ele>
        <time>2017-05-01T09:07:37Z</time>
      </trkpt>
      <trkpt lat="49.26545" lon="1.19493">
        <ele>14.9</ele>
        <time>2017-05-01T09:07:40Z</time>
      </trkpt>
      <trkpt lat="49.26543" lon="1.19475">
        <ele>15</ele>
        <time>2017-05-01T09:07:43Z</time>
      </trkpt>
      <trkpt lat="49.26543" lon="1.19457">
        <ele>15.2</ele>
        <time>2017-05-01T09:07:46Z</time>
      </trkpt>
      <trkpt lat="49.26542" lon="1.19438">
        <ele>15.3</ele>
        <time>2017-05-01T09:07:49Z</time>
      </trkpt>
      <trkpt lat="49.26542" lon="1.19419">
        <ele>15.4</ele>
        <time>2017-05-01T09:07:52Z</time>
      </trkpt>
      <trkpt lat="49.26542" lon="1.194">
        <ele>15.5</ele>
        <time>2017-05-01T09:07:55Z</time>
      </trkpt>
      <trkpt lat="49.26542" lon="1.1938">
        <ele>15.6</ele>
        <time>2017-05-01T09:07:58Z</time>
      </trkpt>
      <trkpt lat="49.26542" lon="1.19361">
        <ele>15.7</ele>
        <time>2017-05-01T09:08:01Z</time>
      </trkpt>
      <trkpt lat="49.26547" lon="1.19342">
        <ele>15.8</ele>
        <time>2017-05-01T09:08:04Z</time>
      </trkpt>
      <trkpt lat="49.26551" lon="1.19328">
        <ele>15.9</ele>
        <time>2017-05-01T09:08:06Z</time>
      </trkpt>
      <trkpt lat="49.26556" lon="1.19316">
        <ele>16</ele>
        <time>2017-05-01T09:08:08Z</time>
      </trkpt>
      <trkpt lat="49.26561" lon="1.19304">
        <ele>16.1</ele>
        <time>2017-05-01T09:08:10Z</time>
      </trkpt>
      <trkpt lat="49.26567" lon="1.19291">
        <ele>16.2</ele>
        <time>2017-05-01T09:08:12Z</time>
      </trkpt>
      <trkpt lat="49.26571" lon="1.19277">
        <ele>16.2</ele>
        <time>2017-05-01T09:08:14Z</time>
      </trkpt>
      <trkpt lat="49.26573" lon="1.19258">
        <ele>16.4</ele>
        <time>2017-05-01T09:08:17Z</time>
      </trkpt>
      <trkpt lat="49.26575" lon="1.19237">
        <ele>16.5</ele>
        <time>2017-05-01T09:08:20Z</time>
      </trkpt>
      <trkpt lat="49.26576" lon="1.19224">
        <ele>16.6</ele>
        <time>2017-05-01T09:08:22Z</time>
      </trkpt>
      <trkpt lat="49.26577" lon="1.19209">
        <ele>16.7</ele>
        <time>2017-05-01T09:08:24Z</time>
      </trkpt>
      <trkpt lat="49.26577" lon="1.19195">
        <ele>16.8</ele>
        <time>2017-05-01T09:08:26Z</time>
      </trkpt>
      <trkpt lat="49.26577" lon="1.19181">
        <ele>16.9</ele>
        <time>2017-05-01T09:08:28Z</time>
      </trkpt>
      <trkpt lat="49.26579" lon="1.1916">
        <ele>17</ele>
        <time>2017-05-01T09:08:31Z</time>
      </trkpt>
      <trkpt lat="49.26581" lon="1.19146">
        <ele>17.1</ele>
        <time>2017-05-01T09:08:33Z</time>
      </trkpt>
      <trkpt lat="49.26582" lon="1.19132">
        <ele>17.2</ele>
        <time>2017-05-01T09:08:35Z</time>
      </trkpt>
      <trkpt lat="49.26583" lon="1.19118">
        <ele>17.2</ele>
        <time>2017-05-01T09:08:37Z</time>
      </trkpt>
      <trkpt lat="49.26586" lon="1.19104">
        <ele>17.3</ele>
        <time>2017-05-01T09:08:39Z</time>
      </trkpt>
      <trkpt lat="49.26589" lon="1.19089">
        <ele>17.4</ele>
        <time>2017-05-01T09:08:41Z</time>
      </trkpt>
      <trkpt lat="49.26591" lon="1.19075">
        <ele>17.4</ele>
        <time>2017-05-01T09:08:43Z</time>
      </trkpt>
      <trkpt lat="49.2659" lon="1.1906">
        <ele>17.5</ele>
        <time>2017-05-01T09:08:45Z</time>
      </trkpt>
      <trkpt lat="49.26591" lon="1.19042">
        <ele>17.5</ele>
        <time>2017-05-01T09:08:48Z</time>
      </trkpt>
      <trkpt lat="49.266" lon="1.19036">
        <ele>17.7</ele>
        <time>2017-05-01T09:08:52Z</time>
      </trkpt>
      <trkpt lat="49.26608" lon="1.19048">
        <ele>17.8</ele>
        <time>2017-05-01T09:08:55Z</time>
      </trkpt>
      <trkpt lat="49.26618" lon="1.19055">
        <ele>17.9</ele>
        <time>2017-05-01T09:08:58Z</time>
      </trkpt>
      <trkpt lat="49.26631" lon="1.19058">
        <ele>18.1</ele>
        <time>2017-05-01T09:09:01Z</time>
      </trkpt>
      <trkpt lat="49.26641" lon="1.1906">
        <ele>18.2</ele>
        <time>2017-05-01T09:09:03Z</time>
      </trkpt>
      <trkpt lat="49.2665" lon="1.19062">
        <ele>18.3</ele>
        <time>2017-05-01T09:09:05Z</time>
      </trkpt>
      <trkpt lat="49.2666" lon="1.19065">
        <ele>18.4</ele>
        <time>2017-05-01T09:09:07Z</time>
      </trkpt>
      <trkpt lat="49.2667" lon="1.19067">
        <ele>18.5</ele>
        <time>2017-05-01T09:09:09Z</time>
      </trkpt>
      <trkpt lat="49.26679" lon="1.1907">
        <ele>18.6</ele>
        <time>2017-05-01T09:09:11Z</time>
      </trkpt>
      <trkpt lat="49.26689" lon="1.19073">
        <ele>18.6</ele>
        <time>2017-05-01T09:09:13Z</time>
      </trkpt>
      <trkpt lat="49.267" lon="1.19077">
        <ele>18.7</ele>
        <time>2017-05-01T09:09:15Z</time>
      </trkpt>
      <trkpt lat="49.2671" lon="1.19081">
        <ele>18.8</ele>
        <time>2017-05-01T09:09:17Z</time>
      </trkpt>
      <trkpt lat="49.26721" lon="1.19086">
        <ele>18.9</ele>
        <time>2017-05-01T09:09:19Z</time>
      </trkpt>
      <trkpt lat="49.26731" lon="1.19091">
        <ele>18.9</ele>
        <time>2017-05-01T09:09:21Z</time>
      </trkpt>
      <trkpt lat="49.26742" lon="1.19097">
        <ele>19</ele>
        <time>2017-05-01T09:09:23Z</time>
      </trkpt>
      <trkpt lat="49.26753" lon="1.19103">
        <ele>19</ele>
        <time>2017-05-01T09:09:25Z</time>
      </trkpt>
      <trkpt lat="49.26764" lon="1.19109">
        <ele>19.1</ele>
        <time>2017-05-01T09:09:27Z</time>
      </trkpt>
      <trkpt lat="49.26775" lon="1.19116">
        <ele>19.3</ele>
        <time>2017-05-01T09:09:29Z</time>
      </trkpt>
      <trkpt lat="49.26786" lon="1.19122">
        <ele>19.4</ele>
        <time>2017-05-01T09:09:31Z</time>
      </trkpt>
      <trkpt lat="49.26798" lon="1.19128">
        <ele>19.4</ele>
        <time>2017-05-01T09:09:33Z</time>
      </trkpt>
      <trkpt lat="49.26809" lon="1.19133">
        <ele>19.5</ele>
        <time>2017-05-01T09:09:35Z</time>
      </trkpt>
      <trkpt lat="49.26821" lon="1.19138">
        <ele>19.6</ele>
        <time>2017-05-01T09:09:37Z</time>
      </trkpt>
      <trkpt lat="49.26833" lon="1.19143">
        <ele>19.6</ele>
        <time>2017-05-01T09:09:39Z</time>
      </trkpt>
      <trkpt lat="49.26845" lon="1.19148">
        <ele>19.6</ele>
        <time>2017-05-01T09:09:41Z</time>
      </trkpt>
      <trkpt lat="49.26858" lon="1.19152">
        <ele>19.7</ele>
        <time>2017-05-01T09:09:43Z</time>
      </trkpt>
      <trkpt lat="49.2687" lon="1.19157">
        <ele>19.7</ele>
        <time>2017-05-01T09:09:45Z</time>
      </trkpt>
      <trkpt lat="49.26883" lon="1.19161">
        <ele>19.7</ele>
        <time>2017-05-01T09:09:47Z</time>
      </trkpt>
      <trkpt lat="49.26895" lon="1.19165">
        <ele>19.7</ele>
        <time>2017-05-01T09:09:49Z</time>
      </trkpt>
      <trkpt lat="49.26907" lon="1.19169">
        <ele>19.8</ele>
        <time>2017-05-01T09:09:51Z</time>
      </trkpt>
      <trkpt lat="49.2692" lon="1.19172">
        <ele>19.8</ele>
        <time>2017-05-01T09:09:53Z</time>
      </trkpt>
      <trkpt lat="49.26932" lon="1.19175">
        <ele>19.8</ele>
        <time>2017-05-01T09:09:55Z</time>
      </trkpt>
      <trkpt lat="49.26945" lon="1.19178">
        <ele>19.8</ele>
        <time>2017-05-01T09:09:57Z</time>
      </trkpt>
      <trkpt lat="49.26957" lon="1.19182">
        <ele>19.9</ele>
        <time>2017-05-01T09:09:59Z</time>
      </trkpt>
      <trkpt lat="49.2697" lon="1.19185">
        <ele>19.9</ele>
        <time>2017-05-01T09:10:01Z</time>
      </trkpt>
      <trkpt lat="49.26982" lon="1.19189">
        <ele>19.9</ele>
        <time>2017-05-01T09:10:03Z</time>
      </trkpt>
      <trkpt lat="49.26994" lon="1.19193">
        <ele>19.9</ele>
        <time>2017-05-01T09:10:05Z</time>
      </trkpt>
      <trkpt lat="49.27006" lon="1.19197">
        <ele>20</ele>
        <time>2017-05-01T09:10:07Z</time>
      </trkpt>
      <trkpt lat="49.27018" lon="1.19201">
        <ele>20</ele>
        <time>2017-05-01T09:10:09Z</time>
      </trkpt>
      <trkpt lat="49.27031" lon="1.19205">
        <ele>20.1</ele>
        <time>2017-05-01T09:10:11Z</time>
      </trkpt>
      <trkpt lat="49.27043" lon="1.1921">
        <ele>20.1</ele>
        <time>2017-05-01T09:10:13Z</time>
      </trkpt>
      <trkpt lat="49.27055" lon="1.19215">
        <ele>20.2</ele>
        <time>2017-05-01T09:10:15Z</time>
      </trkpt>
      <trkpt lat="49.27068" lon="1.19219">
        <ele>20.3</ele>
        <time>2017-05-01T09:10:17Z</time>
      </trkpt>
      <trkpt lat="49.27081" lon="1.19223">
        <ele>20.3</ele>
        <time>2017-05-01T09:10:19Z</time>
      </trkpt>
      <trkpt lat="49.27093" lon="1.19228">
        <ele>20.4</ele>
        <time>2017-05-01T09:10:21Z</time>
      </trkpt>
      <trkpt lat="49.27106" lon="1.19232">
        <ele>20.4</ele>
        <time>2017-05-01T09:10:23Z</time>
      </trkpt>
      <trkpt lat="49.27118" lon="1.19237">
        <ele>20.5</ele>
        <time>2017-05-01T09:10:25Z</time>
      </trkpt>
      <trkpt lat="49.27131" lon="1.19241">
        <ele>20.6</ele>
        <time>2017-05-01T09:10:27Z</time>
      </trkpt>
      <trkpt lat="49.27143" lon="1.19246">
        <ele>20.6</ele>
        <time>2017-05-01T09:10:29Z</time>
      </trkpt>
      <trkpt lat="49.27155" lon="1.19252">
        <ele>20.7</ele>
        <time>2017-05-01T09:10:31Z</time>
      </trkpt>
      <trkpt lat="49.27167" lon="1.19257">
        <ele>20.8</ele>
        <time>2017-05-01T09:10:33Z</time>
      </trkpt>
      <trkpt lat="49.27178" lon="1.19262">
        <ele>20.9</ele>
        <time>2017-05-01T09:10:35Z</time>
      </trkpt>
      <trkpt lat="49.27189" lon="1.19267">
        <ele>21</ele>
        <time>2017-05-01T09:10:37Z</time>
      </trkpt>
      <trkpt lat="49.27199" lon="1.19271">
        <ele>21.2</ele>
        <time>2017-05-01T09:10:39Z</time>
      </trkpt>
      <trkpt lat="49.27208" lon="1.19278">
        <ele>21.4</ele>
        <time>2017-05-01T09:10:41Z</time>
      </trkpt>
      <trkpt lat="49.2721" lon="1.19292">
        <ele>21.5</ele>
        <time>2017-05-01T09:10:43Z</time>
      </trkpt>
      <trkpt lat="49.27208" lon="1.19309">
        <ele>21.6</ele>
        <time>2017-05-01T09:10:45Z</time>
      </trkpt>
      <trkpt lat="49.27205" lon="1.19327">
        <ele>21.6</ele>
        <time>2017-05-01T09:10:47Z</time>
      </trkpt>
      <trkpt lat="49.27203" lon="1.19345">
        <ele>21.6</ele>
        <time>2017-05-01T09:10:49Z</time>
      </trkpt>
      <trkpt lat="49.27201" lon="1.19363">
        <ele>21.6</ele>
        <time>2017-05-01T09:10:51Z</time>
      </trkpt>
      <trkpt lat="49.27199" lon="1.1938">
        <ele>21.5</ele>
        <time>2017-05-01T09:10:53Z</time>
      </trkpt>
      <trkpt lat="49.27197" lon="1.19398">
        <ele>21.4</ele>
        <time>2017-05-01T09:10:55Z</time>
      </trkpt>
      <trkpt lat="49.27195" lon="1.19416">
        <ele>21.2</ele>
        <time>2017-05-01T09:10:57Z</time>
      </trkpt>
      <trkpt lat="49.27193" lon="1.19434">
        <ele>21.1</ele>
        <time>2017-05-01T09:10:59Z</time>
      </trkpt>
      <trkpt lat="49.27191" lon="1.19453">
        <ele>21</ele>
        <time>2017-05-01T09:11:01Z</time>
      </trkpt>
      <trkpt lat="49.27189" lon="1.19473">
        <ele>20.8</ele>
        <time>2017-05-01T09:11:03Z</time>
      </trkpt>
      <trkpt lat="49.27187" lon="1.19493">
        <ele>20.7</ele>
        <time>2017-05-01T09:11:05Z</time>
      </trkpt>
      <trkpt lat="49.27191" lon="1.19513">
        <ele>20.5</ele>
        <time>2017-05-01T09:11:07Z</time>
      </trkpt>
      <trkpt lat="49.27197" lon="1.1953">
        <ele>20.3</ele>
        <time>2017-05-01T09:11:09Z</time>
      </trkpt>
      <trkpt lat="49.27204" lon="1.19548">
        <ele>20.1</ele>
        <time>2017-05-01T09:11:11Z</time>
      </trkpt>
      <trkpt lat="49.27213" lon="1.19561">
        <ele>19.9</ele>
        <time>2017-05-01T09:11:13Z</time>
      </trkpt>
      <trkpt lat="49.27224" lon="1.19565">
        <ele>19.7</ele>
        <time>2017-05-01T09:11:15Z</time>
      </trkpt>
      <trkpt lat="49.27231" lon="1.19576">
        <ele>19.5</ele>
        <time>2017-05-01T09:11:17Z</time>
      </trkpt>
      <trkpt lat="49.27232" lon="1.19591">
        <ele>19.2</ele>
        <time>2017-05-01T09:11:19Z</time>
      </trkpt>
      <trkpt lat="49.27239" lon="1.19607">
        <ele>18.8</ele>
        <time>2017-05-01T09:11:22Z</time>
      </trkpt>
      <trkpt lat="49.27245" lon="1.19623">
        <ele>18.4</ele>
        <time>2017-05-01T09:11:25Z</time>
      </trkpt>
      <trkpt lat="49.27252" lon="1.1964">
        <ele>18.1</ele>
        <time>2017-05-01T09:11:28Z</time>
      </trkpt>
      <trkpt lat="49.27257" lon="1.19652">
        <ele>18</ele>
        <time>2017-05-01T09:11:30Z</time>
      </trkpt>
      <trkpt lat="49.2726" lon="1.19666">
        <ele>17.8</ele>
        <time>2017-05-01T09:11:32Z</time>
      </trkpt>
      <trkpt lat="49.27265" lon="1.19685">
        <ele>17.4</ele>
        <time>2017-05-01T09:11:35Z</time>
      </trkpt>
      <trkpt lat="49.2727" lon="1.19702">
        <ele>17</ele>
        <time>2017-05-01T09:11:38Z</time>
      </trkpt>
      <trkpt lat="49.27262" lon="1.19715">
        <ele>16.8</ele>
        <time>2017-05-01T09:11:41Z</time>
      </trkpt>
      <trkpt lat="49.27251" lon="1.19726">
        <ele>16.6</ele>
        <time>2017-05-01T09:11:44Z</time>
      </trkpt>
      <trkpt lat="49.27242" lon="1.19732">
        <ele>16.4</ele>
        <time>2017-05-01T09:11:46Z</time>
      </trkpt>
      <trkpt lat="49.27231" lon="1.19731">
        <ele>16.2</ele>
        <time>2017-05-01T09:11:49Z</time>
      </trkpt>
      <trkpt lat="49.2722" lon="1.19741">
        <ele>16</ele>
        <time>2017-05-01T09:11:53Z</time>
      </trkpt>
      <trkpt lat="49.27214" lon="1.19755">
        <ele>15.7</ele>
        <time>2017-05-01T09:11:56Z</time>
      </trkpt>
      <trkpt lat="49.2721" lon="1.19773">
        <ele>15.4</ele>
        <time>2017-05-01T09:11:59Z</time>
      </trkpt>
      <trkpt lat="49.27208" lon="1.1979">
        <ele>15.1</ele>
        <time>2017-05-01T09:12:02Z</time>
      </trkpt>
      <trkpt lat="49.27206" lon="1.19807">
        <ele>14.9</ele>
        <time>2017-05-01T09:12:05Z</time>
      </trkpt>
      <trkpt lat="49.27204" lon="1.19825">
        <ele>14.7</ele>
        <time>2017-05-01T09:12:08Z</time>
      </trkpt>
      <trkpt lat="49.27201" lon="1.19839">
        <ele>14.5</ele>
        <time>2017-05-01T09:12:11Z</time>
      </trkpt>
      <trkpt lat="49.2719" lon="1.19846">
        <ele>14.3</ele>
        <time>2017-05-01T09:12:15Z</time>
      </trkpt>
      <trkpt lat="49.2718" lon="1.19846">
        <ele>14.1</ele>
        <time>2017-05-01T09:12:20Z</time>
      </trkpt>
      <trkpt lat="49.27179" lon="1.19845">
        <ele>13.7</ele>
        <time>2017-05-01T09:12:32Z</time>
      </trkpt>
    </trkseg>
  </trk>
</gpx>